<?xml version="1.0" encoding="utf-8"?>
<gpx xmlns:xsi="http://www.w3.org/2001/XMLSchema-instance" xmlns:xsd="http://www.w3.org/2001/XMLSchema" version="1.1" creator="Shapelink.com" xmlns="http://www.topografix.com/GPX/1/1" xmlns:gpxtpx="http://www.garmin.com/xmlschemas/TrackPointExtension/v1">
  <metadata>
    <name>Cykling - Trainer 25.49 km, 2020-05-29</name>
    <desc></desc>
    <author><name>Alexander Engvall</name></author> 
    <time>2020-05-29T20:09:18Z</time>
  </metadata>
  <trk>
    <name>Cykling - Trainer 25.49 km, 2020-05-29</name>
    <trkseg>
      <trkpt lat="44.154533" lon="5.128866">
        <ele>376</ele>
        <time>2020-05-29T20:09:18Z</time>
      </trkpt>
      <trkpt lat="44.154545" lon="5.128909">
        <ele>376.2</ele>
        <time>2020-05-29T20:09:19Z</time>
      </trkpt>
      <trkpt lat="44.154556" lon="5.128976">
        <ele>376.6</ele>
        <time>2020-05-29T20:09:20Z</time>
      </trkpt>
      <trkpt lat="44.154564" lon="5.129037">
        <ele>377</ele>
        <time>2020-05-29T20:09:21Z</time>
      </trkpt>
      <trkpt lat="44.154575" lon="5.12911">
        <ele>377.4</ele>
        <time>2020-05-29T20:09:22Z</time>
      </trkpt>
      <trkpt lat="44.154587" lon="5.129166">
        <ele>377.7</ele>
        <time>2020-05-29T20:09:23Z</time>
      </trkpt>
      <trkpt lat="44.154598" lon="5.129221">
        <ele>378.1</ele>
        <time>2020-05-29T20:09:24Z</time>
      </trkpt>
      <trkpt lat="44.15461" lon="5.129282">
        <ele>378.4</ele>
        <time>2020-05-29T20:09:26Z</time>
      </trkpt>
      <trkpt lat="44.154625" lon="5.129332">
        <ele>378.7</ele>
        <time>2020-05-29T20:09:27Z</time>
      </trkpt>
      <trkpt lat="44.154655" lon="5.129389">
        <ele>379</ele>
        <time>2020-05-29T20:09:28Z</time>
      </trkpt>
      <trkpt lat="44.154697" lon="5.129446">
        <ele>379.4</ele>
        <time>2020-05-29T20:09:29Z</time>
      </trkpt>
      <trkpt lat="44.154751" lon="5.1295">
        <ele>379.8</ele>
        <time>2020-05-29T20:09:30Z</time>
      </trkpt>
      <trkpt lat="44.154816" lon="5.129548">
        <ele>380</ele>
        <time>2020-05-29T20:09:31Z</time>
      </trkpt>
      <trkpt lat="44.154877" lon="5.129574">
        <ele>380.1</ele>
        <time>2020-05-29T20:09:32Z</time>
      </trkpt>
      <trkpt lat="44.154961" lon="5.129584">
        <ele>380.3</ele>
        <time>2020-05-29T20:09:34Z</time>
      </trkpt>
      <trkpt lat="44.155033" lon="5.12958">
        <ele>380.4</ele>
        <time>2020-05-29T20:09:35Z</time>
      </trkpt>
      <trkpt lat="44.155121" lon="5.12956">
        <ele>380.4</ele>
        <time>2020-05-29T20:09:36Z</time>
      </trkpt>
      <trkpt lat="44.155193" lon="5.129534">
        <ele>380.4</ele>
        <time>2020-05-29T20:09:37Z</time>
      </trkpt>
      <trkpt lat="44.155266" lon="5.129503">
        <ele>380.4</ele>
        <time>2020-05-29T20:09:38Z</time>
      </trkpt>
      <trkpt lat="44.15535" lon="5.129462">
        <ele>380.5</ele>
        <time>2020-05-29T20:09:39Z</time>
      </trkpt>
      <trkpt lat="44.155434" lon="5.12942">
        <ele>380.6</ele>
        <time>2020-05-29T20:09:40Z</time>
      </trkpt>
      <trkpt lat="44.155514" lon="5.12938">
        <ele>380.7</ele>
        <time>2020-05-29T20:09:41Z</time>
      </trkpt>
      <trkpt lat="44.155598" lon="5.129335">
        <ele>380.8</ele>
        <time>2020-05-29T20:09:43Z</time>
      </trkpt>
      <trkpt lat="44.155659" lon="5.129299">
        <ele>381</ele>
        <time>2020-05-29T20:09:44Z</time>
      </trkpt>
      <trkpt lat="44.155731" lon="5.129257">
        <ele>381.2</ele>
        <time>2020-05-29T20:09:45Z</time>
      </trkpt>
      <trkpt lat="44.155792" lon="5.129221">
        <ele>381.5</ele>
        <time>2020-05-29T20:09:46Z</time>
      </trkpt>
      <trkpt lat="44.155865" lon="5.12918">
        <ele>381.8</ele>
        <time>2020-05-29T20:09:47Z</time>
      </trkpt>
      <trkpt lat="44.155926" lon="5.129146">
        <ele>382</ele>
        <time>2020-05-29T20:09:48Z</time>
      </trkpt>
      <trkpt lat="44.155983" lon="5.129114">
        <ele>382.3</ele>
        <time>2020-05-29T20:09:49Z</time>
      </trkpt>
      <trkpt lat="44.156044" lon="5.12908">
        <ele>382.5</ele>
        <time>2020-05-29T20:09:50Z</time>
      </trkpt>
      <trkpt lat="44.156116" lon="5.129041">
        <ele>382.9</ele>
        <time>2020-05-29T20:09:51Z</time>
      </trkpt>
      <trkpt lat="44.156177" lon="5.129007">
        <ele>383.1</ele>
        <time>2020-05-29T20:09:52Z</time>
      </trkpt>
      <trkpt lat="44.15625" lon="5.128967">
        <ele>383.5</ele>
        <time>2020-05-29T20:09:53Z</time>
      </trkpt>
      <trkpt lat="44.156322" lon="5.128924">
        <ele>383.8</ele>
        <time>2020-05-29T20:09:55Z</time>
      </trkpt>
      <trkpt lat="44.156399" lon="5.128881">
        <ele>384.1</ele>
        <time>2020-05-29T20:09:56Z</time>
      </trkpt>
      <trkpt lat="44.15646" lon="5.128848">
        <ele>384.3</ele>
        <time>2020-05-29T20:09:57Z</time>
      </trkpt>
      <trkpt lat="44.156528" lon="5.128809">
        <ele>384.6</ele>
        <time>2020-05-29T20:09:58Z</time>
      </trkpt>
      <trkpt lat="44.156597" lon="5.128767">
        <ele>384.9</ele>
        <time>2020-05-29T20:09:59Z</time>
      </trkpt>
      <trkpt lat="44.156662" lon="5.128732">
        <ele>385.2</ele>
        <time>2020-05-29T20:10:00Z</time>
      </trkpt>
      <trkpt lat="44.156731" lon="5.128691">
        <ele>385.5</ele>
        <time>2020-05-29T20:10:02Z</time>
      </trkpt>
      <trkpt lat="44.156784" lon="5.12866">
        <ele>385.7</ele>
        <time>2020-05-29T20:10:03Z</time>
      </trkpt>
      <trkpt lat="44.156841" lon="5.128627">
        <ele>386</ele>
        <time>2020-05-29T20:10:04Z</time>
      </trkpt>
      <trkpt lat="44.156902" lon="5.12859">
        <ele>386.3</ele>
        <time>2020-05-29T20:10:05Z</time>
      </trkpt>
      <trkpt lat="44.156967" lon="5.128551">
        <ele>386.6</ele>
        <time>2020-05-29T20:10:06Z</time>
      </trkpt>
      <trkpt lat="44.157032" lon="5.128511">
        <ele>386.9</ele>
        <time>2020-05-29T20:10:07Z</time>
      </trkpt>
      <trkpt lat="44.157089" lon="5.128476">
        <ele>387.2</ele>
        <time>2020-05-29T20:10:08Z</time>
      </trkpt>
      <trkpt lat="44.15715" lon="5.128433">
        <ele>387.5</ele>
        <time>2020-05-29T20:10:09Z</time>
      </trkpt>
      <trkpt lat="44.157215" lon="5.128389">
        <ele>387.8</ele>
        <time>2020-05-29T20:10:11Z</time>
      </trkpt>
      <trkpt lat="44.15728" lon="5.128344">
        <ele>388.2</ele>
        <time>2020-05-29T20:10:12Z</time>
      </trkpt>
      <trkpt lat="44.157333" lon="5.128304">
        <ele>388.5</ele>
        <time>2020-05-29T20:10:13Z</time>
      </trkpt>
      <trkpt lat="44.157383" lon="5.128266">
        <ele>388.8</ele>
        <time>2020-05-29T20:10:14Z</time>
      </trkpt>
      <trkpt lat="44.157444" lon="5.128217">
        <ele>389.2</ele>
        <time>2020-05-29T20:10:15Z</time>
      </trkpt>
      <trkpt lat="44.157494" lon="5.128172">
        <ele>389.6</ele>
        <time>2020-05-29T20:10:16Z</time>
      </trkpt>
      <trkpt lat="44.157551" lon="5.12812">
        <ele>390</ele>
        <time>2020-05-29T20:10:17Z</time>
      </trkpt>
      <trkpt lat="44.157604" lon="5.128066">
        <ele>390.3</ele>
        <time>2020-05-29T20:10:18Z</time>
      </trkpt>
      <trkpt lat="44.157654" lon="5.128009">
        <ele>390.7</ele>
        <time>2020-05-29T20:10:20Z</time>
      </trkpt>
      <trkpt lat="44.157703" lon="5.12795">
        <ele>391</ele>
        <time>2020-05-29T20:10:21Z</time>
      </trkpt>
      <trkpt lat="44.157742" lon="5.127902">
        <ele>391.3</ele>
        <time>2020-05-29T20:10:22Z</time>
      </trkpt>
      <trkpt lat="44.15778" lon="5.127851">
        <ele>391.6</ele>
        <time>2020-05-29T20:10:23Z</time>
      </trkpt>
      <trkpt lat="44.157818" lon="5.127798">
        <ele>391.9</ele>
        <time>2020-05-29T20:10:24Z</time>
      </trkpt>
      <trkpt lat="44.157856" lon="5.127747">
        <ele>392.2</ele>
        <time>2020-05-29T20:10:25Z</time>
      </trkpt>
      <trkpt lat="44.157894" lon="5.127693">
        <ele>392.5</ele>
        <time>2020-05-29T20:10:26Z</time>
      </trkpt>
      <trkpt lat="44.15794" lon="5.127631">
        <ele>392.9</ele>
        <time>2020-05-29T20:10:27Z</time>
      </trkpt>
      <trkpt lat="44.157978" lon="5.12758">
        <ele>393.2</ele>
        <time>2020-05-29T20:10:28Z</time>
      </trkpt>
      <trkpt lat="44.158012" lon="5.127531">
        <ele>393.4</ele>
        <time>2020-05-29T20:10:29Z</time>
      </trkpt>
      <trkpt lat="44.158054" lon="5.127479">
        <ele>393.8</ele>
        <time>2020-05-29T20:10:30Z</time>
      </trkpt>
      <trkpt lat="44.158096" lon="5.127421">
        <ele>394.1</ele>
        <time>2020-05-29T20:10:31Z</time>
      </trkpt>
      <trkpt lat="44.158146" lon="5.127359">
        <ele>394.5</ele>
        <time>2020-05-29T20:10:32Z</time>
      </trkpt>
      <trkpt lat="44.158184" lon="5.127311">
        <ele>394.7</ele>
        <time>2020-05-29T20:10:33Z</time>
      </trkpt>
      <trkpt lat="44.15823" lon="5.127252">
        <ele>395</ele>
        <time>2020-05-29T20:10:35Z</time>
      </trkpt>
      <trkpt lat="44.158276" lon="5.127193">
        <ele>395.4</ele>
        <time>2020-05-29T20:10:36Z</time>
      </trkpt>
      <trkpt lat="44.158314" lon="5.127146">
        <ele>395.6</ele>
        <time>2020-05-29T20:10:37Z</time>
      </trkpt>
      <trkpt lat="44.158348" lon="5.127099">
        <ele>395.9</ele>
        <time>2020-05-29T20:10:38Z</time>
      </trkpt>
      <trkpt lat="44.158394" lon="5.127041">
        <ele>396.2</ele>
        <time>2020-05-29T20:10:39Z</time>
      </trkpt>
      <trkpt lat="44.15844" lon="5.126984">
        <ele>396.6</ele>
        <time>2020-05-29T20:10:40Z</time>
      </trkpt>
      <trkpt lat="44.158485" lon="5.126926">
        <ele>396.9</ele>
        <time>2020-05-29T20:10:41Z</time>
      </trkpt>
      <trkpt lat="44.158527" lon="5.126869">
        <ele>397.2</ele>
        <time>2020-05-29T20:10:43Z</time>
      </trkpt>
      <trkpt lat="44.158573" lon="5.126813">
        <ele>397.5</ele>
        <time>2020-05-29T20:10:44Z</time>
      </trkpt>
      <trkpt lat="44.158615" lon="5.126757">
        <ele>397.9</ele>
        <time>2020-05-29T20:10:45Z</time>
      </trkpt>
      <trkpt lat="44.158657" lon="5.126705">
        <ele>398.2</ele>
        <time>2020-05-29T20:10:46Z</time>
      </trkpt>
      <trkpt lat="44.158695" lon="5.126658">
        <ele>398.4</ele>
        <time>2020-05-29T20:10:47Z</time>
      </trkpt>
      <trkpt lat="44.15873" lon="5.126613">
        <ele>398.7</ele>
        <time>2020-05-29T20:10:48Z</time>
      </trkpt>
      <trkpt lat="44.158771" lon="5.126558">
        <ele>398.9</ele>
        <time>2020-05-29T20:10:49Z</time>
      </trkpt>
      <trkpt lat="44.15881" lon="5.126507">
        <ele>399.2</ele>
        <time>2020-05-29T20:10:51Z</time>
      </trkpt>
      <trkpt lat="44.158844" lon="5.126462">
        <ele>399.4</ele>
        <time>2020-05-29T20:10:52Z</time>
      </trkpt>
      <trkpt lat="44.158886" lon="5.126408">
        <ele>399.6</ele>
        <time>2020-05-29T20:10:53Z</time>
      </trkpt>
      <trkpt lat="44.158928" lon="5.126357">
        <ele>399.8</ele>
        <time>2020-05-29T20:10:54Z</time>
      </trkpt>
      <trkpt lat="44.15897" lon="5.126303">
        <ele>400</ele>
        <time>2020-05-29T20:10:55Z</time>
      </trkpt>
      <trkpt lat="44.159004" lon="5.126257">
        <ele>400.2</ele>
        <time>2020-05-29T20:10:56Z</time>
      </trkpt>
      <trkpt lat="44.159039" lon="5.126212">
        <ele>400.3</ele>
        <time>2020-05-29T20:10:57Z</time>
      </trkpt>
      <trkpt lat="44.159073" lon="5.126167">
        <ele>400.4</ele>
        <time>2020-05-29T20:10:58Z</time>
      </trkpt>
      <trkpt lat="44.159107" lon="5.126121">
        <ele>400.5</ele>
        <time>2020-05-29T20:10:59Z</time>
      </trkpt>
      <trkpt lat="44.159145" lon="5.126076">
        <ele>400.6</ele>
        <time>2020-05-29T20:11:00Z</time>
      </trkpt>
      <trkpt lat="44.15918" lon="5.126031">
        <ele>400.7</ele>
        <time>2020-05-29T20:11:01Z</time>
      </trkpt>
      <trkpt lat="44.159225" lon="5.125977">
        <ele>400.8</ele>
        <time>2020-05-29T20:11:02Z</time>
      </trkpt>
      <trkpt lat="44.159267" lon="5.125928">
        <ele>400.8</ele>
        <time>2020-05-29T20:11:04Z</time>
      </trkpt>
      <trkpt lat="44.159306" lon="5.12588">
        <ele>400.9</ele>
        <time>2020-05-29T20:11:05Z</time>
      </trkpt>
      <trkpt lat="44.159336" lon="5.125845">
        <ele>401</ele>
        <time>2020-05-29T20:11:06Z</time>
      </trkpt>
      <trkpt lat="44.15937" lon="5.125803">
        <ele>401.1</ele>
        <time>2020-05-29T20:11:07Z</time>
      </trkpt>
      <trkpt lat="44.159401" lon="5.12577">
        <ele>401.2</ele>
        <time>2020-05-29T20:11:08Z</time>
      </trkpt>
      <trkpt lat="44.159435" lon="5.125736">
        <ele>401.3</ele>
        <time>2020-05-29T20:11:09Z</time>
      </trkpt>
      <trkpt lat="44.159466" lon="5.125712">
        <ele>401.4</ele>
        <time>2020-05-29T20:11:10Z</time>
      </trkpt>
      <trkpt lat="44.1595" lon="5.125696">
        <ele>401.4</ele>
        <time>2020-05-29T20:11:11Z</time>
      </trkpt>
      <trkpt lat="44.159538" lon="5.125681">
        <ele>401.5</ele>
        <time>2020-05-29T20:11:12Z</time>
      </trkpt>
      <trkpt lat="44.159588" lon="5.125673">
        <ele>401.6</ele>
        <time>2020-05-29T20:11:14Z</time>
      </trkpt>
      <trkpt lat="44.15963" lon="5.125673">
        <ele>401.7</ele>
        <time>2020-05-29T20:11:15Z</time>
      </trkpt>
      <trkpt lat="44.159695" lon="5.125682">
        <ele>401.8</ele>
        <time>2020-05-29T20:11:16Z</time>
      </trkpt>
      <trkpt lat="44.159759" lon="5.1257">
        <ele>402.1</ele>
        <time>2020-05-29T20:11:17Z</time>
      </trkpt>
      <trkpt lat="44.159824" lon="5.125729">
        <ele>402.2</ele>
        <time>2020-05-29T20:11:18Z</time>
      </trkpt>
      <trkpt lat="44.159889" lon="5.125774">
        <ele>402.2</ele>
        <time>2020-05-29T20:11:19Z</time>
      </trkpt>
      <trkpt lat="44.159962" lon="5.125833">
        <ele>402.3</ele>
        <time>2020-05-29T20:11:21Z</time>
      </trkpt>
      <trkpt lat="44.160042" lon="5.125902">
        <ele>402.3</ele>
        <time>2020-05-29T20:11:22Z</time>
      </trkpt>
      <trkpt lat="44.160118" lon="5.12597">
        <ele>402.4</ele>
        <time>2020-05-29T20:11:23Z</time>
      </trkpt>
      <trkpt lat="44.160191" lon="5.126039">
        <ele>402.4</ele>
        <time>2020-05-29T20:11:24Z</time>
      </trkpt>
      <trkpt lat="44.16029" lon="5.126129">
        <ele>402.4</ele>
        <time>2020-05-29T20:11:25Z</time>
      </trkpt>
      <trkpt lat="44.160374" lon="5.126207">
        <ele>402.3</ele>
        <time>2020-05-29T20:11:26Z</time>
      </trkpt>
      <trkpt lat="44.160477" lon="5.126306">
        <ele>402.2</ele>
        <time>2020-05-29T20:11:27Z</time>
      </trkpt>
      <trkpt lat="44.16058" lon="5.126402">
        <ele>402.1</ele>
        <time>2020-05-29T20:11:28Z</time>
      </trkpt>
      <trkpt lat="44.160664" lon="5.126487">
        <ele>402.2</ele>
        <time>2020-05-29T20:11:29Z</time>
      </trkpt>
      <trkpt lat="44.160732" lon="5.12657">
        <ele>402.2</ele>
        <time>2020-05-29T20:11:30Z</time>
      </trkpt>
      <trkpt lat="44.160793" lon="5.126647">
        <ele>402.2</ele>
        <time>2020-05-29T20:11:31Z</time>
      </trkpt>
      <trkpt lat="44.160847" lon="5.126733">
        <ele>402.2</ele>
        <time>2020-05-29T20:11:33Z</time>
      </trkpt>
      <trkpt lat="44.160889" lon="5.1268">
        <ele>402.2</ele>
        <time>2020-05-29T20:11:34Z</time>
      </trkpt>
      <trkpt lat="44.160923" lon="5.12687">
        <ele>402.1</ele>
        <time>2020-05-29T20:11:35Z</time>
      </trkpt>
      <trkpt lat="44.16095" lon="5.126925">
        <ele>402.1</ele>
        <time>2020-05-29T20:11:36Z</time>
      </trkpt>
      <trkpt lat="44.160976" lon="5.126974">
        <ele>402.1</ele>
        <time>2020-05-29T20:11:37Z</time>
      </trkpt>
      <trkpt lat="44.160995" lon="5.127018">
        <ele>402</ele>
        <time>2020-05-29T20:11:38Z</time>
      </trkpt>
      <trkpt lat="44.161018" lon="5.127065">
        <ele>402</ele>
        <time>2020-05-29T20:11:39Z</time>
      </trkpt>
      <trkpt lat="44.161037" lon="5.127112">
        <ele>401.9</ele>
        <time>2020-05-29T20:11:40Z</time>
      </trkpt>
      <trkpt lat="44.16106" lon="5.127166">
        <ele>401.9</ele>
        <time>2020-05-29T20:11:41Z</time>
      </trkpt>
      <trkpt lat="44.161079" lon="5.127222">
        <ele>401.8</ele>
        <time>2020-05-29T20:11:42Z</time>
      </trkpt>
      <trkpt lat="44.161102" lon="5.127282">
        <ele>401.7</ele>
        <time>2020-05-29T20:11:44Z</time>
      </trkpt>
      <trkpt lat="44.161121" lon="5.127335">
        <ele>401.6</ele>
        <time>2020-05-29T20:11:45Z</time>
      </trkpt>
      <trkpt lat="44.161148" lon="5.127402">
        <ele>401.4</ele>
        <time>2020-05-29T20:11:46Z</time>
      </trkpt>
      <trkpt lat="44.161167" lon="5.127458">
        <ele>401.2</ele>
        <time>2020-05-29T20:11:47Z</time>
      </trkpt>
      <trkpt lat="44.161186" lon="5.127514">
        <ele>401.1</ele>
        <time>2020-05-29T20:11:48Z</time>
      </trkpt>
      <trkpt lat="44.161209" lon="5.127582">
        <ele>400.9</ele>
        <time>2020-05-29T20:11:49Z</time>
      </trkpt>
      <trkpt lat="44.161228" lon="5.127636">
        <ele>400.7</ele>
        <time>2020-05-29T20:11:50Z</time>
      </trkpt>
      <trkpt lat="44.161247" lon="5.127699">
        <ele>400.6</ele>
        <time>2020-05-29T20:11:51Z</time>
      </trkpt>
      <trkpt lat="44.161266" lon="5.127752">
        <ele>400.4</ele>
        <time>2020-05-29T20:11:52Z</time>
      </trkpt>
      <trkpt lat="44.161285" lon="5.127806">
        <ele>400.3</ele>
        <time>2020-05-29T20:11:53Z</time>
      </trkpt>
      <trkpt lat="44.161304" lon="5.127872">
        <ele>400.1</ele>
        <time>2020-05-29T20:11:54Z</time>
      </trkpt>
      <trkpt lat="44.161324" lon="5.127924">
        <ele>400</ele>
        <time>2020-05-29T20:11:55Z</time>
      </trkpt>
      <trkpt lat="44.161346" lon="5.127988">
        <ele>399.8</ele>
        <time>2020-05-29T20:11:57Z</time>
      </trkpt>
      <trkpt lat="44.161365" lon="5.12805">
        <ele>399.7</ele>
        <time>2020-05-29T20:11:58Z</time>
      </trkpt>
      <trkpt lat="44.161388" lon="5.128115">
        <ele>399.6</ele>
        <time>2020-05-29T20:11:59Z</time>
      </trkpt>
      <trkpt lat="44.161407" lon="5.128168">
        <ele>399.5</ele>
        <time>2020-05-29T20:12:00Z</time>
      </trkpt>
      <trkpt lat="44.16143" lon="5.128226">
        <ele>399.5</ele>
        <time>2020-05-29T20:12:01Z</time>
      </trkpt>
      <trkpt lat="44.161453" lon="5.12828">
        <ele>399.4</ele>
        <time>2020-05-29T20:12:02Z</time>
      </trkpt>
      <trkpt lat="44.161468" lon="5.128327">
        <ele>399.3</ele>
        <time>2020-05-29T20:12:04Z</time>
      </trkpt>
      <trkpt lat="44.16148" lon="5.128361">
        <ele>399.2</ele>
        <time>2020-05-29T20:12:05Z</time>
      </trkpt>
      <trkpt lat="44.161491" lon="5.128391">
        <ele>399.2</ele>
        <time>2020-05-29T20:12:06Z</time>
      </trkpt>
      <trkpt lat="44.161507" lon="5.128433">
        <ele>399.1</ele>
        <time>2020-05-29T20:12:07Z</time>
      </trkpt>
      <trkpt lat="44.161529" lon="5.128492">
        <ele>399</ele>
        <time>2020-05-29T20:12:08Z</time>
      </trkpt>
      <trkpt lat="44.161571" lon="5.128566">
        <ele>398.9</ele>
        <time>2020-05-29T20:12:10Z</time>
      </trkpt>
      <trkpt lat="44.161629" lon="5.128643">
        <ele>398.8</ele>
        <time>2020-05-29T20:12:11Z</time>
      </trkpt>
      <trkpt lat="44.161705" lon="5.128724">
        <ele>398.7</ele>
        <time>2020-05-29T20:12:12Z</time>
      </trkpt>
      <trkpt lat="44.161774" lon="5.128791">
        <ele>398.7</ele>
        <time>2020-05-29T20:12:13Z</time>
      </trkpt>
      <trkpt lat="44.161861" lon="5.128873">
        <ele>398.6</ele>
        <time>2020-05-29T20:12:14Z</time>
      </trkpt>
      <trkpt lat="44.161953" lon="5.128962">
        <ele>398.5</ele>
        <time>2020-05-29T20:12:15Z</time>
      </trkpt>
      <trkpt lat="44.162037" lon="5.129044">
        <ele>398.5</ele>
        <time>2020-05-29T20:12:16Z</time>
      </trkpt>
      <trkpt lat="44.162151" lon="5.129151">
        <ele>398.5</ele>
        <time>2020-05-29T20:12:18Z</time>
      </trkpt>
      <trkpt lat="44.162254" lon="5.129252">
        <ele>398.5</ele>
        <time>2020-05-29T20:12:19Z</time>
      </trkpt>
      <trkpt lat="44.162395" lon="5.129392">
        <ele>398.4</ele>
        <time>2020-05-29T20:12:20Z</time>
      </trkpt>
      <trkpt lat="44.162552" lon="5.129542">
        <ele>398.4</ele>
        <time>2020-05-29T20:12:21Z</time>
      </trkpt>
      <trkpt lat="44.16272" lon="5.129699">
        <ele>398.3</ele>
        <time>2020-05-29T20:12:22Z</time>
      </trkpt>
      <trkpt lat="44.162857" lon="5.12982">
        <ele>398.3</ele>
        <time>2020-05-29T20:12:23Z</time>
      </trkpt>
      <trkpt lat="44.162987" lon="5.129915">
        <ele>398.3</ele>
        <time>2020-05-29T20:12:24Z</time>
      </trkpt>
      <trkpt lat="44.16317" lon="5.129919">
        <ele>398.2</ele>
        <time>2020-05-29T20:12:25Z</time>
      </trkpt>
      <trkpt lat="44.163341" lon="5.129845">
        <ele>398.1</ele>
        <time>2020-05-29T20:12:27Z</time>
      </trkpt>
      <trkpt lat="44.163464" lon="5.129749">
        <ele>397.8</ele>
        <time>2020-05-29T20:12:28Z</time>
      </trkpt>
      <trkpt lat="44.163578" lon="5.129606">
        <ele>397.4</ele>
        <time>2020-05-29T20:12:29Z</time>
      </trkpt>
      <trkpt lat="44.163666" lon="5.129441">
        <ele>397</ele>
        <time>2020-05-29T20:12:30Z</time>
      </trkpt>
      <trkpt lat="44.163742" lon="5.129269">
        <ele>396.6</ele>
        <time>2020-05-29T20:12:31Z</time>
      </trkpt>
      <trkpt lat="44.163807" lon="5.129103">
        <ele>396.2</ele>
        <time>2020-05-29T20:12:32Z</time>
      </trkpt>
      <trkpt lat="44.16386" lon="5.128963">
        <ele>395.8</ele>
        <time>2020-05-29T20:12:33Z</time>
      </trkpt>
      <trkpt lat="44.163917" lon="5.128798">
        <ele>395.5</ele>
        <time>2020-05-29T20:12:35Z</time>
      </trkpt>
      <trkpt lat="44.163975" lon="5.128636">
        <ele>395</ele>
        <time>2020-05-29T20:12:36Z</time>
      </trkpt>
      <trkpt lat="44.164028" lon="5.128505">
        <ele>394.7</ele>
        <time>2020-05-29T20:12:37Z</time>
      </trkpt>
      <trkpt lat="44.164082" lon="5.128373">
        <ele>394.3</ele>
        <time>2020-05-29T20:12:38Z</time>
      </trkpt>
      <trkpt lat="44.164139" lon="5.128247">
        <ele>394</ele>
        <time>2020-05-29T20:12:39Z</time>
      </trkpt>
      <trkpt lat="44.164207" lon="5.128095">
        <ele>393.7</ele>
        <time>2020-05-29T20:12:40Z</time>
      </trkpt>
      <trkpt lat="44.16428" lon="5.127945">
        <ele>393.3</ele>
        <time>2020-05-29T20:12:41Z</time>
      </trkpt>
      <trkpt lat="44.164356" lon="5.127797">
        <ele>393</ele>
        <time>2020-05-29T20:12:42Z</time>
      </trkpt>
      <trkpt lat="44.164421" lon="5.127676">
        <ele>392.6</ele>
        <time>2020-05-29T20:12:43Z</time>
      </trkpt>
      <trkpt lat="44.164505" lon="5.127532">
        <ele>392.1</ele>
        <time>2020-05-29T20:12:45Z</time>
      </trkpt>
      <trkpt lat="44.164593" lon="5.127394">
        <ele>391.6</ele>
        <time>2020-05-29T20:12:46Z</time>
      </trkpt>
      <trkpt lat="44.164673" lon="5.127279">
        <ele>391.2</ele>
        <time>2020-05-29T20:12:47Z</time>
      </trkpt>
      <trkpt lat="44.16478" lon="5.127156">
        <ele>390.7</ele>
        <time>2020-05-29T20:12:48Z</time>
      </trkpt>
      <trkpt lat="44.164875" lon="5.127054">
        <ele>390.3</ele>
        <time>2020-05-29T20:12:49Z</time>
      </trkpt>
      <trkpt lat="44.164978" lon="5.126958">
        <ele>389.9</ele>
        <time>2020-05-29T20:12:50Z</time>
      </trkpt>
      <trkpt lat="44.165077" lon="5.126869">
        <ele>389.6</ele>
        <time>2020-05-29T20:12:51Z</time>
      </trkpt>
      <trkpt lat="44.165211" lon="5.126767">
        <ele>389.1</ele>
        <time>2020-05-29T20:12:52Z</time>
      </trkpt>
      <trkpt lat="44.165352" lon="5.126674">
        <ele>388.5</ele>
        <time>2020-05-29T20:12:53Z</time>
      </trkpt>
      <trkpt lat="44.165497" lon="5.126592">
        <ele>388</ele>
        <time>2020-05-29T20:12:55Z</time>
      </trkpt>
      <trkpt lat="44.165649" lon="5.126523">
        <ele>387.4</ele>
        <time>2020-05-29T20:12:56Z</time>
      </trkpt>
      <trkpt lat="44.165806" lon="5.126463">
        <ele>386.8</ele>
        <time>2020-05-29T20:12:57Z</time>
      </trkpt>
      <trkpt lat="44.165939" lon="5.126419">
        <ele>386.4</ele>
        <time>2020-05-29T20:12:58Z</time>
      </trkpt>
      <trkpt lat="44.1661" lon="5.126367">
        <ele>385.9</ele>
        <time>2020-05-29T20:12:59Z</time>
      </trkpt>
      <trkpt lat="44.166237" lon="5.126326">
        <ele>385.5</ele>
        <time>2020-05-29T20:13:00Z</time>
      </trkpt>
      <trkpt lat="44.166397" lon="5.126283">
        <ele>385</ele>
        <time>2020-05-29T20:13:01Z</time>
      </trkpt>
      <trkpt lat="44.166527" lon="5.126249">
        <ele>384.6</ele>
        <time>2020-05-29T20:13:02Z</time>
      </trkpt>
      <trkpt lat="44.166683" lon="5.126207">
        <ele>384.1</ele>
        <time>2020-05-29T20:13:04Z</time>
      </trkpt>
      <trkpt lat="44.166836" lon="5.126164">
        <ele>383.6</ele>
        <time>2020-05-29T20:13:05Z</time>
      </trkpt>
      <trkpt lat="44.166996" lon="5.126121">
        <ele>383.1</ele>
        <time>2020-05-29T20:13:06Z</time>
      </trkpt>
      <trkpt lat="44.167152" lon="5.126077">
        <ele>382.8</ele>
        <time>2020-05-29T20:13:07Z</time>
      </trkpt>
      <trkpt lat="44.167305" lon="5.126034">
        <ele>382.5</ele>
        <time>2020-05-29T20:13:08Z</time>
      </trkpt>
      <trkpt lat="44.167438" lon="5.125997">
        <ele>382.1</ele>
        <time>2020-05-29T20:13:09Z</time>
      </trkpt>
      <trkpt lat="44.167591" lon="5.125956">
        <ele>381.6</ele>
        <time>2020-05-29T20:13:11Z</time>
      </trkpt>
      <trkpt lat="44.16774" lon="5.125914">
        <ele>381.2</ele>
        <time>2020-05-29T20:13:12Z</time>
      </trkpt>
      <trkpt lat="44.167892" lon="5.125871">
        <ele>380.8</ele>
        <time>2020-05-29T20:13:13Z</time>
      </trkpt>
      <trkpt lat="44.168037" lon="5.12583">
        <ele>380.4</ele>
        <time>2020-05-29T20:13:14Z</time>
      </trkpt>
      <trkpt lat="44.168182" lon="5.125788">
        <ele>380.1</ele>
        <time>2020-05-29T20:13:15Z</time>
      </trkpt>
      <trkpt lat="44.168331" lon="5.125745">
        <ele>379.6</ele>
        <time>2020-05-29T20:13:17Z</time>
      </trkpt>
      <trkpt lat="44.168449" lon="5.125711">
        <ele>379.3</ele>
        <time>2020-05-29T20:13:18Z</time>
      </trkpt>
      <trkpt lat="44.16859" lon="5.125668">
        <ele>378.8</ele>
        <time>2020-05-29T20:13:19Z</time>
      </trkpt>
      <trkpt lat="44.168713" lon="5.125633">
        <ele>378.4</ele>
        <time>2020-05-29T20:13:20Z</time>
      </trkpt>
      <trkpt lat="44.168831" lon="5.125599">
        <ele>378</ele>
        <time>2020-05-29T20:13:21Z</time>
      </trkpt>
      <trkpt lat="44.168972" lon="5.125556">
        <ele>377.6</ele>
        <time>2020-05-29T20:13:22Z</time>
      </trkpt>
      <trkpt lat="44.169094" lon="5.125519">
        <ele>377.2</ele>
        <time>2020-05-29T20:13:23Z</time>
      </trkpt>
      <trkpt lat="44.169212" lon="5.125484">
        <ele>376.8</ele>
        <time>2020-05-29T20:13:24Z</time>
      </trkpt>
      <trkpt lat="44.169353" lon="5.125442">
        <ele>376.3</ele>
        <time>2020-05-29T20:13:25Z</time>
      </trkpt>
      <trkpt lat="44.169476" lon="5.125407">
        <ele>376</ele>
        <time>2020-05-29T20:13:26Z</time>
      </trkpt>
      <trkpt lat="44.169617" lon="5.125371">
        <ele>375.6</ele>
        <time>2020-05-29T20:13:27Z</time>
      </trkpt>
      <trkpt lat="44.169765" lon="5.125341">
        <ele>375.2</ele>
        <time>2020-05-29T20:13:29Z</time>
      </trkpt>
      <trkpt lat="44.16991" lon="5.125319">
        <ele>374.7</ele>
        <time>2020-05-29T20:13:30Z</time>
      </trkpt>
      <trkpt lat="44.170059" lon="5.125301">
        <ele>374.4</ele>
        <time>2020-05-29T20:13:31Z</time>
      </trkpt>
      <trkpt lat="44.1702" lon="5.12528">
        <ele>374</ele>
        <time>2020-05-29T20:13:32Z</time>
      </trkpt>
      <trkpt lat="44.170345" lon="5.125259">
        <ele>373.6</ele>
        <time>2020-05-29T20:13:33Z</time>
      </trkpt>
      <trkpt lat="44.170483" lon="5.125241">
        <ele>373.3</ele>
        <time>2020-05-29T20:13:35Z</time>
      </trkpt>
      <trkpt lat="44.170628" lon="5.125228">
        <ele>372.9</ele>
        <time>2020-05-29T20:13:36Z</time>
      </trkpt>
      <trkpt lat="44.170742" lon="5.125219">
        <ele>372.6</ele>
        <time>2020-05-29T20:13:37Z</time>
      </trkpt>
      <trkpt lat="44.170856" lon="5.125212">
        <ele>372.3</ele>
        <time>2020-05-29T20:13:38Z</time>
      </trkpt>
      <trkpt lat="44.170963" lon="5.125227">
        <ele>372</ele>
        <time>2020-05-29T20:13:39Z</time>
      </trkpt>
      <trkpt lat="44.171074" lon="5.12529">
        <ele>371.7</ele>
        <time>2020-05-29T20:13:40Z</time>
      </trkpt>
      <trkpt lat="44.171143" lon="5.1254">
        <ele>371.4</ele>
        <time>2020-05-29T20:13:41Z</time>
      </trkpt>
      <trkpt lat="44.171185" lon="5.125512">
        <ele>371.4</ele>
        <time>2020-05-29T20:13:42Z</time>
      </trkpt>
      <trkpt lat="44.171219" lon="5.125629">
        <ele>371.4</ele>
        <time>2020-05-29T20:13:44Z</time>
      </trkpt>
      <trkpt lat="44.171242" lon="5.125724">
        <ele>371.3</ele>
        <time>2020-05-29T20:13:45Z</time>
      </trkpt>
      <trkpt lat="44.171249" lon="5.125841">
        <ele>371.2</ele>
        <time>2020-05-29T20:13:46Z</time>
      </trkpt>
      <trkpt lat="44.171234" lon="5.125953">
        <ele>370.9</ele>
        <time>2020-05-29T20:13:47Z</time>
      </trkpt>
      <trkpt lat="44.171211" lon="5.126044">
        <ele>370.6</ele>
        <time>2020-05-29T20:13:48Z</time>
      </trkpt>
      <trkpt lat="44.171181" lon="5.12613">
        <ele>370.3</ele>
        <time>2020-05-29T20:13:49Z</time>
      </trkpt>
      <trkpt lat="44.17112" lon="5.126217">
        <ele>369.9</ele>
        <time>2020-05-29T20:13:50Z</time>
      </trkpt>
      <trkpt lat="44.171039" lon="5.126285">
        <ele>369.6</ele>
        <time>2020-05-29T20:13:51Z</time>
      </trkpt>
      <trkpt lat="44.170967" lon="5.126335">
        <ele>369.3</ele>
        <time>2020-05-29T20:13:52Z</time>
      </trkpt>
      <trkpt lat="44.170879" lon="5.126394">
        <ele>369</ele>
        <time>2020-05-29T20:13:54Z</time>
      </trkpt>
      <trkpt lat="44.170803" lon="5.126444">
        <ele>368.7</ele>
        <time>2020-05-29T20:13:55Z</time>
      </trkpt>
      <trkpt lat="44.170715" lon="5.126501">
        <ele>368.3</ele>
        <time>2020-05-29T20:13:56Z</time>
      </trkpt>
      <trkpt lat="44.170639" lon="5.12655">
        <ele>368</ele>
        <time>2020-05-29T20:13:57Z</time>
      </trkpt>
      <trkpt lat="44.170551" lon="5.126607">
        <ele>367.7</ele>
        <time>2020-05-29T20:13:58Z</time>
      </trkpt>
      <trkpt lat="44.170483" lon="5.126653">
        <ele>367.6</ele>
        <time>2020-05-29T20:13:59Z</time>
      </trkpt>
      <trkpt lat="44.170395" lon="5.126711">
        <ele>367.4</ele>
        <time>2020-05-29T20:14:00Z</time>
      </trkpt>
      <trkpt lat="44.170319" lon="5.126761">
        <ele>367.1</ele>
        <time>2020-05-29T20:14:01Z</time>
      </trkpt>
      <trkpt lat="44.17025" lon="5.126809">
        <ele>367</ele>
        <time>2020-05-29T20:14:02Z</time>
      </trkpt>
      <trkpt lat="44.170162" lon="5.126872">
        <ele>366.8</ele>
        <time>2020-05-29T20:14:03Z</time>
      </trkpt>
      <trkpt lat="44.170094" lon="5.126924">
        <ele>366.6</ele>
        <time>2020-05-29T20:14:04Z</time>
      </trkpt>
      <trkpt lat="44.170025" lon="5.126985">
        <ele>366.2</ele>
        <time>2020-05-29T20:14:05Z</time>
      </trkpt>
      <trkpt lat="44.169941" lon="5.127063">
        <ele>365.8</ele>
        <time>2020-05-29T20:14:07Z</time>
      </trkpt>
      <trkpt lat="44.169868" lon="5.127131">
        <ele>365.5</ele>
        <time>2020-05-29T20:14:08Z</time>
      </trkpt>
      <trkpt lat="44.169781" lon="5.127221">
        <ele>365.1</ele>
        <time>2020-05-29T20:14:09Z</time>
      </trkpt>
      <trkpt lat="44.169693" lon="5.127324">
        <ele>364.6</ele>
        <time>2020-05-29T20:14:10Z</time>
      </trkpt>
      <trkpt lat="44.169613" lon="5.127438">
        <ele>364.1</ele>
        <time>2020-05-29T20:14:11Z</time>
      </trkpt>
      <trkpt lat="44.169533" lon="5.127562">
        <ele>363.7</ele>
        <time>2020-05-29T20:14:12Z</time>
      </trkpt>
      <trkpt lat="44.169456" lon="5.127689">
        <ele>363.1</ele>
        <time>2020-05-29T20:14:14Z</time>
      </trkpt>
      <trkpt lat="44.169395" lon="5.127832">
        <ele>362.4</ele>
        <time>2020-05-29T20:14:15Z</time>
      </trkpt>
      <trkpt lat="44.169357" lon="5.127962">
        <ele>361.9</ele>
        <time>2020-05-29T20:14:16Z</time>
      </trkpt>
      <trkpt lat="44.169323" lon="5.128087">
        <ele>361.4</ele>
        <time>2020-05-29T20:14:17Z</time>
      </trkpt>
      <trkpt lat="44.169281" lon="5.128244">
        <ele>360.8</ele>
        <time>2020-05-29T20:14:18Z</time>
      </trkpt>
      <trkpt lat="44.169243" lon="5.128398">
        <ele>360.4</ele>
        <time>2020-05-29T20:14:19Z</time>
      </trkpt>
      <trkpt lat="44.169212" lon="5.128549">
        <ele>360.1</ele>
        <time>2020-05-29T20:14:20Z</time>
      </trkpt>
      <trkpt lat="44.169186" lon="5.128672">
        <ele>359.9</ele>
        <time>2020-05-29T20:14:21Z</time>
      </trkpt>
      <trkpt lat="44.169155" lon="5.128794">
        <ele>359.6</ele>
        <time>2020-05-29T20:14:22Z</time>
      </trkpt>
      <trkpt lat="44.169117" lon="5.128935">
        <ele>359.3</ele>
        <time>2020-05-29T20:14:24Z</time>
      </trkpt>
      <trkpt lat="44.169075" lon="5.12908">
        <ele>359</ele>
        <time>2020-05-29T20:14:25Z</time>
      </trkpt>
      <trkpt lat="44.169044" lon="5.129197">
        <ele>358.6</ele>
        <time>2020-05-29T20:14:26Z</time>
      </trkpt>
      <trkpt lat="44.169006" lon="5.129337">
        <ele>357.9</ele>
        <time>2020-05-29T20:14:27Z</time>
      </trkpt>
      <trkpt lat="44.168964" lon="5.129478">
        <ele>357.1</ele>
        <time>2020-05-29T20:14:28Z</time>
      </trkpt>
      <trkpt lat="44.16893" lon="5.129596">
        <ele>356.5</ele>
        <time>2020-05-29T20:14:29Z</time>
      </trkpt>
      <trkpt lat="44.168896" lon="5.12974">
        <ele>355.8</ele>
        <time>2020-05-29T20:14:30Z</time>
      </trkpt>
      <trkpt lat="44.168861" lon="5.129887">
        <ele>355.2</ele>
        <time>2020-05-29T20:14:32Z</time>
      </trkpt>
      <trkpt lat="44.168823" lon="5.13004">
        <ele>354.6</ele>
        <time>2020-05-29T20:14:33Z</time>
      </trkpt>
      <trkpt lat="44.168797" lon="5.130163">
        <ele>354.2</ele>
        <time>2020-05-29T20:14:34Z</time>
      </trkpt>
      <trkpt lat="44.168777" lon="5.130292">
        <ele>353.7</ele>
        <time>2020-05-29T20:14:35Z</time>
      </trkpt>
      <trkpt lat="44.168774" lon="5.130445">
        <ele>353</ele>
        <time>2020-05-29T20:14:36Z</time>
      </trkpt>
      <trkpt lat="44.168777" lon="5.130571">
        <ele>352.5</ele>
        <time>2020-05-29T20:14:37Z</time>
      </trkpt>
      <trkpt lat="44.1688" lon="5.130696">
        <ele>351.9</ele>
        <time>2020-05-29T20:14:38Z</time>
      </trkpt>
      <trkpt lat="44.168854" lon="5.13084">
        <ele>351.3</ele>
        <time>2020-05-29T20:14:39Z</time>
      </trkpt>
      <trkpt lat="44.168949" lon="5.130964">
        <ele>350.7</ele>
        <time>2020-05-29T20:14:40Z</time>
      </trkpt>
      <trkpt lat="44.169094" lon="5.131045">
        <ele>350</ele>
        <time>2020-05-29T20:14:42Z</time>
      </trkpt>
      <trkpt lat="44.16925" lon="5.13112">
        <ele>349.3</ele>
        <time>2020-05-29T20:14:43Z</time>
      </trkpt>
      <trkpt lat="44.169414" lon="5.131198">
        <ele>348.4</ele>
        <time>2020-05-29T20:14:44Z</time>
      </trkpt>
      <trkpt lat="44.169579" lon="5.131281">
        <ele>347.8</ele>
        <time>2020-05-29T20:14:45Z</time>
      </trkpt>
      <trkpt lat="44.169731" lon="5.131367">
        <ele>347.3</ele>
        <time>2020-05-29T20:14:46Z</time>
      </trkpt>
      <trkpt lat="44.169884" lon="5.131449">
        <ele>346.6</ele>
        <time>2020-05-29T20:14:48Z</time>
      </trkpt>
      <trkpt lat="44.17001" lon="5.131511">
        <ele>346.1</ele>
        <time>2020-05-29T20:14:49Z</time>
      </trkpt>
      <trkpt lat="44.17017" lon="5.131571">
        <ele>345.3</ele>
        <time>2020-05-29T20:14:50Z</time>
      </trkpt>
      <trkpt lat="44.170334" lon="5.131633">
        <ele>344.3</ele>
        <time>2020-05-29T20:14:51Z</time>
      </trkpt>
      <trkpt lat="44.170502" lon="5.131698">
        <ele>343.3</ele>
        <time>2020-05-29T20:14:52Z</time>
      </trkpt>
      <trkpt lat="44.17067" lon="5.131763">
        <ele>342.7</ele>
        <time>2020-05-29T20:14:53Z</time>
      </trkpt>
      <trkpt lat="44.170841" lon="5.131829">
        <ele>342.3</ele>
        <time>2020-05-29T20:14:55Z</time>
      </trkpt>
      <trkpt lat="44.170982" lon="5.131884">
        <ele>342</ele>
        <time>2020-05-29T20:14:56Z</time>
      </trkpt>
      <trkpt lat="44.171146" lon="5.131948">
        <ele>341.8</ele>
        <time>2020-05-29T20:14:57Z</time>
      </trkpt>
      <trkpt lat="44.171303" lon="5.132015">
        <ele>341</ele>
        <time>2020-05-29T20:14:58Z</time>
      </trkpt>
      <trkpt lat="44.171421" lon="5.132067">
        <ele>340.3</ele>
        <time>2020-05-29T20:14:59Z</time>
      </trkpt>
      <trkpt lat="44.171543" lon="5.132152">
        <ele>340.1</ele>
        <time>2020-05-29T20:15:00Z</time>
      </trkpt>
      <trkpt lat="44.171604" lon="5.13227">
        <ele>339.9</ele>
        <time>2020-05-29T20:15:01Z</time>
      </trkpt>
      <trkpt lat="44.171696" lon="5.132329">
        <ele>339.5</ele>
        <time>2020-05-29T20:15:02Z</time>
      </trkpt>
      <trkpt lat="44.171783" lon="5.132418">
        <ele>339</ele>
        <time>2020-05-29T20:15:04Z</time>
      </trkpt>
      <trkpt lat="44.171844" lon="5.132523">
        <ele>338.7</ele>
        <time>2020-05-29T20:15:05Z</time>
      </trkpt>
      <trkpt lat="44.171898" lon="5.132629">
        <ele>338.4</ele>
        <time>2020-05-29T20:15:06Z</time>
      </trkpt>
      <trkpt lat="44.171947" lon="5.132739">
        <ele>338.1</ele>
        <time>2020-05-29T20:15:07Z</time>
      </trkpt>
      <trkpt lat="44.171982" lon="5.132831">
        <ele>337.9</ele>
        <time>2020-05-29T20:15:08Z</time>
      </trkpt>
      <trkpt lat="44.172012" lon="5.132924">
        <ele>337.7</ele>
        <time>2020-05-29T20:15:09Z</time>
      </trkpt>
      <trkpt lat="44.172047" lon="5.133038">
        <ele>337.5</ele>
        <time>2020-05-29T20:15:10Z</time>
      </trkpt>
      <trkpt lat="44.172085" lon="5.133137">
        <ele>337.2</ele>
        <time>2020-05-29T20:15:11Z</time>
      </trkpt>
      <trkpt lat="44.172134" lon="5.13323">
        <ele>336.9</ele>
        <time>2020-05-29T20:15:12Z</time>
      </trkpt>
      <trkpt lat="44.172218" lon="5.133324">
        <ele>336.7</ele>
        <time>2020-05-29T20:15:14Z</time>
      </trkpt>
      <trkpt lat="44.172325" lon="5.13341">
        <ele>336.4</ele>
        <time>2020-05-29T20:15:15Z</time>
      </trkpt>
      <trkpt lat="44.172436" lon="5.133494">
        <ele>336</ele>
        <time>2020-05-29T20:15:16Z</time>
      </trkpt>
      <trkpt lat="44.172562" lon="5.133557">
        <ele>335.3</ele>
        <time>2020-05-29T20:15:17Z</time>
      </trkpt>
      <trkpt lat="44.172707" lon="5.13359">
        <ele>334.6</ele>
        <time>2020-05-29T20:15:18Z</time>
      </trkpt>
      <trkpt lat="44.17284" lon="5.133612">
        <ele>333.8</ele>
        <time>2020-05-29T20:15:20Z</time>
      </trkpt>
      <trkpt lat="44.172958" lon="5.133631">
        <ele>333.1</ele>
        <time>2020-05-29T20:15:21Z</time>
      </trkpt>
      <trkpt lat="44.173046" lon="5.133646">
        <ele>332.7</ele>
        <time>2020-05-29T20:15:22Z</time>
      </trkpt>
      <trkpt lat="44.173122" lon="5.133697">
        <ele>332.1</ele>
        <time>2020-05-29T20:15:23Z</time>
      </trkpt>
      <trkpt lat="44.173134" lon="5.1338">
        <ele>332.5</ele>
        <time>2020-05-29T20:15:24Z</time>
      </trkpt>
      <trkpt lat="44.17313" lon="5.133884">
        <ele>332.9</ele>
        <time>2020-05-29T20:15:25Z</time>
      </trkpt>
      <trkpt lat="44.17313" lon="5.13399">
        <ele>333.4</ele>
        <time>2020-05-29T20:15:26Z</time>
      </trkpt>
      <trkpt lat="44.173126" lon="5.134078">
        <ele>333.7</ele>
        <time>2020-05-29T20:15:27Z</time>
      </trkpt>
      <trkpt lat="44.173122" lon="5.134167">
        <ele>334.1</ele>
        <time>2020-05-29T20:15:28Z</time>
      </trkpt>
      <trkpt lat="44.173122" lon="5.134252">
        <ele>334.4</ele>
        <time>2020-05-29T20:15:29Z</time>
      </trkpt>
      <trkpt lat="44.173119" lon="5.13436">
        <ele>334.9</ele>
        <time>2020-05-29T20:15:31Z</time>
      </trkpt>
      <trkpt lat="44.173115" lon="5.134447">
        <ele>335.2</ele>
        <time>2020-05-29T20:15:32Z</time>
      </trkpt>
      <trkpt lat="44.173115" lon="5.134548">
        <ele>335.5</ele>
        <time>2020-05-29T20:15:33Z</time>
      </trkpt>
      <trkpt lat="44.173111" lon="5.134649">
        <ele>336</ele>
        <time>2020-05-29T20:15:34Z</time>
      </trkpt>
      <trkpt lat="44.173111" lon="5.134743">
        <ele>336.6</ele>
        <time>2020-05-29T20:15:35Z</time>
      </trkpt>
      <trkpt lat="44.173111" lon="5.134821">
        <ele>337</ele>
        <time>2020-05-29T20:15:36Z</time>
      </trkpt>
      <trkpt lat="44.173107" lon="5.134916">
        <ele>337.4</ele>
        <time>2020-05-29T20:15:37Z</time>
      </trkpt>
      <trkpt lat="44.173107" lon="5.135009">
        <ele>337.8</ele>
        <time>2020-05-29T20:15:39Z</time>
      </trkpt>
      <trkpt lat="44.173103" lon="5.135094">
        <ele>338</ele>
        <time>2020-05-29T20:15:40Z</time>
      </trkpt>
      <trkpt lat="44.173103" lon="5.135173">
        <ele>338.2</ele>
        <time>2020-05-29T20:15:41Z</time>
      </trkpt>
      <trkpt lat="44.173099" lon="5.135239">
        <ele>338.4</ele>
        <time>2020-05-29T20:15:42Z</time>
      </trkpt>
      <trkpt lat="44.173096" lon="5.135315">
        <ele>338.5</ele>
        <time>2020-05-29T20:15:43Z</time>
      </trkpt>
      <trkpt lat="44.173092" lon="5.135392">
        <ele>338.7</ele>
        <time>2020-05-29T20:15:44Z</time>
      </trkpt>
      <trkpt lat="44.173088" lon="5.135469">
        <ele>338.9</ele>
        <time>2020-05-29T20:15:46Z</time>
      </trkpt>
      <trkpt lat="44.17308" lon="5.135549">
        <ele>339.2</ele>
        <time>2020-05-29T20:15:47Z</time>
      </trkpt>
      <trkpt lat="44.173077" lon="5.135611">
        <ele>339.4</ele>
        <time>2020-05-29T20:15:48Z</time>
      </trkpt>
      <trkpt lat="44.173065" lon="5.135688">
        <ele>339.7</ele>
        <time>2020-05-29T20:15:49Z</time>
      </trkpt>
      <trkpt lat="44.173058" lon="5.135764">
        <ele>340</ele>
        <time>2020-05-29T20:15:50Z</time>
      </trkpt>
      <trkpt lat="44.173046" lon="5.135828">
        <ele>340.2</ele>
        <time>2020-05-29T20:15:51Z</time>
      </trkpt>
      <trkpt lat="44.173031" lon="5.135904">
        <ele>340.4</ele>
        <time>2020-05-29T20:15:52Z</time>
      </trkpt>
      <trkpt lat="44.173019" lon="5.135979">
        <ele>340.6</ele>
        <time>2020-05-29T20:15:54Z</time>
      </trkpt>
      <trkpt lat="44.173004" lon="5.136055">
        <ele>340.8</ele>
        <time>2020-05-29T20:15:55Z</time>
      </trkpt>
      <trkpt lat="44.172989" lon="5.136133">
        <ele>341</ele>
        <time>2020-05-29T20:15:56Z</time>
      </trkpt>
      <trkpt lat="44.172974" lon="5.136214">
        <ele>341.1</ele>
        <time>2020-05-29T20:15:57Z</time>
      </trkpt>
      <trkpt lat="44.172962" lon="5.136289">
        <ele>341.3</ele>
        <time>2020-05-29T20:15:58Z</time>
      </trkpt>
      <trkpt lat="44.172947" lon="5.136362">
        <ele>341.4</ele>
        <time>2020-05-29T20:16:00Z</time>
      </trkpt>
      <trkpt lat="44.172932" lon="5.136428">
        <ele>341.5</ele>
        <time>2020-05-29T20:16:01Z</time>
      </trkpt>
      <trkpt lat="44.17292" lon="5.136495">
        <ele>341.6</ele>
        <time>2020-05-29T20:16:02Z</time>
      </trkpt>
      <trkpt lat="44.172909" lon="5.136543">
        <ele>341.7</ele>
        <time>2020-05-29T20:16:03Z</time>
      </trkpt>
      <trkpt lat="44.172897" lon="5.1366">
        <ele>342.1</ele>
        <time>2020-05-29T20:16:04Z</time>
      </trkpt>
      <trkpt lat="44.172882" lon="5.136657">
        <ele>342.3</ele>
        <time>2020-05-29T20:16:05Z</time>
      </trkpt>
      <trkpt lat="44.172867" lon="5.136712">
        <ele>342.4</ele>
        <time>2020-05-29T20:16:07Z</time>
      </trkpt>
      <trkpt lat="44.172855" lon="5.136763">
        <ele>342.6</ele>
        <time>2020-05-29T20:16:08Z</time>
      </trkpt>
      <trkpt lat="44.17284" lon="5.13682">
        <ele>342.7</ele>
        <time>2020-05-29T20:16:09Z</time>
      </trkpt>
      <trkpt lat="44.172825" lon="5.136871">
        <ele>342.8</ele>
        <time>2020-05-29T20:16:10Z</time>
      </trkpt>
      <trkpt lat="44.17281" lon="5.13692">
        <ele>343</ele>
        <time>2020-05-29T20:16:11Z</time>
      </trkpt>
      <trkpt lat="44.172794" lon="5.13697">
        <ele>343.1</ele>
        <time>2020-05-29T20:16:12Z</time>
      </trkpt>
      <trkpt lat="44.172775" lon="5.137021">
        <ele>343.3</ele>
        <time>2020-05-29T20:16:13Z</time>
      </trkpt>
      <trkpt lat="44.172745" lon="5.13707">
        <ele>343.6</ele>
        <time>2020-05-29T20:16:14Z</time>
      </trkpt>
      <trkpt lat="44.172699" lon="5.137125">
        <ele>344</ele>
        <time>2020-05-29T20:16:15Z</time>
      </trkpt>
      <trkpt lat="44.172653" lon="5.137178">
        <ele>344.5</ele>
        <time>2020-05-29T20:16:16Z</time>
      </trkpt>
      <trkpt lat="44.172607" lon="5.137224">
        <ele>345</ele>
        <time>2020-05-29T20:16:17Z</time>
      </trkpt>
      <trkpt lat="44.172562" lon="5.13727">
        <ele>345.6</ele>
        <time>2020-05-29T20:16:19Z</time>
      </trkpt>
      <trkpt lat="44.172516" lon="5.137311">
        <ele>346.1</ele>
        <time>2020-05-29T20:16:20Z</time>
      </trkpt>
      <trkpt lat="44.172474" lon="5.137348">
        <ele>346.6</ele>
        <time>2020-05-29T20:16:21Z</time>
      </trkpt>
      <trkpt lat="44.172436" lon="5.137384">
        <ele>347</ele>
        <time>2020-05-29T20:16:22Z</time>
      </trkpt>
      <trkpt lat="44.172398" lon="5.137417">
        <ele>347.5</ele>
        <time>2020-05-29T20:16:23Z</time>
      </trkpt>
      <trkpt lat="44.172348" lon="5.137462">
        <ele>348</ele>
        <time>2020-05-29T20:16:24Z</time>
      </trkpt>
      <trkpt lat="44.172302" lon="5.137505">
        <ele>348.5</ele>
        <time>2020-05-29T20:16:25Z</time>
      </trkpt>
      <trkpt lat="44.172264" lon="5.137542">
        <ele>349</ele>
        <time>2020-05-29T20:16:26Z</time>
      </trkpt>
      <trkpt lat="44.172218" lon="5.137585">
        <ele>349.5</ele>
        <time>2020-05-29T20:16:27Z</time>
      </trkpt>
      <trkpt lat="44.172172" lon="5.13763">
        <ele>350</ele>
        <time>2020-05-29T20:16:29Z</time>
      </trkpt>
      <trkpt lat="44.172131" lon="5.137671">
        <ele>350.4</ele>
        <time>2020-05-29T20:16:30Z</time>
      </trkpt>
      <trkpt lat="44.172092" lon="5.137711">
        <ele>350.9</ele>
        <time>2020-05-29T20:16:31Z</time>
      </trkpt>
      <trkpt lat="44.17205" lon="5.137751">
        <ele>351.4</ele>
        <time>2020-05-29T20:16:32Z</time>
      </trkpt>
      <trkpt lat="44.172008" lon="5.137791">
        <ele>351.8</ele>
        <time>2020-05-29T20:16:33Z</time>
      </trkpt>
      <trkpt lat="44.171959" lon="5.137837">
        <ele>352.2</ele>
        <time>2020-05-29T20:16:35Z</time>
      </trkpt>
      <trkpt lat="44.171921" lon="5.137876">
        <ele>352.5</ele>
        <time>2020-05-29T20:16:36Z</time>
      </trkpt>
      <trkpt lat="44.171875" lon="5.137921">
        <ele>352.8</ele>
        <time>2020-05-29T20:16:37Z</time>
      </trkpt>
      <trkpt lat="44.171829" lon="5.137969">
        <ele>352.9</ele>
        <time>2020-05-29T20:16:38Z</time>
      </trkpt>
      <trkpt lat="44.171791" lon="5.138008">
        <ele>353.1</ele>
        <time>2020-05-29T20:16:39Z</time>
      </trkpt>
      <trkpt lat="44.171757" lon="5.138043">
        <ele>353.3</ele>
        <time>2020-05-29T20:16:40Z</time>
      </trkpt>
      <trkpt lat="44.171715" lon="5.138092">
        <ele>353.7</ele>
        <time>2020-05-29T20:16:41Z</time>
      </trkpt>
      <trkpt lat="44.17168" lon="5.138143">
        <ele>354.1</ele>
        <time>2020-05-29T20:16:42Z</time>
      </trkpt>
      <trkpt lat="44.17165" lon="5.138198">
        <ele>354.5</ele>
        <time>2020-05-29T20:16:44Z</time>
      </trkpt>
      <trkpt lat="44.171627" lon="5.138256">
        <ele>355</ele>
        <time>2020-05-29T20:16:45Z</time>
      </trkpt>
      <trkpt lat="44.171612" lon="5.138308">
        <ele>355.3</ele>
        <time>2020-05-29T20:16:46Z</time>
      </trkpt>
      <trkpt lat="44.171596" lon="5.138371">
        <ele>355.6</ele>
        <time>2020-05-29T20:16:47Z</time>
      </trkpt>
      <trkpt lat="44.171581" lon="5.138437">
        <ele>355.9</ele>
        <time>2020-05-29T20:16:48Z</time>
      </trkpt>
      <trkpt lat="44.171562" lon="5.138489">
        <ele>356.1</ele>
        <time>2020-05-29T20:16:49Z</time>
      </trkpt>
      <trkpt lat="44.171543" lon="5.138541">
        <ele>356.3</ele>
        <time>2020-05-29T20:16:50Z</time>
      </trkpt>
      <trkpt lat="44.17152" lon="5.138601">
        <ele>356.5</ele>
        <time>2020-05-29T20:16:51Z</time>
      </trkpt>
      <trkpt lat="44.171497" lon="5.138659">
        <ele>356.7</ele>
        <time>2020-05-29T20:16:53Z</time>
      </trkpt>
      <trkpt lat="44.171474" lon="5.138721">
        <ele>356.9</ele>
        <time>2020-05-29T20:16:54Z</time>
      </trkpt>
      <trkpt lat="44.171452" lon="5.138778">
        <ele>357.2</ele>
        <time>2020-05-29T20:16:55Z</time>
      </trkpt>
      <trkpt lat="44.171429" lon="5.138827">
        <ele>357.5</ele>
        <time>2020-05-29T20:16:56Z</time>
      </trkpt>
      <trkpt lat="44.17141" lon="5.138876">
        <ele>357.8</ele>
        <time>2020-05-29T20:16:57Z</time>
      </trkpt>
      <trkpt lat="44.171383" lon="5.138932">
        <ele>358.2</ele>
        <time>2020-05-29T20:16:58Z</time>
      </trkpt>
      <trkpt lat="44.17136" lon="5.138988">
        <ele>358.6</ele>
        <time>2020-05-29T20:16:59Z</time>
      </trkpt>
      <trkpt lat="44.171337" lon="5.139036">
        <ele>358.9</ele>
        <time>2020-05-29T20:17:00Z</time>
      </trkpt>
      <trkpt lat="44.171307" lon="5.139089">
        <ele>359.3</ele>
        <time>2020-05-29T20:17:02Z</time>
      </trkpt>
      <trkpt lat="44.17128" lon="5.13914">
        <ele>359.7</ele>
        <time>2020-05-29T20:17:03Z</time>
      </trkpt>
      <trkpt lat="44.171253" lon="5.139183">
        <ele>360</ele>
        <time>2020-05-29T20:17:04Z</time>
      </trkpt>
      <trkpt lat="44.171219" lon="5.139232">
        <ele>360.4</ele>
        <time>2020-05-29T20:17:05Z</time>
      </trkpt>
      <trkpt lat="44.171181" lon="5.139276">
        <ele>360.8</ele>
        <time>2020-05-29T20:17:06Z</time>
      </trkpt>
      <trkpt lat="44.17115" lon="5.139311">
        <ele>361.1</ele>
        <time>2020-05-29T20:17:07Z</time>
      </trkpt>
      <trkpt lat="44.171116" lon="5.139348">
        <ele>361.4</ele>
        <time>2020-05-29T20:17:08Z</time>
      </trkpt>
      <trkpt lat="44.171074" lon="5.139389">
        <ele>361.8</ele>
        <time>2020-05-29T20:17:09Z</time>
      </trkpt>
      <trkpt lat="44.171039" lon="5.139422">
        <ele>362.1</ele>
        <time>2020-05-29T20:17:10Z</time>
      </trkpt>
      <trkpt lat="44.170998" lon="5.139463">
        <ele>362.5</ele>
        <time>2020-05-29T20:17:12Z</time>
      </trkpt>
      <trkpt lat="44.170956" lon="5.139507">
        <ele>363</ele>
        <time>2020-05-29T20:17:13Z</time>
      </trkpt>
      <trkpt lat="44.170921" lon="5.139544">
        <ele>363.4</ele>
        <time>2020-05-29T20:17:14Z</time>
      </trkpt>
      <trkpt lat="44.170879" lon="5.139594">
        <ele>363.9</ele>
        <time>2020-05-29T20:17:15Z</time>
      </trkpt>
      <trkpt lat="44.170845" lon="5.139643">
        <ele>364.3</ele>
        <time>2020-05-29T20:17:16Z</time>
      </trkpt>
      <trkpt lat="44.170814" lon="5.139695">
        <ele>364.6</ele>
        <time>2020-05-29T20:17:17Z</time>
      </trkpt>
      <trkpt lat="44.170792" lon="5.139743">
        <ele>364.9</ele>
        <time>2020-05-29T20:17:18Z</time>
      </trkpt>
      <trkpt lat="44.170769" lon="5.139793">
        <ele>365.2</ele>
        <time>2020-05-29T20:17:19Z</time>
      </trkpt>
      <trkpt lat="44.17075" lon="5.139853">
        <ele>365.6</ele>
        <time>2020-05-29T20:17:21Z</time>
      </trkpt>
      <trkpt lat="44.170731" lon="5.139905">
        <ele>365.8</ele>
        <time>2020-05-29T20:17:22Z</time>
      </trkpt>
      <trkpt lat="44.170715" lon="5.139959">
        <ele>366.2</ele>
        <time>2020-05-29T20:17:23Z</time>
      </trkpt>
      <trkpt lat="44.1707" lon="5.140021">
        <ele>366.5</ele>
        <time>2020-05-29T20:17:24Z</time>
      </trkpt>
      <trkpt lat="44.170681" lon="5.140089">
        <ele>366.9</ele>
        <time>2020-05-29T20:17:25Z</time>
      </trkpt>
      <trkpt lat="44.170662" lon="5.140151">
        <ele>367.3</ele>
        <time>2020-05-29T20:17:26Z</time>
      </trkpt>
      <trkpt lat="44.170647" lon="5.140203">
        <ele>367.6</ele>
        <time>2020-05-29T20:17:27Z</time>
      </trkpt>
      <trkpt lat="44.170628" lon="5.140263">
        <ele>367.9</ele>
        <time>2020-05-29T20:17:28Z</time>
      </trkpt>
      <trkpt lat="44.170609" lon="5.140326">
        <ele>368.2</ele>
        <time>2020-05-29T20:17:30Z</time>
      </trkpt>
      <trkpt lat="44.170586" lon="5.140383">
        <ele>368.4</ele>
        <time>2020-05-29T20:17:31Z</time>
      </trkpt>
      <trkpt lat="44.170567" lon="5.14043">
        <ele>368.5</ele>
        <time>2020-05-29T20:17:32Z</time>
      </trkpt>
      <trkpt lat="44.17054" lon="5.140481">
        <ele>368.8</ele>
        <time>2020-05-29T20:17:33Z</time>
      </trkpt>
      <trkpt lat="44.170509" lon="5.140522">
        <ele>369</ele>
        <time>2020-05-29T20:17:34Z</time>
      </trkpt>
      <trkpt lat="44.170479" lon="5.14056">
        <ele>369.3</ele>
        <time>2020-05-29T20:17:35Z</time>
      </trkpt>
      <trkpt lat="44.170437" lon="5.140599">
        <ele>369.7</ele>
        <time>2020-05-29T20:17:36Z</time>
      </trkpt>
      <trkpt lat="44.170395" lon="5.140638">
        <ele>370.1</ele>
        <time>2020-05-29T20:17:37Z</time>
      </trkpt>
      <trkpt lat="44.170353" lon="5.140681">
        <ele>370.6</ele>
        <time>2020-05-29T20:17:39Z</time>
      </trkpt>
      <trkpt lat="44.170315" lon="5.14073">
        <ele>371.1</ele>
        <time>2020-05-29T20:17:40Z</time>
      </trkpt>
      <trkpt lat="44.170284" lon="5.140778">
        <ele>371.5</ele>
        <time>2020-05-29T20:17:41Z</time>
      </trkpt>
      <trkpt lat="44.170258" lon="5.140817">
        <ele>371.9</ele>
        <time>2020-05-29T20:17:42Z</time>
      </trkpt>
      <trkpt lat="44.170231" lon="5.140859">
        <ele>372.2</ele>
        <time>2020-05-29T20:17:43Z</time>
      </trkpt>
      <trkpt lat="44.170204" lon="5.140897">
        <ele>372.6</ele>
        <time>2020-05-29T20:17:44Z</time>
      </trkpt>
      <trkpt lat="44.17017" lon="5.140948">
        <ele>373.1</ele>
        <time>2020-05-29T20:17:45Z</time>
      </trkpt>
      <trkpt lat="44.170139" lon="5.140997">
        <ele>373.5</ele>
        <time>2020-05-29T20:17:46Z</time>
      </trkpt>
      <trkpt lat="44.170109" lon="5.141047">
        <ele>374</ele>
        <time>2020-05-29T20:17:48Z</time>
      </trkpt>
      <trkpt lat="44.170078" lon="5.141103">
        <ele>374.4</ele>
        <time>2020-05-29T20:17:49Z</time>
      </trkpt>
      <trkpt lat="44.170055" lon="5.141147">
        <ele>374.8</ele>
        <time>2020-05-29T20:17:50Z</time>
      </trkpt>
      <trkpt lat="44.170032" lon="5.141203">
        <ele>375.2</ele>
        <time>2020-05-29T20:17:51Z</time>
      </trkpt>
      <trkpt lat="44.170013" lon="5.141252">
        <ele>375.6</ele>
        <time>2020-05-29T20:17:52Z</time>
      </trkpt>
      <trkpt lat="44.169991" lon="5.141308">
        <ele>376</ele>
        <time>2020-05-29T20:17:53Z</time>
      </trkpt>
      <trkpt lat="44.169964" lon="5.141366">
        <ele>376.5</ele>
        <time>2020-05-29T20:17:54Z</time>
      </trkpt>
      <trkpt lat="44.169933" lon="5.14142">
        <ele>376.9</ele>
        <time>2020-05-29T20:17:56Z</time>
      </trkpt>
      <trkpt lat="44.169907" lon="5.141465">
        <ele>377.3</ele>
        <time>2020-05-29T20:17:57Z</time>
      </trkpt>
      <trkpt lat="44.169876" lon="5.141509">
        <ele>377.7</ele>
        <time>2020-05-29T20:17:58Z</time>
      </trkpt>
      <trkpt lat="44.169838" lon="5.141562">
        <ele>378.2</ele>
        <time>2020-05-29T20:17:59Z</time>
      </trkpt>
      <trkpt lat="44.169807" lon="5.141603">
        <ele>378.6</ele>
        <time>2020-05-29T20:18:00Z</time>
      </trkpt>
      <trkpt lat="44.169765" lon="5.141656">
        <ele>379.1</ele>
        <time>2020-05-29T20:18:01Z</time>
      </trkpt>
      <trkpt lat="44.169731" lon="5.141699">
        <ele>379.5</ele>
        <time>2020-05-29T20:18:02Z</time>
      </trkpt>
      <trkpt lat="44.169689" lon="5.141749">
        <ele>380</ele>
        <time>2020-05-29T20:18:03Z</time>
      </trkpt>
      <trkpt lat="44.169655" lon="5.141793">
        <ele>380.4</ele>
        <time>2020-05-29T20:18:04Z</time>
      </trkpt>
      <trkpt lat="44.169613" lon="5.141842">
        <ele>380.9</ele>
        <time>2020-05-29T20:18:05Z</time>
      </trkpt>
      <trkpt lat="44.169571" lon="5.141895">
        <ele>381.3</ele>
        <time>2020-05-29T20:18:07Z</time>
      </trkpt>
      <trkpt lat="44.169537" lon="5.141938">
        <ele>381.7</ele>
        <time>2020-05-29T20:18:08Z</time>
      </trkpt>
      <trkpt lat="44.169498" lon="5.141989">
        <ele>382.2</ele>
        <time>2020-05-29T20:18:09Z</time>
      </trkpt>
      <trkpt lat="44.169464" lon="5.142034">
        <ele>382.6</ele>
        <time>2020-05-29T20:18:10Z</time>
      </trkpt>
      <trkpt lat="44.169422" lon="5.142092">
        <ele>383</ele>
        <time>2020-05-29T20:18:11Z</time>
      </trkpt>
      <trkpt lat="44.169384" lon="5.142144">
        <ele>383.4</ele>
        <time>2020-05-29T20:18:12Z</time>
      </trkpt>
      <trkpt lat="44.169346" lon="5.142202">
        <ele>383.7</ele>
        <time>2020-05-29T20:18:13Z</time>
      </trkpt>
      <trkpt lat="44.169308" lon="5.142263">
        <ele>384</ele>
        <time>2020-05-29T20:18:14Z</time>
      </trkpt>
      <trkpt lat="44.169266" lon="5.142326">
        <ele>384.1</ele>
        <time>2020-05-29T20:18:16Z</time>
      </trkpt>
      <trkpt lat="44.169231" lon="5.142389">
        <ele>384.2</ele>
        <time>2020-05-29T20:18:17Z</time>
      </trkpt>
      <trkpt lat="44.169193" lon="5.14245">
        <ele>384.3</ele>
        <time>2020-05-29T20:18:18Z</time>
      </trkpt>
      <trkpt lat="44.169159" lon="5.142507">
        <ele>384.4</ele>
        <time>2020-05-29T20:18:19Z</time>
      </trkpt>
      <trkpt lat="44.169125" lon="5.142561">
        <ele>384.5</ele>
        <time>2020-05-29T20:18:20Z</time>
      </trkpt>
      <trkpt lat="44.169094" lon="5.142619">
        <ele>384.6</ele>
        <time>2020-05-29T20:18:22Z</time>
      </trkpt>
      <trkpt lat="44.169067" lon="5.142664">
        <ele>384.8</ele>
        <time>2020-05-29T20:18:23Z</time>
      </trkpt>
      <trkpt lat="44.169041" lon="5.142707">
        <ele>385</ele>
        <time>2020-05-29T20:18:24Z</time>
      </trkpt>
      <trkpt lat="44.169014" lon="5.142753">
        <ele>385.2</ele>
        <time>2020-05-29T20:18:25Z</time>
      </trkpt>
      <trkpt lat="44.168983" lon="5.142807">
        <ele>385.5</ele>
        <time>2020-05-29T20:18:26Z</time>
      </trkpt>
      <trkpt lat="44.168957" lon="5.142855">
        <ele>385.8</ele>
        <time>2020-05-29T20:18:27Z</time>
      </trkpt>
      <trkpt lat="44.168922" lon="5.142913">
        <ele>386.2</ele>
        <time>2020-05-29T20:18:28Z</time>
      </trkpt>
      <trkpt lat="44.168892" lon="5.142968">
        <ele>386.5</ele>
        <time>2020-05-29T20:18:29Z</time>
      </trkpt>
      <trkpt lat="44.168858" lon="5.143027">
        <ele>386.9</ele>
        <time>2020-05-29T20:18:30Z</time>
      </trkpt>
      <trkpt lat="44.168835" lon="5.143074">
        <ele>387.1</ele>
        <time>2020-05-29T20:18:31Z</time>
      </trkpt>
      <trkpt lat="44.168804" lon="5.143131">
        <ele>387.4</ele>
        <time>2020-05-29T20:18:33Z</time>
      </trkpt>
      <trkpt lat="44.168777" lon="5.143179">
        <ele>387.7</ele>
        <time>2020-05-29T20:18:34Z</time>
      </trkpt>
      <trkpt lat="44.168747" lon="5.143237">
        <ele>388</ele>
        <time>2020-05-29T20:18:35Z</time>
      </trkpt>
      <trkpt lat="44.16872" lon="5.143292">
        <ele>388.3</ele>
        <time>2020-05-29T20:18:36Z</time>
      </trkpt>
      <trkpt lat="44.168693" lon="5.143346">
        <ele>388.6</ele>
        <time>2020-05-29T20:18:37Z</time>
      </trkpt>
      <trkpt lat="44.168667" lon="5.143402">
        <ele>388.9</ele>
        <time>2020-05-29T20:18:38Z</time>
      </trkpt>
      <trkpt lat="44.16864" lon="5.143461">
        <ele>389.2</ele>
        <time>2020-05-29T20:18:40Z</time>
      </trkpt>
      <trkpt lat="44.168613" lon="5.143517">
        <ele>389.5</ele>
        <time>2020-05-29T20:18:41Z</time>
      </trkpt>
      <trkpt lat="44.168598" lon="5.143561">
        <ele>389.7</ele>
        <time>2020-05-29T20:18:42Z</time>
      </trkpt>
      <trkpt lat="44.168575" lon="5.143617">
        <ele>390</ele>
        <time>2020-05-29T20:18:43Z</time>
      </trkpt>
      <trkpt lat="44.16856" lon="5.143667">
        <ele>390.2</ele>
        <time>2020-05-29T20:18:44Z</time>
      </trkpt>
      <trkpt lat="44.168541" lon="5.143726">
        <ele>390.4</ele>
        <time>2020-05-29T20:18:45Z</time>
      </trkpt>
      <trkpt lat="44.168518" lon="5.143791">
        <ele>390.7</ele>
        <time>2020-05-29T20:18:46Z</time>
      </trkpt>
      <trkpt lat="44.168503" lon="5.143844">
        <ele>390.9</ele>
        <time>2020-05-29T20:18:47Z</time>
      </trkpt>
      <trkpt lat="44.168488" lon="5.143907">
        <ele>391.2</ele>
        <time>2020-05-29T20:18:49Z</time>
      </trkpt>
      <trkpt lat="44.168472" lon="5.143973">
        <ele>391.4</ele>
        <time>2020-05-29T20:18:50Z</time>
      </trkpt>
      <trkpt lat="44.168461" lon="5.144027">
        <ele>391.6</ele>
        <time>2020-05-29T20:18:51Z</time>
      </trkpt>
      <trkpt lat="44.168446" lon="5.144092">
        <ele>391.9</ele>
        <time>2020-05-29T20:18:52Z</time>
      </trkpt>
      <trkpt lat="44.168434" lon="5.144158">
        <ele>392.1</ele>
        <time>2020-05-29T20:18:53Z</time>
      </trkpt>
      <trkpt lat="44.168426" lon="5.144227">
        <ele>392.3</ele>
        <time>2020-05-29T20:18:54Z</time>
      </trkpt>
      <trkpt lat="44.168419" lon="5.144293">
        <ele>392.5</ele>
        <time>2020-05-29T20:18:56Z</time>
      </trkpt>
      <trkpt lat="44.168415" lon="5.14435">
        <ele>392.7</ele>
        <time>2020-05-29T20:18:57Z</time>
      </trkpt>
      <trkpt lat="44.168411" lon="5.144405">
        <ele>392.8</ele>
        <time>2020-05-29T20:18:58Z</time>
      </trkpt>
      <trkpt lat="44.168407" lon="5.144461">
        <ele>392.9</ele>
        <time>2020-05-29T20:18:59Z</time>
      </trkpt>
      <trkpt lat="44.168404" lon="5.14453">
        <ele>393</ele>
        <time>2020-05-29T20:19:00Z</time>
      </trkpt>
      <trkpt lat="44.1684" lon="5.144587">
        <ele>393.1</ele>
        <time>2020-05-29T20:19:01Z</time>
      </trkpt>
      <trkpt lat="44.168396" lon="5.144656">
        <ele>393.3</ele>
        <time>2020-05-29T20:19:02Z</time>
      </trkpt>
      <trkpt lat="44.168388" lon="5.144724">
        <ele>393.5</ele>
        <time>2020-05-29T20:19:03Z</time>
      </trkpt>
      <trkpt lat="44.168377" lon="5.144788">
        <ele>393.8</ele>
        <time>2020-05-29T20:19:04Z</time>
      </trkpt>
      <trkpt lat="44.168362" lon="5.144856">
        <ele>394.1</ele>
        <time>2020-05-29T20:19:06Z</time>
      </trkpt>
      <trkpt lat="44.16835" lon="5.144906">
        <ele>394.3</ele>
        <time>2020-05-29T20:19:07Z</time>
      </trkpt>
      <trkpt lat="44.168335" lon="5.144972">
        <ele>394.5</ele>
        <time>2020-05-29T20:19:08Z</time>
      </trkpt>
      <trkpt lat="44.16832" lon="5.145025">
        <ele>394.8</ele>
        <time>2020-05-29T20:19:09Z</time>
      </trkpt>
      <trkpt lat="44.168304" lon="5.145078">
        <ele>395</ele>
        <time>2020-05-29T20:19:10Z</time>
      </trkpt>
      <trkpt lat="44.168285" lon="5.145144">
        <ele>395.2</ele>
        <time>2020-05-29T20:19:11Z</time>
      </trkpt>
      <trkpt lat="44.168266" lon="5.145207">
        <ele>395.5</ele>
        <time>2020-05-29T20:19:12Z</time>
      </trkpt>
      <trkpt lat="44.168247" lon="5.145273">
        <ele>395.7</ele>
        <time>2020-05-29T20:19:14Z</time>
      </trkpt>
      <trkpt lat="44.168228" lon="5.145334">
        <ele>395.9</ele>
        <time>2020-05-29T20:19:15Z</time>
      </trkpt>
      <trkpt lat="44.168209" lon="5.1454">
        <ele>396.2</ele>
        <time>2020-05-29T20:19:16Z</time>
      </trkpt>
      <trkpt lat="44.16819" lon="5.145467">
        <ele>396.4</ele>
        <time>2020-05-29T20:19:17Z</time>
      </trkpt>
      <trkpt lat="44.168171" lon="5.145538">
        <ele>396.6</ele>
        <time>2020-05-29T20:19:18Z</time>
      </trkpt>
      <trkpt lat="44.168152" lon="5.145598">
        <ele>396.8</ele>
        <time>2020-05-29T20:19:19Z</time>
      </trkpt>
      <trkpt lat="44.168133" lon="5.145673">
        <ele>397</ele>
        <time>2020-05-29T20:19:21Z</time>
      </trkpt>
      <trkpt lat="44.16811" lon="5.145752">
        <ele>397.2</ele>
        <time>2020-05-29T20:19:22Z</time>
      </trkpt>
      <trkpt lat="44.168087" lon="5.145827">
        <ele>397.4</ele>
        <time>2020-05-29T20:19:23Z</time>
      </trkpt>
      <trkpt lat="44.168064" lon="5.145901">
        <ele>397.5</ele>
        <time>2020-05-29T20:19:24Z</time>
      </trkpt>
      <trkpt lat="44.168045" lon="5.145974">
        <ele>397.7</ele>
        <time>2020-05-29T20:19:25Z</time>
      </trkpt>
      <trkpt lat="44.168026" lon="5.146033">
        <ele>397.9</ele>
        <time>2020-05-29T20:19:26Z</time>
      </trkpt>
      <trkpt lat="44.168007" lon="5.146106">
        <ele>398</ele>
        <time>2020-05-29T20:19:28Z</time>
      </trkpt>
      <trkpt lat="44.167984" lon="5.146177">
        <ele>398.2</ele>
        <time>2020-05-29T20:19:29Z</time>
      </trkpt>
      <trkpt lat="44.167965" lon="5.146247">
        <ele>398.4</ele>
        <time>2020-05-29T20:19:30Z</time>
      </trkpt>
      <trkpt lat="44.167946" lon="5.146317">
        <ele>398.6</ele>
        <time>2020-05-29T20:19:31Z</time>
      </trkpt>
      <trkpt lat="44.167927" lon="5.146374">
        <ele>398.8</ele>
        <time>2020-05-29T20:19:32Z</time>
      </trkpt>
      <trkpt lat="44.167908" lon="5.146442">
        <ele>399</ele>
        <time>2020-05-29T20:19:33Z</time>
      </trkpt>
      <trkpt lat="44.167889" lon="5.146511">
        <ele>399.2</ele>
        <time>2020-05-29T20:19:35Z</time>
      </trkpt>
      <trkpt lat="44.167866" lon="5.146578">
        <ele>399.4</ele>
        <time>2020-05-29T20:19:36Z</time>
      </trkpt>
      <trkpt lat="44.16785" lon="5.146634">
        <ele>399.5</ele>
        <time>2020-05-29T20:19:37Z</time>
      </trkpt>
      <trkpt lat="44.167831" lon="5.146703">
        <ele>399.7</ele>
        <time>2020-05-29T20:19:38Z</time>
      </trkpt>
      <trkpt lat="44.167816" lon="5.146758">
        <ele>399.8</ele>
        <time>2020-05-29T20:19:39Z</time>
      </trkpt>
      <trkpt lat="44.167793" lon="5.146825">
        <ele>400</ele>
        <time>2020-05-29T20:19:40Z</time>
      </trkpt>
      <trkpt lat="44.167778" lon="5.14688">
        <ele>400.1</ele>
        <time>2020-05-29T20:19:41Z</time>
      </trkpt>
      <trkpt lat="44.167759" lon="5.146948">
        <ele>400.2</ele>
        <time>2020-05-29T20:19:42Z</time>
      </trkpt>
      <trkpt lat="44.16774" lon="5.147014">
        <ele>400.4</ele>
        <time>2020-05-29T20:19:44Z</time>
      </trkpt>
      <trkpt lat="44.167717" lon="5.147088">
        <ele>400.5</ele>
        <time>2020-05-29T20:19:45Z</time>
      </trkpt>
      <trkpt lat="44.167698" lon="5.147156">
        <ele>400.6</ele>
        <time>2020-05-29T20:19:46Z</time>
      </trkpt>
      <trkpt lat="44.167683" lon="5.147219">
        <ele>400.8</ele>
        <time>2020-05-29T20:19:47Z</time>
      </trkpt>
      <trkpt lat="44.16766" lon="5.147303">
        <ele>400.9</ele>
        <time>2020-05-29T20:19:48Z</time>
      </trkpt>
      <trkpt lat="44.167641" lon="5.147372">
        <ele>401</ele>
        <time>2020-05-29T20:19:49Z</time>
      </trkpt>
      <trkpt lat="44.167618" lon="5.147452">
        <ele>401.1</ele>
        <time>2020-05-29T20:19:50Z</time>
      </trkpt>
      <trkpt lat="44.167595" lon="5.147532">
        <ele>401.2</ele>
        <time>2020-05-29T20:19:51Z</time>
      </trkpt>
      <trkpt lat="44.167576" lon="5.1476">
        <ele>401.3</ele>
        <time>2020-05-29T20:19:52Z</time>
      </trkpt>
      <trkpt lat="44.167557" lon="5.147667">
        <ele>401.3</ele>
        <time>2020-05-29T20:19:53Z</time>
      </trkpt>
      <trkpt lat="44.167534" lon="5.147744">
        <ele>401.4</ele>
        <time>2020-05-29T20:19:55Z</time>
      </trkpt>
      <trkpt lat="44.167511" lon="5.147821">
        <ele>401.5</ele>
        <time>2020-05-29T20:19:56Z</time>
      </trkpt>
      <trkpt lat="44.167488" lon="5.147887">
        <ele>401.6</ele>
        <time>2020-05-29T20:19:57Z</time>
      </trkpt>
      <trkpt lat="44.167465" lon="5.147951">
        <ele>401.7</ele>
        <time>2020-05-29T20:19:58Z</time>
      </trkpt>
      <trkpt lat="44.167446" lon="5.148012">
        <ele>401.7</ele>
        <time>2020-05-29T20:19:59Z</time>
      </trkpt>
      <trkpt lat="44.167416" lon="5.14809">
        <ele>401.8</ele>
        <time>2020-05-29T20:20:00Z</time>
      </trkpt>
      <trkpt lat="44.167385" lon="5.148164">
        <ele>401.9</ele>
        <time>2020-05-29T20:20:01Z</time>
      </trkpt>
      <trkpt lat="44.167362" lon="5.148223">
        <ele>402</ele>
        <time>2020-05-29T20:20:02Z</time>
      </trkpt>
      <trkpt lat="44.167328" lon="5.148299">
        <ele>402.1</ele>
        <time>2020-05-29T20:20:03Z</time>
      </trkpt>
      <trkpt lat="44.167301" lon="5.148358">
        <ele>402.2</ele>
        <time>2020-05-29T20:20:04Z</time>
      </trkpt>
      <trkpt lat="44.167267" lon="5.14843">
        <ele>402.3</ele>
        <time>2020-05-29T20:20:06Z</time>
      </trkpt>
      <trkpt lat="44.167225" lon="5.148504">
        <ele>402.4</ele>
        <time>2020-05-29T20:20:07Z</time>
      </trkpt>
      <trkpt lat="44.167171" lon="5.148573">
        <ele>402.6</ele>
        <time>2020-05-29T20:20:08Z</time>
      </trkpt>
      <trkpt lat="44.167107" lon="5.14863">
        <ele>402.7</ele>
        <time>2020-05-29T20:20:09Z</time>
      </trkpt>
      <trkpt lat="44.16703" lon="5.148673">
        <ele>402.8</ele>
        <time>2020-05-29T20:20:10Z</time>
      </trkpt>
      <trkpt lat="44.166946" lon="5.148693">
        <ele>403</ele>
        <time>2020-05-29T20:20:12Z</time>
      </trkpt>
      <trkpt lat="44.166859" lon="5.148681">
        <ele>403.5</ele>
        <time>2020-05-29T20:20:13Z</time>
      </trkpt>
      <trkpt lat="44.166779" lon="5.148646">
        <ele>403.9</ele>
        <time>2020-05-29T20:20:14Z</time>
      </trkpt>
      <trkpt lat="44.166725" lon="5.148611">
        <ele>404.1</ele>
        <time>2020-05-29T20:20:15Z</time>
      </trkpt>
      <trkpt lat="44.166656" lon="5.148557">
        <ele>404.4</ele>
        <time>2020-05-29T20:20:16Z</time>
      </trkpt>
      <trkpt lat="44.166603" lon="5.148496">
        <ele>404.6</ele>
        <time>2020-05-29T20:20:17Z</time>
      </trkpt>
      <trkpt lat="44.166557" lon="5.148425">
        <ele>404.9</ele>
        <time>2020-05-29T20:20:19Z</time>
      </trkpt>
      <trkpt lat="44.166527" lon="5.148358">
        <ele>405.2</ele>
        <time>2020-05-29T20:20:20Z</time>
      </trkpt>
      <trkpt lat="44.166508" lon="5.148308">
        <ele>405.4</ele>
        <time>2020-05-29T20:20:21Z</time>
      </trkpt>
      <trkpt lat="44.166489" lon="5.148254">
        <ele>405.7</ele>
        <time>2020-05-29T20:20:22Z</time>
      </trkpt>
      <trkpt lat="44.16647" lon="5.148202">
        <ele>405.9</ele>
        <time>2020-05-29T20:20:23Z</time>
      </trkpt>
      <trkpt lat="44.166454" lon="5.14816">
        <ele>406.1</ele>
        <time>2020-05-29T20:20:24Z</time>
      </trkpt>
      <trkpt lat="44.166443" lon="5.148116">
        <ele>406.3</ele>
        <time>2020-05-29T20:20:25Z</time>
      </trkpt>
      <trkpt lat="44.16642" lon="5.148053">
        <ele>406.6</ele>
        <time>2020-05-29T20:20:26Z</time>
      </trkpt>
      <trkpt lat="44.166401" lon="5.147991">
        <ele>406.9</ele>
        <time>2020-05-29T20:20:28Z</time>
      </trkpt>
      <trkpt lat="44.166378" lon="5.14793">
        <ele>407.1</ele>
        <time>2020-05-29T20:20:29Z</time>
      </trkpt>
      <trkpt lat="44.166359" lon="5.147879">
        <ele>407.3</ele>
        <time>2020-05-29T20:20:30Z</time>
      </trkpt>
      <trkpt lat="44.16634" lon="5.147827">
        <ele>407.5</ele>
        <time>2020-05-29T20:20:31Z</time>
      </trkpt>
      <trkpt lat="44.166317" lon="5.147771">
        <ele>407.8</ele>
        <time>2020-05-29T20:20:32Z</time>
      </trkpt>
      <trkpt lat="44.166294" lon="5.147716">
        <ele>408.2</ele>
        <time>2020-05-29T20:20:33Z</time>
      </trkpt>
      <trkpt lat="44.166275" lon="5.147668">
        <ele>408.6</ele>
        <time>2020-05-29T20:20:34Z</time>
      </trkpt>
      <trkpt lat="44.166252" lon="5.147613">
        <ele>409</ele>
        <time>2020-05-29T20:20:35Z</time>
      </trkpt>
      <trkpt lat="44.166229" lon="5.147566">
        <ele>409.4</ele>
        <time>2020-05-29T20:20:36Z</time>
      </trkpt>
      <trkpt lat="44.166206" lon="5.147525">
        <ele>409.7</ele>
        <time>2020-05-29T20:20:37Z</time>
      </trkpt>
      <trkpt lat="44.166183" lon="5.147483">
        <ele>410</ele>
        <time>2020-05-29T20:20:38Z</time>
      </trkpt>
      <trkpt lat="44.166157" lon="5.147446">
        <ele>410.4</ele>
        <time>2020-05-29T20:20:39Z</time>
      </trkpt>
      <trkpt lat="44.16613" lon="5.147407">
        <ele>410.7</ele>
        <time>2020-05-29T20:20:40Z</time>
      </trkpt>
      <trkpt lat="44.166092" lon="5.147364">
        <ele>411.2</ele>
        <time>2020-05-29T20:20:42Z</time>
      </trkpt>
      <trkpt lat="44.16605" lon="5.147324">
        <ele>411.7</ele>
        <time>2020-05-29T20:20:43Z</time>
      </trkpt>
      <trkpt lat="44.166" lon="5.147288">
        <ele>412.2</ele>
        <time>2020-05-29T20:20:44Z</time>
      </trkpt>
      <trkpt lat="44.165951" lon="5.147259">
        <ele>412.6</ele>
        <time>2020-05-29T20:20:45Z</time>
      </trkpt>
      <trkpt lat="44.165894" lon="5.14724">
        <ele>413.1</ele>
        <time>2020-05-29T20:20:46Z</time>
      </trkpt>
      <trkpt lat="44.165832" lon="5.147234">
        <ele>413.6</ele>
        <time>2020-05-29T20:20:48Z</time>
      </trkpt>
      <trkpt lat="44.165775" lon="5.147233">
        <ele>414.1</ele>
        <time>2020-05-29T20:20:49Z</time>
      </trkpt>
      <trkpt lat="44.16571" lon="5.147233">
        <ele>414.7</ele>
        <time>2020-05-29T20:20:50Z</time>
      </trkpt>
      <trkpt lat="44.165661" lon="5.147223">
        <ele>415.1</ele>
        <time>2020-05-29T20:20:51Z</time>
      </trkpt>
      <trkpt lat="44.165619" lon="5.147189">
        <ele>415.5</ele>
        <time>2020-05-29T20:20:52Z</time>
      </trkpt>
      <trkpt lat="44.165604" lon="5.147136">
        <ele>415.8</ele>
        <time>2020-05-29T20:20:53Z</time>
      </trkpt>
      <trkpt lat="44.165596" lon="5.147083">
        <ele>416.2</ele>
        <time>2020-05-29T20:20:54Z</time>
      </trkpt>
      <trkpt lat="44.165585" lon="5.147017">
        <ele>416.5</ele>
        <time>2020-05-29T20:20:56Z</time>
      </trkpt>
      <trkpt lat="44.165577" lon="5.146954">
        <ele>416.9</ele>
        <time>2020-05-29T20:20:57Z</time>
      </trkpt>
      <trkpt lat="44.165569" lon="5.1469">
        <ele>417.2</ele>
        <time>2020-05-29T20:20:58Z</time>
      </trkpt>
      <trkpt lat="44.165558" lon="5.146839">
        <ele>417.6</ele>
        <time>2020-05-29T20:20:59Z</time>
      </trkpt>
      <trkpt lat="44.16555" lon="5.146785">
        <ele>417.9</ele>
        <time>2020-05-29T20:21:00Z</time>
      </trkpt>
      <trkpt lat="44.165546" lon="5.146731">
        <ele>418.3</ele>
        <time>2020-05-29T20:21:01Z</time>
      </trkpt>
      <trkpt lat="44.165539" lon="5.146678">
        <ele>418.6</ele>
        <time>2020-05-29T20:21:02Z</time>
      </trkpt>
      <trkpt lat="44.165531" lon="5.146613">
        <ele>419</ele>
        <time>2020-05-29T20:21:03Z</time>
      </trkpt>
      <trkpt lat="44.165527" lon="5.146563">
        <ele>419.2</ele>
        <time>2020-05-29T20:21:04Z</time>
      </trkpt>
      <trkpt lat="44.16552" lon="5.146497">
        <ele>419.6</ele>
        <time>2020-05-29T20:21:05Z</time>
      </trkpt>
      <trkpt lat="44.165512" lon="5.14643">
        <ele>420</ele>
        <time>2020-05-29T20:21:07Z</time>
      </trkpt>
      <trkpt lat="44.165508" lon="5.146361">
        <ele>420.5</ele>
        <time>2020-05-29T20:21:08Z</time>
      </trkpt>
      <trkpt lat="44.165504" lon="5.146287">
        <ele>420.9</ele>
        <time>2020-05-29T20:21:09Z</time>
      </trkpt>
      <trkpt lat="44.165501" lon="5.146223">
        <ele>421.3</ele>
        <time>2020-05-29T20:21:10Z</time>
      </trkpt>
      <trkpt lat="44.165501" lon="5.146161">
        <ele>421.7</ele>
        <time>2020-05-29T20:21:11Z</time>
      </trkpt>
      <trkpt lat="44.165504" lon="5.146099">
        <ele>422.1</ele>
        <time>2020-05-29T20:21:12Z</time>
      </trkpt>
      <trkpt lat="44.165512" lon="5.146039">
        <ele>422.5</ele>
        <time>2020-05-29T20:21:13Z</time>
      </trkpt>
      <trkpt lat="44.165527" lon="5.14597">
        <ele>422.9</ele>
        <time>2020-05-29T20:21:14Z</time>
      </trkpt>
      <trkpt lat="44.165543" lon="5.145902">
        <ele>423.3</ele>
        <time>2020-05-29T20:21:15Z</time>
      </trkpt>
      <trkpt lat="44.165558" lon="5.145833">
        <ele>423.8</ele>
        <time>2020-05-29T20:21:17Z</time>
      </trkpt>
      <trkpt lat="44.165569" lon="5.145767">
        <ele>424.2</ele>
        <time>2020-05-29T20:21:18Z</time>
      </trkpt>
      <trkpt lat="44.165573" lon="5.145696">
        <ele>424.6</ele>
        <time>2020-05-29T20:21:19Z</time>
      </trkpt>
      <trkpt lat="44.165573" lon="5.145628">
        <ele>425.1</ele>
        <time>2020-05-29T20:21:20Z</time>
      </trkpt>
      <trkpt lat="44.165573" lon="5.145557">
        <ele>425.5</ele>
        <time>2020-05-29T20:21:21Z</time>
      </trkpt>
      <trkpt lat="44.165565" lon="5.145493">
        <ele>425.9</ele>
        <time>2020-05-29T20:21:23Z</time>
      </trkpt>
      <trkpt lat="44.165558" lon="5.145424">
        <ele>426.4</ele>
        <time>2020-05-29T20:21:24Z</time>
      </trkpt>
      <trkpt lat="44.16555" lon="5.145356">
        <ele>426.8</ele>
        <time>2020-05-29T20:21:25Z</time>
      </trkpt>
      <trkpt lat="44.165527" lon="5.145292">
        <ele>427.3</ele>
        <time>2020-05-29T20:21:26Z</time>
      </trkpt>
      <trkpt lat="44.165497" lon="5.145242">
        <ele>427.7</ele>
        <time>2020-05-29T20:21:27Z</time>
      </trkpt>
      <trkpt lat="44.165462" lon="5.145196">
        <ele>428.1</ele>
        <time>2020-05-29T20:21:28Z</time>
      </trkpt>
      <trkpt lat="44.165421" lon="5.145147">
        <ele>428.5</ele>
        <time>2020-05-29T20:21:29Z</time>
      </trkpt>
      <trkpt lat="44.165379" lon="5.145104">
        <ele>429</ele>
        <time>2020-05-29T20:21:31Z</time>
      </trkpt>
      <trkpt lat="44.165337" lon="5.145064">
        <ele>429.4</ele>
        <time>2020-05-29T20:21:32Z</time>
      </trkpt>
      <trkpt lat="44.165295" lon="5.145024">
        <ele>429.9</ele>
        <time>2020-05-29T20:21:33Z</time>
      </trkpt>
      <trkpt lat="44.165256" lon="5.144983">
        <ele>430.3</ele>
        <time>2020-05-29T20:21:34Z</time>
      </trkpt>
      <trkpt lat="44.165222" lon="5.144946">
        <ele>430.7</ele>
        <time>2020-05-29T20:21:35Z</time>
      </trkpt>
      <trkpt lat="44.165188" lon="5.14491">
        <ele>431.1</ele>
        <time>2020-05-29T20:21:36Z</time>
      </trkpt>
      <trkpt lat="44.16515" lon="5.14486">
        <ele>431.6</ele>
        <time>2020-05-29T20:21:37Z</time>
      </trkpt>
      <trkpt lat="44.165123" lon="5.14482">
        <ele>432</ele>
        <time>2020-05-29T20:21:38Z</time>
      </trkpt>
      <trkpt lat="44.165096" lon="5.144775">
        <ele>432.4</ele>
        <time>2020-05-29T20:21:39Z</time>
      </trkpt>
      <trkpt lat="44.165073" lon="5.144717">
        <ele>432.9</ele>
        <time>2020-05-29T20:21:41Z</time>
      </trkpt>
      <trkpt lat="44.165058" lon="5.144672">
        <ele>433.3</ele>
        <time>2020-05-29T20:21:42Z</time>
      </trkpt>
      <trkpt lat="44.165047" lon="5.144623">
        <ele>433.6</ele>
        <time>2020-05-29T20:21:43Z</time>
      </trkpt>
      <trkpt lat="44.165039" lon="5.144573">
        <ele>434</ele>
        <time>2020-05-29T20:21:44Z</time>
      </trkpt>
      <trkpt lat="44.165031" lon="5.144513">
        <ele>434.4</ele>
        <time>2020-05-29T20:21:45Z</time>
      </trkpt>
      <trkpt lat="44.165028" lon="5.144447">
        <ele>434.9</ele>
        <time>2020-05-29T20:21:46Z</time>
      </trkpt>
      <trkpt lat="44.165024" lon="5.144396">
        <ele>435.2</ele>
        <time>2020-05-29T20:21:47Z</time>
      </trkpt>
      <trkpt lat="44.165024" lon="5.144331">
        <ele>435.7</ele>
        <time>2020-05-29T20:21:48Z</time>
      </trkpt>
      <trkpt lat="44.165028" lon="5.144279">
        <ele>436</ele>
        <time>2020-05-29T20:21:49Z</time>
      </trkpt>
      <trkpt lat="44.165035" lon="5.144226">
        <ele>436.3</ele>
        <time>2020-05-29T20:21:50Z</time>
      </trkpt>
      <trkpt lat="44.165047" lon="5.144172">
        <ele>436.6</ele>
        <time>2020-05-29T20:21:51Z</time>
      </trkpt>
      <trkpt lat="44.165058" lon="5.144118">
        <ele>437</ele>
        <time>2020-05-29T20:21:52Z</time>
      </trkpt>
      <trkpt lat="44.165073" lon="5.144055">
        <ele>437.3</ele>
        <time>2020-05-29T20:21:53Z</time>
      </trkpt>
      <trkpt lat="44.165085" lon="5.143988">
        <ele>437.7</ele>
        <time>2020-05-29T20:21:55Z</time>
      </trkpt>
      <trkpt lat="44.165096" lon="5.143932">
        <ele>438.1</ele>
        <time>2020-05-29T20:21:56Z</time>
      </trkpt>
      <trkpt lat="44.165096" lon="5.143879">
        <ele>438.4</ele>
        <time>2020-05-29T20:21:57Z</time>
      </trkpt>
      <trkpt lat="44.165096" lon="5.14381">
        <ele>438.8</ele>
        <time>2020-05-29T20:21:58Z</time>
      </trkpt>
      <trkpt lat="44.165092" lon="5.143753">
        <ele>439.2</ele>
        <time>2020-05-29T20:21:59Z</time>
      </trkpt>
      <trkpt lat="44.165085" lon="5.143697">
        <ele>439.6</ele>
        <time>2020-05-29T20:22:00Z</time>
      </trkpt>
      <trkpt lat="44.165073" lon="5.143633">
        <ele>440</ele>
        <time>2020-05-29T20:22:01Z</time>
      </trkpt>
      <trkpt lat="44.165054" lon="5.143568">
        <ele>440.4</ele>
        <time>2020-05-29T20:22:02Z</time>
      </trkpt>
      <trkpt lat="44.165031" lon="5.143516">
        <ele>440.8</ele>
        <time>2020-05-29T20:22:03Z</time>
      </trkpt>
      <trkpt lat="44.165001" lon="5.143454">
        <ele>441.3</ele>
        <time>2020-05-29T20:22:04Z</time>
      </trkpt>
      <trkpt lat="44.16497" lon="5.143392">
        <ele>441.7</ele>
        <time>2020-05-29T20:22:06Z</time>
      </trkpt>
      <trkpt lat="44.16494" lon="5.143332">
        <ele>442.1</ele>
        <time>2020-05-29T20:22:07Z</time>
      </trkpt>
      <trkpt lat="44.164917" lon="5.143272">
        <ele>442.5</ele>
        <time>2020-05-29T20:22:08Z</time>
      </trkpt>
      <trkpt lat="44.164898" lon="5.143216">
        <ele>442.9</ele>
        <time>2020-05-29T20:22:09Z</time>
      </trkpt>
      <trkpt lat="44.164875" lon="5.143147">
        <ele>443.3</ele>
        <time>2020-05-29T20:22:10Z</time>
      </trkpt>
      <trkpt lat="44.164852" lon="5.143075">
        <ele>443.7</ele>
        <time>2020-05-29T20:22:11Z</time>
      </trkpt>
      <trkpt lat="44.164837" lon="5.143017">
        <ele>444.1</ele>
        <time>2020-05-29T20:22:12Z</time>
      </trkpt>
      <trkpt lat="44.164814" lon="5.142945">
        <ele>444.5</ele>
        <time>2020-05-29T20:22:13Z</time>
      </trkpt>
      <trkpt lat="44.164799" lon="5.142889">
        <ele>444.9</ele>
        <time>2020-05-29T20:22:14Z</time>
      </trkpt>
      <trkpt lat="44.164776" lon="5.142826">
        <ele>445.3</ele>
        <time>2020-05-29T20:22:16Z</time>
      </trkpt>
      <trkpt lat="44.164761" lon="5.142773">
        <ele>445.6</ele>
        <time>2020-05-29T20:22:17Z</time>
      </trkpt>
      <trkpt lat="44.164738" lon="5.142709">
        <ele>446</ele>
        <time>2020-05-29T20:22:18Z</time>
      </trkpt>
      <trkpt lat="44.164711" lon="5.142658">
        <ele>446.4</ele>
        <time>2020-05-29T20:22:19Z</time>
      </trkpt>
      <trkpt lat="44.16468" lon="5.142602">
        <ele>446.8</ele>
        <time>2020-05-29T20:22:20Z</time>
      </trkpt>
      <trkpt lat="44.164642" lon="5.14255">
        <ele>447.2</ele>
        <time>2020-05-29T20:22:21Z</time>
      </trkpt>
      <trkpt lat="44.1646" lon="5.142498">
        <ele>447.6</ele>
        <time>2020-05-29T20:22:22Z</time>
      </trkpt>
      <trkpt lat="44.164555" lon="5.14245">
        <ele>448</ele>
        <time>2020-05-29T20:22:24Z</time>
      </trkpt>
      <trkpt lat="44.164516" lon="5.142409">
        <ele>448.4</ele>
        <time>2020-05-29T20:22:25Z</time>
      </trkpt>
      <trkpt lat="44.164471" lon="5.142359">
        <ele>448.9</ele>
        <time>2020-05-29T20:22:26Z</time>
      </trkpt>
      <trkpt lat="44.164432" lon="5.142317">
        <ele>449.2</ele>
        <time>2020-05-29T20:22:27Z</time>
      </trkpt>
      <trkpt lat="44.164391" lon="5.142268">
        <ele>449.6</ele>
        <time>2020-05-29T20:22:28Z</time>
      </trkpt>
      <trkpt lat="44.164352" lon="5.142226">
        <ele>450</ele>
        <time>2020-05-29T20:22:29Z</time>
      </trkpt>
      <trkpt lat="44.16431" lon="5.142179">
        <ele>450.4</ele>
        <time>2020-05-29T20:22:30Z</time>
      </trkpt>
      <trkpt lat="44.164276" lon="5.142139">
        <ele>450.7</ele>
        <time>2020-05-29T20:22:31Z</time>
      </trkpt>
      <trkpt lat="44.164242" lon="5.142098">
        <ele>451</ele>
        <time>2020-05-29T20:22:32Z</time>
      </trkpt>
      <trkpt lat="44.164204" lon="5.142048">
        <ele>451.4</ele>
        <time>2020-05-29T20:22:33Z</time>
      </trkpt>
      <trkpt lat="44.164173" lon="5.142007">
        <ele>451.6</ele>
        <time>2020-05-29T20:22:34Z</time>
      </trkpt>
      <trkpt lat="44.164135" lon="5.14196">
        <ele>451.9</ele>
        <time>2020-05-29T20:22:36Z</time>
      </trkpt>
      <trkpt lat="44.164101" lon="5.141912">
        <ele>452.2</ele>
        <time>2020-05-29T20:22:37Z</time>
      </trkpt>
      <trkpt lat="44.16407" lon="5.14187">
        <ele>452.2</ele>
        <time>2020-05-29T20:22:38Z</time>
      </trkpt>
      <trkpt lat="44.164036" lon="5.141822">
        <ele>452.3</ele>
        <time>2020-05-29T20:22:39Z</time>
      </trkpt>
      <trkpt lat="44.164005" lon="5.141779">
        <ele>452.4</ele>
        <time>2020-05-29T20:22:40Z</time>
      </trkpt>
      <trkpt lat="44.163979" lon="5.141735">
        <ele>452.5</ele>
        <time>2020-05-29T20:22:41Z</time>
      </trkpt>
      <trkpt lat="44.163952" lon="5.14168">
        <ele>452.7</ele>
        <time>2020-05-29T20:22:42Z</time>
      </trkpt>
      <trkpt lat="44.163925" lon="5.141632">
        <ele>452.9</ele>
        <time>2020-05-29T20:22:43Z</time>
      </trkpt>
      <trkpt lat="44.163898" lon="5.141584">
        <ele>453</ele>
        <time>2020-05-29T20:22:44Z</time>
      </trkpt>
      <trkpt lat="44.163864" lon="5.14153">
        <ele>453.3</ele>
        <time>2020-05-29T20:22:45Z</time>
      </trkpt>
      <trkpt lat="44.163834" lon="5.141487">
        <ele>453.4</ele>
        <time>2020-05-29T20:22:46Z</time>
      </trkpt>
      <trkpt lat="44.163795" lon="5.141446">
        <ele>453.7</ele>
        <time>2020-05-29T20:22:47Z</time>
      </trkpt>
      <trkpt lat="44.163761" lon="5.14141">
        <ele>453.9</ele>
        <time>2020-05-29T20:22:48Z</time>
      </trkpt>
      <trkpt lat="44.163719" lon="5.14137">
        <ele>454.1</ele>
        <time>2020-05-29T20:22:50Z</time>
      </trkpt>
      <trkpt lat="44.163681" lon="5.141337">
        <ele>454.4</ele>
        <time>2020-05-29T20:22:51Z</time>
      </trkpt>
      <trkpt lat="44.163635" lon="5.141301">
        <ele>454.6</ele>
        <time>2020-05-29T20:22:52Z</time>
      </trkpt>
      <trkpt lat="44.163589" lon="5.141268">
        <ele>454.9</ele>
        <time>2020-05-29T20:22:53Z</time>
      </trkpt>
      <trkpt lat="44.163551" lon="5.141244">
        <ele>455.1</ele>
        <time>2020-05-29T20:22:54Z</time>
      </trkpt>
      <trkpt lat="44.163502" lon="5.141218">
        <ele>455.4</ele>
        <time>2020-05-29T20:22:55Z</time>
      </trkpt>
      <trkpt lat="44.163452" lon="5.141196">
        <ele>455.7</ele>
        <time>2020-05-29T20:22:56Z</time>
      </trkpt>
      <trkpt lat="44.163399" lon="5.141177">
        <ele>455.9</ele>
        <time>2020-05-29T20:22:58Z</time>
      </trkpt>
      <trkpt lat="44.163349" lon="5.141163">
        <ele>456.2</ele>
        <time>2020-05-29T20:22:59Z</time>
      </trkpt>
      <trkpt lat="44.163299" lon="5.141151">
        <ele>456.4</ele>
        <time>2020-05-29T20:23:00Z</time>
      </trkpt>
      <trkpt lat="44.163254" lon="5.141142">
        <ele>456.6</ele>
        <time>2020-05-29T20:23:01Z</time>
      </trkpt>
      <trkpt lat="44.163197" lon="5.141132">
        <ele>456.8</ele>
        <time>2020-05-29T20:23:02Z</time>
      </trkpt>
      <trkpt lat="44.163139" lon="5.141124">
        <ele>456.9</ele>
        <time>2020-05-29T20:23:03Z</time>
      </trkpt>
      <trkpt lat="44.16309" lon="5.141118">
        <ele>456.9</ele>
        <time>2020-05-29T20:23:04Z</time>
      </trkpt>
      <trkpt lat="44.163033" lon="5.141112">
        <ele>457.3</ele>
        <time>2020-05-29T20:23:05Z</time>
      </trkpt>
      <trkpt lat="44.162975" lon="5.141107">
        <ele>457.6</ele>
        <time>2020-05-29T20:23:07Z</time>
      </trkpt>
      <trkpt lat="44.162926" lon="5.141103">
        <ele>458.1</ele>
        <time>2020-05-29T20:23:08Z</time>
      </trkpt>
      <trkpt lat="44.162868" lon="5.1411">
        <ele>458.6</ele>
        <time>2020-05-29T20:23:09Z</time>
      </trkpt>
      <trkpt lat="44.162807" lon="5.141098">
        <ele>459.3</ele>
        <time>2020-05-29T20:23:10Z</time>
      </trkpt>
      <trkpt lat="44.162758" lon="5.141097">
        <ele>459.8</ele>
        <time>2020-05-29T20:23:11Z</time>
      </trkpt>
      <trkpt lat="44.162697" lon="5.141096">
        <ele>460.5</ele>
        <time>2020-05-29T20:23:12Z</time>
      </trkpt>
      <trkpt lat="44.162636" lon="5.141097">
        <ele>461.2</ele>
        <time>2020-05-29T20:23:13Z</time>
      </trkpt>
      <trkpt lat="44.162575" lon="5.141099">
        <ele>461.8</ele>
        <time>2020-05-29T20:23:15Z</time>
      </trkpt>
      <trkpt lat="44.162514" lon="5.141103">
        <ele>462.4</ele>
        <time>2020-05-29T20:23:16Z</time>
      </trkpt>
      <trkpt lat="44.16246" lon="5.141109">
        <ele>463</ele>
        <time>2020-05-29T20:23:17Z</time>
      </trkpt>
      <trkpt lat="44.162407" lon="5.14112">
        <ele>463.5</ele>
        <time>2020-05-29T20:23:18Z</time>
      </trkpt>
      <trkpt lat="44.162346" lon="5.14114">
        <ele>464.1</ele>
        <time>2020-05-29T20:23:19Z</time>
      </trkpt>
      <trkpt lat="44.162296" lon="5.141161">
        <ele>464.6</ele>
        <time>2020-05-29T20:23:20Z</time>
      </trkpt>
      <trkpt lat="44.162247" lon="5.141184">
        <ele>465.2</ele>
        <time>2020-05-29T20:23:21Z</time>
      </trkpt>
      <trkpt lat="44.162186" lon="5.141212">
        <ele>465.8</ele>
        <time>2020-05-29T20:23:22Z</time>
      </trkpt>
      <trkpt lat="44.162128" lon="5.141235">
        <ele>466.4</ele>
        <time>2020-05-29T20:23:23Z</time>
      </trkpt>
      <trkpt lat="44.162064" lon="5.141254">
        <ele>467.1</ele>
        <time>2020-05-29T20:23:24Z</time>
      </trkpt>
      <trkpt lat="44.162003" lon="5.141267">
        <ele>467.7</ele>
        <time>2020-05-29T20:23:25Z</time>
      </trkpt>
      <trkpt lat="44.161934" lon="5.141276">
        <ele>468.4</ele>
        <time>2020-05-29T20:23:27Z</time>
      </trkpt>
      <trkpt lat="44.161877" lon="5.141281">
        <ele>469</ele>
        <time>2020-05-29T20:23:28Z</time>
      </trkpt>
      <trkpt lat="44.161812" lon="5.141284">
        <ele>469.6</ele>
        <time>2020-05-29T20:23:29Z</time>
      </trkpt>
      <trkpt lat="44.161755" lon="5.141285">
        <ele>470.2</ele>
        <time>2020-05-29T20:23:30Z</time>
      </trkpt>
      <trkpt lat="44.161686" lon="5.141286">
        <ele>470.9</ele>
        <time>2020-05-29T20:23:31Z</time>
      </trkpt>
      <trkpt lat="44.161629" lon="5.141286">
        <ele>471.5</ele>
        <time>2020-05-29T20:23:32Z</time>
      </trkpt>
      <trkpt lat="44.16156" lon="5.141286">
        <ele>472.3</ele>
        <time>2020-05-29T20:23:33Z</time>
      </trkpt>
      <trkpt lat="44.161503" lon="5.141285">
        <ele>472.9</ele>
        <time>2020-05-29T20:23:34Z</time>
      </trkpt>
      <trkpt lat="44.161446" lon="5.141285">
        <ele>473.6</ele>
        <time>2020-05-29T20:23:35Z</time>
      </trkpt>
      <trkpt lat="44.161388" lon="5.141284">
        <ele>474.2</ele>
        <time>2020-05-29T20:23:36Z</time>
      </trkpt>
      <trkpt lat="44.16132" lon="5.141285">
        <ele>474.9</ele>
        <time>2020-05-29T20:23:37Z</time>
      </trkpt>
      <trkpt lat="44.161251" lon="5.141285">
        <ele>475.6</ele>
        <time>2020-05-29T20:23:39Z</time>
      </trkpt>
      <trkpt lat="44.161182" lon="5.141287">
        <ele>476.4</ele>
        <time>2020-05-29T20:23:40Z</time>
      </trkpt>
      <trkpt lat="44.161114" lon="5.14129">
        <ele>477.1</ele>
        <time>2020-05-29T20:23:41Z</time>
      </trkpt>
      <trkpt lat="44.161045" lon="5.141294">
        <ele>477.9</ele>
        <time>2020-05-29T20:23:42Z</time>
      </trkpt>
      <trkpt lat="44.160976" lon="5.141302">
        <ele>478.7</ele>
        <time>2020-05-29T20:23:43Z</time>
      </trkpt>
      <trkpt lat="44.160908" lon="5.141312">
        <ele>479.5</ele>
        <time>2020-05-29T20:23:45Z</time>
      </trkpt>
      <trkpt lat="44.160839" lon="5.141329">
        <ele>480.3</ele>
        <time>2020-05-29T20:23:46Z</time>
      </trkpt>
      <trkpt lat="44.160782" lon="5.141346">
        <ele>481</ele>
        <time>2020-05-29T20:23:47Z</time>
      </trkpt>
      <trkpt lat="44.160713" lon="5.141372">
        <ele>481.8</ele>
        <time>2020-05-29T20:23:48Z</time>
      </trkpt>
      <trkpt lat="44.160652" lon="5.141401">
        <ele>482.5</ele>
        <time>2020-05-29T20:23:49Z</time>
      </trkpt>
      <trkpt lat="44.160591" lon="5.141436">
        <ele>483.2</ele>
        <time>2020-05-29T20:23:50Z</time>
      </trkpt>
      <trkpt lat="44.160542" lon="5.141467">
        <ele>483.8</ele>
        <time>2020-05-29T20:23:51Z</time>
      </trkpt>
      <trkpt lat="44.160484" lon="5.141507">
        <ele>484.5</ele>
        <time>2020-05-29T20:23:53Z</time>
      </trkpt>
      <trkpt lat="44.160431" lon="5.141547">
        <ele>485.1</ele>
        <time>2020-05-29T20:23:54Z</time>
      </trkpt>
      <trkpt lat="44.160374" lon="5.141588">
        <ele>485.6</ele>
        <time>2020-05-29T20:23:55Z</time>
      </trkpt>
      <trkpt lat="44.16032" lon="5.141628">
        <ele>486.1</ele>
        <time>2020-05-29T20:23:56Z</time>
      </trkpt>
      <trkpt lat="44.160263" lon="5.14167">
        <ele>486.8</ele>
        <time>2020-05-29T20:23:57Z</time>
      </trkpt>
      <trkpt lat="44.160217" lon="5.141706">
        <ele>487.3</ele>
        <time>2020-05-29T20:23:58Z</time>
      </trkpt>
      <trkpt lat="44.160168" lon="5.141751">
        <ele>488.1</ele>
        <time>2020-05-29T20:24:00Z</time>
      </trkpt>
      <trkpt lat="44.160118" lon="5.141801">
        <ele>488.9</ele>
        <time>2020-05-29T20:24:01Z</time>
      </trkpt>
      <trkpt lat="44.160069" lon="5.141852">
        <ele>489.8</ele>
        <time>2020-05-29T20:24:02Z</time>
      </trkpt>
      <trkpt lat="44.16003" lon="5.141895">
        <ele>490.5</ele>
        <time>2020-05-29T20:24:03Z</time>
      </trkpt>
      <trkpt lat="44.159992" lon="5.141945">
        <ele>491.2</ele>
        <time>2020-05-29T20:24:04Z</time>
      </trkpt>
      <trkpt lat="44.159954" lon="5.141999">
        <ele>492</ele>
        <time>2020-05-29T20:24:05Z</time>
      </trkpt>
      <trkpt lat="44.159924" lon="5.142045">
        <ele>492.7</ele>
        <time>2020-05-29T20:24:06Z</time>
      </trkpt>
      <trkpt lat="44.159893" lon="5.1421">
        <ele>493.4</ele>
        <time>2020-05-29T20:24:08Z</time>
      </trkpt>
      <trkpt lat="44.15987" lon="5.142148">
        <ele>494</ele>
        <time>2020-05-29T20:24:09Z</time>
      </trkpt>
      <trkpt lat="44.159847" lon="5.142198">
        <ele>494.7</ele>
        <time>2020-05-29T20:24:10Z</time>
      </trkpt>
      <trkpt lat="44.15982" lon="5.142249">
        <ele>495.3</ele>
        <time>2020-05-29T20:24:11Z</time>
      </trkpt>
      <trkpt lat="44.159801" lon="5.142299">
        <ele>496</ele>
        <time>2020-05-29T20:24:12Z</time>
      </trkpt>
      <trkpt lat="44.159775" lon="5.142361">
        <ele>496.7</ele>
        <time>2020-05-29T20:24:13Z</time>
      </trkpt>
      <trkpt lat="44.159748" lon="5.142429">
        <ele>497.6</ele>
        <time>2020-05-29T20:24:14Z</time>
      </trkpt>
      <trkpt lat="44.159729" lon="5.142484">
        <ele>498.2</ele>
        <time>2020-05-29T20:24:15Z</time>
      </trkpt>
      <trkpt lat="44.159714" lon="5.142541">
        <ele>498.9</ele>
        <time>2020-05-29T20:24:16Z</time>
      </trkpt>
      <trkpt lat="44.159695" lon="5.142613">
        <ele>499.8</ele>
        <time>2020-05-29T20:24:17Z</time>
      </trkpt>
      <trkpt lat="44.159683" lon="5.142683">
        <ele>500.6</ele>
        <time>2020-05-29T20:24:18Z</time>
      </trkpt>
      <trkpt lat="44.159679" lon="5.142759">
        <ele>501.5</ele>
        <time>2020-05-29T20:24:20Z</time>
      </trkpt>
      <trkpt lat="44.159679" lon="5.142825">
        <ele>502.3</ele>
        <time>2020-05-29T20:24:21Z</time>
      </trkpt>
      <trkpt lat="44.159691" lon="5.142895">
        <ele>503.2</ele>
        <time>2020-05-29T20:24:22Z</time>
      </trkpt>
      <trkpt lat="44.159702" lon="5.142953">
        <ele>503.9</ele>
        <time>2020-05-29T20:24:23Z</time>
      </trkpt>
      <trkpt lat="44.159725" lon="5.143027">
        <ele>504.9</ele>
        <time>2020-05-29T20:24:24Z</time>
      </trkpt>
      <trkpt lat="44.159752" lon="5.143096">
        <ele>505.9</ele>
        <time>2020-05-29T20:24:25Z</time>
      </trkpt>
      <trkpt lat="44.159775" lon="5.143149">
        <ele>506.7</ele>
        <time>2020-05-29T20:24:26Z</time>
      </trkpt>
      <trkpt lat="44.159798" lon="5.143199">
        <ele>507.4</ele>
        <time>2020-05-29T20:24:27Z</time>
      </trkpt>
      <trkpt lat="44.159824" lon="5.14325">
        <ele>508.2</ele>
        <time>2020-05-29T20:24:28Z</time>
      </trkpt>
      <trkpt lat="44.159855" lon="5.143305">
        <ele>509.1</ele>
        <time>2020-05-29T20:24:29Z</time>
      </trkpt>
      <trkpt lat="44.159882" lon="5.143351">
        <ele>509.8</ele>
        <time>2020-05-29T20:24:30Z</time>
      </trkpt>
      <trkpt lat="44.159916" lon="5.143402">
        <ele>510.7</ele>
        <time>2020-05-29T20:24:32Z</time>
      </trkpt>
      <trkpt lat="44.159954" lon="5.143451">
        <ele>511.6</ele>
        <time>2020-05-29T20:24:33Z</time>
      </trkpt>
      <trkpt lat="44.159988" lon="5.143496">
        <ele>512.3</ele>
        <time>2020-05-29T20:24:34Z</time>
      </trkpt>
      <trkpt lat="44.16003" lon="5.143545">
        <ele>513.2</ele>
        <time>2020-05-29T20:24:35Z</time>
      </trkpt>
      <trkpt lat="44.160069" lon="5.143586">
        <ele>514</ele>
        <time>2020-05-29T20:24:36Z</time>
      </trkpt>
      <trkpt lat="44.160118" lon="5.143635">
        <ele>514.9</ele>
        <time>2020-05-29T20:24:37Z</time>
      </trkpt>
      <trkpt lat="44.160156" lon="5.143675">
        <ele>515.7</ele>
        <time>2020-05-29T20:24:38Z</time>
      </trkpt>
      <trkpt lat="44.160198" lon="5.143721">
        <ele>516.5</ele>
        <time>2020-05-29T20:24:39Z</time>
      </trkpt>
      <trkpt lat="44.160244" lon="5.143768">
        <ele>517.4</ele>
        <time>2020-05-29T20:24:41Z</time>
      </trkpt>
      <trkpt lat="44.160278" lon="5.143804">
        <ele>518.1</ele>
        <time>2020-05-29T20:24:42Z</time>
      </trkpt>
      <trkpt lat="44.160324" lon="5.143853">
        <ele>518.9</ele>
        <time>2020-05-29T20:24:43Z</time>
      </trkpt>
      <trkpt lat="44.160358" lon="5.143892">
        <ele>519.6</ele>
        <time>2020-05-29T20:24:44Z</time>
      </trkpt>
      <trkpt lat="44.160396" lon="5.143936">
        <ele>520.4</ele>
        <time>2020-05-29T20:24:45Z</time>
      </trkpt>
      <trkpt lat="44.160431" lon="5.14398">
        <ele>521.1</ele>
        <time>2020-05-29T20:24:46Z</time>
      </trkpt>
      <trkpt lat="44.160465" lon="5.144022">
        <ele>521.8</ele>
        <time>2020-05-29T20:24:47Z</time>
      </trkpt>
      <trkpt lat="44.160503" lon="5.144066">
        <ele>522.6</ele>
        <time>2020-05-29T20:24:49Z</time>
      </trkpt>
      <trkpt lat="44.160542" lon="5.14411">
        <ele>523.3</ele>
        <time>2020-05-29T20:24:50Z</time>
      </trkpt>
      <trkpt lat="44.160583" lon="5.144156">
        <ele>524.1</ele>
        <time>2020-05-29T20:24:51Z</time>
      </trkpt>
      <trkpt lat="44.160622" lon="5.144199">
        <ele>524.8</ele>
        <time>2020-05-29T20:24:52Z</time>
      </trkpt>
      <trkpt lat="44.16066" lon="5.144242">
        <ele>525.5</ele>
        <time>2020-05-29T20:24:53Z</time>
      </trkpt>
      <trkpt lat="44.160698" lon="5.144286">
        <ele>526.2</ele>
        <time>2020-05-29T20:24:55Z</time>
      </trkpt>
      <trkpt lat="44.160736" lon="5.144329">
        <ele>526.9</ele>
        <time>2020-05-29T20:24:56Z</time>
      </trkpt>
      <trkpt lat="44.160774" lon="5.144372">
        <ele>527.6</ele>
        <time>2020-05-29T20:24:57Z</time>
      </trkpt>
      <trkpt lat="44.160809" lon="5.144416">
        <ele>528.3</ele>
        <time>2020-05-29T20:24:58Z</time>
      </trkpt>
      <trkpt lat="44.160843" lon="5.144461">
        <ele>528.9</ele>
        <time>2020-05-29T20:24:59Z</time>
      </trkpt>
      <trkpt lat="44.160873" lon="5.1445">
        <ele>529.5</ele>
        <time>2020-05-29T20:25:00Z</time>
      </trkpt>
      <trkpt lat="44.160908" lon="5.144547">
        <ele>530.1</ele>
        <time>2020-05-29T20:25:02Z</time>
      </trkpt>
      <trkpt lat="44.160931" lon="5.144586">
        <ele>530.5</ele>
        <time>2020-05-29T20:25:03Z</time>
      </trkpt>
      <trkpt lat="44.160961" lon="5.144627">
        <ele>530.9</ele>
        <time>2020-05-29T20:25:04Z</time>
      </trkpt>
      <trkpt lat="44.160992" lon="5.144674">
        <ele>531.2</ele>
        <time>2020-05-29T20:25:05Z</time>
      </trkpt>
      <trkpt lat="44.161022" lon="5.144722">
        <ele>531.3</ele>
        <time>2020-05-29T20:25:06Z</time>
      </trkpt>
      <trkpt lat="44.161045" lon="5.144766">
        <ele>531.4</ele>
        <time>2020-05-29T20:25:07Z</time>
      </trkpt>
      <trkpt lat="44.161072" lon="5.144818">
        <ele>531.7</ele>
        <time>2020-05-29T20:25:08Z</time>
      </trkpt>
      <trkpt lat="44.161091" lon="5.144875">
        <ele>532</ele>
        <time>2020-05-29T20:25:09Z</time>
      </trkpt>
      <trkpt lat="44.161102" lon="5.144932">
        <ele>532.3</ele>
        <time>2020-05-29T20:25:11Z</time>
      </trkpt>
      <trkpt lat="44.16111" lon="5.144992">
        <ele>532.7</ele>
        <time>2020-05-29T20:25:12Z</time>
      </trkpt>
      <trkpt lat="44.161114" lon="5.145055">
        <ele>533.2</ele>
        <time>2020-05-29T20:25:13Z</time>
      </trkpt>
      <trkpt lat="44.161114" lon="5.145122">
        <ele>533.6</ele>
        <time>2020-05-29T20:25:14Z</time>
      </trkpt>
      <trkpt lat="44.16111" lon="5.145178">
        <ele>534</ele>
        <time>2020-05-29T20:25:15Z</time>
      </trkpt>
      <trkpt lat="44.16111" lon="5.145234">
        <ele>534.4</ele>
        <time>2020-05-29T20:25:16Z</time>
      </trkpt>
      <trkpt lat="44.161106" lon="5.145302">
        <ele>534.9</ele>
        <time>2020-05-29T20:25:17Z</time>
      </trkpt>
      <trkpt lat="44.161102" lon="5.145367">
        <ele>535.3</ele>
        <time>2020-05-29T20:25:19Z</time>
      </trkpt>
      <trkpt lat="44.161098" lon="5.145421">
        <ele>535.7</ele>
        <time>2020-05-29T20:25:20Z</time>
      </trkpt>
      <trkpt lat="44.161098" lon="5.145483">
        <ele>536.1</ele>
        <time>2020-05-29T20:25:21Z</time>
      </trkpt>
      <trkpt lat="44.161102" lon="5.145536">
        <ele>536.5</ele>
        <time>2020-05-29T20:25:22Z</time>
      </trkpt>
      <trkpt lat="44.16111" lon="5.145586">
        <ele>536.8</ele>
        <time>2020-05-29T20:25:23Z</time>
      </trkpt>
      <trkpt lat="44.161125" lon="5.145645">
        <ele>537.3</ele>
        <time>2020-05-29T20:25:24Z</time>
      </trkpt>
      <trkpt lat="44.161144" lon="5.145695">
        <ele>537.7</ele>
        <time>2020-05-29T20:25:25Z</time>
      </trkpt>
      <trkpt lat="44.161163" lon="5.145741">
        <ele>538.1</ele>
        <time>2020-05-29T20:25:26Z</time>
      </trkpt>
      <trkpt lat="44.16119" lon="5.145803">
        <ele>538.6</ele>
        <time>2020-05-29T20:25:27Z</time>
      </trkpt>
      <trkpt lat="44.161213" lon="5.145854">
        <ele>539.1</ele>
        <time>2020-05-29T20:25:28Z</time>
      </trkpt>
      <trkpt lat="44.161243" lon="5.145917">
        <ele>539.6</ele>
        <time>2020-05-29T20:25:29Z</time>
      </trkpt>
      <trkpt lat="44.16127" lon="5.145968">
        <ele>540</ele>
        <time>2020-05-29T20:25:30Z</time>
      </trkpt>
      <trkpt lat="44.161293" lon="5.146028">
        <ele>540.5</ele>
        <time>2020-05-29T20:25:32Z</time>
      </trkpt>
      <trkpt lat="44.161308" lon="5.146097">
        <ele>540.9</ele>
        <time>2020-05-29T20:25:33Z</time>
      </trkpt>
      <trkpt lat="44.161312" lon="5.146161">
        <ele>541.3</ele>
        <time>2020-05-29T20:25:34Z</time>
      </trkpt>
      <trkpt lat="44.161312" lon="5.146216">
        <ele>541.6</ele>
        <time>2020-05-29T20:25:35Z</time>
      </trkpt>
      <trkpt lat="44.161308" lon="5.146284">
        <ele>542.1</ele>
        <time>2020-05-29T20:25:36Z</time>
      </trkpt>
      <trkpt lat="44.161308" lon="5.146341">
        <ele>542.4</ele>
        <time>2020-05-29T20:25:37Z</time>
      </trkpt>
      <trkpt lat="44.161312" lon="5.14641">
        <ele>542.8</ele>
        <time>2020-05-29T20:25:38Z</time>
      </trkpt>
      <trkpt lat="44.161324" lon="5.146481">
        <ele>543.3</ele>
        <time>2020-05-29T20:25:40Z</time>
      </trkpt>
      <trkpt lat="44.161343" lon="5.146543">
        <ele>543.7</ele>
        <time>2020-05-29T20:25:41Z</time>
      </trkpt>
      <trkpt lat="44.161362" lon="5.146609">
        <ele>544.2</ele>
        <time>2020-05-29T20:25:42Z</time>
      </trkpt>
      <trkpt lat="44.161377" lon="5.146678">
        <ele>544.6</ele>
        <time>2020-05-29T20:25:43Z</time>
      </trkpt>
      <trkpt lat="44.161385" lon="5.146738">
        <ele>545</ele>
        <time>2020-05-29T20:25:44Z</time>
      </trkpt>
      <trkpt lat="44.161385" lon="5.146798">
        <ele>545.4</ele>
        <time>2020-05-29T20:25:45Z</time>
      </trkpt>
      <trkpt lat="44.161369" lon="5.146872">
        <ele>545.9</ele>
        <time>2020-05-29T20:25:46Z</time>
      </trkpt>
      <trkpt lat="44.161335" lon="5.146925">
        <ele>546.3</ele>
        <time>2020-05-29T20:25:47Z</time>
      </trkpt>
      <trkpt lat="44.161289" lon="5.146958">
        <ele>546.8</ele>
        <time>2020-05-29T20:25:48Z</time>
      </trkpt>
      <trkpt lat="44.161243" lon="5.146973">
        <ele>547.2</ele>
        <time>2020-05-29T20:25:49Z</time>
      </trkpt>
      <trkpt lat="44.16119" lon="5.146965">
        <ele>547.7</ele>
        <time>2020-05-29T20:25:51Z</time>
      </trkpt>
      <trkpt lat="44.16114" lon="5.14695">
        <ele>548.1</ele>
        <time>2020-05-29T20:25:52Z</time>
      </trkpt>
      <trkpt lat="44.161091" lon="5.146927">
        <ele>548.6</ele>
        <time>2020-05-29T20:25:53Z</time>
      </trkpt>
      <trkpt lat="44.161041" lon="5.146902">
        <ele>549.1</ele>
        <time>2020-05-29T20:25:54Z</time>
      </trkpt>
      <trkpt lat="44.160988" lon="5.146875">
        <ele>549.6</ele>
        <time>2020-05-29T20:25:55Z</time>
      </trkpt>
      <trkpt lat="44.160931" lon="5.146849">
        <ele>550.2</ele>
        <time>2020-05-29T20:25:57Z</time>
      </trkpt>
      <trkpt lat="44.160873" lon="5.146828">
        <ele>550.7</ele>
        <time>2020-05-29T20:25:58Z</time>
      </trkpt>
      <trkpt lat="44.160828" lon="5.146816">
        <ele>551.2</ele>
        <time>2020-05-29T20:25:59Z</time>
      </trkpt>
      <trkpt lat="44.160774" lon="5.146803">
        <ele>551.7</ele>
        <time>2020-05-29T20:26:00Z</time>
      </trkpt>
      <trkpt lat="44.160728" lon="5.146795">
        <ele>552.1</ele>
        <time>2020-05-29T20:26:01Z</time>
      </trkpt>
      <trkpt lat="44.160683" lon="5.146791">
        <ele>552.5</ele>
        <time>2020-05-29T20:26:02Z</time>
      </trkpt>
      <trkpt lat="44.160629" lon="5.146799">
        <ele>553</ele>
        <time>2020-05-29T20:26:03Z</time>
      </trkpt>
      <trkpt lat="44.16058" lon="5.146831">
        <ele>553.5</ele>
        <time>2020-05-29T20:26:04Z</time>
      </trkpt>
      <trkpt lat="44.160549" lon="5.146886">
        <ele>554</ele>
        <time>2020-05-29T20:26:06Z</time>
      </trkpt>
      <trkpt lat="44.16053" lon="5.146939">
        <ele>554.3</ele>
        <time>2020-05-29T20:26:07Z</time>
      </trkpt>
      <trkpt lat="44.160515" lon="5.146989">
        <ele>554.7</ele>
        <time>2020-05-29T20:26:08Z</time>
      </trkpt>
      <trkpt lat="44.1605" lon="5.147056">
        <ele>555.1</ele>
        <time>2020-05-29T20:26:09Z</time>
      </trkpt>
      <trkpt lat="44.160488" lon="5.147119">
        <ele>555.5</ele>
        <time>2020-05-29T20:26:10Z</time>
      </trkpt>
      <trkpt lat="44.160473" lon="5.147184">
        <ele>555.8</ele>
        <time>2020-05-29T20:26:11Z</time>
      </trkpt>
      <trkpt lat="44.160461" lon="5.147244">
        <ele>556.2</ele>
        <time>2020-05-29T20:26:12Z</time>
      </trkpt>
      <trkpt lat="44.16045" lon="5.147295">
        <ele>556.5</ele>
        <time>2020-05-29T20:26:13Z</time>
      </trkpt>
      <trkpt lat="44.160438" lon="5.147342">
        <ele>556.7</ele>
        <time>2020-05-29T20:26:14Z</time>
      </trkpt>
      <trkpt lat="44.160427" lon="5.147393">
        <ele>557</ele>
        <time>2020-05-29T20:26:15Z</time>
      </trkpt>
      <trkpt lat="44.160412" lon="5.147453">
        <ele>557.4</ele>
        <time>2020-05-29T20:26:17Z</time>
      </trkpt>
      <trkpt lat="44.160393" lon="5.147516">
        <ele>557.9</ele>
        <time>2020-05-29T20:26:18Z</time>
      </trkpt>
      <trkpt lat="44.160362" lon="5.147572">
        <ele>558.3</ele>
        <time>2020-05-29T20:26:19Z</time>
      </trkpt>
      <trkpt lat="44.160332" lon="5.14762">
        <ele>558.8</ele>
        <time>2020-05-29T20:26:20Z</time>
      </trkpt>
      <trkpt lat="44.160305" lon="5.147658">
        <ele>559.1</ele>
        <time>2020-05-29T20:26:21Z</time>
      </trkpt>
      <trkpt lat="44.160271" lon="5.147699">
        <ele>559.6</ele>
        <time>2020-05-29T20:26:22Z</time>
      </trkpt>
      <trkpt lat="44.16024" lon="5.147731">
        <ele>559.9</ele>
        <time>2020-05-29T20:26:23Z</time>
      </trkpt>
      <trkpt lat="44.160206" lon="5.147772">
        <ele>560.4</ele>
        <time>2020-05-29T20:26:25Z</time>
      </trkpt>
      <trkpt lat="44.160175" lon="5.14781">
        <ele>560.8</ele>
        <time>2020-05-29T20:26:26Z</time>
      </trkpt>
      <trkpt lat="44.160141" lon="5.147847">
        <ele>561.3</ele>
        <time>2020-05-29T20:26:27Z</time>
      </trkpt>
      <trkpt lat="44.160114" lon="5.147882">
        <ele>561.7</ele>
        <time>2020-05-29T20:26:28Z</time>
      </trkpt>
      <trkpt lat="44.160084" lon="5.14793">
        <ele>562.2</ele>
        <time>2020-05-29T20:26:29Z</time>
      </trkpt>
      <trkpt lat="44.160057" lon="5.147973">
        <ele>562.6</ele>
        <time>2020-05-29T20:26:30Z</time>
      </trkpt>
      <trkpt lat="44.160034" lon="5.148028">
        <ele>563</ele>
        <time>2020-05-29T20:26:31Z</time>
      </trkpt>
      <trkpt lat="44.160019" lon="5.148086">
        <ele>563.5</ele>
        <time>2020-05-29T20:26:32Z</time>
      </trkpt>
      <trkpt lat="44.160011" lon="5.148138">
        <ele>563.8</ele>
        <time>2020-05-29T20:26:33Z</time>
      </trkpt>
      <trkpt lat="44.16" lon="5.148197">
        <ele>564.2</ele>
        <time>2020-05-29T20:26:35Z</time>
      </trkpt>
      <trkpt lat="44.159996" lon="5.148247">
        <ele>564.5</ele>
        <time>2020-05-29T20:26:36Z</time>
      </trkpt>
      <trkpt lat="44.159992" lon="5.148308">
        <ele>564.9</ele>
        <time>2020-05-29T20:26:37Z</time>
      </trkpt>
      <trkpt lat="44.159988" lon="5.148374">
        <ele>565.3</ele>
        <time>2020-05-29T20:26:38Z</time>
      </trkpt>
      <trkpt lat="44.159988" lon="5.148434">
        <ele>565.6</ele>
        <time>2020-05-29T20:26:39Z</time>
      </trkpt>
      <trkpt lat="44.159985" lon="5.148494">
        <ele>565.9</ele>
        <time>2020-05-29T20:26:40Z</time>
      </trkpt>
      <trkpt lat="44.159985" lon="5.148552">
        <ele>566.2</ele>
        <time>2020-05-29T20:26:42Z</time>
      </trkpt>
      <trkpt lat="44.159981" lon="5.148611">
        <ele>566.5</ele>
        <time>2020-05-29T20:26:43Z</time>
      </trkpt>
      <trkpt lat="44.159973" lon="5.148674">
        <ele>566.8</ele>
        <time>2020-05-29T20:26:44Z</time>
      </trkpt>
      <trkpt lat="44.159969" lon="5.148722">
        <ele>567</ele>
        <time>2020-05-29T20:26:45Z</time>
      </trkpt>
      <trkpt lat="44.159958" lon="5.148773">
        <ele>567.3</ele>
        <time>2020-05-29T20:26:46Z</time>
      </trkpt>
      <trkpt lat="44.159946" lon="5.148832">
        <ele>567.6</ele>
        <time>2020-05-29T20:26:47Z</time>
      </trkpt>
      <trkpt lat="44.159931" lon="5.148893">
        <ele>568</ele>
        <time>2020-05-29T20:26:48Z</time>
      </trkpt>
      <trkpt lat="44.159924" lon="5.148939">
        <ele>568.2</ele>
        <time>2020-05-29T20:26:49Z</time>
      </trkpt>
      <trkpt lat="44.159908" lon="5.148989">
        <ele>568.6</ele>
        <time>2020-05-29T20:26:50Z</time>
      </trkpt>
      <trkpt lat="44.159889" lon="5.149048">
        <ele>568.9</ele>
        <time>2020-05-29T20:26:52Z</time>
      </trkpt>
      <trkpt lat="44.159847" lon="5.149092">
        <ele>569.4</ele>
        <time>2020-05-29T20:26:53Z</time>
      </trkpt>
      <trkpt lat="44.159798" lon="5.149094">
        <ele>569.8</ele>
        <time>2020-05-29T20:26:54Z</time>
      </trkpt>
      <trkpt lat="44.159756" lon="5.149073">
        <ele>570.2</ele>
        <time>2020-05-29T20:26:55Z</time>
      </trkpt>
      <trkpt lat="44.15971" lon="5.149045">
        <ele>570.7</ele>
        <time>2020-05-29T20:26:56Z</time>
      </trkpt>
      <trkpt lat="44.159664" lon="5.149015">
        <ele>571.2</ele>
        <time>2020-05-29T20:26:58Z</time>
      </trkpt>
      <trkpt lat="44.15963" lon="5.148989">
        <ele>571.6</ele>
        <time>2020-05-29T20:26:59Z</time>
      </trkpt>
      <trkpt lat="44.15958" lon="5.148954">
        <ele>572.2</ele>
        <time>2020-05-29T20:27:00Z</time>
      </trkpt>
      <trkpt lat="44.159531" lon="5.148916">
        <ele>572.7</ele>
        <time>2020-05-29T20:27:01Z</time>
      </trkpt>
      <trkpt lat="44.159489" lon="5.148883">
        <ele>573.2</ele>
        <time>2020-05-29T20:27:02Z</time>
      </trkpt>
      <trkpt lat="44.159451" lon="5.148852">
        <ele>573.6</ele>
        <time>2020-05-29T20:27:03Z</time>
      </trkpt>
      <trkpt lat="44.159405" lon="5.148814">
        <ele>574</ele>
        <time>2020-05-29T20:27:04Z</time>
      </trkpt>
      <trkpt lat="44.159359" lon="5.148777">
        <ele>574.5</ele>
        <time>2020-05-29T20:27:06Z</time>
      </trkpt>
      <trkpt lat="44.159321" lon="5.148741">
        <ele>574.8</ele>
        <time>2020-05-29T20:27:07Z</time>
      </trkpt>
      <trkpt lat="44.159286" lon="5.1487">
        <ele>575.2</ele>
        <time>2020-05-29T20:27:08Z</time>
      </trkpt>
      <trkpt lat="44.159264" lon="5.14866">
        <ele>575.6</ele>
        <time>2020-05-29T20:27:09Z</time>
      </trkpt>
      <trkpt lat="44.159241" lon="5.148609">
        <ele>575.9</ele>
        <time>2020-05-29T20:27:10Z</time>
      </trkpt>
      <trkpt lat="44.159222" lon="5.14856">
        <ele>576.3</ele>
        <time>2020-05-29T20:27:11Z</time>
      </trkpt>
      <trkpt lat="44.159203" lon="5.148496">
        <ele>576.7</ele>
        <time>2020-05-29T20:27:12Z</time>
      </trkpt>
      <trkpt lat="44.159191" lon="5.148446">
        <ele>577</ele>
        <time>2020-05-29T20:27:13Z</time>
      </trkpt>
      <trkpt lat="44.159172" lon="5.14838">
        <ele>577.5</ele>
        <time>2020-05-29T20:27:15Z</time>
      </trkpt>
      <trkpt lat="44.159153" lon="5.148325">
        <ele>577.9</ele>
        <time>2020-05-29T20:27:16Z</time>
      </trkpt>
      <trkpt lat="44.159138" lon="5.148271">
        <ele>578.2</ele>
        <time>2020-05-29T20:27:17Z</time>
      </trkpt>
      <trkpt lat="44.159119" lon="5.148205">
        <ele>578.6</ele>
        <time>2020-05-29T20:27:18Z</time>
      </trkpt>
      <trkpt lat="44.1591" lon="5.14815">
        <ele>579</ele>
        <time>2020-05-29T20:27:19Z</time>
      </trkpt>
      <trkpt lat="44.159077" lon="5.148087">
        <ele>579.4</ele>
        <time>2020-05-29T20:27:20Z</time>
      </trkpt>
      <trkpt lat="44.159054" lon="5.148035">
        <ele>579.7</ele>
        <time>2020-05-29T20:27:21Z</time>
      </trkpt>
      <trkpt lat="44.159031" lon="5.147985">
        <ele>580.1</ele>
        <time>2020-05-29T20:27:22Z</time>
      </trkpt>
      <trkpt lat="44.159008" lon="5.147936">
        <ele>580.5</ele>
        <time>2020-05-29T20:27:23Z</time>
      </trkpt>
      <trkpt lat="44.158974" lon="5.147882">
        <ele>580.9</ele>
        <time>2020-05-29T20:27:24Z</time>
      </trkpt>
      <trkpt lat="44.158939" lon="5.147826">
        <ele>581.4</ele>
        <time>2020-05-29T20:27:25Z</time>
      </trkpt>
      <trkpt lat="44.158901" lon="5.147778">
        <ele>581.8</ele>
        <time>2020-05-29T20:27:27Z</time>
      </trkpt>
      <trkpt lat="44.158859" lon="5.147732">
        <ele>582.3</ele>
        <time>2020-05-29T20:27:28Z</time>
      </trkpt>
      <trkpt lat="44.158817" lon="5.147689">
        <ele>582.7</ele>
        <time>2020-05-29T20:27:29Z</time>
      </trkpt>
      <trkpt lat="44.158771" lon="5.147652">
        <ele>583.1</ele>
        <time>2020-05-29T20:27:30Z</time>
      </trkpt>
      <trkpt lat="44.158718" lon="5.14762">
        <ele>583.6</ele>
        <time>2020-05-29T20:27:31Z</time>
      </trkpt>
      <trkpt lat="44.158665" lon="5.147594">
        <ele>584.1</ele>
        <time>2020-05-29T20:27:33Z</time>
      </trkpt>
      <trkpt lat="44.158607" lon="5.147572">
        <ele>584.5</ele>
        <time>2020-05-29T20:27:34Z</time>
      </trkpt>
      <trkpt lat="44.158558" lon="5.147558">
        <ele>585</ele>
        <time>2020-05-29T20:27:35Z</time>
      </trkpt>
      <trkpt lat="44.158501" lon="5.147544">
        <ele>585.4</ele>
        <time>2020-05-29T20:27:36Z</time>
      </trkpt>
      <trkpt lat="44.158447" lon="5.147534">
        <ele>585.9</ele>
        <time>2020-05-29T20:27:37Z</time>
      </trkpt>
      <trkpt lat="44.158386" lon="5.147523">
        <ele>586.5</ele>
        <time>2020-05-29T20:27:38Z</time>
      </trkpt>
      <trkpt lat="44.158321" lon="5.147511">
        <ele>587.1</ele>
        <time>2020-05-29T20:27:39Z</time>
      </trkpt>
      <trkpt lat="44.15826" lon="5.147499">
        <ele>587.6</ele>
        <time>2020-05-29T20:27:41Z</time>
      </trkpt>
      <trkpt lat="44.158203" lon="5.147487">
        <ele>588.1</ele>
        <time>2020-05-29T20:27:42Z</time>
      </trkpt>
      <trkpt lat="44.158161" lon="5.147476">
        <ele>588.5</ele>
        <time>2020-05-29T20:27:43Z</time>
      </trkpt>
      <trkpt lat="44.158108" lon="5.14746">
        <ele>589</ele>
        <time>2020-05-29T20:27:44Z</time>
      </trkpt>
      <trkpt lat="44.158066" lon="5.147445">
        <ele>589.3</ele>
        <time>2020-05-29T20:27:45Z</time>
      </trkpt>
      <trkpt lat="44.158024" lon="5.147427">
        <ele>589.7</ele>
        <time>2020-05-29T20:27:46Z</time>
      </trkpt>
      <trkpt lat="44.157982" lon="5.147408">
        <ele>590</ele>
        <time>2020-05-29T20:27:47Z</time>
      </trkpt>
      <trkpt lat="44.157932" lon="5.147383">
        <ele>590.4</ele>
        <time>2020-05-29T20:27:48Z</time>
      </trkpt>
      <trkpt lat="44.15789" lon="5.147358">
        <ele>590.7</ele>
        <time>2020-05-29T20:27:49Z</time>
      </trkpt>
      <trkpt lat="44.157841" lon="5.147329">
        <ele>591.2</ele>
        <time>2020-05-29T20:27:50Z</time>
      </trkpt>
      <trkpt lat="44.157799" lon="5.147303">
        <ele>591.6</ele>
        <time>2020-05-29T20:27:51Z</time>
      </trkpt>
      <trkpt lat="44.157745" lon="5.147272">
        <ele>592.1</ele>
        <time>2020-05-29T20:27:53Z</time>
      </trkpt>
      <trkpt lat="44.157692" lon="5.14724">
        <ele>592.6</ele>
        <time>2020-05-29T20:27:54Z</time>
      </trkpt>
      <trkpt lat="44.157646" lon="5.147217">
        <ele>593</ele>
        <time>2020-05-29T20:27:55Z</time>
      </trkpt>
      <trkpt lat="44.157593" lon="5.14719">
        <ele>593.5</ele>
        <time>2020-05-29T20:27:56Z</time>
      </trkpt>
      <trkpt lat="44.157535" lon="5.147166">
        <ele>594</ele>
        <time>2020-05-29T20:27:57Z</time>
      </trkpt>
      <trkpt lat="44.157478" lon="5.147145">
        <ele>594.5</ele>
        <time>2020-05-29T20:27:58Z</time>
      </trkpt>
      <trkpt lat="44.157425" lon="5.147124">
        <ele>595</ele>
        <time>2020-05-29T20:28:00Z</time>
      </trkpt>
      <trkpt lat="44.157368" lon="5.147104">
        <ele>595.5</ele>
        <time>2020-05-29T20:28:01Z</time>
      </trkpt>
      <trkpt lat="44.157322" lon="5.147089">
        <ele>595.9</ele>
        <time>2020-05-29T20:28:02Z</time>
      </trkpt>
      <trkpt lat="44.157272" lon="5.147074">
        <ele>596.4</ele>
        <time>2020-05-29T20:28:03Z</time>
      </trkpt>
      <trkpt lat="44.157211" lon="5.14706">
        <ele>596.9</ele>
        <time>2020-05-29T20:28:04Z</time>
      </trkpt>
      <trkpt lat="44.157146" lon="5.147049">
        <ele>597.5</ele>
        <time>2020-05-29T20:28:05Z</time>
      </trkpt>
      <trkpt lat="44.157097" lon="5.147044">
        <ele>598</ele>
        <time>2020-05-29T20:28:06Z</time>
      </trkpt>
      <trkpt lat="44.15704" lon="5.147041">
        <ele>598.5</ele>
        <time>2020-05-29T20:28:07Z</time>
      </trkpt>
      <trkpt lat="44.156975" lon="5.147043">
        <ele>599</ele>
        <time>2020-05-29T20:28:09Z</time>
      </trkpt>
      <trkpt lat="44.156918" lon="5.147049">
        <ele>599.5</ele>
        <time>2020-05-29T20:28:10Z</time>
      </trkpt>
      <trkpt lat="44.156864" lon="5.147057">
        <ele>599.9</ele>
        <time>2020-05-29T20:28:11Z</time>
      </trkpt>
      <trkpt lat="44.156807" lon="5.147068">
        <ele>600.4</ele>
        <time>2020-05-29T20:28:12Z</time>
      </trkpt>
      <trkpt lat="44.15675" lon="5.147081">
        <ele>600.8</ele>
        <time>2020-05-29T20:28:13Z</time>
      </trkpt>
      <trkpt lat="44.156685" lon="5.147096">
        <ele>601.4</ele>
        <time>2020-05-29T20:28:14Z</time>
      </trkpt>
      <trkpt lat="44.156628" lon="5.147111">
        <ele>601.8</ele>
        <time>2020-05-29T20:28:16Z</time>
      </trkpt>
      <trkpt lat="44.15657" lon="5.147128">
        <ele>602.3</ele>
        <time>2020-05-29T20:28:17Z</time>
      </trkpt>
      <trkpt lat="44.156509" lon="5.147146">
        <ele>602.8</ele>
        <time>2020-05-29T20:28:18Z</time>
      </trkpt>
      <trkpt lat="44.156452" lon="5.147164">
        <ele>603.3</ele>
        <time>2020-05-29T20:28:19Z</time>
      </trkpt>
      <trkpt lat="44.156391" lon="5.147182">
        <ele>603.7</ele>
        <time>2020-05-29T20:28:20Z</time>
      </trkpt>
      <trkpt lat="44.156334" lon="5.147201">
        <ele>604.1</ele>
        <time>2020-05-29T20:28:22Z</time>
      </trkpt>
      <trkpt lat="44.156277" lon="5.147221">
        <ele>604.5</ele>
        <time>2020-05-29T20:28:23Z</time>
      </trkpt>
      <trkpt lat="44.156219" lon="5.147239">
        <ele>604.9</ele>
        <time>2020-05-29T20:28:24Z</time>
      </trkpt>
      <trkpt lat="44.156162" lon="5.147259">
        <ele>605.2</ele>
        <time>2020-05-29T20:28:25Z</time>
      </trkpt>
      <trkpt lat="44.156116" lon="5.147275">
        <ele>605.4</ele>
        <time>2020-05-29T20:28:26Z</time>
      </trkpt>
      <trkpt lat="44.156063" lon="5.1473">
        <ele>605.6</ele>
        <time>2020-05-29T20:28:27Z</time>
      </trkpt>
      <trkpt lat="44.156021" lon="5.147327">
        <ele>605.8</ele>
        <time>2020-05-29T20:28:28Z</time>
      </trkpt>
      <trkpt lat="44.155979" lon="5.147369">
        <ele>606.1</ele>
        <time>2020-05-29T20:28:30Z</time>
      </trkpt>
      <trkpt lat="44.155945" lon="5.147409">
        <ele>606.3</ele>
        <time>2020-05-29T20:28:31Z</time>
      </trkpt>
      <trkpt lat="44.155922" lon="5.147454">
        <ele>606.5</ele>
        <time>2020-05-29T20:28:32Z</time>
      </trkpt>
      <trkpt lat="44.155903" lon="5.147509">
        <ele>606.6</ele>
        <time>2020-05-29T20:28:33Z</time>
      </trkpt>
      <trkpt lat="44.155895" lon="5.147582">
        <ele>607.2</ele>
        <time>2020-05-29T20:28:34Z</time>
      </trkpt>
      <trkpt lat="44.155903" lon="5.147651">
        <ele>607.7</ele>
        <time>2020-05-29T20:28:35Z</time>
      </trkpt>
      <trkpt lat="44.155926" lon="5.14772">
        <ele>608.4</ele>
        <time>2020-05-29T20:28:36Z</time>
      </trkpt>
      <trkpt lat="44.155952" lon="5.147773">
        <ele>609.1</ele>
        <time>2020-05-29T20:28:37Z</time>
      </trkpt>
      <trkpt lat="44.155994" lon="5.147829">
        <ele>609.9</ele>
        <time>2020-05-29T20:28:38Z</time>
      </trkpt>
      <trkpt lat="44.156044" lon="5.147881">
        <ele>610.9</ele>
        <time>2020-05-29T20:28:40Z</time>
      </trkpt>
      <trkpt lat="44.156086" lon="5.147922">
        <ele>611.7</ele>
        <time>2020-05-29T20:28:41Z</time>
      </trkpt>
      <trkpt lat="44.156128" lon="5.147961">
        <ele>612.5</ele>
        <time>2020-05-29T20:28:42Z</time>
      </trkpt>
      <trkpt lat="44.156177" lon="5.148007">
        <ele>613.4</ele>
        <time>2020-05-29T20:28:43Z</time>
      </trkpt>
      <trkpt lat="44.156223" lon="5.148048">
        <ele>614.2</ele>
        <time>2020-05-29T20:28:44Z</time>
      </trkpt>
      <trkpt lat="44.156261" lon="5.148082">
        <ele>614.9</ele>
        <time>2020-05-29T20:28:45Z</time>
      </trkpt>
      <trkpt lat="44.156307" lon="5.148121">
        <ele>615.6</ele>
        <time>2020-05-29T20:28:46Z</time>
      </trkpt>
      <trkpt lat="44.156341" lon="5.148152">
        <ele>616.2</ele>
        <time>2020-05-29T20:28:47Z</time>
      </trkpt>
      <trkpt lat="44.156391" lon="5.148194">
        <ele>616.9</ele>
        <time>2020-05-29T20:28:48Z</time>
      </trkpt>
      <trkpt lat="44.156433" lon="5.148233">
        <ele>617.5</ele>
        <time>2020-05-29T20:28:50Z</time>
      </trkpt>
      <trkpt lat="44.156471" lon="5.148268">
        <ele>618</ele>
        <time>2020-05-29T20:28:51Z</time>
      </trkpt>
      <trkpt lat="44.156513" lon="5.148305">
        <ele>618.3</ele>
        <time>2020-05-29T20:28:52Z</time>
      </trkpt>
      <trkpt lat="44.156544" lon="5.148335">
        <ele>618.5</ele>
        <time>2020-05-29T20:28:53Z</time>
      </trkpt>
      <trkpt lat="44.156578" lon="5.148369">
        <ele>618.8</ele>
        <time>2020-05-29T20:28:54Z</time>
      </trkpt>
      <trkpt lat="44.156616" lon="5.148409">
        <ele>619.3</ele>
        <time>2020-05-29T20:28:55Z</time>
      </trkpt>
      <trkpt lat="44.156651" lon="5.148452">
        <ele>619.7</ele>
        <time>2020-05-29T20:28:56Z</time>
      </trkpt>
      <trkpt lat="44.156681" lon="5.148489">
        <ele>620.1</ele>
        <time>2020-05-29T20:28:57Z</time>
      </trkpt>
      <trkpt lat="44.156712" lon="5.14853">
        <ele>620.6</ele>
        <time>2020-05-29T20:28:58Z</time>
      </trkpt>
      <trkpt lat="44.15675" lon="5.148579">
        <ele>621.2</ele>
        <time>2020-05-29T20:29:00Z</time>
      </trkpt>
      <trkpt lat="44.15678" lon="5.148628">
        <ele>621.7</ele>
        <time>2020-05-29T20:29:01Z</time>
      </trkpt>
      <trkpt lat="44.156811" lon="5.148672">
        <ele>622.2</ele>
        <time>2020-05-29T20:29:02Z</time>
      </trkpt>
      <trkpt lat="44.156834" lon="5.148713">
        <ele>622.7</ele>
        <time>2020-05-29T20:29:03Z</time>
      </trkpt>
      <trkpt lat="44.15686" lon="5.148765">
        <ele>623.2</ele>
        <time>2020-05-29T20:29:04Z</time>
      </trkpt>
      <trkpt lat="44.156887" lon="5.148811">
        <ele>623.7</ele>
        <time>2020-05-29T20:29:05Z</time>
      </trkpt>
      <trkpt lat="44.15691" lon="5.148857">
        <ele>624.2</ele>
        <time>2020-05-29T20:29:06Z</time>
      </trkpt>
      <trkpt lat="44.156933" lon="5.148912">
        <ele>624.7</ele>
        <time>2020-05-29T20:29:07Z</time>
      </trkpt>
      <trkpt lat="44.156956" lon="5.148961">
        <ele>625.2</ele>
        <time>2020-05-29T20:29:08Z</time>
      </trkpt>
      <trkpt lat="44.156971" lon="5.149004">
        <ele>625.6</ele>
        <time>2020-05-29T20:29:09Z</time>
      </trkpt>
      <trkpt lat="44.156998" lon="5.149063">
        <ele>626.2</ele>
        <time>2020-05-29T20:29:10Z</time>
      </trkpt>
      <trkpt lat="44.157017" lon="5.149116">
        <ele>626.7</ele>
        <time>2020-05-29T20:29:12Z</time>
      </trkpt>
      <trkpt lat="44.15704" lon="5.149168">
        <ele>627.2</ele>
        <time>2020-05-29T20:29:13Z</time>
      </trkpt>
      <trkpt lat="44.157059" lon="5.149222">
        <ele>627.7</ele>
        <time>2020-05-29T20:29:14Z</time>
      </trkpt>
      <trkpt lat="44.157074" lon="5.149265">
        <ele>628.1</ele>
        <time>2020-05-29T20:29:15Z</time>
      </trkpt>
      <trkpt lat="44.157093" lon="5.149313">
        <ele>628.6</ele>
        <time>2020-05-29T20:29:16Z</time>
      </trkpt>
      <trkpt lat="44.157112" lon="5.149372">
        <ele>629.1</ele>
        <time>2020-05-29T20:29:17Z</time>
      </trkpt>
      <trkpt lat="44.157127" lon="5.149435">
        <ele>629.7</ele>
        <time>2020-05-29T20:29:18Z</time>
      </trkpt>
      <trkpt lat="44.157143" lon="5.149495">
        <ele>630.2</ele>
        <time>2020-05-29T20:29:20Z</time>
      </trkpt>
      <trkpt lat="44.157154" lon="5.149548">
        <ele>630.7</ele>
        <time>2020-05-29T20:29:21Z</time>
      </trkpt>
      <trkpt lat="44.157166" lon="5.149609">
        <ele>631.2</ele>
        <time>2020-05-29T20:29:22Z</time>
      </trkpt>
      <trkpt lat="44.157177" lon="5.149675">
        <ele>631.8</ele>
        <time>2020-05-29T20:29:23Z</time>
      </trkpt>
      <trkpt lat="44.157185" lon="5.149738">
        <ele>632.3</ele>
        <time>2020-05-29T20:29:24Z</time>
      </trkpt>
      <trkpt lat="44.157192" lon="5.149803">
        <ele>632.8</ele>
        <time>2020-05-29T20:29:25Z</time>
      </trkpt>
      <trkpt lat="44.157192" lon="5.149868">
        <ele>633.4</ele>
        <time>2020-05-29T20:29:27Z</time>
      </trkpt>
      <trkpt lat="44.157192" lon="5.149931">
        <ele>633.9</ele>
        <time>2020-05-29T20:29:28Z</time>
      </trkpt>
      <trkpt lat="44.157192" lon="5.149993">
        <ele>634.5</ele>
        <time>2020-05-29T20:29:29Z</time>
      </trkpt>
      <trkpt lat="44.157192" lon="5.150047">
        <ele>634.9</ele>
        <time>2020-05-29T20:29:30Z</time>
      </trkpt>
      <trkpt lat="44.157188" lon="5.150114">
        <ele>635.5</ele>
        <time>2020-05-29T20:29:31Z</time>
      </trkpt>
      <trkpt lat="44.157188" lon="5.150164">
        <ele>635.9</ele>
        <time>2020-05-29T20:29:32Z</time>
      </trkpt>
      <trkpt lat="44.157185" lon="5.150218">
        <ele>636.3</ele>
        <time>2020-05-29T20:29:33Z</time>
      </trkpt>
      <trkpt lat="44.157181" lon="5.150281">
        <ele>636.8</ele>
        <time>2020-05-29T20:29:34Z</time>
      </trkpt>
      <trkpt lat="44.157177" lon="5.150337">
        <ele>637.2</ele>
        <time>2020-05-29T20:29:35Z</time>
      </trkpt>
      <trkpt lat="44.157173" lon="5.150405">
        <ele>637.7</ele>
        <time>2020-05-29T20:29:37Z</time>
      </trkpt>
      <trkpt lat="44.157169" lon="5.150469">
        <ele>638.2</ele>
        <time>2020-05-29T20:29:38Z</time>
      </trkpt>
      <trkpt lat="44.157166" lon="5.150535">
        <ele>638.7</ele>
        <time>2020-05-29T20:29:39Z</time>
      </trkpt>
      <trkpt lat="44.157162" lon="5.150597">
        <ele>639.2</ele>
        <time>2020-05-29T20:29:40Z</time>
      </trkpt>
      <trkpt lat="44.157158" lon="5.150655">
        <ele>639.6</ele>
        <time>2020-05-29T20:29:41Z</time>
      </trkpt>
      <trkpt lat="44.157158" lon="5.150722">
        <ele>640.1</ele>
        <time>2020-05-29T20:29:42Z</time>
      </trkpt>
      <trkpt lat="44.157158" lon="5.150784">
        <ele>640.6</ele>
        <time>2020-05-29T20:29:43Z</time>
      </trkpt>
      <trkpt lat="44.157158" lon="5.150851">
        <ele>641.2</ele>
        <time>2020-05-29T20:29:44Z</time>
      </trkpt>
      <trkpt lat="44.157162" lon="5.150908">
        <ele>641.7</ele>
        <time>2020-05-29T20:29:45Z</time>
      </trkpt>
      <trkpt lat="44.157169" lon="5.150966">
        <ele>642.2</ele>
        <time>2020-05-29T20:29:46Z</time>
      </trkpt>
      <trkpt lat="44.157177" lon="5.151031">
        <ele>642.7</ele>
        <time>2020-05-29T20:29:48Z</time>
      </trkpt>
      <trkpt lat="44.157192" lon="5.151099">
        <ele>643.3</ele>
        <time>2020-05-29T20:29:49Z</time>
      </trkpt>
      <trkpt lat="44.157207" lon="5.151167">
        <ele>644</ele>
        <time>2020-05-29T20:29:50Z</time>
      </trkpt>
      <trkpt lat="44.157227" lon="5.151231">
        <ele>644.6</ele>
        <time>2020-05-29T20:29:51Z</time>
      </trkpt>
      <trkpt lat="44.157246" lon="5.151299">
        <ele>645.2</ele>
        <time>2020-05-29T20:29:52Z</time>
      </trkpt>
      <trkpt lat="44.157265" lon="5.151353">
        <ele>645.8</ele>
        <time>2020-05-29T20:29:53Z</time>
      </trkpt>
      <trkpt lat="44.157288" lon="5.151407">
        <ele>646.3</ele>
        <time>2020-05-29T20:29:54Z</time>
      </trkpt>
      <trkpt lat="44.15731" lon="5.151474">
        <ele>646.9</ele>
        <time>2020-05-29T20:29:56Z</time>
      </trkpt>
      <trkpt lat="44.15733" lon="5.151527">
        <ele>647.4</ele>
        <time>2020-05-29T20:29:57Z</time>
      </trkpt>
      <trkpt lat="44.157349" lon="5.15159">
        <ele>648</ele>
        <time>2020-05-29T20:29:58Z</time>
      </trkpt>
      <trkpt lat="44.15736" lon="5.151638">
        <ele>648.4</ele>
        <time>2020-05-29T20:29:59Z</time>
      </trkpt>
      <trkpt lat="44.157371" lon="5.151696">
        <ele>648.9</ele>
        <time>2020-05-29T20:30:00Z</time>
      </trkpt>
      <trkpt lat="44.157383" lon="5.151746">
        <ele>649.3</ele>
        <time>2020-05-29T20:30:01Z</time>
      </trkpt>
      <trkpt lat="44.157391" lon="5.151795">
        <ele>649.7</ele>
        <time>2020-05-29T20:30:02Z</time>
      </trkpt>
      <trkpt lat="44.157402" lon="5.151853">
        <ele>650.3</ele>
        <time>2020-05-29T20:30:03Z</time>
      </trkpt>
      <trkpt lat="44.15741" lon="5.151899">
        <ele>650.7</ele>
        <time>2020-05-29T20:30:04Z</time>
      </trkpt>
      <trkpt lat="44.157421" lon="5.151951">
        <ele>651.1</ele>
        <time>2020-05-29T20:30:05Z</time>
      </trkpt>
      <trkpt lat="44.157436" lon="5.152013">
        <ele>651.7</ele>
        <time>2020-05-29T20:30:06Z</time>
      </trkpt>
      <trkpt lat="44.157459" lon="5.152076">
        <ele>652.3</ele>
        <time>2020-05-29T20:30:08Z</time>
      </trkpt>
      <trkpt lat="44.157486" lon="5.152132">
        <ele>652.9</ele>
        <time>2020-05-29T20:30:09Z</time>
      </trkpt>
      <trkpt lat="44.157509" lon="5.152178">
        <ele>653.4</ele>
        <time>2020-05-29T20:30:10Z</time>
      </trkpt>
      <trkpt lat="44.157539" lon="5.15223">
        <ele>653.9</ele>
        <time>2020-05-29T20:30:11Z</time>
      </trkpt>
      <trkpt lat="44.157574" lon="5.152279">
        <ele>654.5</ele>
        <time>2020-05-29T20:30:12Z</time>
      </trkpt>
      <trkpt lat="44.157604" lon="5.152328">
        <ele>655</ele>
        <time>2020-05-29T20:30:13Z</time>
      </trkpt>
      <trkpt lat="44.157631" lon="5.152369">
        <ele>655.5</ele>
        <time>2020-05-29T20:30:14Z</time>
      </trkpt>
      <trkpt lat="44.157665" lon="5.152418">
        <ele>656</ele>
        <time>2020-05-29T20:30:16Z</time>
      </trkpt>
      <trkpt lat="44.157692" lon="5.152466">
        <ele>656.5</ele>
        <time>2020-05-29T20:30:17Z</time>
      </trkpt>
      <trkpt lat="44.157719" lon="5.152509">
        <ele>657</ele>
        <time>2020-05-29T20:30:18Z</time>
      </trkpt>
      <trkpt lat="44.157749" lon="5.152558">
        <ele>657.5</ele>
        <time>2020-05-29T20:30:19Z</time>
      </trkpt>
      <trkpt lat="44.15778" lon="5.152607">
        <ele>658</ele>
        <time>2020-05-29T20:30:20Z</time>
      </trkpt>
      <trkpt lat="44.15781" lon="5.152657">
        <ele>658.5</ele>
        <time>2020-05-29T20:30:21Z</time>
      </trkpt>
      <trkpt lat="44.157845" lon="5.152707">
        <ele>659</ele>
        <time>2020-05-29T20:30:23Z</time>
      </trkpt>
      <trkpt lat="44.157875" lon="5.152752">
        <ele>659.5</ele>
        <time>2020-05-29T20:30:24Z</time>
      </trkpt>
      <trkpt lat="44.157917" lon="5.152805">
        <ele>660.1</ele>
        <time>2020-05-29T20:30:25Z</time>
      </trkpt>
      <trkpt lat="44.157951" lon="5.152849">
        <ele>660.6</ele>
        <time>2020-05-29T20:30:26Z</time>
      </trkpt>
      <trkpt lat="44.157989" lon="5.152891">
        <ele>661.1</ele>
        <time>2020-05-29T20:30:27Z</time>
      </trkpt>
      <trkpt lat="44.158031" lon="5.152937">
        <ele>661.7</ele>
        <time>2020-05-29T20:30:28Z</time>
      </trkpt>
      <trkpt lat="44.158077" lon="5.152987">
        <ele>662.3</ele>
        <time>2020-05-29T20:30:29Z</time>
      </trkpt>
      <trkpt lat="44.158119" lon="5.153035">
        <ele>662.8</ele>
        <time>2020-05-29T20:30:30Z</time>
      </trkpt>
      <trkpt lat="44.15815" lon="5.153078">
        <ele>663.2</ele>
        <time>2020-05-29T20:30:31Z</time>
      </trkpt>
      <trkpt lat="44.158184" lon="5.153122">
        <ele>663.7</ele>
        <time>2020-05-29T20:30:32Z</time>
      </trkpt>
      <trkpt lat="44.158222" lon="5.153173">
        <ele>664.3</ele>
        <time>2020-05-29T20:30:34Z</time>
      </trkpt>
      <trkpt lat="44.15826" lon="5.15323">
        <ele>664.8</ele>
        <time>2020-05-29T20:30:35Z</time>
      </trkpt>
      <trkpt lat="44.158298" lon="5.153286">
        <ele>665.2</ele>
        <time>2020-05-29T20:30:36Z</time>
      </trkpt>
      <trkpt lat="44.158329" lon="5.153341">
        <ele>665.6</ele>
        <time>2020-05-29T20:30:37Z</time>
      </trkpt>
      <trkpt lat="44.158356" lon="5.153388">
        <ele>665.9</ele>
        <time>2020-05-29T20:30:38Z</time>
      </trkpt>
      <trkpt lat="44.158386" lon="5.153446">
        <ele>666</ele>
        <time>2020-05-29T20:30:39Z</time>
      </trkpt>
      <trkpt lat="44.158413" lon="5.153501">
        <ele>666.1</ele>
        <time>2020-05-29T20:30:41Z</time>
      </trkpt>
      <trkpt lat="44.158436" lon="5.15355">
        <ele>666.1</ele>
        <time>2020-05-29T20:30:42Z</time>
      </trkpt>
      <trkpt lat="44.158462" lon="5.153608">
        <ele>666.3</ele>
        <time>2020-05-29T20:30:43Z</time>
      </trkpt>
      <trkpt lat="44.158489" lon="5.15367">
        <ele>666.5</ele>
        <time>2020-05-29T20:30:44Z</time>
      </trkpt>
      <trkpt lat="44.158512" lon="5.15373">
        <ele>666.7</ele>
        <time>2020-05-29T20:30:45Z</time>
      </trkpt>
      <trkpt lat="44.158543" lon="5.153795">
        <ele>666.9</ele>
        <time>2020-05-29T20:30:46Z</time>
      </trkpt>
      <trkpt lat="44.158565" lon="5.153848">
        <ele>667.1</ele>
        <time>2020-05-29T20:30:47Z</time>
      </trkpt>
      <trkpt lat="44.158592" lon="5.153899">
        <ele>667.3</ele>
        <time>2020-05-29T20:30:48Z</time>
      </trkpt>
      <trkpt lat="44.158623" lon="5.153953">
        <ele>667.5</ele>
        <time>2020-05-29T20:30:50Z</time>
      </trkpt>
      <trkpt lat="44.158653" lon="5.153996">
        <ele>667.7</ele>
        <time>2020-05-29T20:30:51Z</time>
      </trkpt>
      <trkpt lat="44.158691" lon="5.154041">
        <ele>667.8</ele>
        <time>2020-05-29T20:30:52Z</time>
      </trkpt>
      <trkpt lat="44.158726" lon="5.154073">
        <ele>667.9</ele>
        <time>2020-05-29T20:30:53Z</time>
      </trkpt>
      <trkpt lat="44.158775" lon="5.154107">
        <ele>668.2</ele>
        <time>2020-05-29T20:30:54Z</time>
      </trkpt>
      <trkpt lat="44.158821" lon="5.154128">
        <ele>668.5</ele>
        <time>2020-05-29T20:30:55Z</time>
      </trkpt>
      <trkpt lat="44.158878" lon="5.154149">
        <ele>668.9</ele>
        <time>2020-05-29T20:30:56Z</time>
      </trkpt>
      <trkpt lat="44.158936" lon="5.154155">
        <ele>669.4</ele>
        <time>2020-05-29T20:30:57Z</time>
      </trkpt>
      <trkpt lat="44.158993" lon="5.154147">
        <ele>669.9</ele>
        <time>2020-05-29T20:30:59Z</time>
      </trkpt>
      <trkpt lat="44.159054" lon="5.154134">
        <ele>670.4</ele>
        <time>2020-05-29T20:31:00Z</time>
      </trkpt>
      <trkpt lat="44.159111" lon="5.154117">
        <ele>671</ele>
        <time>2020-05-29T20:31:01Z</time>
      </trkpt>
      <trkpt lat="44.159161" lon="5.154099">
        <ele>671.4</ele>
        <time>2020-05-29T20:31:02Z</time>
      </trkpt>
      <trkpt lat="44.159218" lon="5.154078">
        <ele>671.9</ele>
        <time>2020-05-29T20:31:03Z</time>
      </trkpt>
      <trkpt lat="44.159267" lon="5.15406">
        <ele>672.4</ele>
        <time>2020-05-29T20:31:04Z</time>
      </trkpt>
      <trkpt lat="44.159325" lon="5.154044">
        <ele>672.9</ele>
        <time>2020-05-29T20:31:05Z</time>
      </trkpt>
      <trkpt lat="44.159374" lon="5.154035">
        <ele>673.3</ele>
        <time>2020-05-29T20:31:06Z</time>
      </trkpt>
      <trkpt lat="44.159428" lon="5.154034">
        <ele>673.7</ele>
        <time>2020-05-29T20:31:07Z</time>
      </trkpt>
      <trkpt lat="44.159485" lon="5.154041">
        <ele>674.2</ele>
        <time>2020-05-29T20:31:09Z</time>
      </trkpt>
      <trkpt lat="44.15955" lon="5.154055">
        <ele>674.7</ele>
        <time>2020-05-29T20:31:10Z</time>
      </trkpt>
      <trkpt lat="44.159615" lon="5.154069">
        <ele>675.2</ele>
        <time>2020-05-29T20:31:11Z</time>
      </trkpt>
      <trkpt lat="44.159679" lon="5.154083">
        <ele>675.7</ele>
        <time>2020-05-29T20:31:12Z</time>
      </trkpt>
      <trkpt lat="44.15974" lon="5.154098">
        <ele>676.2</ele>
        <time>2020-05-29T20:31:13Z</time>
      </trkpt>
      <trkpt lat="44.159801" lon="5.154115">
        <ele>676.6</ele>
        <time>2020-05-29T20:31:15Z</time>
      </trkpt>
      <trkpt lat="44.159866" lon="5.154132">
        <ele>677.1</ele>
        <time>2020-05-29T20:31:16Z</time>
      </trkpt>
      <trkpt lat="44.15992" lon="5.154143">
        <ele>677.6</ele>
        <time>2020-05-29T20:31:17Z</time>
      </trkpt>
      <trkpt lat="44.159981" lon="5.154149">
        <ele>678</ele>
        <time>2020-05-29T20:31:18Z</time>
      </trkpt>
      <trkpt lat="44.160046" lon="5.154148">
        <ele>678.5</ele>
        <time>2020-05-29T20:31:19Z</time>
      </trkpt>
      <trkpt lat="44.160114" lon="5.154146">
        <ele>679</ele>
        <time>2020-05-29T20:31:20Z</time>
      </trkpt>
      <trkpt lat="44.160175" lon="5.154149">
        <ele>679.5</ele>
        <time>2020-05-29T20:31:22Z</time>
      </trkpt>
      <trkpt lat="44.160233" lon="5.15416">
        <ele>679.9</ele>
        <time>2020-05-29T20:31:23Z</time>
      </trkpt>
      <trkpt lat="44.160294" lon="5.154184">
        <ele>680.4</ele>
        <time>2020-05-29T20:31:24Z</time>
      </trkpt>
      <trkpt lat="44.160343" lon="5.154215">
        <ele>680.7</ele>
        <time>2020-05-29T20:31:25Z</time>
      </trkpt>
      <trkpt lat="44.1604" lon="5.154252">
        <ele>681.2</ele>
        <time>2020-05-29T20:31:26Z</time>
      </trkpt>
      <trkpt lat="44.160454" lon="5.154288">
        <ele>681.6</ele>
        <time>2020-05-29T20:31:28Z</time>
      </trkpt>
      <trkpt lat="44.1605" lon="5.154319">
        <ele>681.9</ele>
        <time>2020-05-29T20:31:29Z</time>
      </trkpt>
      <trkpt lat="44.160542" lon="5.154351">
        <ele>682.3</ele>
        <time>2020-05-29T20:31:30Z</time>
      </trkpt>
      <trkpt lat="44.160591" lon="5.154388">
        <ele>682.7</ele>
        <time>2020-05-29T20:31:31Z</time>
      </trkpt>
      <trkpt lat="44.160641" lon="5.154427">
        <ele>683.1</ele>
        <time>2020-05-29T20:31:32Z</time>
      </trkpt>
      <trkpt lat="44.160694" lon="5.154468">
        <ele>683.5</ele>
        <time>2020-05-29T20:31:33Z</time>
      </trkpt>
      <trkpt lat="44.160736" lon="5.154503">
        <ele>683.8</ele>
        <time>2020-05-29T20:31:34Z</time>
      </trkpt>
      <trkpt lat="44.160789" lon="5.154544">
        <ele>684.2</ele>
        <time>2020-05-29T20:31:35Z</time>
      </trkpt>
      <trkpt lat="44.160843" lon="5.154588">
        <ele>684.6</ele>
        <time>2020-05-29T20:31:37Z</time>
      </trkpt>
      <trkpt lat="44.160892" lon="5.154629">
        <ele>685</ele>
        <time>2020-05-29T20:31:38Z</time>
      </trkpt>
      <trkpt lat="44.160938" lon="5.154665">
        <ele>685.3</ele>
        <time>2020-05-29T20:31:39Z</time>
      </trkpt>
      <trkpt lat="44.160992" lon="5.154708">
        <ele>685.7</ele>
        <time>2020-05-29T20:31:40Z</time>
      </trkpt>
      <trkpt lat="44.161045" lon="5.154752">
        <ele>686</ele>
        <time>2020-05-29T20:31:41Z</time>
      </trkpt>
      <trkpt lat="44.161095" lon="5.154792">
        <ele>686.4</ele>
        <time>2020-05-29T20:31:42Z</time>
      </trkpt>
      <trkpt lat="44.161148" lon="5.154836">
        <ele>686.8</ele>
        <time>2020-05-29T20:31:44Z</time>
      </trkpt>
      <trkpt lat="44.161198" lon="5.154878">
        <ele>687.1</ele>
        <time>2020-05-29T20:31:45Z</time>
      </trkpt>
      <trkpt lat="44.161251" lon="5.154922">
        <ele>687.5</ele>
        <time>2020-05-29T20:31:46Z</time>
      </trkpt>
      <trkpt lat="44.161293" lon="5.154958">
        <ele>687.8</ele>
        <time>2020-05-29T20:31:47Z</time>
      </trkpt>
      <trkpt lat="44.161346" lon="5.155003">
        <ele>688.1</ele>
        <time>2020-05-29T20:31:48Z</time>
      </trkpt>
      <trkpt lat="44.161388" lon="5.155039">
        <ele>688.4</ele>
        <time>2020-05-29T20:31:49Z</time>
      </trkpt>
      <trkpt lat="44.161434" lon="5.155082">
        <ele>688.7</ele>
        <time>2020-05-29T20:31:50Z</time>
      </trkpt>
      <trkpt lat="44.16148" lon="5.155126">
        <ele>689.1</ele>
        <time>2020-05-29T20:31:52Z</time>
      </trkpt>
      <trkpt lat="44.161522" lon="5.155164">
        <ele>689.3</ele>
        <time>2020-05-29T20:31:53Z</time>
      </trkpt>
      <trkpt lat="44.161571" lon="5.155212">
        <ele>689.7</ele>
        <time>2020-05-29T20:31:54Z</time>
      </trkpt>
      <trkpt lat="44.16161" lon="5.155254">
        <ele>689.9</ele>
        <time>2020-05-29T20:31:55Z</time>
      </trkpt>
      <trkpt lat="44.161655" lon="5.155303">
        <ele>690.3</ele>
        <time>2020-05-29T20:31:56Z</time>
      </trkpt>
      <trkpt lat="44.161701" lon="5.155358">
        <ele>690.6</ele>
        <time>2020-05-29T20:31:57Z</time>
      </trkpt>
      <trkpt lat="44.161743" lon="5.155416">
        <ele>690.9</ele>
        <time>2020-05-29T20:31:58Z</time>
      </trkpt>
      <trkpt lat="44.161777" lon="5.155473">
        <ele>691.2</ele>
        <time>2020-05-29T20:32:00Z</time>
      </trkpt>
      <trkpt lat="44.161812" lon="5.155533">
        <ele>691.5</ele>
        <time>2020-05-29T20:32:01Z</time>
      </trkpt>
      <trkpt lat="44.161842" lon="5.155595">
        <ele>691.8</ele>
        <time>2020-05-29T20:32:02Z</time>
      </trkpt>
      <trkpt lat="44.161873" lon="5.155655">
        <ele>692.1</ele>
        <time>2020-05-29T20:32:03Z</time>
      </trkpt>
      <trkpt lat="44.161896" lon="5.155708">
        <ele>692.3</ele>
        <time>2020-05-29T20:32:04Z</time>
      </trkpt>
      <trkpt lat="44.161926" lon="5.155773">
        <ele>692.6</ele>
        <time>2020-05-29T20:32:05Z</time>
      </trkpt>
      <trkpt lat="44.161957" lon="5.15584">
        <ele>692.9</ele>
        <time>2020-05-29T20:32:07Z</time>
      </trkpt>
      <trkpt lat="44.16198" lon="5.155896">
        <ele>693.1</ele>
        <time>2020-05-29T20:32:08Z</time>
      </trkpt>
      <trkpt lat="44.16201" lon="5.155965">
        <ele>693.4</ele>
        <time>2020-05-29T20:32:09Z</time>
      </trkpt>
      <trkpt lat="44.162037" lon="5.156035">
        <ele>693.7</ele>
        <time>2020-05-29T20:32:10Z</time>
      </trkpt>
      <trkpt lat="44.16206" lon="5.156094">
        <ele>693.9</ele>
        <time>2020-05-29T20:32:11Z</time>
      </trkpt>
      <trkpt lat="44.162083" lon="5.156152">
        <ele>694.1</ele>
        <time>2020-05-29T20:32:12Z</time>
      </trkpt>
      <trkpt lat="44.162105" lon="5.156224">
        <ele>694.4</ele>
        <time>2020-05-29T20:32:13Z</time>
      </trkpt>
      <trkpt lat="44.162128" lon="5.156295">
        <ele>694.7</ele>
        <time>2020-05-29T20:32:14Z</time>
      </trkpt>
      <trkpt lat="44.162151" lon="5.156367">
        <ele>695</ele>
        <time>2020-05-29T20:32:16Z</time>
      </trkpt>
      <trkpt lat="44.16217" lon="5.156441">
        <ele>695.2</ele>
        <time>2020-05-29T20:32:17Z</time>
      </trkpt>
      <trkpt lat="44.162186" lon="5.1565">
        <ele>695.5</ele>
        <time>2020-05-29T20:32:18Z</time>
      </trkpt>
      <trkpt lat="44.162205" lon="5.156574">
        <ele>695.8</ele>
        <time>2020-05-29T20:32:19Z</time>
      </trkpt>
      <trkpt lat="44.162224" lon="5.156648">
        <ele>696.1</ele>
        <time>2020-05-29T20:32:20Z</time>
      </trkpt>
      <trkpt lat="44.162239" lon="5.156723">
        <ele>696.3</ele>
        <time>2020-05-29T20:32:21Z</time>
      </trkpt>
      <trkpt lat="44.162254" lon="5.156799">
        <ele>696.6</ele>
        <time>2020-05-29T20:32:23Z</time>
      </trkpt>
      <trkpt lat="44.162266" lon="5.156874">
        <ele>696.9</ele>
        <time>2020-05-29T20:32:24Z</time>
      </trkpt>
      <trkpt lat="44.162281" lon="5.156953">
        <ele>697.2</ele>
        <time>2020-05-29T20:32:25Z</time>
      </trkpt>
      <trkpt lat="44.162289" lon="5.157014">
        <ele>697.4</ele>
        <time>2020-05-29T20:32:26Z</time>
      </trkpt>
      <trkpt lat="44.162296" lon="5.157076">
        <ele>697.6</ele>
        <time>2020-05-29T20:32:27Z</time>
      </trkpt>
      <trkpt lat="44.162304" lon="5.157153">
        <ele>697.9</ele>
        <time>2020-05-29T20:32:28Z</time>
      </trkpt>
      <trkpt lat="44.162312" lon="5.157231">
        <ele>698.1</ele>
        <time>2020-05-29T20:32:29Z</time>
      </trkpt>
      <trkpt lat="44.162319" lon="5.157293">
        <ele>698.3</ele>
        <time>2020-05-29T20:32:30Z</time>
      </trkpt>
      <trkpt lat="44.162323" lon="5.157367">
        <ele>698.6</ele>
        <time>2020-05-29T20:32:32Z</time>
      </trkpt>
      <trkpt lat="44.162327" lon="5.157432">
        <ele>698.7</ele>
        <time>2020-05-29T20:32:33Z</time>
      </trkpt>
      <trkpt lat="44.162334" lon="5.157505">
        <ele>698.9</ele>
        <time>2020-05-29T20:32:34Z</time>
      </trkpt>
      <trkpt lat="44.162338" lon="5.157575">
        <ele>699.1</ele>
        <time>2020-05-29T20:32:35Z</time>
      </trkpt>
      <trkpt lat="44.162342" lon="5.157648">
        <ele>699.3</ele>
        <time>2020-05-29T20:32:36Z</time>
      </trkpt>
      <trkpt lat="44.162346" lon="5.157711">
        <ele>699.5</ele>
        <time>2020-05-29T20:32:37Z</time>
      </trkpt>
      <trkpt lat="44.162354" lon="5.157785">
        <ele>699.6</ele>
        <time>2020-05-29T20:32:38Z</time>
      </trkpt>
      <trkpt lat="44.162357" lon="5.157854">
        <ele>699.8</ele>
        <time>2020-05-29T20:32:40Z</time>
      </trkpt>
      <trkpt lat="44.162365" lon="5.157926">
        <ele>700</ele>
        <time>2020-05-29T20:32:41Z</time>
      </trkpt>
      <trkpt lat="44.162369" lon="5.157999">
        <ele>700.1</ele>
        <time>2020-05-29T20:32:42Z</time>
      </trkpt>
      <trkpt lat="44.162376" lon="5.15807">
        <ele>700.3</ele>
        <time>2020-05-29T20:32:43Z</time>
      </trkpt>
      <trkpt lat="44.162384" lon="5.158131">
        <ele>700.4</ele>
        <time>2020-05-29T20:32:44Z</time>
      </trkpt>
      <trkpt lat="44.162388" lon="5.158184">
        <ele>700.5</ele>
        <time>2020-05-29T20:32:46Z</time>
      </trkpt>
      <trkpt lat="44.162395" lon="5.158226">
        <ele>700.6</ele>
        <time>2020-05-29T20:32:47Z</time>
      </trkpt>
      <trkpt lat="44.162399" lon="5.15826">
        <ele>700.7</ele>
        <time>2020-05-29T20:32:48Z</time>
      </trkpt>
      <trkpt lat="44.162403" lon="5.158281">
        <ele>700.7</ele>
        <time>2020-05-29T20:32:49Z</time>
      </trkpt>
      <trkpt lat="44.162407" lon="5.158299">
        <ele>700.7</ele>
        <time>2020-05-29T20:32:50Z</time>
      </trkpt>
      <trkpt lat="44.162411" lon="5.15831">
        <ele>700.7</ele>
        <time>2020-05-29T20:32:51Z</time>
      </trkpt>
      <trkpt lat="44.162411" lon="5.158311">
        <ele>700.7</ele>
        <time>2020-05-29T20:32:53Z</time>
      </trkpt>
      <trkpt lat="44.162411" lon="5.158311">
        <ele>700.7</ele>
        <time>2020-05-29T20:32:54Z</time>
      </trkpt>
      <trkpt lat="44.162411" lon="5.158311">
        <ele>700.7</ele>
        <time>2020-05-29T20:32:55Z</time>
      </trkpt>
      <trkpt lat="44.162411" lon="5.158311">
        <ele>700.7</ele>
        <time>2020-05-29T20:32:56Z</time>
      </trkpt>
      <trkpt lat="44.162411" lon="5.158311">
        <ele>700.7</ele>
        <time>2020-05-29T20:32:57Z</time>
      </trkpt>
      <trkpt lat="44.162411" lon="5.158311">
        <ele>700.7</ele>
        <time>2020-05-29T20:32:58Z</time>
      </trkpt>
      <trkpt lat="44.162411" lon="5.158311">
        <ele>700.7</ele>
        <time>2020-05-29T20:33:00Z</time>
      </trkpt>
      <trkpt lat="44.162411" lon="5.158311">
        <ele>700.7</ele>
        <time>2020-05-29T20:33:01Z</time>
      </trkpt>
      <trkpt lat="44.162411" lon="5.158311">
        <ele>700.7</ele>
        <time>2020-05-29T20:33:02Z</time>
      </trkpt>
      <trkpt lat="44.162411" lon="5.158311">
        <ele>700.7</ele>
        <time>2020-05-29T20:33:03Z</time>
      </trkpt>
      <trkpt lat="44.162411" lon="5.158311">
        <ele>700.7</ele>
        <time>2020-05-29T20:33:04Z</time>
      </trkpt>
      <trkpt lat="44.162411" lon="5.158311">
        <ele>700.7</ele>
        <time>2020-05-29T20:33:05Z</time>
      </trkpt>
      <trkpt lat="44.162411" lon="5.158311">
        <ele>700.7</ele>
        <time>2020-05-29T20:33:06Z</time>
      </trkpt>
      <trkpt lat="44.162411" lon="5.158311">
        <ele>700.7</ele>
        <time>2020-05-29T20:33:08Z</time>
      </trkpt>
      <trkpt lat="44.162411" lon="5.158311">
        <ele>700.7</ele>
        <time>2020-05-29T20:33:09Z</time>
      </trkpt>
      <trkpt lat="44.162411" lon="5.158311">
        <ele>700.7</ele>
        <time>2020-05-29T20:33:10Z</time>
      </trkpt>
      <trkpt lat="44.162411" lon="5.158311">
        <ele>700.7</ele>
        <time>2020-05-29T20:33:11Z</time>
      </trkpt>
      <trkpt lat="44.162411" lon="5.158311">
        <ele>700.7</ele>
        <time>2020-05-29T20:33:12Z</time>
      </trkpt>
      <trkpt lat="44.162411" lon="5.158311">
        <ele>700.7</ele>
        <time>2020-05-29T20:33:13Z</time>
      </trkpt>
      <trkpt lat="44.162411" lon="5.158311">
        <ele>700.7</ele>
        <time>2020-05-29T20:33:15Z</time>
      </trkpt>
      <trkpt lat="44.162411" lon="5.158311">
        <ele>700.7</ele>
        <time>2020-05-29T20:33:16Z</time>
      </trkpt>
      <trkpt lat="44.162411" lon="5.158311">
        <ele>700.7</ele>
        <time>2020-05-29T20:33:17Z</time>
      </trkpt>
      <trkpt lat="44.162411" lon="5.158311">
        <ele>700.7</ele>
        <time>2020-05-29T20:33:18Z</time>
      </trkpt>
      <trkpt lat="44.162411" lon="5.158311">
        <ele>700.7</ele>
        <time>2020-05-29T20:33:19Z</time>
      </trkpt>
      <trkpt lat="44.162411" lon="5.158311">
        <ele>700.7</ele>
        <time>2020-05-29T20:33:20Z</time>
      </trkpt>
      <trkpt lat="44.162411" lon="5.158311">
        <ele>700.7</ele>
        <time>2020-05-29T20:33:21Z</time>
      </trkpt>
      <trkpt lat="44.162411" lon="5.158311">
        <ele>700.7</ele>
        <time>2020-05-29T20:33:23Z</time>
      </trkpt>
      <trkpt lat="44.162411" lon="5.158311">
        <ele>700.7</ele>
        <time>2020-05-29T20:33:24Z</time>
      </trkpt>
      <trkpt lat="44.162411" lon="5.158311">
        <ele>700.7</ele>
        <time>2020-05-29T20:33:25Z</time>
      </trkpt>
      <trkpt lat="44.162411" lon="5.158311">
        <ele>700.7</ele>
        <time>2020-05-29T20:33:26Z</time>
      </trkpt>
      <trkpt lat="44.162411" lon="5.158311">
        <ele>700.7</ele>
        <time>2020-05-29T20:33:27Z</time>
      </trkpt>
      <trkpt lat="44.162411" lon="5.158311">
        <ele>700.7</ele>
        <time>2020-05-29T20:33:28Z</time>
      </trkpt>
      <trkpt lat="44.162411" lon="5.158311">
        <ele>700.7</ele>
        <time>2020-05-29T20:33:29Z</time>
      </trkpt>
      <trkpt lat="44.162411" lon="5.158311">
        <ele>700.7</ele>
        <time>2020-05-29T20:33:30Z</time>
      </trkpt>
      <trkpt lat="44.162411" lon="5.158311">
        <ele>700.7</ele>
        <time>2020-05-29T20:33:31Z</time>
      </trkpt>
      <trkpt lat="44.162411" lon="5.158311">
        <ele>700.7</ele>
        <time>2020-05-29T20:33:32Z</time>
      </trkpt>
      <trkpt lat="44.162411" lon="5.158311">
        <ele>700.7</ele>
        <time>2020-05-29T20:33:34Z</time>
      </trkpt>
      <trkpt lat="44.162411" lon="5.158311">
        <ele>700.7</ele>
        <time>2020-05-29T20:33:35Z</time>
      </trkpt>
      <trkpt lat="44.162411" lon="5.158311">
        <ele>700.7</ele>
        <time>2020-05-29T20:33:36Z</time>
      </trkpt>
      <trkpt lat="44.162411" lon="5.158311">
        <ele>700.7</ele>
        <time>2020-05-29T20:33:37Z</time>
      </trkpt>
      <trkpt lat="44.162411" lon="5.158311">
        <ele>700.7</ele>
        <time>2020-05-29T20:33:38Z</time>
      </trkpt>
      <trkpt lat="44.162411" lon="5.158311">
        <ele>700.7</ele>
        <time>2020-05-29T20:33:40Z</time>
      </trkpt>
      <trkpt lat="44.162411" lon="5.158311">
        <ele>700.7</ele>
        <time>2020-05-29T20:33:41Z</time>
      </trkpt>
      <trkpt lat="44.162411" lon="5.158311">
        <ele>700.7</ele>
        <time>2020-05-29T20:33:42Z</time>
      </trkpt>
      <trkpt lat="44.162411" lon="5.158311">
        <ele>700.7</ele>
        <time>2020-05-29T20:33:43Z</time>
      </trkpt>
      <trkpt lat="44.162411" lon="5.158311">
        <ele>700.7</ele>
        <time>2020-05-29T20:33:44Z</time>
      </trkpt>
      <trkpt lat="44.162411" lon="5.158311">
        <ele>700.7</ele>
        <time>2020-05-29T20:33:45Z</time>
      </trkpt>
      <trkpt lat="44.162411" lon="5.158311">
        <ele>700.7</ele>
        <time>2020-05-29T20:33:46Z</time>
      </trkpt>
      <trkpt lat="44.162411" lon="5.158311">
        <ele>700.7</ele>
        <time>2020-05-29T20:33:47Z</time>
      </trkpt>
      <trkpt lat="44.162411" lon="5.158311">
        <ele>700.7</ele>
        <time>2020-05-29T20:33:49Z</time>
      </trkpt>
      <trkpt lat="44.162411" lon="5.158311">
        <ele>700.7</ele>
        <time>2020-05-29T20:33:50Z</time>
      </trkpt>
      <trkpt lat="44.162411" lon="5.158311">
        <ele>700.7</ele>
        <time>2020-05-29T20:33:51Z</time>
      </trkpt>
      <trkpt lat="44.162411" lon="5.158311">
        <ele>700.7</ele>
        <time>2020-05-29T20:33:52Z</time>
      </trkpt>
      <trkpt lat="44.162411" lon="5.158311">
        <ele>700.7</ele>
        <time>2020-05-29T20:33:53Z</time>
      </trkpt>
      <trkpt lat="44.162411" lon="5.158311">
        <ele>700.7</ele>
        <time>2020-05-29T20:33:54Z</time>
      </trkpt>
      <trkpt lat="44.162411" lon="5.158311">
        <ele>700.7</ele>
        <time>2020-05-29T20:33:55Z</time>
      </trkpt>
      <trkpt lat="44.162411" lon="5.158311">
        <ele>700.7</ele>
        <time>2020-05-29T20:33:56Z</time>
      </trkpt>
      <trkpt lat="44.162411" lon="5.158311">
        <ele>700.7</ele>
        <time>2020-05-29T20:33:58Z</time>
      </trkpt>
      <trkpt lat="44.162411" lon="5.158311">
        <ele>700.7</ele>
        <time>2020-05-29T20:33:59Z</time>
      </trkpt>
      <trkpt lat="44.162411" lon="5.158311">
        <ele>700.7</ele>
        <time>2020-05-29T20:34:00Z</time>
      </trkpt>
      <trkpt lat="44.162411" lon="5.158311">
        <ele>700.7</ele>
        <time>2020-05-29T20:34:01Z</time>
      </trkpt>
      <trkpt lat="44.162411" lon="5.158311">
        <ele>700.7</ele>
        <time>2020-05-29T20:34:02Z</time>
      </trkpt>
      <trkpt lat="44.162411" lon="5.158311">
        <ele>700.7</ele>
        <time>2020-05-29T20:34:03Z</time>
      </trkpt>
      <trkpt lat="44.162411" lon="5.158311">
        <ele>700.7</ele>
        <time>2020-05-29T20:34:04Z</time>
      </trkpt>
      <trkpt lat="44.162411" lon="5.158311">
        <ele>700.7</ele>
        <time>2020-05-29T20:34:05Z</time>
      </trkpt>
      <trkpt lat="44.162411" lon="5.158311">
        <ele>700.7</ele>
        <time>2020-05-29T20:34:07Z</time>
      </trkpt>
      <trkpt lat="44.162411" lon="5.158311">
        <ele>700.7</ele>
        <time>2020-05-29T20:34:08Z</time>
      </trkpt>
      <trkpt lat="44.162411" lon="5.158311">
        <ele>700.7</ele>
        <time>2020-05-29T20:34:09Z</time>
      </trkpt>
      <trkpt lat="44.162411" lon="5.158311">
        <ele>700.7</ele>
        <time>2020-05-29T20:34:10Z</time>
      </trkpt>
      <trkpt lat="44.162411" lon="5.158311">
        <ele>700.7</ele>
        <time>2020-05-29T20:34:11Z</time>
      </trkpt>
      <trkpt lat="44.162411" lon="5.158311">
        <ele>700.7</ele>
        <time>2020-05-29T20:34:12Z</time>
      </trkpt>
      <trkpt lat="44.162411" lon="5.158311">
        <ele>700.7</ele>
        <time>2020-05-29T20:34:13Z</time>
      </trkpt>
      <trkpt lat="44.162411" lon="5.158311">
        <ele>700.7</ele>
        <time>2020-05-29T20:34:14Z</time>
      </trkpt>
      <trkpt lat="44.162411" lon="5.158311">
        <ele>700.7</ele>
        <time>2020-05-29T20:34:15Z</time>
      </trkpt>
      <trkpt lat="44.162411" lon="5.158311">
        <ele>700.7</ele>
        <time>2020-05-29T20:34:17Z</time>
      </trkpt>
      <trkpt lat="44.162411" lon="5.158311">
        <ele>700.7</ele>
        <time>2020-05-29T20:34:18Z</time>
      </trkpt>
      <trkpt lat="44.162411" lon="5.158311">
        <ele>700.7</ele>
        <time>2020-05-29T20:34:19Z</time>
      </trkpt>
      <trkpt lat="44.162411" lon="5.158311">
        <ele>700.7</ele>
        <time>2020-05-29T20:34:20Z</time>
      </trkpt>
      <trkpt lat="44.162411" lon="5.158311">
        <ele>700.7</ele>
        <time>2020-05-29T20:34:21Z</time>
      </trkpt>
      <trkpt lat="44.162411" lon="5.158311">
        <ele>700.7</ele>
        <time>2020-05-29T20:34:22Z</time>
      </trkpt>
      <trkpt lat="44.162411" lon="5.158311">
        <ele>700.7</ele>
        <time>2020-05-29T20:34:23Z</time>
      </trkpt>
      <trkpt lat="44.162411" lon="5.158311">
        <ele>700.7</ele>
        <time>2020-05-29T20:34:24Z</time>
      </trkpt>
      <trkpt lat="44.162411" lon="5.158311">
        <ele>700.7</ele>
        <time>2020-05-29T20:34:25Z</time>
      </trkpt>
      <trkpt lat="44.162411" lon="5.158311">
        <ele>700.7</ele>
        <time>2020-05-29T20:34:27Z</time>
      </trkpt>
      <trkpt lat="44.162411" lon="5.158311">
        <ele>700.7</ele>
        <time>2020-05-29T20:34:28Z</time>
      </trkpt>
      <trkpt lat="44.162411" lon="5.158311">
        <ele>700.7</ele>
        <time>2020-05-29T20:34:29Z</time>
      </trkpt>
      <trkpt lat="44.162411" lon="5.158311">
        <ele>700.7</ele>
        <time>2020-05-29T20:34:30Z</time>
      </trkpt>
      <trkpt lat="44.162411" lon="5.158311">
        <ele>700.7</ele>
        <time>2020-05-29T20:34:31Z</time>
      </trkpt>
      <trkpt lat="44.162411" lon="5.158311">
        <ele>700.7</ele>
        <time>2020-05-29T20:34:32Z</time>
      </trkpt>
      <trkpt lat="44.162411" lon="5.158311">
        <ele>700.7</ele>
        <time>2020-05-29T20:34:33Z</time>
      </trkpt>
      <trkpt lat="44.162411" lon="5.158311">
        <ele>700.7</ele>
        <time>2020-05-29T20:34:34Z</time>
      </trkpt>
      <trkpt lat="44.162411" lon="5.158311">
        <ele>700.7</ele>
        <time>2020-05-29T20:34:36Z</time>
      </trkpt>
      <trkpt lat="44.162411" lon="5.158311">
        <ele>700.7</ele>
        <time>2020-05-29T20:34:37Z</time>
      </trkpt>
      <trkpt lat="44.162411" lon="5.158311">
        <ele>700.7</ele>
        <time>2020-05-29T20:34:38Z</time>
      </trkpt>
      <trkpt lat="44.162411" lon="5.158311">
        <ele>700.7</ele>
        <time>2020-05-29T20:34:39Z</time>
      </trkpt>
      <trkpt lat="44.162411" lon="5.158311">
        <ele>700.7</ele>
        <time>2020-05-29T20:34:40Z</time>
      </trkpt>
      <trkpt lat="44.162411" lon="5.158311">
        <ele>700.7</ele>
        <time>2020-05-29T20:34:41Z</time>
      </trkpt>
      <trkpt lat="44.162411" lon="5.158311">
        <ele>700.7</ele>
        <time>2020-05-29T20:34:42Z</time>
      </trkpt>
      <trkpt lat="44.162411" lon="5.158311">
        <ele>700.7</ele>
        <time>2020-05-29T20:34:43Z</time>
      </trkpt>
      <trkpt lat="44.162411" lon="5.158311">
        <ele>700.7</ele>
        <time>2020-05-29T20:34:45Z</time>
      </trkpt>
      <trkpt lat="44.162411" lon="5.158311">
        <ele>700.7</ele>
        <time>2020-05-29T20:34:46Z</time>
      </trkpt>
      <trkpt lat="44.162411" lon="5.158311">
        <ele>700.7</ele>
        <time>2020-05-29T20:34:47Z</time>
      </trkpt>
      <trkpt lat="44.162411" lon="5.158311">
        <ele>700.7</ele>
        <time>2020-05-29T20:34:48Z</time>
      </trkpt>
      <trkpt lat="44.162411" lon="5.158311">
        <ele>700.7</ele>
        <time>2020-05-29T20:34:49Z</time>
      </trkpt>
      <trkpt lat="44.162411" lon="5.158311">
        <ele>700.7</ele>
        <time>2020-05-29T20:34:50Z</time>
      </trkpt>
      <trkpt lat="44.162411" lon="5.158311">
        <ele>700.7</ele>
        <time>2020-05-29T20:34:52Z</time>
      </trkpt>
      <trkpt lat="44.162411" lon="5.158311">
        <ele>700.7</ele>
        <time>2020-05-29T20:34:53Z</time>
      </trkpt>
      <trkpt lat="44.162411" lon="5.158311">
        <ele>700.7</ele>
        <time>2020-05-29T20:34:54Z</time>
      </trkpt>
      <trkpt lat="44.162411" lon="5.158311">
        <ele>700.7</ele>
        <time>2020-05-29T20:34:55Z</time>
      </trkpt>
      <trkpt lat="44.162411" lon="5.158311">
        <ele>700.7</ele>
        <time>2020-05-29T20:34:56Z</time>
      </trkpt>
      <trkpt lat="44.162411" lon="5.158311">
        <ele>700.7</ele>
        <time>2020-05-29T20:34:57Z</time>
      </trkpt>
      <trkpt lat="44.162411" lon="5.158311">
        <ele>700.7</ele>
        <time>2020-05-29T20:34:58Z</time>
      </trkpt>
      <trkpt lat="44.162411" lon="5.158311">
        <ele>700.7</ele>
        <time>2020-05-29T20:34:59Z</time>
      </trkpt>
      <trkpt lat="44.162411" lon="5.158311">
        <ele>700.7</ele>
        <time>2020-05-29T20:35:01Z</time>
      </trkpt>
      <trkpt lat="44.162411" lon="5.158311">
        <ele>700.7</ele>
        <time>2020-05-29T20:35:02Z</time>
      </trkpt>
      <trkpt lat="44.162411" lon="5.158311">
        <ele>700.7</ele>
        <time>2020-05-29T20:35:03Z</time>
      </trkpt>
      <trkpt lat="44.162411" lon="5.158311">
        <ele>700.7</ele>
        <time>2020-05-29T20:35:04Z</time>
      </trkpt>
      <trkpt lat="44.162411" lon="5.158311">
        <ele>700.7</ele>
        <time>2020-05-29T20:35:05Z</time>
      </trkpt>
      <trkpt lat="44.162411" lon="5.158311">
        <ele>700.7</ele>
        <time>2020-05-29T20:35:06Z</time>
      </trkpt>
      <trkpt lat="44.162411" lon="5.158311">
        <ele>700.7</ele>
        <time>2020-05-29T20:35:07Z</time>
      </trkpt>
      <trkpt lat="44.162411" lon="5.158311">
        <ele>700.7</ele>
        <time>2020-05-29T20:35:09Z</time>
      </trkpt>
      <trkpt lat="44.162411" lon="5.158311">
        <ele>700.7</ele>
        <time>2020-05-29T20:35:10Z</time>
      </trkpt>
      <trkpt lat="44.162411" lon="5.158311">
        <ele>700.7</ele>
        <time>2020-05-29T20:35:11Z</time>
      </trkpt>
      <trkpt lat="44.162411" lon="5.158311">
        <ele>700.7</ele>
        <time>2020-05-29T20:35:12Z</time>
      </trkpt>
      <trkpt lat="44.162411" lon="5.158311">
        <ele>700.7</ele>
        <time>2020-05-29T20:35:13Z</time>
      </trkpt>
      <trkpt lat="44.162411" lon="5.158311">
        <ele>700.7</ele>
        <time>2020-05-29T20:35:14Z</time>
      </trkpt>
      <trkpt lat="44.162411" lon="5.158311">
        <ele>700.7</ele>
        <time>2020-05-29T20:35:15Z</time>
      </trkpt>
      <trkpt lat="44.162411" lon="5.158311">
        <ele>700.7</ele>
        <time>2020-05-29T20:35:16Z</time>
      </trkpt>
      <trkpt lat="44.162411" lon="5.158311">
        <ele>700.7</ele>
        <time>2020-05-29T20:35:18Z</time>
      </trkpt>
      <trkpt lat="44.162411" lon="5.158311">
        <ele>700.7</ele>
        <time>2020-05-29T20:35:19Z</time>
      </trkpt>
      <trkpt lat="44.162411" lon="5.158311">
        <ele>700.7</ele>
        <time>2020-05-29T20:35:20Z</time>
      </trkpt>
      <trkpt lat="44.162411" lon="5.158311">
        <ele>700.7</ele>
        <time>2020-05-29T20:35:21Z</time>
      </trkpt>
      <trkpt lat="44.162411" lon="5.158311">
        <ele>700.7</ele>
        <time>2020-05-29T20:35:22Z</time>
      </trkpt>
      <trkpt lat="44.162411" lon="5.158311">
        <ele>700.7</ele>
        <time>2020-05-29T20:35:23Z</time>
      </trkpt>
      <trkpt lat="44.162411" lon="5.158311">
        <ele>700.7</ele>
        <time>2020-05-29T20:35:24Z</time>
      </trkpt>
      <trkpt lat="44.162415" lon="5.158339">
        <ele>700.8</ele>
        <time>2020-05-29T20:35:26Z</time>
      </trkpt>
      <trkpt lat="44.162426" lon="5.158382">
        <ele>700.9</ele>
        <time>2020-05-29T20:35:27Z</time>
      </trkpt>
      <trkpt lat="44.162437" lon="5.15843">
        <ele>701</ele>
        <time>2020-05-29T20:35:28Z</time>
      </trkpt>
      <trkpt lat="44.162449" lon="5.158472">
        <ele>701.1</ele>
        <time>2020-05-29T20:35:29Z</time>
      </trkpt>
      <trkpt lat="44.162456" lon="5.158518">
        <ele>701.1</ele>
        <time>2020-05-29T20:35:30Z</time>
      </trkpt>
      <trkpt lat="44.162468" lon="5.158563">
        <ele>701.2</ele>
        <time>2020-05-29T20:35:31Z</time>
      </trkpt>
      <trkpt lat="44.162483" lon="5.158611">
        <ele>701.3</ele>
        <time>2020-05-29T20:35:32Z</time>
      </trkpt>
      <trkpt lat="44.162506" lon="5.158665">
        <ele>701.5</ele>
        <time>2020-05-29T20:35:33Z</time>
      </trkpt>
      <trkpt lat="44.162525" lon="5.158711">
        <ele>701.5</ele>
        <time>2020-05-29T20:35:34Z</time>
      </trkpt>
      <trkpt lat="44.162559" lon="5.158765">
        <ele>701.7</ele>
        <time>2020-05-29T20:35:35Z</time>
      </trkpt>
      <trkpt lat="44.162598" lon="5.158822">
        <ele>701.8</ele>
        <time>2020-05-29T20:35:37Z</time>
      </trkpt>
      <trkpt lat="44.162632" lon="5.158866">
        <ele>701.9</ele>
        <time>2020-05-29T20:35:38Z</time>
      </trkpt>
      <trkpt lat="44.162674" lon="5.15891">
        <ele>702</ele>
        <time>2020-05-29T20:35:39Z</time>
      </trkpt>
      <trkpt lat="44.162723" lon="5.158957">
        <ele>702.1</ele>
        <time>2020-05-29T20:35:40Z</time>
      </trkpt>
      <trkpt lat="44.162777" lon="5.159005">
        <ele>702.2</ele>
        <time>2020-05-29T20:35:41Z</time>
      </trkpt>
      <trkpt lat="44.162838" lon="5.159051">
        <ele>702.3</ele>
        <time>2020-05-29T20:35:42Z</time>
      </trkpt>
      <trkpt lat="44.162903" lon="5.159097">
        <ele>702.4</ele>
        <time>2020-05-29T20:35:43Z</time>
      </trkpt>
      <trkpt lat="44.162964" lon="5.159141">
        <ele>702.6</ele>
        <time>2020-05-29T20:35:45Z</time>
      </trkpt>
      <trkpt lat="44.163029" lon="5.159184">
        <ele>702.8</ele>
        <time>2020-05-29T20:35:46Z</time>
      </trkpt>
      <trkpt lat="44.163097" lon="5.159227">
        <ele>703</ele>
        <time>2020-05-29T20:35:47Z</time>
      </trkpt>
      <trkpt lat="44.163166" lon="5.159271">
        <ele>703.2</ele>
        <time>2020-05-29T20:35:48Z</time>
      </trkpt>
      <trkpt lat="44.163227" lon="5.15931">
        <ele>703.4</ele>
        <time>2020-05-29T20:35:49Z</time>
      </trkpt>
      <trkpt lat="44.163296" lon="5.159354">
        <ele>703.6</ele>
        <time>2020-05-29T20:35:51Z</time>
      </trkpt>
      <trkpt lat="44.163368" lon="5.159391">
        <ele>703.8</ele>
        <time>2020-05-29T20:35:52Z</time>
      </trkpt>
      <trkpt lat="44.163433" lon="5.159415">
        <ele>704</ele>
        <time>2020-05-29T20:35:53Z</time>
      </trkpt>
      <trkpt lat="44.163509" lon="5.159437">
        <ele>704.2</ele>
        <time>2020-05-29T20:35:54Z</time>
      </trkpt>
      <trkpt lat="44.16357" lon="5.159451">
        <ele>704.3</ele>
        <time>2020-05-29T20:35:55Z</time>
      </trkpt>
      <trkpt lat="44.163647" lon="5.159463">
        <ele>704.5</ele>
        <time>2020-05-29T20:35:56Z</time>
      </trkpt>
      <trkpt lat="44.163727" lon="5.159474">
        <ele>704.6</ele>
        <time>2020-05-29T20:35:57Z</time>
      </trkpt>
      <trkpt lat="44.163803" lon="5.159487">
        <ele>704.7</ele>
        <time>2020-05-29T20:35:59Z</time>
      </trkpt>
      <trkpt lat="44.163883" lon="5.159503">
        <ele>705.3</ele>
        <time>2020-05-29T20:36:00Z</time>
      </trkpt>
      <trkpt lat="44.163959" lon="5.159526">
        <ele>705.8</ele>
        <time>2020-05-29T20:36:01Z</time>
      </trkpt>
      <trkpt lat="44.164028" lon="5.159559">
        <ele>706.3</ele>
        <time>2020-05-29T20:36:02Z</time>
      </trkpt>
      <trkpt lat="44.164085" lon="5.159594">
        <ele>706.8</ele>
        <time>2020-05-29T20:36:03Z</time>
      </trkpt>
      <trkpt lat="44.164146" lon="5.159643">
        <ele>707.3</ele>
        <time>2020-05-29T20:36:04Z</time>
      </trkpt>
      <trkpt lat="44.1642" lon="5.159695">
        <ele>707.8</ele>
        <time>2020-05-29T20:36:06Z</time>
      </trkpt>
      <trkpt lat="44.164249" lon="5.15975">
        <ele>708.3</ele>
        <time>2020-05-29T20:36:07Z</time>
      </trkpt>
      <trkpt lat="44.164284" lon="5.159794">
        <ele>708.8</ele>
        <time>2020-05-29T20:36:08Z</time>
      </trkpt>
      <trkpt lat="44.164318" lon="5.159838">
        <ele>709.2</ele>
        <time>2020-05-29T20:36:09Z</time>
      </trkpt>
      <trkpt lat="44.164349" lon="5.159882">
        <ele>709.6</ele>
        <time>2020-05-29T20:36:10Z</time>
      </trkpt>
      <trkpt lat="44.164387" lon="5.159935">
        <ele>710.1</ele>
        <time>2020-05-29T20:36:11Z</time>
      </trkpt>
      <trkpt lat="44.164417" lon="5.159983">
        <ele>710.5</ele>
        <time>2020-05-29T20:36:12Z</time>
      </trkpt>
      <trkpt lat="44.164455" lon="5.160044">
        <ele>711</ele>
        <time>2020-05-29T20:36:13Z</time>
      </trkpt>
      <trkpt lat="44.164486" lon="5.160097">
        <ele>711.5</ele>
        <time>2020-05-29T20:36:14Z</time>
      </trkpt>
      <trkpt lat="44.164516" lon="5.16016">
        <ele>712</ele>
        <time>2020-05-29T20:36:15Z</time>
      </trkpt>
      <trkpt lat="44.164543" lon="5.160219">
        <ele>712.5</ele>
        <time>2020-05-29T20:36:17Z</time>
      </trkpt>
      <trkpt lat="44.16457" lon="5.160279">
        <ele>712.9</ele>
        <time>2020-05-29T20:36:18Z</time>
      </trkpt>
      <trkpt lat="44.164593" lon="5.160336">
        <ele>713.4</ele>
        <time>2020-05-29T20:36:19Z</time>
      </trkpt>
      <trkpt lat="44.164619" lon="5.160393">
        <ele>713.9</ele>
        <time>2020-05-29T20:36:20Z</time>
      </trkpt>
      <trkpt lat="44.164642" lon="5.160453">
        <ele>714.3</ele>
        <time>2020-05-29T20:36:21Z</time>
      </trkpt>
      <trkpt lat="44.164665" lon="5.160512">
        <ele>714.8</ele>
        <time>2020-05-29T20:36:23Z</time>
      </trkpt>
      <trkpt lat="44.164688" lon="5.160562">
        <ele>715.2</ele>
        <time>2020-05-29T20:36:24Z</time>
      </trkpt>
      <trkpt lat="44.164715" lon="5.160627">
        <ele>715.8</ele>
        <time>2020-05-29T20:36:25Z</time>
      </trkpt>
      <trkpt lat="44.164749" lon="5.160692">
        <ele>716.3</ele>
        <time>2020-05-29T20:36:26Z</time>
      </trkpt>
      <trkpt lat="44.164772" lon="5.160747">
        <ele>716.8</ele>
        <time>2020-05-29T20:36:27Z</time>
      </trkpt>
      <trkpt lat="44.164799" lon="5.160815">
        <ele>717.3</ele>
        <time>2020-05-29T20:36:28Z</time>
      </trkpt>
      <trkpt lat="44.164818" lon="5.16087">
        <ele>717.7</ele>
        <time>2020-05-29T20:36:29Z</time>
      </trkpt>
      <trkpt lat="44.164841" lon="5.160936">
        <ele>718.2</ele>
        <time>2020-05-29T20:36:30Z</time>
      </trkpt>
      <trkpt lat="44.16486" lon="5.160999">
        <ele>718.7</ele>
        <time>2020-05-29T20:36:32Z</time>
      </trkpt>
      <trkpt lat="44.164871" lon="5.161066">
        <ele>719.2</ele>
        <time>2020-05-29T20:36:33Z</time>
      </trkpt>
      <trkpt lat="44.164875" lon="5.161117">
        <ele>719.6</ele>
        <time>2020-05-29T20:36:34Z</time>
      </trkpt>
      <trkpt lat="44.164875" lon="5.16117">
        <ele>719.9</ele>
        <time>2020-05-29T20:36:35Z</time>
      </trkpt>
      <trkpt lat="44.164867" lon="5.161236">
        <ele>720.5</ele>
        <time>2020-05-29T20:36:36Z</time>
      </trkpt>
      <trkpt lat="44.16486" lon="5.16129">
        <ele>720.9</ele>
        <time>2020-05-29T20:36:37Z</time>
      </trkpt>
      <trkpt lat="44.164852" lon="5.16134">
        <ele>721.3</ele>
        <time>2020-05-29T20:36:38Z</time>
      </trkpt>
      <trkpt lat="44.164844" lon="5.161394">
        <ele>721.7</ele>
        <time>2020-05-29T20:36:39Z</time>
      </trkpt>
      <trkpt lat="44.164837" lon="5.161461">
        <ele>722.3</ele>
        <time>2020-05-29T20:36:40Z</time>
      </trkpt>
      <trkpt lat="44.164833" lon="5.161525">
        <ele>722.7</ele>
        <time>2020-05-29T20:36:41Z</time>
      </trkpt>
      <trkpt lat="44.164833" lon="5.16158">
        <ele>723.2</ele>
        <time>2020-05-29T20:36:42Z</time>
      </trkpt>
      <trkpt lat="44.164837" lon="5.161635">
        <ele>723.6</ele>
        <time>2020-05-29T20:36:43Z</time>
      </trkpt>
      <trkpt lat="44.164848" lon="5.161698">
        <ele>724</ele>
        <time>2020-05-29T20:36:45Z</time>
      </trkpt>
      <trkpt lat="44.16486" lon="5.161754">
        <ele>724.4</ele>
        <time>2020-05-29T20:36:46Z</time>
      </trkpt>
      <trkpt lat="44.164871" lon="5.161807">
        <ele>724.8</ele>
        <time>2020-05-29T20:36:47Z</time>
      </trkpt>
      <trkpt lat="44.164886" lon="5.161869">
        <ele>725.3</ele>
        <time>2020-05-29T20:36:48Z</time>
      </trkpt>
      <trkpt lat="44.164906" lon="5.161933">
        <ele>725.8</ele>
        <time>2020-05-29T20:36:49Z</time>
      </trkpt>
      <trkpt lat="44.164917" lon="5.16198">
        <ele>726.1</ele>
        <time>2020-05-29T20:36:50Z</time>
      </trkpt>
      <trkpt lat="44.164936" lon="5.162031">
        <ele>726.5</ele>
        <time>2020-05-29T20:36:51Z</time>
      </trkpt>
      <trkpt lat="44.164955" lon="5.162088">
        <ele>726.9</ele>
        <time>2020-05-29T20:36:52Z</time>
      </trkpt>
      <trkpt lat="44.164974" lon="5.16215">
        <ele>727.2</ele>
        <time>2020-05-29T20:36:53Z</time>
      </trkpt>
      <trkpt lat="44.164997" lon="5.162207">
        <ele>727.6</ele>
        <time>2020-05-29T20:36:55Z</time>
      </trkpt>
      <trkpt lat="44.165016" lon="5.162256">
        <ele>727.8</ele>
        <time>2020-05-29T20:36:56Z</time>
      </trkpt>
      <trkpt lat="44.165039" lon="5.162312">
        <ele>728.1</ele>
        <time>2020-05-29T20:36:57Z</time>
      </trkpt>
      <trkpt lat="44.165066" lon="5.162374">
        <ele>728.4</ele>
        <time>2020-05-29T20:36:58Z</time>
      </trkpt>
      <trkpt lat="44.165089" lon="5.162425">
        <ele>728.7</ele>
        <time>2020-05-29T20:36:59Z</time>
      </trkpt>
      <trkpt lat="44.165111" lon="5.162474">
        <ele>729</ele>
        <time>2020-05-29T20:37:00Z</time>
      </trkpt>
      <trkpt lat="44.165146" lon="5.162535">
        <ele>729.5</ele>
        <time>2020-05-29T20:37:01Z</time>
      </trkpt>
      <trkpt lat="44.165173" lon="5.162584">
        <ele>729.9</ele>
        <time>2020-05-29T20:37:02Z</time>
      </trkpt>
      <trkpt lat="44.165207" lon="5.16264">
        <ele>730.4</ele>
        <time>2020-05-29T20:37:03Z</time>
      </trkpt>
      <trkpt lat="44.165237" lon="5.162687">
        <ele>730.8</ele>
        <time>2020-05-29T20:37:04Z</time>
      </trkpt>
      <trkpt lat="44.165276" lon="5.162745">
        <ele>731.3</ele>
        <time>2020-05-29T20:37:06Z</time>
      </trkpt>
      <trkpt lat="44.16531" lon="5.1628">
        <ele>731.8</ele>
        <time>2020-05-29T20:37:07Z</time>
      </trkpt>
      <trkpt lat="44.16534" lon="5.162848">
        <ele>732.2</ele>
        <time>2020-05-29T20:37:08Z</time>
      </trkpt>
      <trkpt lat="44.165382" lon="5.162906">
        <ele>732.8</ele>
        <time>2020-05-29T20:37:09Z</time>
      </trkpt>
      <trkpt lat="44.165421" lon="5.162963">
        <ele>733.3</ele>
        <time>2020-05-29T20:37:10Z</time>
      </trkpt>
      <trkpt lat="44.165451" lon="5.16301">
        <ele>733.7</ele>
        <time>2020-05-29T20:37:11Z</time>
      </trkpt>
      <trkpt lat="44.165482" lon="5.163065">
        <ele>734.1</ele>
        <time>2020-05-29T20:37:12Z</time>
      </trkpt>
      <trkpt lat="44.165516" lon="5.163124">
        <ele>734.6</ele>
        <time>2020-05-29T20:37:14Z</time>
      </trkpt>
      <trkpt lat="44.165539" lon="5.163173">
        <ele>735</ele>
        <time>2020-05-29T20:37:15Z</time>
      </trkpt>
      <trkpt lat="44.165569" lon="5.163232">
        <ele>735.5</ele>
        <time>2020-05-29T20:37:16Z</time>
      </trkpt>
      <trkpt lat="44.165592" lon="5.163288">
        <ele>735.9</ele>
        <time>2020-05-29T20:37:17Z</time>
      </trkpt>
      <trkpt lat="44.165619" lon="5.163351">
        <ele>736.4</ele>
        <time>2020-05-29T20:37:18Z</time>
      </trkpt>
      <trkpt lat="44.165638" lon="5.163405">
        <ele>736.8</ele>
        <time>2020-05-29T20:37:19Z</time>
      </trkpt>
      <trkpt lat="44.165661" lon="5.163463">
        <ele>737.3</ele>
        <time>2020-05-29T20:37:20Z</time>
      </trkpt>
      <trkpt lat="44.16568" lon="5.163524">
        <ele>737.7</ele>
        <time>2020-05-29T20:37:21Z</time>
      </trkpt>
      <trkpt lat="44.165695" lon="5.163575">
        <ele>738.1</ele>
        <time>2020-05-29T20:37:22Z</time>
      </trkpt>
      <trkpt lat="44.16571" lon="5.163622">
        <ele>738.5</ele>
        <time>2020-05-29T20:37:23Z</time>
      </trkpt>
      <trkpt lat="44.165722" lon="5.163672">
        <ele>738.8</ele>
        <time>2020-05-29T20:37:24Z</time>
      </trkpt>
      <trkpt lat="44.165733" lon="5.163723">
        <ele>739.2</ele>
        <time>2020-05-29T20:37:25Z</time>
      </trkpt>
      <trkpt lat="44.165749" lon="5.163782">
        <ele>739.6</ele>
        <time>2020-05-29T20:37:26Z</time>
      </trkpt>
      <trkpt lat="44.16576" lon="5.163834">
        <ele>740</ele>
        <time>2020-05-29T20:37:27Z</time>
      </trkpt>
      <trkpt lat="44.165771" lon="5.163897">
        <ele>740.4</ele>
        <time>2020-05-29T20:37:29Z</time>
      </trkpt>
      <trkpt lat="44.165787" lon="5.163966">
        <ele>740.9</ele>
        <time>2020-05-29T20:37:30Z</time>
      </trkpt>
      <trkpt lat="44.165798" lon="5.164022">
        <ele>741.3</ele>
        <time>2020-05-29T20:37:31Z</time>
      </trkpt>
      <trkpt lat="44.165806" lon="5.16408">
        <ele>741.6</ele>
        <time>2020-05-29T20:37:32Z</time>
      </trkpt>
      <trkpt lat="44.165817" lon="5.164151">
        <ele>742.1</ele>
        <time>2020-05-29T20:37:33Z</time>
      </trkpt>
      <trkpt lat="44.165825" lon="5.164208">
        <ele>742.5</ele>
        <time>2020-05-29T20:37:34Z</time>
      </trkpt>
      <trkpt lat="44.165832" lon="5.164278">
        <ele>742.9</ele>
        <time>2020-05-29T20:37:35Z</time>
      </trkpt>
      <trkpt lat="44.165844" lon="5.164348">
        <ele>743.4</ele>
        <time>2020-05-29T20:37:36Z</time>
      </trkpt>
      <trkpt lat="44.165852" lon="5.164415">
        <ele>743.9</ele>
        <time>2020-05-29T20:37:38Z</time>
      </trkpt>
      <trkpt lat="44.165859" lon="5.164473">
        <ele>744.3</ele>
        <time>2020-05-29T20:37:39Z</time>
      </trkpt>
      <trkpt lat="44.165867" lon="5.164543">
        <ele>744.8</ele>
        <time>2020-05-29T20:37:40Z</time>
      </trkpt>
      <trkpt lat="44.165874" lon="5.164612">
        <ele>745.3</ele>
        <time>2020-05-29T20:37:41Z</time>
      </trkpt>
      <trkpt lat="44.165882" lon="5.164676">
        <ele>745.8</ele>
        <time>2020-05-29T20:37:42Z</time>
      </trkpt>
      <trkpt lat="44.16589" lon="5.164745">
        <ele>746.3</ele>
        <time>2020-05-29T20:37:43Z</time>
      </trkpt>
      <trkpt lat="44.165897" lon="5.164811">
        <ele>746.7</ele>
        <time>2020-05-29T20:37:45Z</time>
      </trkpt>
      <trkpt lat="44.165905" lon="5.164881">
        <ele>747.2</ele>
        <time>2020-05-29T20:37:46Z</time>
      </trkpt>
      <trkpt lat="44.165913" lon="5.164951">
        <ele>747.6</ele>
        <time>2020-05-29T20:37:47Z</time>
      </trkpt>
      <trkpt lat="44.165916" lon="5.16501">
        <ele>748</ele>
        <time>2020-05-29T20:37:48Z</time>
      </trkpt>
      <trkpt lat="44.165924" lon="5.165073">
        <ele>748.4</ele>
        <time>2020-05-29T20:37:49Z</time>
      </trkpt>
      <trkpt lat="44.165932" lon="5.165134">
        <ele>748.8</ele>
        <time>2020-05-29T20:37:50Z</time>
      </trkpt>
      <trkpt lat="44.165943" lon="5.165211">
        <ele>749.3</ele>
        <time>2020-05-29T20:37:51Z</time>
      </trkpt>
      <trkpt lat="44.165951" lon="5.165287">
        <ele>749.8</ele>
        <time>2020-05-29T20:37:52Z</time>
      </trkpt>
      <trkpt lat="44.165958" lon="5.16535">
        <ele>750.2</ele>
        <time>2020-05-29T20:37:53Z</time>
      </trkpt>
      <trkpt lat="44.16597" lon="5.16543">
        <ele>750.7</ele>
        <time>2020-05-29T20:37:55Z</time>
      </trkpt>
      <trkpt lat="44.165977" lon="5.165509">
        <ele>751.2</ele>
        <time>2020-05-29T20:37:56Z</time>
      </trkpt>
      <trkpt lat="44.165989" lon="5.165586">
        <ele>751.7</ele>
        <time>2020-05-29T20:37:57Z</time>
      </trkpt>
      <trkpt lat="44.165997" lon="5.165655">
        <ele>752.2</ele>
        <time>2020-05-29T20:37:58Z</time>
      </trkpt>
      <trkpt lat="44.166004" lon="5.165721">
        <ele>752.6</ele>
        <time>2020-05-29T20:37:59Z</time>
      </trkpt>
      <trkpt lat="44.166016" lon="5.165802">
        <ele>753.1</ele>
        <time>2020-05-29T20:38:00Z</time>
      </trkpt>
      <trkpt lat="44.166027" lon="5.165887">
        <ele>753.7</ele>
        <time>2020-05-29T20:38:01Z</time>
      </trkpt>
      <trkpt lat="44.166035" lon="5.165965">
        <ele>754.1</ele>
        <time>2020-05-29T20:38:03Z</time>
      </trkpt>
      <trkpt lat="44.166046" lon="5.166045">
        <ele>754.6</ele>
        <time>2020-05-29T20:38:04Z</time>
      </trkpt>
      <trkpt lat="44.166058" lon="5.166123">
        <ele>755.1</ele>
        <time>2020-05-29T20:38:05Z</time>
      </trkpt>
      <trkpt lat="44.166069" lon="5.166201">
        <ele>755.6</ele>
        <time>2020-05-29T20:38:06Z</time>
      </trkpt>
      <trkpt lat="44.166084" lon="5.166282">
        <ele>756.1</ele>
        <time>2020-05-29T20:38:07Z</time>
      </trkpt>
      <trkpt lat="44.166096" lon="5.166358">
        <ele>756.6</ele>
        <time>2020-05-29T20:38:09Z</time>
      </trkpt>
      <trkpt lat="44.166111" lon="5.166436">
        <ele>757</ele>
        <time>2020-05-29T20:38:10Z</time>
      </trkpt>
      <trkpt lat="44.166126" lon="5.166514">
        <ele>757.5</ele>
        <time>2020-05-29T20:38:11Z</time>
      </trkpt>
      <trkpt lat="44.166141" lon="5.166582">
        <ele>757.9</ele>
        <time>2020-05-29T20:38:12Z</time>
      </trkpt>
      <trkpt lat="44.166153" lon="5.166648">
        <ele>758.4</ele>
        <time>2020-05-29T20:38:13Z</time>
      </trkpt>
      <trkpt lat="44.166172" lon="5.166733">
        <ele>758.9</ele>
        <time>2020-05-29T20:38:14Z</time>
      </trkpt>
      <trkpt lat="44.166191" lon="5.166815">
        <ele>759.4</ele>
        <time>2020-05-29T20:38:15Z</time>
      </trkpt>
      <trkpt lat="44.16621" lon="5.166899">
        <ele>759.9</ele>
        <time>2020-05-29T20:38:17Z</time>
      </trkpt>
      <trkpt lat="44.166229" lon="5.166978">
        <ele>760.3</ele>
        <time>2020-05-29T20:38:18Z</time>
      </trkpt>
      <trkpt lat="44.166256" lon="5.167061">
        <ele>760.8</ele>
        <time>2020-05-29T20:38:19Z</time>
      </trkpt>
      <trkpt lat="44.166279" lon="5.167139">
        <ele>761.3</ele>
        <time>2020-05-29T20:38:20Z</time>
      </trkpt>
      <trkpt lat="44.166298" lon="5.167217">
        <ele>761.8</ele>
        <time>2020-05-29T20:38:21Z</time>
      </trkpt>
      <trkpt lat="44.166321" lon="5.1673">
        <ele>762.3</ele>
        <time>2020-05-29T20:38:23Z</time>
      </trkpt>
      <trkpt lat="44.166347" lon="5.167376">
        <ele>762.8</ele>
        <time>2020-05-29T20:38:24Z</time>
      </trkpt>
      <trkpt lat="44.16637" lon="5.167437">
        <ele>763.1</ele>
        <time>2020-05-29T20:38:25Z</time>
      </trkpt>
      <trkpt lat="44.166397" lon="5.1675">
        <ele>763.6</ele>
        <time>2020-05-29T20:38:26Z</time>
      </trkpt>
      <trkpt lat="44.166424" lon="5.167557">
        <ele>763.9</ele>
        <time>2020-05-29T20:38:27Z</time>
      </trkpt>
      <trkpt lat="44.166458" lon="5.167627">
        <ele>764.4</ele>
        <time>2020-05-29T20:38:28Z</time>
      </trkpt>
      <trkpt lat="44.166485" lon="5.167686">
        <ele>764.8</ele>
        <time>2020-05-29T20:38:29Z</time>
      </trkpt>
      <trkpt lat="44.166515" lon="5.167746">
        <ele>765.3</ele>
        <time>2020-05-29T20:38:30Z</time>
      </trkpt>
      <trkpt lat="44.166542" lon="5.167801">
        <ele>765.7</ele>
        <time>2020-05-29T20:38:31Z</time>
      </trkpt>
      <trkpt lat="44.166576" lon="5.16787">
        <ele>766.2</ele>
        <time>2020-05-29T20:38:32Z</time>
      </trkpt>
      <trkpt lat="44.166615" lon="5.167939">
        <ele>766.7</ele>
        <time>2020-05-29T20:38:33Z</time>
      </trkpt>
      <trkpt lat="44.166653" lon="5.168013">
        <ele>767.1</ele>
        <time>2020-05-29T20:38:35Z</time>
      </trkpt>
      <trkpt lat="44.166679" lon="5.168071">
        <ele>767.4</ele>
        <time>2020-05-29T20:38:36Z</time>
      </trkpt>
      <trkpt lat="44.166714" lon="5.168132">
        <ele>767.8</ele>
        <time>2020-05-29T20:38:37Z</time>
      </trkpt>
      <trkpt lat="44.166748" lon="5.168205">
        <ele>767.2</ele>
        <time>2020-05-29T20:38:38Z</time>
      </trkpt>
      <trkpt lat="44.166786" lon="5.168281">
        <ele>766.8</ele>
        <time>2020-05-29T20:38:39Z</time>
      </trkpt>
      <trkpt lat="44.166817" lon="5.168341">
        <ele>766.6</ele>
        <time>2020-05-29T20:38:40Z</time>
      </trkpt>
      <trkpt lat="44.166855" lon="5.168417">
        <ele>766.4</ele>
        <time>2020-05-29T20:38:41Z</time>
      </trkpt>
      <trkpt lat="44.166889" lon="5.16849">
        <ele>766.1</ele>
        <time>2020-05-29T20:38:42Z</time>
      </trkpt>
      <trkpt lat="44.16692" lon="5.168566">
        <ele>765.9</ele>
        <time>2020-05-29T20:38:44Z</time>
      </trkpt>
      <trkpt lat="44.166954" lon="5.168641">
        <ele>765.7</ele>
        <time>2020-05-29T20:38:45Z</time>
      </trkpt>
      <trkpt lat="44.166977" lon="5.168708">
        <ele>765.5</ele>
        <time>2020-05-29T20:38:46Z</time>
      </trkpt>
      <trkpt lat="44.167004" lon="5.168776">
        <ele>765.4</ele>
        <time>2020-05-29T20:38:47Z</time>
      </trkpt>
      <trkpt lat="44.167026" lon="5.168857">
        <ele>765.2</ele>
        <time>2020-05-29T20:38:48Z</time>
      </trkpt>
      <trkpt lat="44.167053" lon="5.168943">
        <ele>765</ele>
        <time>2020-05-29T20:38:49Z</time>
      </trkpt>
      <trkpt lat="44.167072" lon="5.169013">
        <ele>764.8</ele>
        <time>2020-05-29T20:38:50Z</time>
      </trkpt>
      <trkpt lat="44.167095" lon="5.169097">
        <ele>764.6</ele>
        <time>2020-05-29T20:38:51Z</time>
      </trkpt>
      <trkpt lat="44.167114" lon="5.169167">
        <ele>764.4</ele>
        <time>2020-05-29T20:38:52Z</time>
      </trkpt>
      <trkpt lat="44.167133" lon="5.169236">
        <ele>764.2</ele>
        <time>2020-05-29T20:38:53Z</time>
      </trkpt>
      <trkpt lat="44.167149" lon="5.169306">
        <ele>764.1</ele>
        <time>2020-05-29T20:38:54Z</time>
      </trkpt>
      <trkpt lat="44.167171" lon="5.169392">
        <ele>763.8</ele>
        <time>2020-05-29T20:38:56Z</time>
      </trkpt>
      <trkpt lat="44.167187" lon="5.169473">
        <ele>763.6</ele>
        <time>2020-05-29T20:38:57Z</time>
      </trkpt>
      <trkpt lat="44.167202" lon="5.169543">
        <ele>763.4</ele>
        <time>2020-05-29T20:38:58Z</time>
      </trkpt>
      <trkpt lat="44.167213" lon="5.169624">
        <ele>763.2</ele>
        <time>2020-05-29T20:38:59Z</time>
      </trkpt>
      <trkpt lat="44.167225" lon="5.169708">
        <ele>763</ele>
        <time>2020-05-29T20:39:00Z</time>
      </trkpt>
      <trkpt lat="44.167232" lon="5.169777">
        <ele>762.7</ele>
        <time>2020-05-29T20:39:01Z</time>
      </trkpt>
      <trkpt lat="44.167236" lon="5.169857">
        <ele>762.5</ele>
        <time>2020-05-29T20:39:02Z</time>
      </trkpt>
      <trkpt lat="44.167236" lon="5.169923">
        <ele>762.2</ele>
        <time>2020-05-29T20:39:03Z</time>
      </trkpt>
      <trkpt lat="44.167236" lon="5.170007">
        <ele>762</ele>
        <time>2020-05-29T20:39:05Z</time>
      </trkpt>
      <trkpt lat="44.167232" lon="5.170087">
        <ele>762.1</ele>
        <time>2020-05-29T20:39:06Z</time>
      </trkpt>
      <trkpt lat="44.167229" lon="5.170155">
        <ele>762.2</ele>
        <time>2020-05-29T20:39:07Z</time>
      </trkpt>
      <trkpt lat="44.167225" lon="5.170235">
        <ele>762.3</ele>
        <time>2020-05-29T20:39:08Z</time>
      </trkpt>
      <trkpt lat="44.167213" lon="5.170316">
        <ele>762.3</ele>
        <time>2020-05-29T20:39:09Z</time>
      </trkpt>
      <trkpt lat="44.167206" lon="5.170393">
        <ele>762.3</ele>
        <time>2020-05-29T20:39:10Z</time>
      </trkpt>
      <trkpt lat="44.167194" lon="5.17047">
        <ele>762.4</ele>
        <time>2020-05-29T20:39:12Z</time>
      </trkpt>
      <trkpt lat="44.167183" lon="5.170547">
        <ele>762.7</ele>
        <time>2020-05-29T20:39:13Z</time>
      </trkpt>
      <trkpt lat="44.167171" lon="5.170625">
        <ele>763</ele>
        <time>2020-05-29T20:39:14Z</time>
      </trkpt>
      <trkpt lat="44.167164" lon="5.170693">
        <ele>763.3</ele>
        <time>2020-05-29T20:39:15Z</time>
      </trkpt>
      <trkpt lat="44.167156" lon="5.170759">
        <ele>763.6</ele>
        <time>2020-05-29T20:39:16Z</time>
      </trkpt>
      <trkpt lat="44.167149" lon="5.17083">
        <ele>764</ele>
        <time>2020-05-29T20:39:17Z</time>
      </trkpt>
      <trkpt lat="44.167141" lon="5.170903">
        <ele>764.4</ele>
        <time>2020-05-29T20:39:18Z</time>
      </trkpt>
      <trkpt lat="44.167137" lon="5.170972">
        <ele>764.8</ele>
        <time>2020-05-29T20:39:19Z</time>
      </trkpt>
      <trkpt lat="44.16713" lon="5.171044">
        <ele>765.2</ele>
        <time>2020-05-29T20:39:20Z</time>
      </trkpt>
      <trkpt lat="44.167126" lon="5.171132">
        <ele>765.7</ele>
        <time>2020-05-29T20:39:21Z</time>
      </trkpt>
      <trkpt lat="44.167122" lon="5.171199">
        <ele>766.1</ele>
        <time>2020-05-29T20:39:22Z</time>
      </trkpt>
      <trkpt lat="44.167118" lon="5.171276">
        <ele>766.5</ele>
        <time>2020-05-29T20:39:23Z</time>
      </trkpt>
      <trkpt lat="44.167118" lon="5.171341">
        <ele>766.9</ele>
        <time>2020-05-29T20:39:24Z</time>
      </trkpt>
      <trkpt lat="44.167118" lon="5.171415">
        <ele>767.3</ele>
        <time>2020-05-29T20:39:26Z</time>
      </trkpt>
      <trkpt lat="44.167114" lon="5.171475">
        <ele>767.7</ele>
        <time>2020-05-29T20:39:27Z</time>
      </trkpt>
      <trkpt lat="44.167114" lon="5.171534">
        <ele>768.1</ele>
        <time>2020-05-29T20:39:28Z</time>
      </trkpt>
      <trkpt lat="44.167114" lon="5.171604">
        <ele>768.5</ele>
        <time>2020-05-29T20:39:29Z</time>
      </trkpt>
      <trkpt lat="44.167114" lon="5.171669">
        <ele>768.9</ele>
        <time>2020-05-29T20:39:30Z</time>
      </trkpt>
      <trkpt lat="44.167114" lon="5.171741">
        <ele>769.3</ele>
        <time>2020-05-29T20:39:31Z</time>
      </trkpt>
      <trkpt lat="44.167114" lon="5.171811">
        <ele>769.8</ele>
        <time>2020-05-29T20:39:32Z</time>
      </trkpt>
      <trkpt lat="44.167114" lon="5.171881">
        <ele>770.2</ele>
        <time>2020-05-29T20:39:34Z</time>
      </trkpt>
      <trkpt lat="44.167114" lon="5.171937">
        <ele>770.5</ele>
        <time>2020-05-29T20:39:35Z</time>
      </trkpt>
      <trkpt lat="44.167114" lon="5.171999">
        <ele>770.9</ele>
        <time>2020-05-29T20:39:36Z</time>
      </trkpt>
      <trkpt lat="44.167118" lon="5.17206">
        <ele>771.3</ele>
        <time>2020-05-29T20:39:37Z</time>
      </trkpt>
      <trkpt lat="44.167118" lon="5.172112">
        <ele>771.6</ele>
        <time>2020-05-29T20:39:38Z</time>
      </trkpt>
      <trkpt lat="44.167118" lon="5.172165">
        <ele>771.9</ele>
        <time>2020-05-29T20:39:39Z</time>
      </trkpt>
      <trkpt lat="44.167118" lon="5.172219">
        <ele>772.2</ele>
        <time>2020-05-29T20:39:40Z</time>
      </trkpt>
      <trkpt lat="44.167118" lon="5.172281">
        <ele>772.6</ele>
        <time>2020-05-29T20:39:41Z</time>
      </trkpt>
      <trkpt lat="44.167118" lon="5.172347">
        <ele>773</ele>
        <time>2020-05-29T20:39:42Z</time>
      </trkpt>
      <trkpt lat="44.167122" lon="5.172409">
        <ele>773.4</ele>
        <time>2020-05-29T20:39:44Z</time>
      </trkpt>
      <trkpt lat="44.167122" lon="5.172471">
        <ele>773.8</ele>
        <time>2020-05-29T20:39:45Z</time>
      </trkpt>
      <trkpt lat="44.167122" lon="5.172523">
        <ele>774.1</ele>
        <time>2020-05-29T20:39:46Z</time>
      </trkpt>
      <trkpt lat="44.167122" lon="5.172577">
        <ele>774.4</ele>
        <time>2020-05-29T20:39:47Z</time>
      </trkpt>
      <trkpt lat="44.167122" lon="5.172638">
        <ele>774.8</ele>
        <time>2020-05-29T20:39:48Z</time>
      </trkpt>
      <trkpt lat="44.167122" lon="5.172704">
        <ele>775.2</ele>
        <time>2020-05-29T20:39:49Z</time>
      </trkpt>
      <trkpt lat="44.167122" lon="5.172757">
        <ele>775.5</ele>
        <time>2020-05-29T20:39:50Z</time>
      </trkpt>
      <trkpt lat="44.167122" lon="5.172819">
        <ele>775.8</ele>
        <time>2020-05-29T20:39:51Z</time>
      </trkpt>
      <trkpt lat="44.167122" lon="5.172873">
        <ele>776.2</ele>
        <time>2020-05-29T20:39:52Z</time>
      </trkpt>
      <trkpt lat="44.167122" lon="5.172922">
        <ele>776.5</ele>
        <time>2020-05-29T20:39:53Z</time>
      </trkpt>
      <trkpt lat="44.167122" lon="5.172976">
        <ele>776.8</ele>
        <time>2020-05-29T20:39:54Z</time>
      </trkpt>
      <trkpt lat="44.167122" lon="5.173043">
        <ele>777.2</ele>
        <time>2020-05-29T20:39:56Z</time>
      </trkpt>
      <trkpt lat="44.167122" lon="5.173093">
        <ele>777.5</ele>
        <time>2020-05-29T20:39:57Z</time>
      </trkpt>
      <trkpt lat="44.167122" lon="5.173147">
        <ele>777.9</ele>
        <time>2020-05-29T20:39:58Z</time>
      </trkpt>
      <trkpt lat="44.167122" lon="5.173215">
        <ele>778.3</ele>
        <time>2020-05-29T20:39:59Z</time>
      </trkpt>
      <trkpt lat="44.167118" lon="5.173284">
        <ele>778.8</ele>
        <time>2020-05-29T20:40:00Z</time>
      </trkpt>
      <trkpt lat="44.167118" lon="5.17334">
        <ele>779.1</ele>
        <time>2020-05-29T20:40:01Z</time>
      </trkpt>
      <trkpt lat="44.167114" lon="5.173397">
        <ele>779.5</ele>
        <time>2020-05-29T20:40:02Z</time>
      </trkpt>
      <trkpt lat="44.16711" lon="5.173463">
        <ele>779.9</ele>
        <time>2020-05-29T20:40:03Z</time>
      </trkpt>
      <trkpt lat="44.16711" lon="5.17352">
        <ele>780.2</ele>
        <time>2020-05-29T20:40:04Z</time>
      </trkpt>
      <trkpt lat="44.167107" lon="5.173589">
        <ele>780.6</ele>
        <time>2020-05-29T20:40:05Z</time>
      </trkpt>
      <trkpt lat="44.167103" lon="5.173645">
        <ele>780.9</ele>
        <time>2020-05-29T20:40:06Z</time>
      </trkpt>
      <trkpt lat="44.167103" lon="5.173715">
        <ele>781.3</ele>
        <time>2020-05-29T20:40:08Z</time>
      </trkpt>
      <trkpt lat="44.167103" lon="5.17377">
        <ele>781.5</ele>
        <time>2020-05-29T20:40:09Z</time>
      </trkpt>
      <trkpt lat="44.167099" lon="5.17384">
        <ele>781.7</ele>
        <time>2020-05-29T20:40:10Z</time>
      </trkpt>
      <trkpt lat="44.167099" lon="5.173895">
        <ele>781.8</ele>
        <time>2020-05-29T20:40:11Z</time>
      </trkpt>
      <trkpt lat="44.167099" lon="5.173963">
        <ele>782</ele>
        <time>2020-05-29T20:40:12Z</time>
      </trkpt>
      <trkpt lat="44.167099" lon="5.174027">
        <ele>782.1</ele>
        <time>2020-05-29T20:40:13Z</time>
      </trkpt>
      <trkpt lat="44.167099" lon="5.174084">
        <ele>782.3</ele>
        <time>2020-05-29T20:40:14Z</time>
      </trkpt>
      <trkpt lat="44.167099" lon="5.174153">
        <ele>782.5</ele>
        <time>2020-05-29T20:40:15Z</time>
      </trkpt>
      <trkpt lat="44.167099" lon="5.174211">
        <ele>782.7</ele>
        <time>2020-05-29T20:40:16Z</time>
      </trkpt>
      <trkpt lat="44.167103" lon="5.174281">
        <ele>783.1</ele>
        <time>2020-05-29T20:40:18Z</time>
      </trkpt>
      <trkpt lat="44.167103" lon="5.174338">
        <ele>783.4</ele>
        <time>2020-05-29T20:40:19Z</time>
      </trkpt>
      <trkpt lat="44.167103" lon="5.174413">
        <ele>783.8</ele>
        <time>2020-05-29T20:40:20Z</time>
      </trkpt>
      <trkpt lat="44.167107" lon="5.174488">
        <ele>784.2</ele>
        <time>2020-05-29T20:40:21Z</time>
      </trkpt>
      <trkpt lat="44.16711" lon="5.17455">
        <ele>784.6</ele>
        <time>2020-05-29T20:40:22Z</time>
      </trkpt>
      <trkpt lat="44.167114" lon="5.174624">
        <ele>785</ele>
        <time>2020-05-29T20:40:23Z</time>
      </trkpt>
      <trkpt lat="44.167122" lon="5.174699">
        <ele>785.4</ele>
        <time>2020-05-29T20:40:24Z</time>
      </trkpt>
      <trkpt lat="44.167126" lon="5.174775">
        <ele>785.8</ele>
        <time>2020-05-29T20:40:26Z</time>
      </trkpt>
      <trkpt lat="44.16713" lon="5.174835">
        <ele>786.1</ele>
        <time>2020-05-29T20:40:27Z</time>
      </trkpt>
      <trkpt lat="44.167133" lon="5.174908">
        <ele>786.6</ele>
        <time>2020-05-29T20:40:28Z</time>
      </trkpt>
      <trkpt lat="44.167141" lon="5.174981">
        <ele>787</ele>
        <time>2020-05-29T20:40:29Z</time>
      </trkpt>
      <trkpt lat="44.167145" lon="5.17504">
        <ele>787.4</ele>
        <time>2020-05-29T20:40:30Z</time>
      </trkpt>
      <trkpt lat="44.167149" lon="5.175111">
        <ele>787.8</ele>
        <time>2020-05-29T20:40:31Z</time>
      </trkpt>
      <trkpt lat="44.167152" lon="5.175169">
        <ele>788.2</ele>
        <time>2020-05-29T20:40:32Z</time>
      </trkpt>
      <trkpt lat="44.167156" lon="5.175237">
        <ele>788.6</ele>
        <time>2020-05-29T20:40:33Z</time>
      </trkpt>
      <trkpt lat="44.167164" lon="5.175307">
        <ele>789</ele>
        <time>2020-05-29T20:40:35Z</time>
      </trkpt>
      <trkpt lat="44.167168" lon="5.175364">
        <ele>789.4</ele>
        <time>2020-05-29T20:40:36Z</time>
      </trkpt>
      <trkpt lat="44.167175" lon="5.175431">
        <ele>789.9</ele>
        <time>2020-05-29T20:40:37Z</time>
      </trkpt>
      <trkpt lat="44.167183" lon="5.1755">
        <ele>790.4</ele>
        <time>2020-05-29T20:40:38Z</time>
      </trkpt>
      <trkpt lat="44.167194" lon="5.175569">
        <ele>790.8</ele>
        <time>2020-05-29T20:40:39Z</time>
      </trkpt>
      <trkpt lat="44.167202" lon="5.175624">
        <ele>791.2</ele>
        <time>2020-05-29T20:40:40Z</time>
      </trkpt>
      <trkpt lat="44.167213" lon="5.175689">
        <ele>791.6</ele>
        <time>2020-05-29T20:40:41Z</time>
      </trkpt>
      <trkpt lat="44.167225" lon="5.175743">
        <ele>791.9</ele>
        <time>2020-05-29T20:40:42Z</time>
      </trkpt>
      <trkpt lat="44.16724" lon="5.175797">
        <ele>792.3</ele>
        <time>2020-05-29T20:40:43Z</time>
      </trkpt>
      <trkpt lat="44.167259" lon="5.175864">
        <ele>792.8</ele>
        <time>2020-05-29T20:40:45Z</time>
      </trkpt>
      <trkpt lat="44.167274" lon="5.175917">
        <ele>793.1</ele>
        <time>2020-05-29T20:40:46Z</time>
      </trkpt>
      <trkpt lat="44.167297" lon="5.175979">
        <ele>793.6</ele>
        <time>2020-05-29T20:40:47Z</time>
      </trkpt>
      <trkpt lat="44.167316" lon="5.176043">
        <ele>794</ele>
        <time>2020-05-29T20:40:48Z</time>
      </trkpt>
      <trkpt lat="44.167339" lon="5.17611">
        <ele>794.6</ele>
        <time>2020-05-29T20:40:49Z</time>
      </trkpt>
      <trkpt lat="44.167358" lon="5.176163">
        <ele>795</ele>
        <time>2020-05-29T20:40:50Z</time>
      </trkpt>
      <trkpt lat="44.167381" lon="5.176229">
        <ele>795.5</ele>
        <time>2020-05-29T20:40:51Z</time>
      </trkpt>
      <trkpt lat="44.1674" lon="5.176292">
        <ele>796</ele>
        <time>2020-05-29T20:40:53Z</time>
      </trkpt>
      <trkpt lat="44.167423" lon="5.176358">
        <ele>796.5</ele>
        <time>2020-05-29T20:40:54Z</time>
      </trkpt>
      <trkpt lat="44.167435" lon="5.176412">
        <ele>796.9</ele>
        <time>2020-05-29T20:40:55Z</time>
      </trkpt>
      <trkpt lat="44.167446" lon="5.176473">
        <ele>797.4</ele>
        <time>2020-05-29T20:40:56Z</time>
      </trkpt>
      <trkpt lat="44.167458" lon="5.176535">
        <ele>797.9</ele>
        <time>2020-05-29T20:40:57Z</time>
      </trkpt>
      <trkpt lat="44.167461" lon="5.176582">
        <ele>798.3</ele>
        <time>2020-05-29T20:40:58Z</time>
      </trkpt>
      <trkpt lat="44.167465" lon="5.176634">
        <ele>798.8</ele>
        <time>2020-05-29T20:40:59Z</time>
      </trkpt>
      <trkpt lat="44.167469" lon="5.176685">
        <ele>799.2</ele>
        <time>2020-05-29T20:41:00Z</time>
      </trkpt>
      <trkpt lat="44.167473" lon="5.176749">
        <ele>799.8</ele>
        <time>2020-05-29T20:41:01Z</time>
      </trkpt>
      <trkpt lat="44.167473" lon="5.17681">
        <ele>800.3</ele>
        <time>2020-05-29T20:41:03Z</time>
      </trkpt>
      <trkpt lat="44.167473" lon="5.176875">
        <ele>800.8</ele>
        <time>2020-05-29T20:41:04Z</time>
      </trkpt>
      <trkpt lat="44.167469" lon="5.176929">
        <ele>801.3</ele>
        <time>2020-05-29T20:41:05Z</time>
      </trkpt>
      <trkpt lat="44.167465" lon="5.176979">
        <ele>801.7</ele>
        <time>2020-05-29T20:41:06Z</time>
      </trkpt>
      <trkpt lat="44.167461" lon="5.177047">
        <ele>802.3</ele>
        <time>2020-05-29T20:41:07Z</time>
      </trkpt>
      <trkpt lat="44.167454" lon="5.177111">
        <ele>802.9</ele>
        <time>2020-05-29T20:41:08Z</time>
      </trkpt>
      <trkpt lat="44.167446" lon="5.177165">
        <ele>803.3</ele>
        <time>2020-05-29T20:41:09Z</time>
      </trkpt>
      <trkpt lat="44.167435" lon="5.177227">
        <ele>803.9</ele>
        <time>2020-05-29T20:41:10Z</time>
      </trkpt>
      <trkpt lat="44.167423" lon="5.177291">
        <ele>804.5</ele>
        <time>2020-05-29T20:41:12Z</time>
      </trkpt>
      <trkpt lat="44.167412" lon="5.177342">
        <ele>804.9</ele>
        <time>2020-05-29T20:41:13Z</time>
      </trkpt>
      <trkpt lat="44.1674" lon="5.177389">
        <ele>805.4</ele>
        <time>2020-05-29T20:41:14Z</time>
      </trkpt>
      <trkpt lat="44.167389" lon="5.177439">
        <ele>805.8</ele>
        <time>2020-05-29T20:41:15Z</time>
      </trkpt>
      <trkpt lat="44.16737" lon="5.177495">
        <ele>806.3</ele>
        <time>2020-05-29T20:41:16Z</time>
      </trkpt>
      <trkpt lat="44.167347" lon="5.177556">
        <ele>806.9</ele>
        <time>2020-05-29T20:41:17Z</time>
      </trkpt>
      <trkpt lat="44.167332" lon="5.177603">
        <ele>807.3</ele>
        <time>2020-05-29T20:41:18Z</time>
      </trkpt>
      <trkpt lat="44.167313" lon="5.177653">
        <ele>807.8</ele>
        <time>2020-05-29T20:41:19Z</time>
      </trkpt>
      <trkpt lat="44.167286" lon="5.17771">
        <ele>808.4</ele>
        <time>2020-05-29T20:41:20Z</time>
      </trkpt>
      <trkpt lat="44.167267" lon="5.177759">
        <ele>808.9</ele>
        <time>2020-05-29T20:41:21Z</time>
      </trkpt>
      <trkpt lat="44.167244" lon="5.177814">
        <ele>809.5</ele>
        <time>2020-05-29T20:41:22Z</time>
      </trkpt>
      <trkpt lat="44.167221" lon="5.177862">
        <ele>810.1</ele>
        <time>2020-05-29T20:41:23Z</time>
      </trkpt>
      <trkpt lat="44.167198" lon="5.177916">
        <ele>810.8</ele>
        <time>2020-05-29T20:41:25Z</time>
      </trkpt>
      <trkpt lat="44.167179" lon="5.177958">
        <ele>811.3</ele>
        <time>2020-05-29T20:41:26Z</time>
      </trkpt>
      <trkpt lat="44.167152" lon="5.178016">
        <ele>812.1</ele>
        <time>2020-05-29T20:41:27Z</time>
      </trkpt>
      <trkpt lat="44.167133" lon="5.17806">
        <ele>812.6</ele>
        <time>2020-05-29T20:41:28Z</time>
      </trkpt>
      <trkpt lat="44.16711" lon="5.178122">
        <ele>813.3</ele>
        <time>2020-05-29T20:41:29Z</time>
      </trkpt>
      <trkpt lat="44.167088" lon="5.17818">
        <ele>814</ele>
        <time>2020-05-29T20:41:30Z</time>
      </trkpt>
      <trkpt lat="44.167065" lon="5.178238">
        <ele>814.6</ele>
        <time>2020-05-29T20:41:31Z</time>
      </trkpt>
      <trkpt lat="44.167046" lon="5.178287">
        <ele>815.2</ele>
        <time>2020-05-29T20:41:32Z</time>
      </trkpt>
      <trkpt lat="44.167026" lon="5.178337">
        <ele>815.7</ele>
        <time>2020-05-29T20:41:33Z</time>
      </trkpt>
      <trkpt lat="44.167011" lon="5.178386">
        <ele>816.2</ele>
        <time>2020-05-29T20:41:34Z</time>
      </trkpt>
      <trkpt lat="44.166996" lon="5.178438">
        <ele>816.8</ele>
        <time>2020-05-29T20:41:36Z</time>
      </trkpt>
      <trkpt lat="44.166981" lon="5.178492">
        <ele>817.3</ele>
        <time>2020-05-29T20:41:37Z</time>
      </trkpt>
      <trkpt lat="44.166969" lon="5.178539">
        <ele>817.8</ele>
        <time>2020-05-29T20:41:38Z</time>
      </trkpt>
      <trkpt lat="44.166962" lon="5.178583">
        <ele>818.2</ele>
        <time>2020-05-29T20:41:39Z</time>
      </trkpt>
      <trkpt lat="44.16695" lon="5.17863">
        <ele>818.7</ele>
        <time>2020-05-29T20:41:40Z</time>
      </trkpt>
      <trkpt lat="44.166939" lon="5.178684">
        <ele>819.2</ele>
        <time>2020-05-29T20:41:41Z</time>
      </trkpt>
      <trkpt lat="44.166931" lon="5.178727">
        <ele>819.7</ele>
        <time>2020-05-29T20:41:42Z</time>
      </trkpt>
      <trkpt lat="44.16692" lon="5.178782">
        <ele>820.2</ele>
        <time>2020-05-29T20:41:43Z</time>
      </trkpt>
      <trkpt lat="44.166908" lon="5.178837">
        <ele>820.7</ele>
        <time>2020-05-29T20:41:44Z</time>
      </trkpt>
      <trkpt lat="44.166901" lon="5.178881">
        <ele>821.1</ele>
        <time>2020-05-29T20:41:45Z</time>
      </trkpt>
      <trkpt lat="44.166893" lon="5.178936">
        <ele>821.6</ele>
        <time>2020-05-29T20:41:47Z</time>
      </trkpt>
      <trkpt lat="44.166885" lon="5.178984">
        <ele>822.1</ele>
        <time>2020-05-29T20:41:48Z</time>
      </trkpt>
      <trkpt lat="44.166878" lon="5.179029">
        <ele>822.5</ele>
        <time>2020-05-29T20:41:49Z</time>
      </trkpt>
      <trkpt lat="44.16687" lon="5.179089">
        <ele>823</ele>
        <time>2020-05-29T20:41:50Z</time>
      </trkpt>
      <trkpt lat="44.166859" lon="5.179149">
        <ele>823.6</ele>
        <time>2020-05-29T20:41:51Z</time>
      </trkpt>
      <trkpt lat="44.166851" lon="5.179214">
        <ele>824.1</ele>
        <time>2020-05-29T20:41:52Z</time>
      </trkpt>
      <trkpt lat="44.16684" lon="5.179275">
        <ele>824.7</ele>
        <time>2020-05-29T20:41:53Z</time>
      </trkpt>
      <trkpt lat="44.166832" lon="5.179327">
        <ele>825.1</ele>
        <time>2020-05-29T20:41:54Z</time>
      </trkpt>
      <trkpt lat="44.16682" lon="5.179386">
        <ele>825.7</ele>
        <time>2020-05-29T20:41:56Z</time>
      </trkpt>
      <trkpt lat="44.166813" lon="5.179443">
        <ele>826.2</ele>
        <time>2020-05-29T20:41:57Z</time>
      </trkpt>
      <trkpt lat="44.166805" lon="5.179494">
        <ele>826.7</ele>
        <time>2020-05-29T20:41:58Z</time>
      </trkpt>
      <trkpt lat="44.166794" lon="5.179554">
        <ele>827.3</ele>
        <time>2020-05-29T20:41:59Z</time>
      </trkpt>
      <trkpt lat="44.166786" lon="5.1796">
        <ele>827.7</ele>
        <time>2020-05-29T20:42:00Z</time>
      </trkpt>
      <trkpt lat="44.166775" lon="5.17966">
        <ele>828.2</ele>
        <time>2020-05-29T20:42:01Z</time>
      </trkpt>
      <trkpt lat="44.166763" lon="5.179718">
        <ele>828.8</ele>
        <time>2020-05-29T20:42:02Z</time>
      </trkpt>
      <trkpt lat="44.166756" lon="5.179764">
        <ele>829.2</ele>
        <time>2020-05-29T20:42:03Z</time>
      </trkpt>
      <trkpt lat="44.166744" lon="5.179822">
        <ele>829.7</ele>
        <time>2020-05-29T20:42:05Z</time>
      </trkpt>
      <trkpt lat="44.166737" lon="5.179873">
        <ele>830.1</ele>
        <time>2020-05-29T20:42:06Z</time>
      </trkpt>
      <trkpt lat="44.166729" lon="5.179932">
        <ele>830.6</ele>
        <time>2020-05-29T20:42:07Z</time>
      </trkpt>
      <trkpt lat="44.166725" lon="5.179995">
        <ele>831</ele>
        <time>2020-05-29T20:42:08Z</time>
      </trkpt>
      <trkpt lat="44.166721" lon="5.180043">
        <ele>831.3</ele>
        <time>2020-05-29T20:42:09Z</time>
      </trkpt>
      <trkpt lat="44.166717" lon="5.180106">
        <ele>831.7</ele>
        <time>2020-05-29T20:42:10Z</time>
      </trkpt>
      <trkpt lat="44.166714" lon="5.180166">
        <ele>831.8</ele>
        <time>2020-05-29T20:42:11Z</time>
      </trkpt>
      <trkpt lat="44.166714" lon="5.180215">
        <ele>831.8</ele>
        <time>2020-05-29T20:42:12Z</time>
      </trkpt>
      <trkpt lat="44.166717" lon="5.180269">
        <ele>831.9</ele>
        <time>2020-05-29T20:42:13Z</time>
      </trkpt>
      <trkpt lat="44.166721" lon="5.18033">
        <ele>832.1</ele>
        <time>2020-05-29T20:42:15Z</time>
      </trkpt>
      <trkpt lat="44.166729" lon="5.180383">
        <ele>832.4</ele>
        <time>2020-05-29T20:42:16Z</time>
      </trkpt>
      <trkpt lat="44.16674" lon="5.180443">
        <ele>832.7</ele>
        <time>2020-05-29T20:42:17Z</time>
      </trkpt>
      <trkpt lat="44.166756" lon="5.180503">
        <ele>833</ele>
        <time>2020-05-29T20:42:18Z</time>
      </trkpt>
      <trkpt lat="44.166775" lon="5.180566">
        <ele>833.4</ele>
        <time>2020-05-29T20:42:19Z</time>
      </trkpt>
      <trkpt lat="44.16679" lon="5.180613">
        <ele>833.6</ele>
        <time>2020-05-29T20:42:20Z</time>
      </trkpt>
      <trkpt lat="44.166809" lon="5.180672">
        <ele>834</ele>
        <time>2020-05-29T20:42:21Z</time>
      </trkpt>
      <trkpt lat="44.166832" lon="5.180727">
        <ele>834.3</ele>
        <time>2020-05-29T20:42:23Z</time>
      </trkpt>
      <trkpt lat="44.166855" lon="5.180787">
        <ele>834.7</ele>
        <time>2020-05-29T20:42:24Z</time>
      </trkpt>
      <trkpt lat="44.166881" lon="5.180843">
        <ele>835</ele>
        <time>2020-05-29T20:42:25Z</time>
      </trkpt>
      <trkpt lat="44.166901" lon="5.180892">
        <ele>835.3</ele>
        <time>2020-05-29T20:42:26Z</time>
      </trkpt>
      <trkpt lat="44.166927" lon="5.180948">
        <ele>835.6</ele>
        <time>2020-05-29T20:42:27Z</time>
      </trkpt>
      <trkpt lat="44.16695" lon="5.181005">
        <ele>836</ele>
        <time>2020-05-29T20:42:28Z</time>
      </trkpt>
      <trkpt lat="44.166973" lon="5.181055">
        <ele>836.3</ele>
        <time>2020-05-29T20:42:29Z</time>
      </trkpt>
      <trkpt lat="44.167" lon="5.181112">
        <ele>836.6</ele>
        <time>2020-05-29T20:42:31Z</time>
      </trkpt>
      <trkpt lat="44.167026" lon="5.181173">
        <ele>836.9</ele>
        <time>2020-05-29T20:42:32Z</time>
      </trkpt>
      <trkpt lat="44.167049" lon="5.181223">
        <ele>837.2</ele>
        <time>2020-05-29T20:42:33Z</time>
      </trkpt>
      <trkpt lat="44.167072" lon="5.181281">
        <ele>837.5</ele>
        <time>2020-05-29T20:42:34Z</time>
      </trkpt>
      <trkpt lat="44.167103" lon="5.181343">
        <ele>837.9</ele>
        <time>2020-05-29T20:42:35Z</time>
      </trkpt>
      <trkpt lat="44.167126" lon="5.181402">
        <ele>838.2</ele>
        <time>2020-05-29T20:42:37Z</time>
      </trkpt>
      <trkpt lat="44.167156" lon="5.181465">
        <ele>838.5</ele>
        <time>2020-05-29T20:42:38Z</time>
      </trkpt>
      <trkpt lat="44.167179" lon="5.181516">
        <ele>838.8</ele>
        <time>2020-05-29T20:42:39Z</time>
      </trkpt>
      <trkpt lat="44.167206" lon="5.181575">
        <ele>839.1</ele>
        <time>2020-05-29T20:42:40Z</time>
      </trkpt>
      <trkpt lat="44.167232" lon="5.181637">
        <ele>839.3</ele>
        <time>2020-05-29T20:42:41Z</time>
      </trkpt>
      <trkpt lat="44.167255" lon="5.181695">
        <ele>839.6</ele>
        <time>2020-05-29T20:42:42Z</time>
      </trkpt>
      <trkpt lat="44.167282" lon="5.181759">
        <ele>839.8</ele>
        <time>2020-05-29T20:42:44Z</time>
      </trkpt>
      <trkpt lat="44.167309" lon="5.181819">
        <ele>839.9</ele>
        <time>2020-05-29T20:42:45Z</time>
      </trkpt>
      <trkpt lat="44.167335" lon="5.181884">
        <ele>840</ele>
        <time>2020-05-29T20:42:46Z</time>
      </trkpt>
      <trkpt lat="44.167362" lon="5.181945">
        <ele>840.1</ele>
        <time>2020-05-29T20:42:47Z</time>
      </trkpt>
      <trkpt lat="44.167389" lon="5.182012">
        <ele>840.1</ele>
        <time>2020-05-29T20:42:48Z</time>
      </trkpt>
      <trkpt lat="44.167412" lon="5.182067">
        <ele>840.1</ele>
        <time>2020-05-29T20:42:49Z</time>
      </trkpt>
      <trkpt lat="44.167438" lon="5.182135">
        <ele>840.1</ele>
        <time>2020-05-29T20:42:51Z</time>
      </trkpt>
      <trkpt lat="44.167458" lon="5.18219">
        <ele>840.2</ele>
        <time>2020-05-29T20:42:52Z</time>
      </trkpt>
      <trkpt lat="44.167488" lon="5.182259">
        <ele>840.4</ele>
        <time>2020-05-29T20:42:53Z</time>
      </trkpt>
      <trkpt lat="44.167515" lon="5.182327">
        <ele>840.6</ele>
        <time>2020-05-29T20:42:54Z</time>
      </trkpt>
      <trkpt lat="44.167538" lon="5.182395">
        <ele>840.8</ele>
        <time>2020-05-29T20:42:55Z</time>
      </trkpt>
      <trkpt lat="44.167561" lon="5.18245">
        <ele>841</ele>
        <time>2020-05-29T20:42:56Z</time>
      </trkpt>
      <trkpt lat="44.16758" lon="5.182507">
        <ele>841.2</ele>
        <time>2020-05-29T20:42:57Z</time>
      </trkpt>
      <trkpt lat="44.167602" lon="5.18257">
        <ele>841.3</ele>
        <time>2020-05-29T20:42:58Z</time>
      </trkpt>
      <trkpt lat="44.167625" lon="5.182634">
        <ele>841.5</ele>
        <time>2020-05-29T20:42:59Z</time>
      </trkpt>
      <trkpt lat="44.167648" lon="5.182695">
        <ele>841.7</ele>
        <time>2020-05-29T20:43:00Z</time>
      </trkpt>
      <trkpt lat="44.167667" lon="5.182759">
        <ele>841.8</ele>
        <time>2020-05-29T20:43:01Z</time>
      </trkpt>
      <trkpt lat="44.167694" lon="5.182837">
        <ele>841.9</ele>
        <time>2020-05-29T20:43:02Z</time>
      </trkpt>
      <trkpt lat="44.167709" lon="5.182898">
        <ele>842.1</ele>
        <time>2020-05-29T20:43:03Z</time>
      </trkpt>
      <trkpt lat="44.167732" lon="5.182972">
        <ele>842.3</ele>
        <time>2020-05-29T20:43:05Z</time>
      </trkpt>
      <trkpt lat="44.167751" lon="5.183047">
        <ele>842.6</ele>
        <time>2020-05-29T20:43:06Z</time>
      </trkpt>
      <trkpt lat="44.167767" lon="5.183107">
        <ele>842.9</ele>
        <time>2020-05-29T20:43:07Z</time>
      </trkpt>
      <trkpt lat="44.167782" lon="5.18317">
        <ele>843.2</ele>
        <time>2020-05-29T20:43:08Z</time>
      </trkpt>
      <trkpt lat="44.167797" lon="5.183242">
        <ele>843.5</ele>
        <time>2020-05-29T20:43:09Z</time>
      </trkpt>
      <trkpt lat="44.167812" lon="5.183315">
        <ele>843.8</ele>
        <time>2020-05-29T20:43:10Z</time>
      </trkpt>
      <trkpt lat="44.167828" lon="5.183387">
        <ele>844.2</ele>
        <time>2020-05-29T20:43:11Z</time>
      </trkpt>
      <trkpt lat="44.167843" lon="5.183464">
        <ele>844.5</ele>
        <time>2020-05-29T20:43:13Z</time>
      </trkpt>
      <trkpt lat="44.167858" lon="5.183538">
        <ele>844.8</ele>
        <time>2020-05-29T20:43:14Z</time>
      </trkpt>
      <trkpt lat="44.167873" lon="5.183611">
        <ele>845.2</ele>
        <time>2020-05-29T20:43:15Z</time>
      </trkpt>
      <trkpt lat="44.167889" lon="5.183684">
        <ele>845.4</ele>
        <time>2020-05-29T20:43:16Z</time>
      </trkpt>
      <trkpt lat="44.1679" lon="5.183757">
        <ele>845.7</ele>
        <time>2020-05-29T20:43:17Z</time>
      </trkpt>
      <trkpt lat="44.167915" lon="5.183826">
        <ele>846</ele>
        <time>2020-05-29T20:43:19Z</time>
      </trkpt>
      <trkpt lat="44.167927" lon="5.183901">
        <ele>846.3</ele>
        <time>2020-05-29T20:43:20Z</time>
      </trkpt>
      <trkpt lat="44.167942" lon="5.183974">
        <ele>846.6</ele>
        <time>2020-05-29T20:43:21Z</time>
      </trkpt>
      <trkpt lat="44.16795" lon="5.184033">
        <ele>846.9</ele>
        <time>2020-05-29T20:43:22Z</time>
      </trkpt>
      <trkpt lat="44.167961" lon="5.184105">
        <ele>847.2</ele>
        <time>2020-05-29T20:43:23Z</time>
      </trkpt>
      <trkpt lat="44.167973" lon="5.184164">
        <ele>847.5</ele>
        <time>2020-05-29T20:43:24Z</time>
      </trkpt>
      <trkpt lat="44.16798" lon="5.184236">
        <ele>847.8</ele>
        <time>2020-05-29T20:43:25Z</time>
      </trkpt>
      <trkpt lat="44.167992" lon="5.184309">
        <ele>848.2</ele>
        <time>2020-05-29T20:43:27Z</time>
      </trkpt>
      <trkpt lat="44.167999" lon="5.184369">
        <ele>848.5</ele>
        <time>2020-05-29T20:43:28Z</time>
      </trkpt>
      <trkpt lat="44.168011" lon="5.184429">
        <ele>848.8</ele>
        <time>2020-05-29T20:43:29Z</time>
      </trkpt>
      <trkpt lat="44.168018" lon="5.184506">
        <ele>849.1</ele>
        <time>2020-05-29T20:43:30Z</time>
      </trkpt>
      <trkpt lat="44.16803" lon="5.184575">
        <ele>849.4</ele>
        <time>2020-05-29T20:43:31Z</time>
      </trkpt>
      <trkpt lat="44.168037" lon="5.184639">
        <ele>849.7</ele>
        <time>2020-05-29T20:43:32Z</time>
      </trkpt>
      <trkpt lat="44.168049" lon="5.184713">
        <ele>850</ele>
        <time>2020-05-29T20:43:33Z</time>
      </trkpt>
      <trkpt lat="44.16806" lon="5.184789">
        <ele>850.4</ele>
        <time>2020-05-29T20:43:34Z</time>
      </trkpt>
      <trkpt lat="44.168075" lon="5.184865">
        <ele>850.8</ele>
        <time>2020-05-29T20:43:36Z</time>
      </trkpt>
      <trkpt lat="44.168091" lon="5.184941">
        <ele>851.1</ele>
        <time>2020-05-29T20:43:37Z</time>
      </trkpt>
      <trkpt lat="44.168106" lon="5.185019">
        <ele>851.5</ele>
        <time>2020-05-29T20:43:38Z</time>
      </trkpt>
      <trkpt lat="44.168121" lon="5.185087">
        <ele>851.8</ele>
        <time>2020-05-29T20:43:39Z</time>
      </trkpt>
      <trkpt lat="44.16814" lon="5.185167">
        <ele>852.2</ele>
        <time>2020-05-29T20:43:40Z</time>
      </trkpt>
      <trkpt lat="44.168163" lon="5.185254">
        <ele>852.6</ele>
        <time>2020-05-29T20:43:41Z</time>
      </trkpt>
      <trkpt lat="44.168182" lon="5.185341">
        <ele>853</ele>
        <time>2020-05-29T20:43:43Z</time>
      </trkpt>
      <trkpt lat="44.168205" lon="5.185412">
        <ele>853.4</ele>
        <time>2020-05-29T20:43:44Z</time>
      </trkpt>
      <trkpt lat="44.168232" lon="5.185493">
        <ele>853.8</ele>
        <time>2020-05-29T20:43:45Z</time>
      </trkpt>
      <trkpt lat="44.168259" lon="5.18556">
        <ele>854.2</ele>
        <time>2020-05-29T20:43:46Z</time>
      </trkpt>
      <trkpt lat="44.168285" lon="5.18562">
        <ele>854.5</ele>
        <time>2020-05-29T20:43:47Z</time>
      </trkpt>
      <trkpt lat="44.168324" lon="5.185692">
        <ele>855</ele>
        <time>2020-05-29T20:43:48Z</time>
      </trkpt>
      <trkpt lat="44.168362" lon="5.185759">
        <ele>855.4</ele>
        <time>2020-05-29T20:43:49Z</time>
      </trkpt>
      <trkpt lat="44.1684" lon="5.185818">
        <ele>855.8</ele>
        <time>2020-05-29T20:43:50Z</time>
      </trkpt>
      <trkpt lat="44.168442" lon="5.185885">
        <ele>856.2</ele>
        <time>2020-05-29T20:43:51Z</time>
      </trkpt>
      <trkpt lat="44.168488" lon="5.185956">
        <ele>856.6</ele>
        <time>2020-05-29T20:43:53Z</time>
      </trkpt>
      <trkpt lat="44.168533" lon="5.186024">
        <ele>857</ele>
        <time>2020-05-29T20:43:54Z</time>
      </trkpt>
      <trkpt lat="44.168579" lon="5.186095">
        <ele>857.4</ele>
        <time>2020-05-29T20:43:55Z</time>
      </trkpt>
      <trkpt lat="44.168629" lon="5.186169">
        <ele>857.9</ele>
        <time>2020-05-29T20:43:56Z</time>
      </trkpt>
      <trkpt lat="44.168678" lon="5.186239">
        <ele>858.2</ele>
        <time>2020-05-29T20:43:57Z</time>
      </trkpt>
      <trkpt lat="44.168728" lon="5.186315">
        <ele>858.6</ele>
        <time>2020-05-29T20:43:59Z</time>
      </trkpt>
      <trkpt lat="44.168774" lon="5.18639">
        <ele>859</ele>
        <time>2020-05-29T20:44:00Z</time>
      </trkpt>
      <trkpt lat="44.168819" lon="5.186468">
        <ele>859.4</ele>
        <time>2020-05-29T20:44:01Z</time>
      </trkpt>
      <trkpt lat="44.168854" lon="5.186531">
        <ele>859.8</ele>
        <time>2020-05-29T20:44:02Z</time>
      </trkpt>
      <trkpt lat="44.168884" lon="5.186596">
        <ele>860.1</ele>
        <time>2020-05-29T20:44:03Z</time>
      </trkpt>
      <trkpt lat="44.168915" lon="5.186675">
        <ele>860.5</ele>
        <time>2020-05-29T20:44:04Z</time>
      </trkpt>
      <trkpt lat="44.168926" lon="5.186745">
        <ele>860.8</ele>
        <time>2020-05-29T20:44:05Z</time>
      </trkpt>
      <trkpt lat="44.168934" lon="5.186833">
        <ele>861.1</ele>
        <time>2020-05-29T20:44:06Z</time>
      </trkpt>
      <trkpt lat="44.168938" lon="5.186919">
        <ele>861.5</ele>
        <time>2020-05-29T20:44:08Z</time>
      </trkpt>
      <trkpt lat="44.168934" lon="5.186991">
        <ele>861.8</ele>
        <time>2020-05-29T20:44:09Z</time>
      </trkpt>
      <trkpt lat="44.168922" lon="5.187062">
        <ele>862.2</ele>
        <time>2020-05-29T20:44:10Z</time>
      </trkpt>
      <trkpt lat="44.1689" lon="5.187141">
        <ele>862.6</ele>
        <time>2020-05-29T20:44:11Z</time>
      </trkpt>
      <trkpt lat="44.168873" lon="5.187218">
        <ele>863</ele>
        <time>2020-05-29T20:44:12Z</time>
      </trkpt>
      <trkpt lat="44.168842" lon="5.18729">
        <ele>863.4</ele>
        <time>2020-05-29T20:44:13Z</time>
      </trkpt>
      <trkpt lat="44.168812" lon="5.18736">
        <ele>863.8</ele>
        <time>2020-05-29T20:44:14Z</time>
      </trkpt>
      <trkpt lat="44.168781" lon="5.187421">
        <ele>864.2</ele>
        <time>2020-05-29T20:44:15Z</time>
      </trkpt>
      <trkpt lat="44.168747" lon="5.18749">
        <ele>864.6</ele>
        <time>2020-05-29T20:44:17Z</time>
      </trkpt>
      <trkpt lat="44.168716" lon="5.18756">
        <ele>865</ele>
        <time>2020-05-29T20:44:18Z</time>
      </trkpt>
      <trkpt lat="44.168686" lon="5.187621">
        <ele>865.3</ele>
        <time>2020-05-29T20:44:19Z</time>
      </trkpt>
      <trkpt lat="44.168652" lon="5.187699">
        <ele>865.8</ele>
        <time>2020-05-29T20:44:20Z</time>
      </trkpt>
      <trkpt lat="44.168621" lon="5.18776">
        <ele>866.2</ele>
        <time>2020-05-29T20:44:21Z</time>
      </trkpt>
      <trkpt lat="44.168587" lon="5.187836">
        <ele>866.6</ele>
        <time>2020-05-29T20:44:22Z</time>
      </trkpt>
      <trkpt lat="44.168552" lon="5.187907">
        <ele>867.1</ele>
        <time>2020-05-29T20:44:23Z</time>
      </trkpt>
      <trkpt lat="44.168522" lon="5.187978">
        <ele>867.5</ele>
        <time>2020-05-29T20:44:25Z</time>
      </trkpt>
      <trkpt lat="44.168484" lon="5.188052">
        <ele>867.9</ele>
        <time>2020-05-29T20:44:26Z</time>
      </trkpt>
      <trkpt lat="44.168457" lon="5.188109">
        <ele>868.3</ele>
        <time>2020-05-29T20:44:27Z</time>
      </trkpt>
      <trkpt lat="44.168426" lon="5.188176">
        <ele>868.7</ele>
        <time>2020-05-29T20:44:28Z</time>
      </trkpt>
      <trkpt lat="44.168396" lon="5.188243">
        <ele>869.1</ele>
        <time>2020-05-29T20:44:29Z</time>
      </trkpt>
      <trkpt lat="44.168369" lon="5.188298">
        <ele>869.4</ele>
        <time>2020-05-29T20:44:30Z</time>
      </trkpt>
      <trkpt lat="44.168335" lon="5.188363">
        <ele>869.9</ele>
        <time>2020-05-29T20:44:31Z</time>
      </trkpt>
      <trkpt lat="44.168304" lon="5.188428">
        <ele>870.4</ele>
        <time>2020-05-29T20:44:33Z</time>
      </trkpt>
      <trkpt lat="44.168278" lon="5.188482">
        <ele>870.7</ele>
        <time>2020-05-29T20:44:34Z</time>
      </trkpt>
      <trkpt lat="44.168251" lon="5.188542">
        <ele>871.1</ele>
        <time>2020-05-29T20:44:35Z</time>
      </trkpt>
      <trkpt lat="44.168224" lon="5.188592">
        <ele>871.5</ele>
        <time>2020-05-29T20:44:36Z</time>
      </trkpt>
      <trkpt lat="44.168201" lon="5.188642">
        <ele>871.8</ele>
        <time>2020-05-29T20:44:37Z</time>
      </trkpt>
      <trkpt lat="44.168175" lon="5.188703">
        <ele>872.2</ele>
        <time>2020-05-29T20:44:38Z</time>
      </trkpt>
      <trkpt lat="44.168156" lon="5.188755">
        <ele>872.5</ele>
        <time>2020-05-29T20:44:39Z</time>
      </trkpt>
      <trkpt lat="44.168137" lon="5.188811">
        <ele>872.9</ele>
        <time>2020-05-29T20:44:40Z</time>
      </trkpt>
      <trkpt lat="44.168121" lon="5.188868">
        <ele>873.2</ele>
        <time>2020-05-29T20:44:41Z</time>
      </trkpt>
      <trkpt lat="44.16811" lon="5.18894">
        <ele>873.6</ele>
        <time>2020-05-29T20:44:42Z</time>
      </trkpt>
      <trkpt lat="44.168106" lon="5.189016">
        <ele>874.1</ele>
        <time>2020-05-29T20:44:43Z</time>
      </trkpt>
      <trkpt lat="44.168106" lon="5.189096">
        <ele>874.5</ele>
        <time>2020-05-29T20:44:45Z</time>
      </trkpt>
      <trkpt lat="44.168117" lon="5.189173">
        <ele>874.9</ele>
        <time>2020-05-29T20:44:46Z</time>
      </trkpt>
      <trkpt lat="44.168133" lon="5.189234">
        <ele>875.2</ele>
        <time>2020-05-29T20:44:47Z</time>
      </trkpt>
      <trkpt lat="44.168156" lon="5.189308">
        <ele>875.7</ele>
        <time>2020-05-29T20:44:48Z</time>
      </trkpt>
      <trkpt lat="44.168186" lon="5.189379">
        <ele>876.1</ele>
        <time>2020-05-29T20:44:49Z</time>
      </trkpt>
      <trkpt lat="44.16822" lon="5.189439">
        <ele>876.5</ele>
        <time>2020-05-29T20:44:50Z</time>
      </trkpt>
      <trkpt lat="44.168259" lon="5.189504">
        <ele>876.9</ele>
        <time>2020-05-29T20:44:51Z</time>
      </trkpt>
      <trkpt lat="44.168304" lon="5.189564">
        <ele>877.4</ele>
        <time>2020-05-29T20:44:53Z</time>
      </trkpt>
      <trkpt lat="44.16835" lon="5.18962">
        <ele>877.8</ele>
        <time>2020-05-29T20:44:54Z</time>
      </trkpt>
      <trkpt lat="44.168385" lon="5.189663">
        <ele>878.1</ele>
        <time>2020-05-29T20:44:55Z</time>
      </trkpt>
      <trkpt lat="44.168423" lon="5.189706">
        <ele>878.4</ele>
        <time>2020-05-29T20:44:56Z</time>
      </trkpt>
      <trkpt lat="44.168461" lon="5.189748">
        <ele>878.7</ele>
        <time>2020-05-29T20:44:57Z</time>
      </trkpt>
      <trkpt lat="44.168507" lon="5.189797">
        <ele>879.1</ele>
        <time>2020-05-29T20:44:58Z</time>
      </trkpt>
      <trkpt lat="44.168545" lon="5.189838">
        <ele>879.4</ele>
        <time>2020-05-29T20:44:59Z</time>
      </trkpt>
      <trkpt lat="44.16859" lon="5.189883">
        <ele>879.7</ele>
        <time>2020-05-29T20:45:00Z</time>
      </trkpt>
      <trkpt lat="44.168636" lon="5.189931">
        <ele>880</ele>
        <time>2020-05-29T20:45:01Z</time>
      </trkpt>
      <trkpt lat="44.16869" lon="5.189983">
        <ele>880.3</ele>
        <time>2020-05-29T20:45:02Z</time>
      </trkpt>
      <trkpt lat="44.168739" lon="5.190035">
        <ele>880.7</ele>
        <time>2020-05-29T20:45:04Z</time>
      </trkpt>
      <trkpt lat="44.168777" lon="5.190079">
        <ele>880.9</ele>
        <time>2020-05-29T20:45:05Z</time>
      </trkpt>
      <trkpt lat="44.168819" lon="5.190127">
        <ele>881.2</ele>
        <time>2020-05-29T20:45:06Z</time>
      </trkpt>
      <trkpt lat="44.168858" lon="5.190174">
        <ele>881.5</ele>
        <time>2020-05-29T20:45:07Z</time>
      </trkpt>
      <trkpt lat="44.1689" lon="5.190219">
        <ele>881.7</ele>
        <time>2020-05-29T20:45:08Z</time>
      </trkpt>
      <trkpt lat="44.168941" lon="5.190264">
        <ele>882</ele>
        <time>2020-05-29T20:45:09Z</time>
      </trkpt>
      <trkpt lat="44.168991" lon="5.190319">
        <ele>882.3</ele>
        <time>2020-05-29T20:45:10Z</time>
      </trkpt>
      <trkpt lat="44.169037" lon="5.190375">
        <ele>882.6</ele>
        <time>2020-05-29T20:45:11Z</time>
      </trkpt>
      <trkpt lat="44.169071" lon="5.190422">
        <ele>882.8</ele>
        <time>2020-05-29T20:45:12Z</time>
      </trkpt>
      <trkpt lat="44.169105" lon="5.190469">
        <ele>883</ele>
        <time>2020-05-29T20:45:13Z</time>
      </trkpt>
      <trkpt lat="44.169132" lon="5.190516">
        <ele>883.3</ele>
        <time>2020-05-29T20:45:14Z</time>
      </trkpt>
      <trkpt lat="44.169167" lon="5.190575">
        <ele>883.5</ele>
        <time>2020-05-29T20:45:15Z</time>
      </trkpt>
      <trkpt lat="44.169197" lon="5.190631">
        <ele>883.7</ele>
        <time>2020-05-29T20:45:16Z</time>
      </trkpt>
      <trkpt lat="44.169228" lon="5.190693">
        <ele>884</ele>
        <time>2020-05-29T20:45:18Z</time>
      </trkpt>
      <trkpt lat="44.169254" lon="5.190753">
        <ele>884.2</ele>
        <time>2020-05-29T20:45:19Z</time>
      </trkpt>
      <trkpt lat="44.169281" lon="5.190816">
        <ele>884.3</ele>
        <time>2020-05-29T20:45:20Z</time>
      </trkpt>
      <trkpt lat="44.1693" lon="5.190869">
        <ele>884.4</ele>
        <time>2020-05-29T20:45:21Z</time>
      </trkpt>
      <trkpt lat="44.169315" lon="5.190935">
        <ele>884.5</ele>
        <time>2020-05-29T20:45:22Z</time>
      </trkpt>
      <trkpt lat="44.169319" lon="5.191001">
        <ele>884.6</ele>
        <time>2020-05-29T20:45:23Z</time>
      </trkpt>
      <trkpt lat="44.169311" lon="5.191057">
        <ele>884.7</ele>
        <time>2020-05-29T20:45:24Z</time>
      </trkpt>
      <trkpt lat="44.169289" lon="5.191113">
        <ele>884.8</ele>
        <time>2020-05-29T20:45:25Z</time>
      </trkpt>
      <trkpt lat="44.169258" lon="5.191165">
        <ele>885</ele>
        <time>2020-05-29T20:45:26Z</time>
      </trkpt>
      <trkpt lat="44.169216" lon="5.191228">
        <ele>885.2</ele>
        <time>2020-05-29T20:45:28Z</time>
      </trkpt>
      <trkpt lat="44.16917" lon="5.191268">
        <ele>885.5</ele>
        <time>2020-05-29T20:45:29Z</time>
      </trkpt>
      <trkpt lat="44.169109" lon="5.191308">
        <ele>885.8</ele>
        <time>2020-05-29T20:45:30Z</time>
      </trkpt>
      <trkpt lat="44.169048" lon="5.191347">
        <ele>886.1</ele>
        <time>2020-05-29T20:45:31Z</time>
      </trkpt>
      <trkpt lat="44.169003" lon="5.191378">
        <ele>886.4</ele>
        <time>2020-05-29T20:45:32Z</time>
      </trkpt>
      <trkpt lat="44.168953" lon="5.191407">
        <ele>886.6</ele>
        <time>2020-05-29T20:45:33Z</time>
      </trkpt>
      <trkpt lat="44.168892" lon="5.191442">
        <ele>887</ele>
        <time>2020-05-29T20:45:34Z</time>
      </trkpt>
      <trkpt lat="44.168835" lon="5.191473">
        <ele>887.3</ele>
        <time>2020-05-29T20:45:35Z</time>
      </trkpt>
      <trkpt lat="44.16877" lon="5.191508">
        <ele>887.6</ele>
        <time>2020-05-29T20:45:37Z</time>
      </trkpt>
      <trkpt lat="44.168705" lon="5.191539">
        <ele>887.9</ele>
        <time>2020-05-29T20:45:38Z</time>
      </trkpt>
      <trkpt lat="44.168621" lon="5.191575">
        <ele>888.4</ele>
        <time>2020-05-29T20:45:39Z</time>
      </trkpt>
      <trkpt lat="44.168537" lon="5.191606">
        <ele>888.8</ele>
        <time>2020-05-29T20:45:40Z</time>
      </trkpt>
      <trkpt lat="44.168468" lon="5.191627">
        <ele>889.1</ele>
        <time>2020-05-29T20:45:41Z</time>
      </trkpt>
      <trkpt lat="44.168385" lon="5.191652">
        <ele>889.5</ele>
        <time>2020-05-29T20:45:42Z</time>
      </trkpt>
      <trkpt lat="44.16832" lon="5.19167">
        <ele>889.8</ele>
        <time>2020-05-29T20:45:43Z</time>
      </trkpt>
      <trkpt lat="44.168243" lon="5.191689">
        <ele>890.1</ele>
        <time>2020-05-29T20:45:44Z</time>
      </trkpt>
      <trkpt lat="44.168175" lon="5.191705">
        <ele>890.4</ele>
        <time>2020-05-29T20:45:45Z</time>
      </trkpt>
      <trkpt lat="44.168095" lon="5.191724">
        <ele>890.9</ele>
        <time>2020-05-29T20:45:47Z</time>
      </trkpt>
      <trkpt lat="44.168014" lon="5.191742">
        <ele>891.4</ele>
        <time>2020-05-29T20:45:48Z</time>
      </trkpt>
      <trkpt lat="44.167938" lon="5.19176">
        <ele>891.8</ele>
        <time>2020-05-29T20:45:49Z</time>
      </trkpt>
      <trkpt lat="44.167866" lon="5.191777">
        <ele>892.3</ele>
        <time>2020-05-29T20:45:50Z</time>
      </trkpt>
      <trkpt lat="44.167793" lon="5.191794">
        <ele>892.7</ele>
        <time>2020-05-29T20:45:51Z</time>
      </trkpt>
      <trkpt lat="44.167732" lon="5.191809">
        <ele>893.1</ele>
        <time>2020-05-29T20:45:53Z</time>
      </trkpt>
      <trkpt lat="44.167664" lon="5.191826">
        <ele>893.5</ele>
        <time>2020-05-29T20:45:54Z</time>
      </trkpt>
      <trkpt lat="44.16761" lon="5.19184">
        <ele>893.8</ele>
        <time>2020-05-29T20:45:55Z</time>
      </trkpt>
      <trkpt lat="44.167557" lon="5.191855">
        <ele>894.1</ele>
        <time>2020-05-29T20:45:56Z</time>
      </trkpt>
      <trkpt lat="44.167496" lon="5.191874">
        <ele>894.5</ele>
        <time>2020-05-29T20:45:57Z</time>
      </trkpt>
      <trkpt lat="44.167438" lon="5.191893">
        <ele>894.8</ele>
        <time>2020-05-29T20:45:58Z</time>
      </trkpt>
      <trkpt lat="44.167377" lon="5.191919">
        <ele>895.1</ele>
        <time>2020-05-29T20:45:59Z</time>
      </trkpt>
      <trkpt lat="44.167324" lon="5.191945">
        <ele>895.4</ele>
        <time>2020-05-29T20:46:00Z</time>
      </trkpt>
      <trkpt lat="44.167274" lon="5.191975">
        <ele>895.7</ele>
        <time>2020-05-29T20:46:01Z</time>
      </trkpt>
      <trkpt lat="44.167225" lon="5.19201">
        <ele>896</ele>
        <time>2020-05-29T20:46:02Z</time>
      </trkpt>
      <trkpt lat="44.167171" lon="5.19206">
        <ele>896.3</ele>
        <time>2020-05-29T20:46:03Z</time>
      </trkpt>
      <trkpt lat="44.167126" lon="5.192106">
        <ele>896.6</ele>
        <time>2020-05-29T20:46:04Z</time>
      </trkpt>
      <trkpt lat="44.167076" lon="5.192165">
        <ele>897</ele>
        <time>2020-05-29T20:46:06Z</time>
      </trkpt>
      <trkpt lat="44.167046" lon="5.192236">
        <ele>897.3</ele>
        <time>2020-05-29T20:46:07Z</time>
      </trkpt>
      <trkpt lat="44.167023" lon="5.192295">
        <ele>897.6</ele>
        <time>2020-05-29T20:46:08Z</time>
      </trkpt>
      <trkpt lat="44.166992" lon="5.192367">
        <ele>897.9</ele>
        <time>2020-05-29T20:46:09Z</time>
      </trkpt>
      <trkpt lat="44.166962" lon="5.192438">
        <ele>898.3</ele>
        <time>2020-05-29T20:46:10Z</time>
      </trkpt>
      <trkpt lat="44.166931" lon="5.192511">
        <ele>898.6</ele>
        <time>2020-05-29T20:46:11Z</time>
      </trkpt>
      <trkpt lat="44.166901" lon="5.19259">
        <ele>898.9</ele>
        <time>2020-05-29T20:46:13Z</time>
      </trkpt>
      <trkpt lat="44.166866" lon="5.192666">
        <ele>899.3</ele>
        <time>2020-05-29T20:46:14Z</time>
      </trkpt>
      <trkpt lat="44.166836" lon="5.192748">
        <ele>899.7</ele>
        <time>2020-05-29T20:46:15Z</time>
      </trkpt>
      <trkpt lat="44.166801" lon="5.192829">
        <ele>900</ele>
        <time>2020-05-29T20:46:16Z</time>
      </trkpt>
      <trkpt lat="44.166775" lon="5.192893">
        <ele>900.3</ele>
        <time>2020-05-29T20:46:17Z</time>
      </trkpt>
      <trkpt lat="44.16674" lon="5.192975">
        <ele>900.7</ele>
        <time>2020-05-29T20:46:18Z</time>
      </trkpt>
      <trkpt lat="44.166714" lon="5.193043">
        <ele>901</ele>
        <time>2020-05-29T20:46:19Z</time>
      </trkpt>
      <trkpt lat="44.166683" lon="5.193124">
        <ele>901.3</ele>
        <time>2020-05-29T20:46:21Z</time>
      </trkpt>
      <trkpt lat="44.166653" lon="5.193202">
        <ele>901.6</ele>
        <time>2020-05-29T20:46:22Z</time>
      </trkpt>
      <trkpt lat="44.166618" lon="5.193284">
        <ele>902</ele>
        <time>2020-05-29T20:46:23Z</time>
      </trkpt>
      <trkpt lat="44.166588" lon="5.193362">
        <ele>902.3</ele>
        <time>2020-05-29T20:46:24Z</time>
      </trkpt>
      <trkpt lat="44.166557" lon="5.193445">
        <ele>902.6</ele>
        <time>2020-05-29T20:46:25Z</time>
      </trkpt>
      <trkpt lat="44.166534" lon="5.193513">
        <ele>902.9</ele>
        <time>2020-05-29T20:46:26Z</time>
      </trkpt>
      <trkpt lat="44.166512" lon="5.193583">
        <ele>903.2</ele>
        <time>2020-05-29T20:46:27Z</time>
      </trkpt>
      <trkpt lat="44.166485" lon="5.193669">
        <ele>903.5</ele>
        <time>2020-05-29T20:46:29Z</time>
      </trkpt>
      <trkpt lat="44.166462" lon="5.193752">
        <ele>903.8</ele>
        <time>2020-05-29T20:46:30Z</time>
      </trkpt>
      <trkpt lat="44.166439" lon="5.193839">
        <ele>904.1</ele>
        <time>2020-05-29T20:46:31Z</time>
      </trkpt>
      <trkpt lat="44.166424" lon="5.193927">
        <ele>904.5</ele>
        <time>2020-05-29T20:46:32Z</time>
      </trkpt>
      <trkpt lat="44.166405" lon="5.194013">
        <ele>904.8</ele>
        <time>2020-05-29T20:46:33Z</time>
      </trkpt>
      <trkpt lat="44.166389" lon="5.194096">
        <ele>905.1</ele>
        <time>2020-05-29T20:46:35Z</time>
      </trkpt>
      <trkpt lat="44.166393" lon="5.194168">
        <ele>905.4</ele>
        <time>2020-05-29T20:46:36Z</time>
      </trkpt>
      <trkpt lat="44.166408" lon="5.19425">
        <ele>905.7</ele>
        <time>2020-05-29T20:46:37Z</time>
      </trkpt>
      <trkpt lat="44.166428" lon="5.194314">
        <ele>906</ele>
        <time>2020-05-29T20:46:38Z</time>
      </trkpt>
      <trkpt lat="44.166458" lon="5.194395">
        <ele>906.4</ele>
        <time>2020-05-29T20:46:39Z</time>
      </trkpt>
      <trkpt lat="44.166489" lon="5.194457">
        <ele>906.7</ele>
        <time>2020-05-29T20:46:40Z</time>
      </trkpt>
      <trkpt lat="44.166531" lon="5.194533">
        <ele>907.1</ele>
        <time>2020-05-29T20:46:41Z</time>
      </trkpt>
      <trkpt lat="44.166573" lon="5.194589">
        <ele>907.4</ele>
        <time>2020-05-29T20:46:42Z</time>
      </trkpt>
      <trkpt lat="44.166641" lon="5.194641">
        <ele>907.8</ele>
        <time>2020-05-29T20:46:43Z</time>
      </trkpt>
      <trkpt lat="44.166698" lon="5.194683">
        <ele>908.2</ele>
        <time>2020-05-29T20:46:44Z</time>
      </trkpt>
      <trkpt lat="44.166775" lon="5.194732">
        <ele>908.5</ele>
        <time>2020-05-29T20:46:46Z</time>
      </trkpt>
      <trkpt lat="44.16684" lon="5.194772">
        <ele>908.8</ele>
        <time>2020-05-29T20:46:47Z</time>
      </trkpt>
      <trkpt lat="44.166908" lon="5.194811">
        <ele>909.3</ele>
        <time>2020-05-29T20:46:48Z</time>
      </trkpt>
      <trkpt lat="44.166992" lon="5.194857">
        <ele>910</ele>
        <time>2020-05-29T20:46:49Z</time>
      </trkpt>
      <trkpt lat="44.167061" lon="5.194894">
        <ele>910.7</ele>
        <time>2020-05-29T20:46:50Z</time>
      </trkpt>
      <trkpt lat="44.16713" lon="5.19493">
        <ele>911.4</ele>
        <time>2020-05-29T20:46:51Z</time>
      </trkpt>
      <trkpt lat="44.167202" lon="5.194964">
        <ele>912.1</ele>
        <time>2020-05-29T20:46:52Z</time>
      </trkpt>
      <trkpt lat="44.167294" lon="5.195008">
        <ele>913</ele>
        <time>2020-05-29T20:46:53Z</time>
      </trkpt>
      <trkpt lat="44.167381" lon="5.195049">
        <ele>914</ele>
        <time>2020-05-29T20:46:54Z</time>
      </trkpt>
      <trkpt lat="44.167469" lon="5.195089">
        <ele>915</ele>
        <time>2020-05-29T20:46:55Z</time>
      </trkpt>
      <trkpt lat="44.167553" lon="5.195128">
        <ele>915.9</ele>
        <time>2020-05-29T20:46:57Z</time>
      </trkpt>
      <trkpt lat="44.167641" lon="5.195166">
        <ele>916.9</ele>
        <time>2020-05-29T20:46:58Z</time>
      </trkpt>
      <trkpt lat="44.167725" lon="5.195203">
        <ele>917.9</ele>
        <time>2020-05-29T20:46:59Z</time>
      </trkpt>
      <trkpt lat="44.167809" lon="5.195239">
        <ele>918.9</ele>
        <time>2020-05-29T20:47:00Z</time>
      </trkpt>
      <trkpt lat="44.167896" lon="5.195275">
        <ele>919.8</ele>
        <time>2020-05-29T20:47:01Z</time>
      </trkpt>
      <trkpt lat="44.16798" lon="5.195311">
        <ele>920.7</ele>
        <time>2020-05-29T20:47:03Z</time>
      </trkpt>
      <trkpt lat="44.168045" lon="5.19534">
        <ele>921.3</ele>
        <time>2020-05-29T20:47:04Z</time>
      </trkpt>
      <trkpt lat="44.168125" lon="5.195375">
        <ele>922</ele>
        <time>2020-05-29T20:47:05Z</time>
      </trkpt>
      <trkpt lat="44.168194" lon="5.195405">
        <ele>921.9</ele>
        <time>2020-05-29T20:47:06Z</time>
      </trkpt>
      <trkpt lat="44.168274" lon="5.19544">
        <ele>921.9</ele>
        <time>2020-05-29T20:47:07Z</time>
      </trkpt>
      <trkpt lat="44.168339" lon="5.195468">
        <ele>922</ele>
        <time>2020-05-29T20:47:08Z</time>
      </trkpt>
      <trkpt lat="44.168415" lon="5.1955">
        <ele>922</ele>
        <time>2020-05-29T20:47:09Z</time>
      </trkpt>
      <trkpt lat="44.168495" lon="5.195534">
        <ele>922.1</ele>
        <time>2020-05-29T20:47:10Z</time>
      </trkpt>
      <trkpt lat="44.168556" lon="5.195561">
        <ele>922.1</ele>
        <time>2020-05-29T20:47:11Z</time>
      </trkpt>
      <trkpt lat="44.168636" lon="5.195598">
        <ele>922.2</ele>
        <time>2020-05-29T20:47:13Z</time>
      </trkpt>
      <trkpt lat="44.168697" lon="5.195629">
        <ele>922.3</ele>
        <time>2020-05-29T20:47:14Z</time>
      </trkpt>
      <trkpt lat="44.168777" lon="5.195669">
        <ele>922.4</ele>
        <time>2020-05-29T20:47:15Z</time>
      </trkpt>
      <trkpt lat="44.168846" lon="5.195706">
        <ele>922.5</ele>
        <time>2020-05-29T20:47:16Z</time>
      </trkpt>
      <trkpt lat="44.168922" lon="5.19575">
        <ele>922.6</ele>
        <time>2020-05-29T20:47:17Z</time>
      </trkpt>
      <trkpt lat="44.168987" lon="5.195788">
        <ele>922.7</ele>
        <time>2020-05-29T20:47:18Z</time>
      </trkpt>
      <trkpt lat="44.169067" lon="5.195836">
        <ele>922.8</ele>
        <time>2020-05-29T20:47:19Z</time>
      </trkpt>
      <trkpt lat="44.169147" lon="5.195884">
        <ele>922.9</ele>
        <time>2020-05-29T20:47:20Z</time>
      </trkpt>
      <trkpt lat="44.169228" lon="5.195934">
        <ele>923.1</ele>
        <time>2020-05-29T20:47:22Z</time>
      </trkpt>
      <trkpt lat="44.169308" lon="5.195984">
        <ele>923.2</ele>
        <time>2020-05-29T20:47:23Z</time>
      </trkpt>
      <trkpt lat="44.169369" lon="5.196027">
        <ele>923.3</ele>
        <time>2020-05-29T20:47:24Z</time>
      </trkpt>
      <trkpt lat="44.169441" lon="5.19608">
        <ele>923.4</ele>
        <time>2020-05-29T20:47:25Z</time>
      </trkpt>
      <trkpt lat="44.16951" lon="5.196132">
        <ele>923.4</ele>
        <time>2020-05-29T20:47:26Z</time>
      </trkpt>
      <trkpt lat="44.169567" lon="5.196181">
        <ele>923.4</ele>
        <time>2020-05-29T20:47:27Z</time>
      </trkpt>
      <trkpt lat="44.169624" lon="5.196241">
        <ele>923.3</ele>
        <time>2020-05-29T20:47:28Z</time>
      </trkpt>
      <trkpt lat="44.169674" lon="5.196312">
        <ele>923.1</ele>
        <time>2020-05-29T20:47:30Z</time>
      </trkpt>
      <trkpt lat="44.169701" lon="5.196376">
        <ele>923</ele>
        <time>2020-05-29T20:47:31Z</time>
      </trkpt>
      <trkpt lat="44.169731" lon="5.196456">
        <ele>922.9</ele>
        <time>2020-05-29T20:47:32Z</time>
      </trkpt>
      <trkpt lat="44.169739" lon="5.196542">
        <ele>922.9</ele>
        <time>2020-05-29T20:47:33Z</time>
      </trkpt>
      <trkpt lat="44.169735" lon="5.196612">
        <ele>923</ele>
        <time>2020-05-29T20:47:34Z</time>
      </trkpt>
      <trkpt lat="44.169723" lon="5.196689">
        <ele>923.1</ele>
        <time>2020-05-29T20:47:35Z</time>
      </trkpt>
      <trkpt lat="44.169704" lon="5.196769">
        <ele>923.4</ele>
        <time>2020-05-29T20:47:36Z</time>
      </trkpt>
      <trkpt lat="44.169678" lon="5.196829">
        <ele>923.7</ele>
        <time>2020-05-29T20:47:37Z</time>
      </trkpt>
      <trkpt lat="44.169647" lon="5.196891">
        <ele>924.1</ele>
        <time>2020-05-29T20:47:38Z</time>
      </trkpt>
      <trkpt lat="44.169609" lon="5.196961">
        <ele>924.6</ele>
        <time>2020-05-29T20:47:40Z</time>
      </trkpt>
      <trkpt lat="44.169567" lon="5.197033">
        <ele>925.1</ele>
        <time>2020-05-29T20:47:41Z</time>
      </trkpt>
      <trkpt lat="44.169533" lon="5.19709">
        <ele>925.5</ele>
        <time>2020-05-29T20:47:42Z</time>
      </trkpt>
      <trkpt lat="44.169487" lon="5.197164">
        <ele>926.1</ele>
        <time>2020-05-29T20:47:43Z</time>
      </trkpt>
      <trkpt lat="44.169445" lon="5.197231">
        <ele>926.5</ele>
        <time>2020-05-29T20:47:44Z</time>
      </trkpt>
      <trkpt lat="44.169411" lon="5.197287">
        <ele>926.9</ele>
        <time>2020-05-29T20:47:45Z</time>
      </trkpt>
      <trkpt lat="44.16938" lon="5.197342">
        <ele>927.3</ele>
        <time>2020-05-29T20:47:46Z</time>
      </trkpt>
      <trkpt lat="44.169334" lon="5.197412">
        <ele>927.9</ele>
        <time>2020-05-29T20:47:47Z</time>
      </trkpt>
      <trkpt lat="44.169292" lon="5.197479">
        <ele>928.4</ele>
        <time>2020-05-29T20:47:49Z</time>
      </trkpt>
      <trkpt lat="44.169258" lon="5.197535">
        <ele>928.8</ele>
        <time>2020-05-29T20:47:50Z</time>
      </trkpt>
      <trkpt lat="44.169216" lon="5.197607">
        <ele>929.3</ele>
        <time>2020-05-29T20:47:51Z</time>
      </trkpt>
      <trkpt lat="44.169178" lon="5.197664">
        <ele>929.7</ele>
        <time>2020-05-29T20:47:52Z</time>
      </trkpt>
      <trkpt lat="44.169136" lon="5.197733">
        <ele>930.3</ele>
        <time>2020-05-29T20:47:53Z</time>
      </trkpt>
      <trkpt lat="44.169098" lon="5.197791">
        <ele>930.7</ele>
        <time>2020-05-29T20:47:54Z</time>
      </trkpt>
      <trkpt lat="44.169064" lon="5.197848">
        <ele>931.1</ele>
        <time>2020-05-29T20:47:55Z</time>
      </trkpt>
      <trkpt lat="44.169037" lon="5.197894">
        <ele>931.4</ele>
        <time>2020-05-29T20:47:56Z</time>
      </trkpt>
      <trkpt lat="44.169003" lon="5.197945">
        <ele>931.8</ele>
        <time>2020-05-29T20:47:57Z</time>
      </trkpt>
      <trkpt lat="44.168968" lon="5.197998">
        <ele>932.2</ele>
        <time>2020-05-29T20:47:59Z</time>
      </trkpt>
      <trkpt lat="44.168945" lon="5.198039">
        <ele>932.4</ele>
        <time>2020-05-29T20:48:00Z</time>
      </trkpt>
      <trkpt lat="44.168915" lon="5.198082">
        <ele>932.8</ele>
        <time>2020-05-29T20:48:01Z</time>
      </trkpt>
      <trkpt lat="44.168888" lon="5.198127">
        <ele>933.1</ele>
        <time>2020-05-29T20:48:02Z</time>
      </trkpt>
      <trkpt lat="44.168854" lon="5.198181">
        <ele>933.5</ele>
        <time>2020-05-29T20:48:03Z</time>
      </trkpt>
      <trkpt lat="44.168823" lon="5.198229">
        <ele>933.8</ele>
        <time>2020-05-29T20:48:04Z</time>
      </trkpt>
      <trkpt lat="44.168785" lon="5.198287">
        <ele>934.2</ele>
        <time>2020-05-29T20:48:05Z</time>
      </trkpt>
      <trkpt lat="44.168755" lon="5.198342">
        <ele>934.6</ele>
        <time>2020-05-29T20:48:06Z</time>
      </trkpt>
      <trkpt lat="44.168728" lon="5.198388">
        <ele>935</ele>
        <time>2020-05-29T20:48:07Z</time>
      </trkpt>
      <trkpt lat="44.168693" lon="5.198445">
        <ele>935.4</ele>
        <time>2020-05-29T20:48:08Z</time>
      </trkpt>
      <trkpt lat="44.168663" lon="5.198501">
        <ele>935.8</ele>
        <time>2020-05-29T20:48:10Z</time>
      </trkpt>
      <trkpt lat="44.168636" lon="5.198556">
        <ele>936.2</ele>
        <time>2020-05-29T20:48:11Z</time>
      </trkpt>
      <trkpt lat="44.168617" lon="5.198608">
        <ele>936.6</ele>
        <time>2020-05-29T20:48:12Z</time>
      </trkpt>
      <trkpt lat="44.168598" lon="5.198674">
        <ele>937</ele>
        <time>2020-05-29T20:48:13Z</time>
      </trkpt>
      <trkpt lat="44.168587" lon="5.198729">
        <ele>937.4</ele>
        <time>2020-05-29T20:48:14Z</time>
      </trkpt>
      <trkpt lat="44.168575" lon="5.198782">
        <ele>937.7</ele>
        <time>2020-05-29T20:48:15Z</time>
      </trkpt>
      <trkpt lat="44.168568" lon="5.198844">
        <ele>938.1</ele>
        <time>2020-05-29T20:48:16Z</time>
      </trkpt>
      <trkpt lat="44.16856" lon="5.198905">
        <ele>938.5</ele>
        <time>2020-05-29T20:48:17Z</time>
      </trkpt>
      <trkpt lat="44.168556" lon="5.198966">
        <ele>938.8</ele>
        <time>2020-05-29T20:48:19Z</time>
      </trkpt>
      <trkpt lat="44.168552" lon="5.199026">
        <ele>939.2</ele>
        <time>2020-05-29T20:48:20Z</time>
      </trkpt>
      <trkpt lat="44.168552" lon="5.199079">
        <ele>939.5</ele>
        <time>2020-05-29T20:48:21Z</time>
      </trkpt>
      <trkpt lat="44.168552" lon="5.199146">
        <ele>939.9</ele>
        <time>2020-05-29T20:48:22Z</time>
      </trkpt>
      <trkpt lat="44.168556" lon="5.199212">
        <ele>940.3</ele>
        <time>2020-05-29T20:48:23Z</time>
      </trkpt>
      <trkpt lat="44.168564" lon="5.199267">
        <ele>940.7</ele>
        <time>2020-05-29T20:48:24Z</time>
      </trkpt>
      <trkpt lat="44.168571" lon="5.199336">
        <ele>941.1</ele>
        <time>2020-05-29T20:48:25Z</time>
      </trkpt>
      <trkpt lat="44.168583" lon="5.199399">
        <ele>941.5</ele>
        <time>2020-05-29T20:48:27Z</time>
      </trkpt>
      <trkpt lat="44.168594" lon="5.199455">
        <ele>941.9</ele>
        <time>2020-05-29T20:48:28Z</time>
      </trkpt>
      <trkpt lat="44.168606" lon="5.199511">
        <ele>942.3</ele>
        <time>2020-05-29T20:48:29Z</time>
      </trkpt>
      <trkpt lat="44.168625" lon="5.199578">
        <ele>942.8</ele>
        <time>2020-05-29T20:48:30Z</time>
      </trkpt>
      <trkpt lat="44.16864" lon="5.199642">
        <ele>943.2</ele>
        <time>2020-05-29T20:48:31Z</time>
      </trkpt>
      <trkpt lat="44.168655" lon="5.199695">
        <ele>943.6</ele>
        <time>2020-05-29T20:48:32Z</time>
      </trkpt>
      <trkpt lat="44.168674" lon="5.199757">
        <ele>944.1</ele>
        <time>2020-05-29T20:48:33Z</time>
      </trkpt>
      <trkpt lat="44.168693" lon="5.199822">
        <ele>944.6</ele>
        <time>2020-05-29T20:48:34Z</time>
      </trkpt>
      <trkpt lat="44.168713" lon="5.199883">
        <ele>945.1</ele>
        <time>2020-05-29T20:48:36Z</time>
      </trkpt>
      <trkpt lat="44.168732" lon="5.199946">
        <ele>945.6</ele>
        <time>2020-05-29T20:48:37Z</time>
      </trkpt>
      <trkpt lat="44.168751" lon="5.200001">
        <ele>946.1</ele>
        <time>2020-05-29T20:48:38Z</time>
      </trkpt>
      <trkpt lat="44.16877" lon="5.200045">
        <ele>946.5</ele>
        <time>2020-05-29T20:48:39Z</time>
      </trkpt>
      <trkpt lat="44.168789" lon="5.200094">
        <ele>946.9</ele>
        <time>2020-05-29T20:48:40Z</time>
      </trkpt>
      <trkpt lat="44.168808" lon="5.200144">
        <ele>947.3</ele>
        <time>2020-05-29T20:48:41Z</time>
      </trkpt>
      <trkpt lat="44.168831" lon="5.200195">
        <ele>947.7</ele>
        <time>2020-05-29T20:48:42Z</time>
      </trkpt>
      <trkpt lat="44.168861" lon="5.200254">
        <ele>948.2</ele>
        <time>2020-05-29T20:48:43Z</time>
      </trkpt>
      <trkpt lat="44.168892" lon="5.200305">
        <ele>948.7</ele>
        <time>2020-05-29T20:48:44Z</time>
      </trkpt>
      <trkpt lat="44.168919" lon="5.200355">
        <ele>949.1</ele>
        <time>2020-05-29T20:48:45Z</time>
      </trkpt>
      <trkpt lat="44.168957" lon="5.200415">
        <ele>949.6</ele>
        <time>2020-05-29T20:48:46Z</time>
      </trkpt>
      <trkpt lat="44.168987" lon="5.200462">
        <ele>950.1</ele>
        <time>2020-05-29T20:48:47Z</time>
      </trkpt>
      <trkpt lat="44.169025" lon="5.200516">
        <ele>950.6</ele>
        <time>2020-05-29T20:48:49Z</time>
      </trkpt>
      <trkpt lat="44.169064" lon="5.200572">
        <ele>951.1</ele>
        <time>2020-05-29T20:48:50Z</time>
      </trkpt>
      <trkpt lat="44.169094" lon="5.200618">
        <ele>951.5</ele>
        <time>2020-05-29T20:48:51Z</time>
      </trkpt>
      <trkpt lat="44.169132" lon="5.200673">
        <ele>952</ele>
        <time>2020-05-29T20:48:52Z</time>
      </trkpt>
      <trkpt lat="44.169174" lon="5.200723">
        <ele>952.5</ele>
        <time>2020-05-29T20:48:53Z</time>
      </trkpt>
      <trkpt lat="44.169216" lon="5.200773">
        <ele>953</ele>
        <time>2020-05-29T20:48:54Z</time>
      </trkpt>
      <trkpt lat="44.169258" lon="5.200819">
        <ele>953.5</ele>
        <time>2020-05-29T20:48:56Z</time>
      </trkpt>
      <trkpt lat="44.169296" lon="5.200856">
        <ele>953.9</ele>
        <time>2020-05-29T20:48:57Z</time>
      </trkpt>
      <trkpt lat="44.169342" lon="5.200903">
        <ele>954.3</ele>
        <time>2020-05-29T20:48:58Z</time>
      </trkpt>
      <trkpt lat="44.169384" lon="5.200941">
        <ele>954.7</ele>
        <time>2020-05-29T20:48:59Z</time>
      </trkpt>
      <trkpt lat="44.169437" lon="5.200982">
        <ele>955.2</ele>
        <time>2020-05-29T20:49:00Z</time>
      </trkpt>
      <trkpt lat="44.169491" lon="5.201022">
        <ele>955.7</ele>
        <time>2020-05-29T20:49:01Z</time>
      </trkpt>
      <trkpt lat="44.169544" lon="5.20106">
        <ele>956.2</ele>
        <time>2020-05-29T20:49:02Z</time>
      </trkpt>
      <trkpt lat="44.169601" lon="5.201098">
        <ele>956.6</ele>
        <time>2020-05-29T20:49:04Z</time>
      </trkpt>
      <trkpt lat="44.169659" lon="5.201134">
        <ele>957.1</ele>
        <time>2020-05-29T20:49:05Z</time>
      </trkpt>
      <trkpt lat="44.169716" lon="5.201168">
        <ele>957.5</ele>
        <time>2020-05-29T20:49:06Z</time>
      </trkpt>
      <trkpt lat="44.169781" lon="5.201203">
        <ele>957.9</ele>
        <time>2020-05-29T20:49:07Z</time>
      </trkpt>
      <trkpt lat="44.169834" lon="5.201231">
        <ele>958.2</ele>
        <time>2020-05-29T20:49:08Z</time>
      </trkpt>
      <trkpt lat="44.169891" lon="5.201256">
        <ele>958.5</ele>
        <time>2020-05-29T20:49:09Z</time>
      </trkpt>
      <trkpt lat="44.16996" lon="5.201286">
        <ele>958.9</ele>
        <time>2020-05-29T20:49:10Z</time>
      </trkpt>
      <trkpt lat="44.170032" lon="5.201316">
        <ele>959.3</ele>
        <time>2020-05-29T20:49:12Z</time>
      </trkpt>
      <trkpt lat="44.170109" lon="5.201347">
        <ele>959.7</ele>
        <time>2020-05-29T20:49:13Z</time>
      </trkpt>
      <trkpt lat="44.170177" lon="5.201379">
        <ele>960.1</ele>
        <time>2020-05-29T20:49:14Z</time>
      </trkpt>
      <trkpt lat="44.170246" lon="5.201417">
        <ele>960.5</ele>
        <time>2020-05-29T20:49:15Z</time>
      </trkpt>
      <trkpt lat="44.170303" lon="5.201452">
        <ele>960.8</ele>
        <time>2020-05-29T20:49:16Z</time>
      </trkpt>
      <trkpt lat="44.170372" lon="5.201489">
        <ele>961.1</ele>
        <time>2020-05-29T20:49:17Z</time>
      </trkpt>
      <trkpt lat="44.170433" lon="5.201523">
        <ele>961.4</ele>
        <time>2020-05-29T20:49:18Z</time>
      </trkpt>
      <trkpt lat="44.170494" lon="5.201567">
        <ele>961.6</ele>
        <time>2020-05-29T20:49:20Z</time>
      </trkpt>
      <trkpt lat="44.170551" lon="5.201616">
        <ele>961.8</ele>
        <time>2020-05-29T20:49:21Z</time>
      </trkpt>
      <trkpt lat="44.170605" lon="5.201672">
        <ele>961.9</ele>
        <time>2020-05-29T20:49:22Z</time>
      </trkpt>
      <trkpt lat="44.17065" lon="5.201729">
        <ele>961.6</ele>
        <time>2020-05-29T20:49:23Z</time>
      </trkpt>
      <trkpt lat="44.170692" lon="5.201789">
        <ele>960.5</ele>
        <time>2020-05-29T20:49:24Z</time>
      </trkpt>
      <trkpt lat="44.170731" lon="5.201851">
        <ele>959.4</ele>
        <time>2020-05-29T20:49:26Z</time>
      </trkpt>
      <trkpt lat="44.170765" lon="5.201914">
        <ele>958.4</ele>
        <time>2020-05-29T20:49:27Z</time>
      </trkpt>
      <trkpt lat="44.170795" lon="5.201975">
        <ele>957.5</ele>
        <time>2020-05-29T20:49:28Z</time>
      </trkpt>
      <trkpt lat="44.170818" lon="5.202029">
        <ele>956.7</ele>
        <time>2020-05-29T20:49:29Z</time>
      </trkpt>
      <trkpt lat="44.170845" lon="5.202093">
        <ele>956.1</ele>
        <time>2020-05-29T20:49:30Z</time>
      </trkpt>
      <trkpt lat="44.170864" lon="5.202152">
        <ele>956.4</ele>
        <time>2020-05-29T20:49:31Z</time>
      </trkpt>
      <trkpt lat="44.170876" lon="5.202211">
        <ele>956.7</ele>
        <time>2020-05-29T20:49:33Z</time>
      </trkpt>
      <trkpt lat="44.170887" lon="5.202262">
        <ele>957.1</ele>
        <time>2020-05-29T20:49:34Z</time>
      </trkpt>
      <trkpt lat="44.170891" lon="5.202313">
        <ele>957.5</ele>
        <time>2020-05-29T20:49:35Z</time>
      </trkpt>
      <trkpt lat="44.170898" lon="5.202374">
        <ele>958.1</ele>
        <time>2020-05-29T20:49:36Z</time>
      </trkpt>
      <trkpt lat="44.170898" lon="5.202435">
        <ele>958.6</ele>
        <time>2020-05-29T20:49:37Z</time>
      </trkpt>
      <trkpt lat="44.170898" lon="5.202501">
        <ele>959.1</ele>
        <time>2020-05-29T20:49:38Z</time>
      </trkpt>
      <trkpt lat="44.170895" lon="5.202555">
        <ele>959.6</ele>
        <time>2020-05-29T20:49:39Z</time>
      </trkpt>
      <trkpt lat="44.170891" lon="5.202616">
        <ele>960.1</ele>
        <time>2020-05-29T20:49:40Z</time>
      </trkpt>
      <trkpt lat="44.170887" lon="5.202678">
        <ele>960.5</ele>
        <time>2020-05-29T20:49:42Z</time>
      </trkpt>
      <trkpt lat="44.170879" lon="5.202744">
        <ele>961</ele>
        <time>2020-05-29T20:49:43Z</time>
      </trkpt>
      <trkpt lat="44.170872" lon="5.202805">
        <ele>961.4</ele>
        <time>2020-05-29T20:49:44Z</time>
      </trkpt>
      <trkpt lat="44.17086" lon="5.202867">
        <ele>961.8</ele>
        <time>2020-05-29T20:49:45Z</time>
      </trkpt>
      <trkpt lat="44.170853" lon="5.202918">
        <ele>962.2</ele>
        <time>2020-05-29T20:49:46Z</time>
      </trkpt>
      <trkpt lat="44.170841" lon="5.202969">
        <ele>962.7</ele>
        <time>2020-05-29T20:49:47Z</time>
      </trkpt>
      <trkpt lat="44.170826" lon="5.203018">
        <ele>963.2</ele>
        <time>2020-05-29T20:49:48Z</time>
      </trkpt>
      <trkpt lat="44.170811" lon="5.203075">
        <ele>963.8</ele>
        <time>2020-05-29T20:49:49Z</time>
      </trkpt>
      <trkpt lat="44.170795" lon="5.203124">
        <ele>964.4</ele>
        <time>2020-05-29T20:49:50Z</time>
      </trkpt>
      <trkpt lat="44.17078" lon="5.203175">
        <ele>964.9</ele>
        <time>2020-05-29T20:49:51Z</time>
      </trkpt>
      <trkpt lat="44.170761" lon="5.203226">
        <ele>965.5</ele>
        <time>2020-05-29T20:49:52Z</time>
      </trkpt>
      <trkpt lat="44.170742" lon="5.203289">
        <ele>966.2</ele>
        <time>2020-05-29T20:49:54Z</time>
      </trkpt>
      <trkpt lat="44.170727" lon="5.203353">
        <ele>966.9</ele>
        <time>2020-05-29T20:49:55Z</time>
      </trkpt>
      <trkpt lat="44.170708" lon="5.203407">
        <ele>967.6</ele>
        <time>2020-05-29T20:49:56Z</time>
      </trkpt>
      <trkpt lat="44.170689" lon="5.203473">
        <ele>968.3</ele>
        <time>2020-05-29T20:49:57Z</time>
      </trkpt>
      <trkpt lat="44.170673" lon="5.203535">
        <ele>968.9</ele>
        <time>2020-05-29T20:49:58Z</time>
      </trkpt>
      <trkpt lat="44.170654" lon="5.2036">
        <ele>969.6</ele>
        <time>2020-05-29T20:49:59Z</time>
      </trkpt>
      <trkpt lat="44.170639" lon="5.203662">
        <ele>970.2</ele>
        <time>2020-05-29T20:50:01Z</time>
      </trkpt>
      <trkpt lat="44.17062" lon="5.203728">
        <ele>970.9</ele>
        <time>2020-05-29T20:50:02Z</time>
      </trkpt>
      <trkpt lat="44.170609" lon="5.203782">
        <ele>971.5</ele>
        <time>2020-05-29T20:50:03Z</time>
      </trkpt>
      <trkpt lat="44.170597" lon="5.203844">
        <ele>972.1</ele>
        <time>2020-05-29T20:50:04Z</time>
      </trkpt>
      <trkpt lat="44.170586" lon="5.203906">
        <ele>972.8</ele>
        <time>2020-05-29T20:50:05Z</time>
      </trkpt>
      <trkpt lat="44.170574" lon="5.203972">
        <ele>973.5</ele>
        <time>2020-05-29T20:50:06Z</time>
      </trkpt>
      <trkpt lat="44.170567" lon="5.204035">
        <ele>974.2</ele>
        <time>2020-05-29T20:50:08Z</time>
      </trkpt>
      <trkpt lat="44.170567" lon="5.204101">
        <ele>974.9</ele>
        <time>2020-05-29T20:50:09Z</time>
      </trkpt>
      <trkpt lat="44.170563" lon="5.20415">
        <ele>975.5</ele>
        <time>2020-05-29T20:50:10Z</time>
      </trkpt>
      <trkpt lat="44.170559" lon="5.204209">
        <ele>976.2</ele>
        <time>2020-05-29T20:50:11Z</time>
      </trkpt>
      <trkpt lat="44.170555" lon="5.204261">
        <ele>976.8</ele>
        <time>2020-05-29T20:50:12Z</time>
      </trkpt>
      <trkpt lat="44.170559" lon="5.204309">
        <ele>977.3</ele>
        <time>2020-05-29T20:50:13Z</time>
      </trkpt>
      <trkpt lat="44.170563" lon="5.20436">
        <ele>977.9</ele>
        <time>2020-05-29T20:50:14Z</time>
      </trkpt>
      <trkpt lat="44.17057" lon="5.204416">
        <ele>978.5</ele>
        <time>2020-05-29T20:50:15Z</time>
      </trkpt>
      <trkpt lat="44.170578" lon="5.204459">
        <ele>979</ele>
        <time>2020-05-29T20:50:16Z</time>
      </trkpt>
      <trkpt lat="44.170589" lon="5.204501">
        <ele>979.5</ele>
        <time>2020-05-29T20:50:17Z</time>
      </trkpt>
      <trkpt lat="44.170605" lon="5.204554">
        <ele>980.1</ele>
        <time>2020-05-29T20:50:18Z</time>
      </trkpt>
      <trkpt lat="44.170624" lon="5.204606">
        <ele>980.7</ele>
        <time>2020-05-29T20:50:20Z</time>
      </trkpt>
      <trkpt lat="44.170643" lon="5.204657">
        <ele>981.3</ele>
        <time>2020-05-29T20:50:21Z</time>
      </trkpt>
      <trkpt lat="44.170662" lon="5.204709">
        <ele>981.9</ele>
        <time>2020-05-29T20:50:22Z</time>
      </trkpt>
      <trkpt lat="44.170681" lon="5.20475">
        <ele>982.4</ele>
        <time>2020-05-29T20:50:23Z</time>
      </trkpt>
      <trkpt lat="44.1707" lon="5.204802">
        <ele>983</ele>
        <time>2020-05-29T20:50:24Z</time>
      </trkpt>
      <trkpt lat="44.170723" lon="5.204853">
        <ele>983.7</ele>
        <time>2020-05-29T20:50:25Z</time>
      </trkpt>
      <trkpt lat="44.170742" lon="5.204899">
        <ele>984.3</ele>
        <time>2020-05-29T20:50:26Z</time>
      </trkpt>
      <trkpt lat="44.170765" lon="5.204951">
        <ele>984.9</ele>
        <time>2020-05-29T20:50:28Z</time>
      </trkpt>
      <trkpt lat="44.170784" lon="5.204992">
        <ele>985.4</ele>
        <time>2020-05-29T20:50:29Z</time>
      </trkpt>
      <trkpt lat="44.170803" lon="5.205037">
        <ele>986</ele>
        <time>2020-05-29T20:50:30Z</time>
      </trkpt>
      <trkpt lat="44.170822" lon="5.205079">
        <ele>986.5</ele>
        <time>2020-05-29T20:50:31Z</time>
      </trkpt>
      <trkpt lat="44.170845" lon="5.205132">
        <ele>987.2</ele>
        <time>2020-05-29T20:50:32Z</time>
      </trkpt>
      <trkpt lat="44.170868" lon="5.205177">
        <ele>987.7</ele>
        <time>2020-05-29T20:50:33Z</time>
      </trkpt>
      <trkpt lat="44.170887" lon="5.205218">
        <ele>988.3</ele>
        <time>2020-05-29T20:50:34Z</time>
      </trkpt>
      <trkpt lat="44.17091" lon="5.205263">
        <ele>988.8</ele>
        <time>2020-05-29T20:50:35Z</time>
      </trkpt>
      <trkpt lat="44.170937" lon="5.205314">
        <ele>989.5</ele>
        <time>2020-05-29T20:50:36Z</time>
      </trkpt>
      <trkpt lat="44.170963" lon="5.205363">
        <ele>990.2</ele>
        <time>2020-05-29T20:50:37Z</time>
      </trkpt>
      <trkpt lat="44.17099" lon="5.205413">
        <ele>990.9</ele>
        <time>2020-05-29T20:50:39Z</time>
      </trkpt>
      <trkpt lat="44.171017" lon="5.205463">
        <ele>991.6</ele>
        <time>2020-05-29T20:50:40Z</time>
      </trkpt>
      <trkpt lat="44.171043" lon="5.205515">
        <ele>992.3</ele>
        <time>2020-05-29T20:50:41Z</time>
      </trkpt>
      <trkpt lat="44.17107" lon="5.205565">
        <ele>993</ele>
        <time>2020-05-29T20:50:42Z</time>
      </trkpt>
      <trkpt lat="44.171093" lon="5.205608">
        <ele>993.6</ele>
        <time>2020-05-29T20:50:43Z</time>
      </trkpt>
      <trkpt lat="44.171116" lon="5.205658">
        <ele>994.3</ele>
        <time>2020-05-29T20:50:44Z</time>
      </trkpt>
      <trkpt lat="44.171139" lon="5.205709">
        <ele>995</ele>
        <time>2020-05-29T20:50:46Z</time>
      </trkpt>
      <trkpt lat="44.171158" lon="5.205752">
        <ele>995.5</ele>
        <time>2020-05-29T20:50:47Z</time>
      </trkpt>
      <trkpt lat="44.171173" lon="5.205794">
        <ele>996.1</ele>
        <time>2020-05-29T20:50:48Z</time>
      </trkpt>
      <trkpt lat="44.171196" lon="5.205847">
        <ele>996.8</ele>
        <time>2020-05-29T20:50:49Z</time>
      </trkpt>
      <trkpt lat="44.171215" lon="5.205902">
        <ele>997.4</ele>
        <time>2020-05-29T20:50:50Z</time>
      </trkpt>
      <trkpt lat="44.17123" lon="5.205948">
        <ele>998</ele>
        <time>2020-05-29T20:50:51Z</time>
      </trkpt>
      <trkpt lat="44.171249" lon="5.206003">
        <ele>998.6</ele>
        <time>2020-05-29T20:50:52Z</time>
      </trkpt>
      <trkpt lat="44.171268" lon="5.206057">
        <ele>999.3</ele>
        <time>2020-05-29T20:50:53Z</time>
      </trkpt>
      <trkpt lat="44.171288" lon="5.206111">
        <ele>999.9</ele>
        <time>2020-05-29T20:50:55Z</time>
      </trkpt>
      <trkpt lat="44.171307" lon="5.206162">
        <ele>1000.5</ele>
        <time>2020-05-29T20:50:56Z</time>
      </trkpt>
      <trkpt lat="44.171322" lon="5.206208">
        <ele>1001</ele>
        <time>2020-05-29T20:50:57Z</time>
      </trkpt>
      <trkpt lat="44.171337" lon="5.20625">
        <ele>1001.5</ele>
        <time>2020-05-29T20:50:58Z</time>
      </trkpt>
      <trkpt lat="44.171352" lon="5.206304">
        <ele>1002.1</ele>
        <time>2020-05-29T20:50:59Z</time>
      </trkpt>
      <trkpt lat="44.171371" lon="5.206359">
        <ele>1002.7</ele>
        <time>2020-05-29T20:51:00Z</time>
      </trkpt>
      <trkpt lat="44.171391" lon="5.206417">
        <ele>1003.4</ele>
        <time>2020-05-29T20:51:01Z</time>
      </trkpt>
      <trkpt lat="44.171402" lon="5.206461">
        <ele>1003.9</ele>
        <time>2020-05-29T20:51:02Z</time>
      </trkpt>
      <trkpt lat="44.171421" lon="5.206517">
        <ele>1004.5</ele>
        <time>2020-05-29T20:51:04Z</time>
      </trkpt>
      <trkpt lat="44.171436" lon="5.206572">
        <ele>1005.1</ele>
        <time>2020-05-29T20:51:05Z</time>
      </trkpt>
      <trkpt lat="44.171452" lon="5.20662">
        <ele>1005.7</ele>
        <time>2020-05-29T20:51:06Z</time>
      </trkpt>
      <trkpt lat="44.171467" lon="5.206663">
        <ele>1006.1</ele>
        <time>2020-05-29T20:51:07Z</time>
      </trkpt>
      <trkpt lat="44.171482" lon="5.206715">
        <ele>1006.7</ele>
        <time>2020-05-29T20:51:08Z</time>
      </trkpt>
      <trkpt lat="44.171501" lon="5.206767">
        <ele>1007.3</ele>
        <time>2020-05-29T20:51:09Z</time>
      </trkpt>
      <trkpt lat="44.171513" lon="5.206812">
        <ele>1007.7</ele>
        <time>2020-05-29T20:51:10Z</time>
      </trkpt>
      <trkpt lat="44.171528" lon="5.206855">
        <ele>1008.2</ele>
        <time>2020-05-29T20:51:11Z</time>
      </trkpt>
      <trkpt lat="44.171543" lon="5.206902">
        <ele>1008.7</ele>
        <time>2020-05-29T20:51:12Z</time>
      </trkpt>
      <trkpt lat="44.171558" lon="5.206956">
        <ele>1009.3</ele>
        <time>2020-05-29T20:51:13Z</time>
      </trkpt>
      <trkpt lat="44.17157" lon="5.206998">
        <ele>1009.7</ele>
        <time>2020-05-29T20:51:14Z</time>
      </trkpt>
      <trkpt lat="44.171585" lon="5.207052">
        <ele>1010.3</ele>
        <time>2020-05-29T20:51:16Z</time>
      </trkpt>
      <trkpt lat="44.1716" lon="5.207106">
        <ele>1010.9</ele>
        <time>2020-05-29T20:51:17Z</time>
      </trkpt>
      <trkpt lat="44.171616" lon="5.207152">
        <ele>1011.4</ele>
        <time>2020-05-29T20:51:18Z</time>
      </trkpt>
      <trkpt lat="44.171627" lon="5.207207">
        <ele>1011.9</ele>
        <time>2020-05-29T20:51:19Z</time>
      </trkpt>
      <trkpt lat="44.171642" lon="5.20725">
        <ele>1012.4</ele>
        <time>2020-05-29T20:51:20Z</time>
      </trkpt>
      <trkpt lat="44.171654" lon="5.207298">
        <ele>1012.9</ele>
        <time>2020-05-29T20:51:21Z</time>
      </trkpt>
      <trkpt lat="44.171669" lon="5.207352">
        <ele>1013.5</ele>
        <time>2020-05-29T20:51:22Z</time>
      </trkpt>
      <trkpt lat="44.171684" lon="5.207407">
        <ele>1014.1</ele>
        <time>2020-05-29T20:51:23Z</time>
      </trkpt>
      <trkpt lat="44.171696" lon="5.207452">
        <ele>1014.6</ele>
        <time>2020-05-29T20:51:24Z</time>
      </trkpt>
      <trkpt lat="44.171715" lon="5.207507">
        <ele>1015.2</ele>
        <time>2020-05-29T20:51:26Z</time>
      </trkpt>
      <trkpt lat="44.17173" lon="5.207562">
        <ele>1015.8</ele>
        <time>2020-05-29T20:51:27Z</time>
      </trkpt>
      <trkpt lat="44.171745" lon="5.207617">
        <ele>1016.5</ele>
        <time>2020-05-29T20:51:28Z</time>
      </trkpt>
      <trkpt lat="44.171757" lon="5.207672">
        <ele>1017.1</ele>
        <time>2020-05-29T20:51:29Z</time>
      </trkpt>
      <trkpt lat="44.171772" lon="5.20772">
        <ele>1017.6</ele>
        <time>2020-05-29T20:51:30Z</time>
      </trkpt>
      <trkpt lat="44.171783" lon="5.207768">
        <ele>1018.1</ele>
        <time>2020-05-29T20:51:31Z</time>
      </trkpt>
      <trkpt lat="44.171799" lon="5.207825">
        <ele>1018.8</ele>
        <time>2020-05-29T20:51:32Z</time>
      </trkpt>
      <trkpt lat="44.171814" lon="5.207882">
        <ele>1019.3</ele>
        <time>2020-05-29T20:51:34Z</time>
      </trkpt>
      <trkpt lat="44.171829" lon="5.20794">
        <ele>1019.9</ele>
        <time>2020-05-29T20:51:35Z</time>
      </trkpt>
      <trkpt lat="44.171844" lon="5.208003">
        <ele>1020.5</ele>
        <time>2020-05-29T20:51:36Z</time>
      </trkpt>
      <trkpt lat="44.17186" lon="5.208062">
        <ele>1021.1</ele>
        <time>2020-05-29T20:51:37Z</time>
      </trkpt>
      <trkpt lat="44.171875" lon="5.208124">
        <ele>1021.7</ele>
        <time>2020-05-29T20:51:38Z</time>
      </trkpt>
      <trkpt lat="44.171886" lon="5.208171">
        <ele>1022.2</ele>
        <time>2020-05-29T20:51:39Z</time>
      </trkpt>
      <trkpt lat="44.171902" lon="5.208221">
        <ele>1022.7</ele>
        <time>2020-05-29T20:51:40Z</time>
      </trkpt>
      <trkpt lat="44.171913" lon="5.208279">
        <ele>1023.3</ele>
        <time>2020-05-29T20:51:42Z</time>
      </trkpt>
      <trkpt lat="44.171925" lon="5.208329">
        <ele>1023.8</ele>
        <time>2020-05-29T20:51:43Z</time>
      </trkpt>
      <trkpt lat="44.171936" lon="5.208376">
        <ele>1024.3</ele>
        <time>2020-05-29T20:51:44Z</time>
      </trkpt>
      <trkpt lat="44.171947" lon="5.208428">
        <ele>1024.8</ele>
        <time>2020-05-29T20:51:45Z</time>
      </trkpt>
      <trkpt lat="44.171963" lon="5.208492">
        <ele>1025.4</ele>
        <time>2020-05-29T20:51:46Z</time>
      </trkpt>
      <trkpt lat="44.171978" lon="5.208544">
        <ele>1025.8</ele>
        <time>2020-05-29T20:51:47Z</time>
      </trkpt>
      <trkpt lat="44.171989" lon="5.208605">
        <ele>1026.3</ele>
        <time>2020-05-29T20:51:48Z</time>
      </trkpt>
      <trkpt lat="44.172001" lon="5.208658">
        <ele>1026.7</ele>
        <time>2020-05-29T20:51:49Z</time>
      </trkpt>
      <trkpt lat="44.172016" lon="5.208709">
        <ele>1026.9</ele>
        <time>2020-05-29T20:51:50Z</time>
      </trkpt>
      <trkpt lat="44.172028" lon="5.208769">
        <ele>1027.2</ele>
        <time>2020-05-29T20:51:51Z</time>
      </trkpt>
      <trkpt lat="44.172043" lon="5.208828">
        <ele>1027.5</ele>
        <time>2020-05-29T20:51:52Z</time>
      </trkpt>
      <trkpt lat="44.172054" lon="5.208891">
        <ele>1027.9</ele>
        <time>2020-05-29T20:51:54Z</time>
      </trkpt>
      <trkpt lat="44.172066" lon="5.208951">
        <ele>1028.3</ele>
        <time>2020-05-29T20:51:55Z</time>
      </trkpt>
      <trkpt lat="44.172077" lon="5.209015">
        <ele>1028.9</ele>
        <time>2020-05-29T20:51:56Z</time>
      </trkpt>
      <trkpt lat="44.172085" lon="5.209067">
        <ele>1029.3</ele>
        <time>2020-05-29T20:51:57Z</time>
      </trkpt>
      <trkpt lat="44.172092" lon="5.209116">
        <ele>1029.7</ele>
        <time>2020-05-29T20:51:58Z</time>
      </trkpt>
      <trkpt lat="44.172104" lon="5.209181">
        <ele>1030.3</ele>
        <time>2020-05-29T20:51:59Z</time>
      </trkpt>
      <trkpt lat="44.172111" lon="5.209234">
        <ele>1030.8</ele>
        <time>2020-05-29T20:52:00Z</time>
      </trkpt>
      <trkpt lat="44.172119" lon="5.209284">
        <ele>1031.3</ele>
        <time>2020-05-29T20:52:01Z</time>
      </trkpt>
      <trkpt lat="44.172127" lon="5.209351">
        <ele>1031.9</ele>
        <time>2020-05-29T20:52:02Z</time>
      </trkpt>
      <trkpt lat="44.172134" lon="5.209412">
        <ele>1032.4</ele>
        <time>2020-05-29T20:52:04Z</time>
      </trkpt>
      <trkpt lat="44.172142" lon="5.209471">
        <ele>1033</ele>
        <time>2020-05-29T20:52:05Z</time>
      </trkpt>
      <trkpt lat="44.17215" lon="5.209521">
        <ele>1033.5</ele>
        <time>2020-05-29T20:52:06Z</time>
      </trkpt>
      <trkpt lat="44.172157" lon="5.209578">
        <ele>1034.1</ele>
        <time>2020-05-29T20:52:07Z</time>
      </trkpt>
      <trkpt lat="44.172161" lon="5.209623">
        <ele>1034.5</ele>
        <time>2020-05-29T20:52:08Z</time>
      </trkpt>
      <trkpt lat="44.172172" lon="5.20968">
        <ele>1035.1</ele>
        <time>2020-05-29T20:52:09Z</time>
      </trkpt>
      <trkpt lat="44.17218" lon="5.209725">
        <ele>1035.5</ele>
        <time>2020-05-29T20:52:10Z</time>
      </trkpt>
      <trkpt lat="44.172188" lon="5.209774">
        <ele>1036</ele>
        <time>2020-05-29T20:52:11Z</time>
      </trkpt>
      <trkpt lat="44.172195" lon="5.209823">
        <ele>1036.4</ele>
        <time>2020-05-29T20:52:12Z</time>
      </trkpt>
      <trkpt lat="44.172203" lon="5.209868">
        <ele>1036.9</ele>
        <time>2020-05-29T20:52:13Z</time>
      </trkpt>
      <trkpt lat="44.172214" lon="5.209919">
        <ele>1037.4</ele>
        <time>2020-05-29T20:52:14Z</time>
      </trkpt>
      <trkpt lat="44.172226" lon="5.209977">
        <ele>1037.9</ele>
        <time>2020-05-29T20:52:15Z</time>
      </trkpt>
      <trkpt lat="44.172237" lon="5.210039">
        <ele>1038.5</ele>
        <time>2020-05-29T20:52:17Z</time>
      </trkpt>
      <trkpt lat="44.172249" lon="5.210097">
        <ele>1039.1</ele>
        <time>2020-05-29T20:52:18Z</time>
      </trkpt>
      <trkpt lat="44.17226" lon="5.210151">
        <ele>1039.6</ele>
        <time>2020-05-29T20:52:19Z</time>
      </trkpt>
      <trkpt lat="44.172268" lon="5.210199">
        <ele>1040</ele>
        <time>2020-05-29T20:52:20Z</time>
      </trkpt>
      <trkpt lat="44.172279" lon="5.210248">
        <ele>1040.4</ele>
        <time>2020-05-29T20:52:21Z</time>
      </trkpt>
      <trkpt lat="44.172291" lon="5.210292">
        <ele>1040.8</ele>
        <time>2020-05-29T20:52:22Z</time>
      </trkpt>
      <trkpt lat="44.172302" lon="5.210349">
        <ele>1041.4</ele>
        <time>2020-05-29T20:52:23Z</time>
      </trkpt>
      <trkpt lat="44.172314" lon="5.210397">
        <ele>1041.8</ele>
        <time>2020-05-29T20:52:24Z</time>
      </trkpt>
      <trkpt lat="44.172325" lon="5.210449">
        <ele>1042.3</ele>
        <time>2020-05-29T20:52:25Z</time>
      </trkpt>
      <trkpt lat="44.172337" lon="5.210509">
        <ele>1042.8</ele>
        <time>2020-05-29T20:52:27Z</time>
      </trkpt>
      <trkpt lat="44.172344" lon="5.210554">
        <ele>1043.2</ele>
        <time>2020-05-29T20:52:28Z</time>
      </trkpt>
      <trkpt lat="44.172356" lon="5.210613">
        <ele>1043.7</ele>
        <time>2020-05-29T20:52:29Z</time>
      </trkpt>
      <trkpt lat="44.172367" lon="5.210665">
        <ele>1044.1</ele>
        <time>2020-05-29T20:52:30Z</time>
      </trkpt>
      <trkpt lat="44.172379" lon="5.210732">
        <ele>1044.7</ele>
        <time>2020-05-29T20:52:31Z</time>
      </trkpt>
      <trkpt lat="44.17239" lon="5.210796">
        <ele>1045.2</ele>
        <time>2020-05-29T20:52:32Z</time>
      </trkpt>
      <trkpt lat="44.172401" lon="5.210863">
        <ele>1045.8</ele>
        <time>2020-05-29T20:52:33Z</time>
      </trkpt>
      <trkpt lat="44.172409" lon="5.210918">
        <ele>1046.2</ele>
        <time>2020-05-29T20:52:34Z</time>
      </trkpt>
      <trkpt lat="44.172417" lon="5.210974">
        <ele>1046.7</ele>
        <time>2020-05-29T20:52:35Z</time>
      </trkpt>
      <trkpt lat="44.172428" lon="5.211038">
        <ele>1047.3</ele>
        <time>2020-05-29T20:52:37Z</time>
      </trkpt>
      <trkpt lat="44.172436" lon="5.211093">
        <ele>1047.7</ele>
        <time>2020-05-29T20:52:38Z</time>
      </trkpt>
      <trkpt lat="44.172443" lon="5.211147">
        <ele>1048.2</ele>
        <time>2020-05-29T20:52:39Z</time>
      </trkpt>
      <trkpt lat="44.172455" lon="5.211215">
        <ele>1048.8</ele>
        <time>2020-05-29T20:52:40Z</time>
      </trkpt>
      <trkpt lat="44.172459" lon="5.211265">
        <ele>1049.2</ele>
        <time>2020-05-29T20:52:41Z</time>
      </trkpt>
      <trkpt lat="44.172466" lon="5.211331">
        <ele>1049.8</ele>
        <time>2020-05-29T20:52:42Z</time>
      </trkpt>
      <trkpt lat="44.172474" lon="5.211395">
        <ele>1050.3</ele>
        <time>2020-05-29T20:52:43Z</time>
      </trkpt>
      <trkpt lat="44.172478" lon="5.211457">
        <ele>1050.8</ele>
        <time>2020-05-29T20:52:44Z</time>
      </trkpt>
      <trkpt lat="44.172482" lon="5.211519">
        <ele>1051.3</ele>
        <time>2020-05-29T20:52:46Z</time>
      </trkpt>
      <trkpt lat="44.172485" lon="5.211573">
        <ele>1051.7</ele>
        <time>2020-05-29T20:52:47Z</time>
      </trkpt>
      <trkpt lat="44.172485" lon="5.211635">
        <ele>1052.2</ele>
        <time>2020-05-29T20:52:48Z</time>
      </trkpt>
      <trkpt lat="44.172489" lon="5.2117">
        <ele>1052.7</ele>
        <time>2020-05-29T20:52:49Z</time>
      </trkpt>
      <trkpt lat="44.172493" lon="5.211764">
        <ele>1053.3</ele>
        <time>2020-05-29T20:52:50Z</time>
      </trkpt>
      <trkpt lat="44.172497" lon="5.21182">
        <ele>1053.7</ele>
        <time>2020-05-29T20:52:51Z</time>
      </trkpt>
      <trkpt lat="44.172501" lon="5.211874">
        <ele>1054.2</ele>
        <time>2020-05-29T20:52:52Z</time>
      </trkpt>
      <trkpt lat="44.172504" lon="5.211938">
        <ele>1054.7</ele>
        <time>2020-05-29T20:52:53Z</time>
      </trkpt>
      <trkpt lat="44.172508" lon="5.211987">
        <ele>1055.1</ele>
        <time>2020-05-29T20:52:54Z</time>
      </trkpt>
      <trkpt lat="44.172516" lon="5.212051">
        <ele>1055.7</ele>
        <time>2020-05-29T20:52:56Z</time>
      </trkpt>
      <trkpt lat="44.17252" lon="5.2121">
        <ele>1056.1</ele>
        <time>2020-05-29T20:52:57Z</time>
      </trkpt>
      <trkpt lat="44.172527" lon="5.212165">
        <ele>1056.6</ele>
        <time>2020-05-29T20:52:58Z</time>
      </trkpt>
      <trkpt lat="44.172531" lon="5.212225">
        <ele>1057.1</ele>
        <time>2020-05-29T20:52:59Z</time>
      </trkpt>
      <trkpt lat="44.172539" lon="5.212281">
        <ele>1057.5</ele>
        <time>2020-05-29T20:53:00Z</time>
      </trkpt>
      <trkpt lat="44.17255" lon="5.21235">
        <ele>1058.1</ele>
        <time>2020-05-29T20:53:01Z</time>
      </trkpt>
      <trkpt lat="44.172562" lon="5.212419">
        <ele>1058.7</ele>
        <time>2020-05-29T20:53:02Z</time>
      </trkpt>
      <trkpt lat="44.172577" lon="5.212481">
        <ele>1059.2</ele>
        <time>2020-05-29T20:53:04Z</time>
      </trkpt>
      <trkpt lat="44.172588" lon="5.212531">
        <ele>1059.7</ele>
        <time>2020-05-29T20:53:05Z</time>
      </trkpt>
      <trkpt lat="44.172604" lon="5.21259">
        <ele>1060.2</ele>
        <time>2020-05-29T20:53:06Z</time>
      </trkpt>
      <trkpt lat="44.172615" lon="5.21264">
        <ele>1060.7</ele>
        <time>2020-05-29T20:53:07Z</time>
      </trkpt>
      <trkpt lat="44.172626" lon="5.212689">
        <ele>1061.2</ele>
        <time>2020-05-29T20:53:08Z</time>
      </trkpt>
      <trkpt lat="44.172638" lon="5.212736">
        <ele>1061.6</ele>
        <time>2020-05-29T20:53:09Z</time>
      </trkpt>
      <trkpt lat="44.172649" lon="5.212786">
        <ele>1062.1</ele>
        <time>2020-05-29T20:53:10Z</time>
      </trkpt>
      <trkpt lat="44.172661" lon="5.212842">
        <ele>1062.6</ele>
        <time>2020-05-29T20:53:11Z</time>
      </trkpt>
      <trkpt lat="44.172676" lon="5.212899">
        <ele>1063.2</ele>
        <time>2020-05-29T20:53:12Z</time>
      </trkpt>
      <trkpt lat="44.172687" lon="5.212956">
        <ele>1063.7</ele>
        <time>2020-05-29T20:53:13Z</time>
      </trkpt>
      <trkpt lat="44.172699" lon="5.213005">
        <ele>1064.2</ele>
        <time>2020-05-29T20:53:14Z</time>
      </trkpt>
      <trkpt lat="44.172714" lon="5.213055">
        <ele>1064.7</ele>
        <time>2020-05-29T20:53:15Z</time>
      </trkpt>
      <trkpt lat="44.172722" lon="5.2131">
        <ele>1065.1</ele>
        <time>2020-05-29T20:53:16Z</time>
      </trkpt>
      <trkpt lat="44.172737" lon="5.213162">
        <ele>1065.7</ele>
        <time>2020-05-29T20:53:18Z</time>
      </trkpt>
      <trkpt lat="44.172748" lon="5.21321">
        <ele>1066.1</ele>
        <time>2020-05-29T20:53:19Z</time>
      </trkpt>
      <trkpt lat="44.172764" lon="5.213272">
        <ele>1066.7</ele>
        <time>2020-05-29T20:53:20Z</time>
      </trkpt>
      <trkpt lat="44.172779" lon="5.213331">
        <ele>1067.3</ele>
        <time>2020-05-29T20:53:21Z</time>
      </trkpt>
      <trkpt lat="44.172794" lon="5.213389">
        <ele>1067.9</ele>
        <time>2020-05-29T20:53:22Z</time>
      </trkpt>
      <trkpt lat="44.17281" lon="5.213448">
        <ele>1068.5</ele>
        <time>2020-05-29T20:53:23Z</time>
      </trkpt>
      <trkpt lat="44.172821" lon="5.2135">
        <ele>1069</ele>
        <time>2020-05-29T20:53:24Z</time>
      </trkpt>
      <trkpt lat="44.172836" lon="5.213557">
        <ele>1069.6</ele>
        <time>2020-05-29T20:53:26Z</time>
      </trkpt>
      <trkpt lat="44.172851" lon="5.213614">
        <ele>1070.2</ele>
        <time>2020-05-29T20:53:27Z</time>
      </trkpt>
      <trkpt lat="44.172867" lon="5.213663">
        <ele>1070.7</ele>
        <time>2020-05-29T20:53:28Z</time>
      </trkpt>
      <trkpt lat="44.172882" lon="5.213719">
        <ele>1071.3</ele>
        <time>2020-05-29T20:53:29Z</time>
      </trkpt>
      <trkpt lat="44.172897" lon="5.213775">
        <ele>1071.9</ele>
        <time>2020-05-29T20:53:30Z</time>
      </trkpt>
      <trkpt lat="44.172913" lon="5.213833">
        <ele>1072.4</ele>
        <time>2020-05-29T20:53:31Z</time>
      </trkpt>
      <trkpt lat="44.172932" lon="5.213889">
        <ele>1073</ele>
        <time>2020-05-29T20:53:33Z</time>
      </trkpt>
      <trkpt lat="44.172947" lon="5.213947">
        <ele>1073.6</ele>
        <time>2020-05-29T20:53:34Z</time>
      </trkpt>
      <trkpt lat="44.172958" lon="5.213997">
        <ele>1074.1</ele>
        <time>2020-05-29T20:53:35Z</time>
      </trkpt>
      <trkpt lat="44.172974" lon="5.214046">
        <ele>1074.6</ele>
        <time>2020-05-29T20:53:36Z</time>
      </trkpt>
      <trkpt lat="44.172989" lon="5.2141">
        <ele>1075.1</ele>
        <time>2020-05-29T20:53:37Z</time>
      </trkpt>
      <trkpt lat="44.173" lon="5.214146">
        <ele>1075.6</ele>
        <time>2020-05-29T20:53:38Z</time>
      </trkpt>
      <trkpt lat="44.173012" lon="5.214188">
        <ele>1076</ele>
        <time>2020-05-29T20:53:39Z</time>
      </trkpt>
      <trkpt lat="44.173027" lon="5.214244">
        <ele>1076.5</ele>
        <time>2020-05-29T20:53:40Z</time>
      </trkpt>
      <trkpt lat="44.173046" lon="5.214305">
        <ele>1077.2</ele>
        <time>2020-05-29T20:53:41Z</time>
      </trkpt>
      <trkpt lat="44.173058" lon="5.214349">
        <ele>1077.6</ele>
        <time>2020-05-29T20:53:42Z</time>
      </trkpt>
      <trkpt lat="44.173073" lon="5.214396">
        <ele>1078.1</ele>
        <time>2020-05-29T20:53:43Z</time>
      </trkpt>
      <trkpt lat="44.173084" lon="5.214444">
        <ele>1078.6</ele>
        <time>2020-05-29T20:53:45Z</time>
      </trkpt>
      <trkpt lat="44.173099" lon="5.214489">
        <ele>1079.1</ele>
        <time>2020-05-29T20:53:46Z</time>
      </trkpt>
      <trkpt lat="44.173115" lon="5.214539">
        <ele>1079.6</ele>
        <time>2020-05-29T20:53:47Z</time>
      </trkpt>
      <trkpt lat="44.17313" lon="5.214594">
        <ele>1080.1</ele>
        <time>2020-05-29T20:53:48Z</time>
      </trkpt>
      <trkpt lat="44.173145" lon="5.214648">
        <ele>1080.7</ele>
        <time>2020-05-29T20:53:49Z</time>
      </trkpt>
      <trkpt lat="44.173164" lon="5.214707">
        <ele>1081.3</ele>
        <time>2020-05-29T20:53:50Z</time>
      </trkpt>
      <trkpt lat="44.17318" lon="5.214762">
        <ele>1081.9</ele>
        <time>2020-05-29T20:53:52Z</time>
      </trkpt>
      <trkpt lat="44.173195" lon="5.214817">
        <ele>1082.4</ele>
        <time>2020-05-29T20:53:53Z</time>
      </trkpt>
      <trkpt lat="44.173214" lon="5.214872">
        <ele>1082.9</ele>
        <time>2020-05-29T20:53:54Z</time>
      </trkpt>
      <trkpt lat="44.173225" lon="5.214917">
        <ele>1083.4</ele>
        <time>2020-05-29T20:53:55Z</time>
      </trkpt>
      <trkpt lat="44.173241" lon="5.214966">
        <ele>1083.9</ele>
        <time>2020-05-29T20:53:56Z</time>
      </trkpt>
      <trkpt lat="44.17326" lon="5.215021">
        <ele>1084.4</ele>
        <time>2020-05-29T20:53:57Z</time>
      </trkpt>
      <trkpt lat="44.173275" lon="5.215076">
        <ele>1084.9</ele>
        <time>2020-05-29T20:53:58Z</time>
      </trkpt>
      <trkpt lat="44.173294" lon="5.215137">
        <ele>1085.5</ele>
        <time>2020-05-29T20:54:00Z</time>
      </trkpt>
      <trkpt lat="44.173309" lon="5.215193">
        <ele>1086.1</ele>
        <time>2020-05-29T20:54:01Z</time>
      </trkpt>
      <trkpt lat="44.173328" lon="5.21525">
        <ele>1086.7</ele>
        <time>2020-05-29T20:54:02Z</time>
      </trkpt>
      <trkpt lat="44.173344" lon="5.215299">
        <ele>1087.1</ele>
        <time>2020-05-29T20:54:03Z</time>
      </trkpt>
      <trkpt lat="44.173359" lon="5.215348">
        <ele>1087.6</ele>
        <time>2020-05-29T20:54:04Z</time>
      </trkpt>
      <trkpt lat="44.17337" lon="5.215393">
        <ele>1088.1</ele>
        <time>2020-05-29T20:54:05Z</time>
      </trkpt>
      <trkpt lat="44.173389" lon="5.21545">
        <ele>1088.7</ele>
        <time>2020-05-29T20:54:06Z</time>
      </trkpt>
      <trkpt lat="44.173405" lon="5.215499">
        <ele>1089.1</ele>
        <time>2020-05-29T20:54:07Z</time>
      </trkpt>
      <trkpt lat="44.17342" lon="5.215556">
        <ele>1089.6</ele>
        <time>2020-05-29T20:54:08Z</time>
      </trkpt>
      <trkpt lat="44.173435" lon="5.215605">
        <ele>1090.1</ele>
        <time>2020-05-29T20:54:09Z</time>
      </trkpt>
      <trkpt lat="44.17345" lon="5.215662">
        <ele>1090.6</ele>
        <time>2020-05-29T20:54:11Z</time>
      </trkpt>
      <trkpt lat="44.173469" lon="5.21572">
        <ele>1091.2</ele>
        <time>2020-05-29T20:54:12Z</time>
      </trkpt>
      <trkpt lat="44.173489" lon="5.215781">
        <ele>1091.7</ele>
        <time>2020-05-29T20:54:13Z</time>
      </trkpt>
      <trkpt lat="44.1735" lon="5.215827">
        <ele>1092.2</ele>
        <time>2020-05-29T20:54:14Z</time>
      </trkpt>
      <trkpt lat="44.173519" lon="5.21589">
        <ele>1092.8</ele>
        <time>2020-05-29T20:54:15Z</time>
      </trkpt>
      <trkpt lat="44.173534" lon="5.215936">
        <ele>1093.2</ele>
        <time>2020-05-29T20:54:16Z</time>
      </trkpt>
      <trkpt lat="44.17355" lon="5.215986">
        <ele>1093.7</ele>
        <time>2020-05-29T20:54:17Z</time>
      </trkpt>
      <trkpt lat="44.173561" lon="5.216036">
        <ele>1094.2</ele>
        <time>2020-05-29T20:54:18Z</time>
      </trkpt>
      <trkpt lat="44.17358" lon="5.216094">
        <ele>1094.7</ele>
        <time>2020-05-29T20:54:19Z</time>
      </trkpt>
      <trkpt lat="44.173592" lon="5.216144">
        <ele>1095.2</ele>
        <time>2020-05-29T20:54:20Z</time>
      </trkpt>
      <trkpt lat="44.173611" lon="5.216203">
        <ele>1095.8</ele>
        <time>2020-05-29T20:54:22Z</time>
      </trkpt>
      <trkpt lat="44.173626" lon="5.216262">
        <ele>1096.3</ele>
        <time>2020-05-29T20:54:23Z</time>
      </trkpt>
      <trkpt lat="44.173645" lon="5.216325">
        <ele>1097</ele>
        <time>2020-05-29T20:54:24Z</time>
      </trkpt>
      <trkpt lat="44.17366" lon="5.216382">
        <ele>1097.5</ele>
        <time>2020-05-29T20:54:25Z</time>
      </trkpt>
      <trkpt lat="44.173672" lon="5.216425">
        <ele>1097.9</ele>
        <time>2020-05-29T20:54:26Z</time>
      </trkpt>
      <trkpt lat="44.173683" lon="5.216473">
        <ele>1098.3</ele>
        <time>2020-05-29T20:54:27Z</time>
      </trkpt>
      <trkpt lat="44.173695" lon="5.216516">
        <ele>1098.7</ele>
        <time>2020-05-29T20:54:28Z</time>
      </trkpt>
      <trkpt lat="44.17371" lon="5.216562">
        <ele>1099.1</ele>
        <time>2020-05-29T20:54:29Z</time>
      </trkpt>
      <trkpt lat="44.173721" lon="5.21661">
        <ele>1099.6</ele>
        <time>2020-05-29T20:54:30Z</time>
      </trkpt>
      <trkpt lat="44.173733" lon="5.216663">
        <ele>1100</ele>
        <time>2020-05-29T20:54:32Z</time>
      </trkpt>
      <trkpt lat="44.173748" lon="5.216717">
        <ele>1100.5</ele>
        <time>2020-05-29T20:54:33Z</time>
      </trkpt>
      <trkpt lat="44.173759" lon="5.216773">
        <ele>1101</ele>
        <time>2020-05-29T20:54:34Z</time>
      </trkpt>
      <trkpt lat="44.173767" lon="5.216824">
        <ele>1101.4</ele>
        <time>2020-05-29T20:54:35Z</time>
      </trkpt>
      <trkpt lat="44.173775" lon="5.216875">
        <ele>1101.8</ele>
        <time>2020-05-29T20:54:36Z</time>
      </trkpt>
      <trkpt lat="44.173778" lon="5.216923">
        <ele>1102.1</ele>
        <time>2020-05-29T20:54:37Z</time>
      </trkpt>
      <trkpt lat="44.173786" lon="5.216987">
        <ele>1102.5</ele>
        <time>2020-05-29T20:54:38Z</time>
      </trkpt>
      <trkpt lat="44.17379" lon="5.217048">
        <ele>1102.9</ele>
        <time>2020-05-29T20:54:39Z</time>
      </trkpt>
      <trkpt lat="44.17379" lon="5.217102">
        <ele>1103.3</ele>
        <time>2020-05-29T20:54:40Z</time>
      </trkpt>
      <trkpt lat="44.173786" lon="5.217165">
        <ele>1103.7</ele>
        <time>2020-05-29T20:54:42Z</time>
      </trkpt>
      <trkpt lat="44.173778" lon="5.217223">
        <ele>1104</ele>
        <time>2020-05-29T20:54:43Z</time>
      </trkpt>
      <trkpt lat="44.173756" lon="5.217288">
        <ele>1104.6</ele>
        <time>2020-05-29T20:54:44Z</time>
      </trkpt>
      <trkpt lat="44.173725" lon="5.217348">
        <ele>1105.3</ele>
        <time>2020-05-29T20:54:45Z</time>
      </trkpt>
      <trkpt lat="44.173698" lon="5.217399">
        <ele>1105.9</ele>
        <time>2020-05-29T20:54:46Z</time>
      </trkpt>
      <trkpt lat="44.173672" lon="5.217451">
        <ele>1106.5</ele>
        <time>2020-05-29T20:54:47Z</time>
      </trkpt>
      <trkpt lat="44.173637" lon="5.217505">
        <ele>1107.2</ele>
        <time>2020-05-29T20:54:48Z</time>
      </trkpt>
      <trkpt lat="44.173603" lon="5.217562">
        <ele>1107.9</ele>
        <time>2020-05-29T20:54:49Z</time>
      </trkpt>
      <trkpt lat="44.173573" lon="5.217615">
        <ele>1108.6</ele>
        <time>2020-05-29T20:54:51Z</time>
      </trkpt>
      <trkpt lat="44.173538" lon="5.217666">
        <ele>1109.3</ele>
        <time>2020-05-29T20:54:52Z</time>
      </trkpt>
      <trkpt lat="44.173504" lon="5.217721">
        <ele>1110.1</ele>
        <time>2020-05-29T20:54:53Z</time>
      </trkpt>
      <trkpt lat="44.173473" lon="5.217775">
        <ele>1110.8</ele>
        <time>2020-05-29T20:54:54Z</time>
      </trkpt>
      <trkpt lat="44.173439" lon="5.217832">
        <ele>1111.6</ele>
        <time>2020-05-29T20:54:55Z</time>
      </trkpt>
      <trkpt lat="44.173405" lon="5.217885">
        <ele>1112.3</ele>
        <time>2020-05-29T20:54:57Z</time>
      </trkpt>
      <trkpt lat="44.173374" lon="5.217938">
        <ele>1113</ele>
        <time>2020-05-29T20:54:58Z</time>
      </trkpt>
      <trkpt lat="44.17334" lon="5.217994">
        <ele>1113.8</ele>
        <time>2020-05-29T20:54:59Z</time>
      </trkpt>
      <trkpt lat="44.173309" lon="5.218047">
        <ele>1114.5</ele>
        <time>2020-05-29T20:55:00Z</time>
      </trkpt>
      <trkpt lat="44.173286" lon="5.218101">
        <ele>1115.2</ele>
        <time>2020-05-29T20:55:01Z</time>
      </trkpt>
      <trkpt lat="44.173267" lon="5.218148">
        <ele>1115.7</ele>
        <time>2020-05-29T20:55:02Z</time>
      </trkpt>
      <trkpt lat="44.173252" lon="5.218204">
        <ele>1116.3</ele>
        <time>2020-05-29T20:55:04Z</time>
      </trkpt>
      <trkpt lat="44.173241" lon="5.218251">
        <ele>1116.9</ele>
        <time>2020-05-29T20:55:05Z</time>
      </trkpt>
      <trkpt lat="44.173229" lon="5.218301">
        <ele>1117.5</ele>
        <time>2020-05-29T20:55:06Z</time>
      </trkpt>
      <trkpt lat="44.173214" lon="5.218359">
        <ele>1118.1</ele>
        <time>2020-05-29T20:55:07Z</time>
      </trkpt>
      <trkpt lat="44.173202" lon="5.218409">
        <ele>1118.7</ele>
        <time>2020-05-29T20:55:08Z</time>
      </trkpt>
      <trkpt lat="44.173191" lon="5.218467">
        <ele>1119.4</ele>
        <time>2020-05-29T20:55:09Z</time>
      </trkpt>
      <trkpt lat="44.173176" lon="5.218526">
        <ele>1120.1</ele>
        <time>2020-05-29T20:55:10Z</time>
      </trkpt>
      <trkpt lat="44.173168" lon="5.218576">
        <ele>1120.6</ele>
        <time>2020-05-29T20:55:11Z</time>
      </trkpt>
      <trkpt lat="44.173161" lon="5.218621">
        <ele>1121.1</ele>
        <time>2020-05-29T20:55:12Z</time>
      </trkpt>
      <trkpt lat="44.173153" lon="5.218668">
        <ele>1121.7</ele>
        <time>2020-05-29T20:55:13Z</time>
      </trkpt>
      <trkpt lat="44.173145" lon="5.218727">
        <ele>1122.3</ele>
        <time>2020-05-29T20:55:14Z</time>
      </trkpt>
      <trkpt lat="44.173138" lon="5.218787">
        <ele>1123</ele>
        <time>2020-05-29T20:55:16Z</time>
      </trkpt>
      <trkpt lat="44.17313" lon="5.218853">
        <ele>1123.7</ele>
        <time>2020-05-29T20:55:17Z</time>
      </trkpt>
      <trkpt lat="44.173122" lon="5.218907">
        <ele>1124.3</ele>
        <time>2020-05-29T20:55:18Z</time>
      </trkpt>
      <trkpt lat="44.173115" lon="5.218974">
        <ele>1125</ele>
        <time>2020-05-29T20:55:19Z</time>
      </trkpt>
      <trkpt lat="44.173111" lon="5.219034">
        <ele>1125.7</ele>
        <time>2020-05-29T20:55:20Z</time>
      </trkpt>
      <trkpt lat="44.173103" lon="5.219107">
        <ele>1126.4</ele>
        <time>2020-05-29T20:55:21Z</time>
      </trkpt>
      <trkpt lat="44.173099" lon="5.219173">
        <ele>1127.1</ele>
        <time>2020-05-29T20:55:22Z</time>
      </trkpt>
      <trkpt lat="44.173092" lon="5.21924">
        <ele>1127.9</ele>
        <time>2020-05-29T20:55:24Z</time>
      </trkpt>
      <trkpt lat="44.173088" lon="5.219296">
        <ele>1128.4</ele>
        <time>2020-05-29T20:55:25Z</time>
      </trkpt>
      <trkpt lat="44.17308" lon="5.219366">
        <ele>1129.1</ele>
        <time>2020-05-29T20:55:26Z</time>
      </trkpt>
      <trkpt lat="44.173077" lon="5.219433">
        <ele>1129.8</ele>
        <time>2020-05-29T20:55:27Z</time>
      </trkpt>
      <trkpt lat="44.173069" lon="5.219513">
        <ele>1130.6</ele>
        <time>2020-05-29T20:55:28Z</time>
      </trkpt>
      <trkpt lat="44.173061" lon="5.219578">
        <ele>1131.3</ele>
        <time>2020-05-29T20:55:29Z</time>
      </trkpt>
      <trkpt lat="44.173058" lon="5.219658">
        <ele>1132.1</ele>
        <time>2020-05-29T20:55:30Z</time>
      </trkpt>
      <trkpt lat="44.17305" lon="5.219719">
        <ele>1132.8</ele>
        <time>2020-05-29T20:55:31Z</time>
      </trkpt>
      <trkpt lat="44.173046" lon="5.219791">
        <ele>1133.6</ele>
        <time>2020-05-29T20:55:32Z</time>
      </trkpt>
      <trkpt lat="44.173046" lon="5.219848">
        <ele>1134.2</ele>
        <time>2020-05-29T20:55:33Z</time>
      </trkpt>
      <trkpt lat="44.173046" lon="5.2199">
        <ele>1134.7</ele>
        <time>2020-05-29T20:55:34Z</time>
      </trkpt>
      <trkpt lat="44.173046" lon="5.219966">
        <ele>1135.4</ele>
        <time>2020-05-29T20:55:36Z</time>
      </trkpt>
      <trkpt lat="44.17305" lon="5.220027">
        <ele>1136.1</ele>
        <time>2020-05-29T20:55:37Z</time>
      </trkpt>
      <trkpt lat="44.173054" lon="5.220087">
        <ele>1136.7</ele>
        <time>2020-05-29T20:55:38Z</time>
      </trkpt>
      <trkpt lat="44.173058" lon="5.220152">
        <ele>1137.5</ele>
        <time>2020-05-29T20:55:39Z</time>
      </trkpt>
      <trkpt lat="44.173061" lon="5.220201">
        <ele>1138</ele>
        <time>2020-05-29T20:55:40Z</time>
      </trkpt>
      <trkpt lat="44.173065" lon="5.220264">
        <ele>1138.7</ele>
        <time>2020-05-29T20:55:41Z</time>
      </trkpt>
      <trkpt lat="44.173073" lon="5.22031">
        <ele>1139.2</ele>
        <time>2020-05-29T20:55:42Z</time>
      </trkpt>
      <trkpt lat="44.173084" lon="5.220365">
        <ele>1139.8</ele>
        <time>2020-05-29T20:55:44Z</time>
      </trkpt>
      <trkpt lat="44.173099" lon="5.220418">
        <ele>1140.3</ele>
        <time>2020-05-29T20:55:45Z</time>
      </trkpt>
      <trkpt lat="44.173119" lon="5.220459">
        <ele>1140.8</ele>
        <time>2020-05-29T20:55:46Z</time>
      </trkpt>
      <trkpt lat="44.173134" lon="5.220499">
        <ele>1141.2</ele>
        <time>2020-05-29T20:55:47Z</time>
      </trkpt>
      <trkpt lat="44.173157" lon="5.220541">
        <ele>1141.6</ele>
        <time>2020-05-29T20:55:48Z</time>
      </trkpt>
      <trkpt lat="44.17318" lon="5.220591">
        <ele>1142.1</ele>
        <time>2020-05-29T20:55:49Z</time>
      </trkpt>
      <trkpt lat="44.173206" lon="5.220641">
        <ele>1142.5</ele>
        <time>2020-05-29T20:55:50Z</time>
      </trkpt>
      <trkpt lat="44.173233" lon="5.220691">
        <ele>1142.5</ele>
        <time>2020-05-29T20:55:51Z</time>
      </trkpt>
      <trkpt lat="44.17326" lon="5.220741">
        <ele>1142.4</ele>
        <time>2020-05-29T20:55:53Z</time>
      </trkpt>
      <trkpt lat="44.17329" lon="5.22079">
        <ele>1142.4</ele>
        <time>2020-05-29T20:55:54Z</time>
      </trkpt>
      <trkpt lat="44.173321" lon="5.220837">
        <ele>1142.5</ele>
        <time>2020-05-29T20:55:55Z</time>
      </trkpt>
      <trkpt lat="44.173347" lon="5.220886">
        <ele>1142.6</ele>
        <time>2020-05-29T20:55:56Z</time>
      </trkpt>
      <trkpt lat="44.173363" lon="5.220928">
        <ele>1142.8</ele>
        <time>2020-05-29T20:55:57Z</time>
      </trkpt>
      <trkpt lat="44.173382" lon="5.220983">
        <ele>1142.9</ele>
        <time>2020-05-29T20:55:58Z</time>
      </trkpt>
      <trkpt lat="44.173393" lon="5.221044">
        <ele>1143.1</ele>
        <time>2020-05-29T20:56:00Z</time>
      </trkpt>
      <trkpt lat="44.173397" lon="5.221091">
        <ele>1143.1</ele>
        <time>2020-05-29T20:56:01Z</time>
      </trkpt>
      <trkpt lat="44.173397" lon="5.221141">
        <ele>1143.2</ele>
        <time>2020-05-29T20:56:02Z</time>
      </trkpt>
      <trkpt lat="44.173393" lon="5.221191">
        <ele>1143.2</ele>
        <time>2020-05-29T20:56:03Z</time>
      </trkpt>
      <trkpt lat="44.173386" lon="5.221247">
        <ele>1143.9</ele>
        <time>2020-05-29T20:56:04Z</time>
      </trkpt>
      <trkpt lat="44.173374" lon="5.221302">
        <ele>1144.7</ele>
        <time>2020-05-29T20:56:05Z</time>
      </trkpt>
      <trkpt lat="44.173366" lon="5.221345">
        <ele>1145.4</ele>
        <time>2020-05-29T20:56:06Z</time>
      </trkpt>
      <trkpt lat="44.173351" lon="5.221399">
        <ele>1146.4</ele>
        <time>2020-05-29T20:56:07Z</time>
      </trkpt>
      <trkpt lat="44.17334" lon="5.221442">
        <ele>1147.2</ele>
        <time>2020-05-29T20:56:08Z</time>
      </trkpt>
      <trkpt lat="44.173317" lon="5.221496">
        <ele>1148.5</ele>
        <time>2020-05-29T20:56:09Z</time>
      </trkpt>
      <trkpt lat="44.17329" lon="5.221542">
        <ele>1149.7</ele>
        <time>2020-05-29T20:56:11Z</time>
      </trkpt>
      <trkpt lat="44.173252" lon="5.22158">
        <ele>1151</ele>
        <time>2020-05-29T20:56:12Z</time>
      </trkpt>
      <trkpt lat="44.17321" lon="5.221608">
        <ele>1152.4</ele>
        <time>2020-05-29T20:56:13Z</time>
      </trkpt>
      <trkpt lat="44.173164" lon="5.221624">
        <ele>1153.8</ele>
        <time>2020-05-29T20:56:14Z</time>
      </trkpt>
      <trkpt lat="44.173126" lon="5.221631">
        <ele>1154.9</ele>
        <time>2020-05-29T20:56:15Z</time>
      </trkpt>
      <trkpt lat="44.173084" lon="5.221636">
        <ele>1156.1</ele>
        <time>2020-05-29T20:56:16Z</time>
      </trkpt>
      <trkpt lat="44.173038" lon="5.221637">
        <ele>1157.4</ele>
        <time>2020-05-29T20:56:17Z</time>
      </trkpt>
      <trkpt lat="44.172981" lon="5.221636">
        <ele>1158.9</ele>
        <time>2020-05-29T20:56:18Z</time>
      </trkpt>
      <trkpt lat="44.172932" lon="5.221633">
        <ele>1160.2</ele>
        <time>2020-05-29T20:56:20Z</time>
      </trkpt>
      <trkpt lat="44.172886" lon="5.221629">
        <ele>1161.4</ele>
        <time>2020-05-29T20:56:21Z</time>
      </trkpt>
      <trkpt lat="44.172844" lon="5.221625">
        <ele>1162.4</ele>
        <time>2020-05-29T20:56:22Z</time>
      </trkpt>
      <trkpt lat="44.172806" lon="5.221621">
        <ele>1163.4</ele>
        <time>2020-05-29T20:56:23Z</time>
      </trkpt>
      <trkpt lat="44.172764" lon="5.221616">
        <ele>1164.4</ele>
        <time>2020-05-29T20:56:24Z</time>
      </trkpt>
      <trkpt lat="44.172718" lon="5.22161">
        <ele>1165.6</ele>
        <time>2020-05-29T20:56:25Z</time>
      </trkpt>
      <trkpt lat="44.172676" lon="5.221601">
        <ele>1166.7</ele>
        <time>2020-05-29T20:56:26Z</time>
      </trkpt>
      <trkpt lat="44.172626" lon="5.221589">
        <ele>1167.9</ele>
        <time>2020-05-29T20:56:28Z</time>
      </trkpt>
      <trkpt lat="44.172584" lon="5.221576">
        <ele>1168.9</ele>
        <time>2020-05-29T20:56:29Z</time>
      </trkpt>
      <trkpt lat="44.17255" lon="5.221561">
        <ele>1169.7</ele>
        <time>2020-05-29T20:56:30Z</time>
      </trkpt>
      <trkpt lat="44.172508" lon="5.221538">
        <ele>1171.6</ele>
        <time>2020-05-29T20:56:31Z</time>
      </trkpt>
      <trkpt lat="44.172466" lon="5.221514">
        <ele>1171.7</ele>
        <time>2020-05-29T20:56:32Z</time>
      </trkpt>
      <trkpt lat="44.172432" lon="5.221492">
        <ele>1171.9</ele>
        <time>2020-05-29T20:56:33Z</time>
      </trkpt>
      <trkpt lat="44.172386" lon="5.221464">
        <ele>1172.2</ele>
        <time>2020-05-29T20:56:34Z</time>
      </trkpt>
      <trkpt lat="44.17234" lon="5.221436">
        <ele>1172.5</ele>
        <time>2020-05-29T20:56:36Z</time>
      </trkpt>
      <trkpt lat="44.172295" lon="5.221407">
        <ele>1172.9</ele>
        <time>2020-05-29T20:56:37Z</time>
      </trkpt>
      <trkpt lat="44.17226" lon="5.221384">
        <ele>1173.3</ele>
        <time>2020-05-29T20:56:38Z</time>
      </trkpt>
      <trkpt lat="44.172214" lon="5.221355">
        <ele>1173.7</ele>
        <time>2020-05-29T20:56:39Z</time>
      </trkpt>
      <trkpt lat="44.172176" lon="5.221329">
        <ele>1174.1</ele>
        <time>2020-05-29T20:56:40Z</time>
      </trkpt>
      <trkpt lat="44.172131" lon="5.221301">
        <ele>1174.5</ele>
        <time>2020-05-29T20:56:41Z</time>
      </trkpt>
      <trkpt lat="44.172089" lon="5.221271">
        <ele>1174.9</ele>
        <time>2020-05-29T20:56:43Z</time>
      </trkpt>
      <trkpt lat="44.172054" lon="5.221247">
        <ele>1175.2</ele>
        <time>2020-05-29T20:56:44Z</time>
      </trkpt>
      <trkpt lat="44.172016" lon="5.221221">
        <ele>1175.6</ele>
        <time>2020-05-29T20:56:45Z</time>
      </trkpt>
      <trkpt lat="44.171974" lon="5.221192">
        <ele>1176</ele>
        <time>2020-05-29T20:56:46Z</time>
      </trkpt>
      <trkpt lat="44.171932" lon="5.22116">
        <ele>1176.4</ele>
        <time>2020-05-29T20:56:47Z</time>
      </trkpt>
      <trkpt lat="44.171898" lon="5.22113">
        <ele>1176.7</ele>
        <time>2020-05-29T20:56:48Z</time>
      </trkpt>
      <trkpt lat="44.171856" lon="5.221094">
        <ele>1177.2</ele>
        <time>2020-05-29T20:56:49Z</time>
      </trkpt>
      <trkpt lat="44.171818" lon="5.221055">
        <ele>1177.6</ele>
        <time>2020-05-29T20:56:51Z</time>
      </trkpt>
      <trkpt lat="44.171783" lon="5.221013">
        <ele>1177.9</ele>
        <time>2020-05-29T20:56:52Z</time>
      </trkpt>
      <trkpt lat="44.171745" lon="5.220971">
        <ele>1178.3</ele>
        <time>2020-05-29T20:56:53Z</time>
      </trkpt>
      <trkpt lat="44.171711" lon="5.220926">
        <ele>1178.6</ele>
        <time>2020-05-29T20:56:54Z</time>
      </trkpt>
      <trkpt lat="44.171684" lon="5.220891">
        <ele>1178.9</ele>
        <time>2020-05-29T20:56:55Z</time>
      </trkpt>
      <trkpt lat="44.171654" lon="5.220852">
        <ele>1179.2</ele>
        <time>2020-05-29T20:56:56Z</time>
      </trkpt>
      <trkpt lat="44.171627" lon="5.220812">
        <ele>1179.5</ele>
        <time>2020-05-29T20:56:57Z</time>
      </trkpt>
      <trkpt lat="44.171596" lon="5.220763">
        <ele>1179.8</ele>
        <time>2020-05-29T20:56:58Z</time>
      </trkpt>
      <trkpt lat="44.17157" lon="5.220712">
        <ele>1180.1</ele>
        <time>2020-05-29T20:57:00Z</time>
      </trkpt>
      <trkpt lat="44.171547" lon="5.220665">
        <ele>1180.5</ele>
        <time>2020-05-29T20:57:01Z</time>
      </trkpt>
      <trkpt lat="44.171524" lon="5.220609">
        <ele>1180.8</ele>
        <time>2020-05-29T20:57:02Z</time>
      </trkpt>
      <trkpt lat="44.171497" lon="5.220551">
        <ele>1181.2</ele>
        <time>2020-05-29T20:57:03Z</time>
      </trkpt>
      <trkpt lat="44.171459" lon="5.220491">
        <ele>1181.7</ele>
        <time>2020-05-29T20:57:04Z</time>
      </trkpt>
      <trkpt lat="44.171406" lon="5.22045">
        <ele>1182.2</ele>
        <time>2020-05-29T20:57:05Z</time>
      </trkpt>
      <trkpt lat="44.171326" lon="5.220451">
        <ele>1182.9</ele>
        <time>2020-05-29T20:57:07Z</time>
      </trkpt>
      <trkpt lat="44.171276" lon="5.220491">
        <ele>1183.4</ele>
        <time>2020-05-29T20:57:08Z</time>
      </trkpt>
      <trkpt lat="44.171238" lon="5.220564">
        <ele>1183.9</ele>
        <time>2020-05-29T20:57:09Z</time>
      </trkpt>
      <trkpt lat="44.171234" lon="5.220645">
        <ele>1184.4</ele>
        <time>2020-05-29T20:57:10Z</time>
      </trkpt>
      <trkpt lat="44.171242" lon="5.220708">
        <ele>1184.8</ele>
        <time>2020-05-29T20:57:11Z</time>
      </trkpt>
      <trkpt lat="44.171257" lon="5.220764">
        <ele>1185.1</ele>
        <time>2020-05-29T20:57:12Z</time>
      </trkpt>
      <trkpt lat="44.171272" lon="5.220817">
        <ele>1185.4</ele>
        <time>2020-05-29T20:57:13Z</time>
      </trkpt>
      <trkpt lat="44.171291" lon="5.220877">
        <ele>1185.8</ele>
        <time>2020-05-29T20:57:14Z</time>
      </trkpt>
      <trkpt lat="44.17131" lon="5.220927">
        <ele>1186.2</ele>
        <time>2020-05-29T20:57:15Z</time>
      </trkpt>
      <trkpt lat="44.171329" lon="5.220985">
        <ele>1186.6</ele>
        <time>2020-05-29T20:57:16Z</time>
      </trkpt>
      <trkpt lat="44.171349" lon="5.221033">
        <ele>1186.9</ele>
        <time>2020-05-29T20:57:17Z</time>
      </trkpt>
      <trkpt lat="44.171364" lon="5.221082">
        <ele>1187.2</ele>
        <time>2020-05-29T20:57:18Z</time>
      </trkpt>
      <trkpt lat="44.171383" lon="5.221126">
        <ele>1187.5</ele>
        <time>2020-05-29T20:57:19Z</time>
      </trkpt>
      <trkpt lat="44.171398" lon="5.221172">
        <ele>1187.8</ele>
        <time>2020-05-29T20:57:20Z</time>
      </trkpt>
      <trkpt lat="44.171421" lon="5.221225">
        <ele>1188</ele>
        <time>2020-05-29T20:57:22Z</time>
      </trkpt>
      <trkpt lat="44.17144" lon="5.221278">
        <ele>1188.3</ele>
        <time>2020-05-29T20:57:23Z</time>
      </trkpt>
      <trkpt lat="44.171463" lon="5.22133">
        <ele>1188.5</ele>
        <time>2020-05-29T20:57:24Z</time>
      </trkpt>
      <trkpt lat="44.171482" lon="5.221383">
        <ele>1188.8</ele>
        <time>2020-05-29T20:57:25Z</time>
      </trkpt>
      <trkpt lat="44.171505" lon="5.221436">
        <ele>1188.8</ele>
        <time>2020-05-29T20:57:26Z</time>
      </trkpt>
      <trkpt lat="44.171528" lon="5.221483">
        <ele>1189</ele>
        <time>2020-05-29T20:57:27Z</time>
      </trkpt>
      <trkpt lat="44.171551" lon="5.221538">
        <ele>1189.2</ele>
        <time>2020-05-29T20:57:29Z</time>
      </trkpt>
      <trkpt lat="44.171574" lon="5.221594">
        <ele>1189.6</ele>
        <time>2020-05-29T20:57:30Z</time>
      </trkpt>
      <trkpt lat="44.171596" lon="5.221643">
        <ele>1190</ele>
        <time>2020-05-29T20:57:31Z</time>
      </trkpt>
      <trkpt lat="44.171616" lon="5.221693">
        <ele>1190.4</ele>
        <time>2020-05-29T20:57:32Z</time>
      </trkpt>
      <trkpt lat="44.171642" lon="5.22175">
        <ele>1190.9</ele>
        <time>2020-05-29T20:57:33Z</time>
      </trkpt>
      <trkpt lat="44.171665" lon="5.221811">
        <ele>1191.4</ele>
        <time>2020-05-29T20:57:34Z</time>
      </trkpt>
      <trkpt lat="44.171688" lon="5.221868">
        <ele>1191.9</ele>
        <time>2020-05-29T20:57:35Z</time>
      </trkpt>
      <trkpt lat="44.171711" lon="5.221924">
        <ele>1192.4</ele>
        <time>2020-05-29T20:57:37Z</time>
      </trkpt>
      <trkpt lat="44.17173" lon="5.221971">
        <ele>1192.8</ele>
        <time>2020-05-29T20:57:38Z</time>
      </trkpt>
      <trkpt lat="44.171749" lon="5.222022">
        <ele>1193.2</ele>
        <time>2020-05-29T20:57:39Z</time>
      </trkpt>
      <trkpt lat="44.171768" lon="5.222068">
        <ele>1193.6</ele>
        <time>2020-05-29T20:57:40Z</time>
      </trkpt>
      <trkpt lat="44.171783" lon="5.222111">
        <ele>1194</ele>
        <time>2020-05-29T20:57:41Z</time>
      </trkpt>
      <trkpt lat="44.171803" lon="5.222158">
        <ele>1194.4</ele>
        <time>2020-05-29T20:57:42Z</time>
      </trkpt>
      <trkpt lat="44.171822" lon="5.222212">
        <ele>1194.9</ele>
        <time>2020-05-29T20:57:43Z</time>
      </trkpt>
      <trkpt lat="44.171841" lon="5.222265">
        <ele>1195.4</ele>
        <time>2020-05-29T20:57:44Z</time>
      </trkpt>
      <trkpt lat="44.17186" lon="5.222318">
        <ele>1195.8</ele>
        <time>2020-05-29T20:57:45Z</time>
      </trkpt>
      <trkpt lat="44.171879" lon="5.22237">
        <ele>1196.3</ele>
        <time>2020-05-29T20:57:47Z</time>
      </trkpt>
      <trkpt lat="44.171898" lon="5.222423">
        <ele>1196.7</ele>
        <time>2020-05-29T20:57:48Z</time>
      </trkpt>
      <trkpt lat="44.171917" lon="5.222475">
        <ele>1197.2</ele>
        <time>2020-05-29T20:57:49Z</time>
      </trkpt>
      <trkpt lat="44.171932" lon="5.222517">
        <ele>1197.6</ele>
        <time>2020-05-29T20:57:50Z</time>
      </trkpt>
      <trkpt lat="44.171947" lon="5.222563">
        <ele>1198</ele>
        <time>2020-05-29T20:57:51Z</time>
      </trkpt>
      <trkpt lat="44.171967" lon="5.222616">
        <ele>1198.4</ele>
        <time>2020-05-29T20:57:52Z</time>
      </trkpt>
      <trkpt lat="44.171986" lon="5.222669">
        <ele>1198.9</ele>
        <time>2020-05-29T20:57:54Z</time>
      </trkpt>
      <trkpt lat="44.172005" lon="5.222722">
        <ele>1199.3</ele>
        <time>2020-05-29T20:57:55Z</time>
      </trkpt>
      <trkpt lat="44.17202" lon="5.222776">
        <ele>1199.7</ele>
        <time>2020-05-29T20:57:56Z</time>
      </trkpt>
      <trkpt lat="44.172035" lon="5.222819">
        <ele>1200.1</ele>
        <time>2020-05-29T20:57:57Z</time>
      </trkpt>
      <trkpt lat="44.17205" lon="5.222866">
        <ele>1200.4</ele>
        <time>2020-05-29T20:57:58Z</time>
      </trkpt>
      <trkpt lat="44.172066" lon="5.222913">
        <ele>1200.8</ele>
        <time>2020-05-29T20:57:59Z</time>
      </trkpt>
      <trkpt lat="44.172081" lon="5.222968">
        <ele>1201.2</ele>
        <time>2020-05-29T20:58:00Z</time>
      </trkpt>
      <trkpt lat="44.1721" lon="5.223024">
        <ele>1201.7</ele>
        <time>2020-05-29T20:58:01Z</time>
      </trkpt>
      <trkpt lat="44.172119" lon="5.22308">
        <ele>1202.1</ele>
        <time>2020-05-29T20:58:03Z</time>
      </trkpt>
      <trkpt lat="44.172134" lon="5.223135">
        <ele>1202.6</ele>
        <time>2020-05-29T20:58:04Z</time>
      </trkpt>
      <trkpt lat="44.172153" lon="5.22319">
        <ele>1203.1</ele>
        <time>2020-05-29T20:58:05Z</time>
      </trkpt>
      <trkpt lat="44.172169" lon="5.223245">
        <ele>1203.5</ele>
        <time>2020-05-29T20:58:06Z</time>
      </trkpt>
      <trkpt lat="44.172188" lon="5.2233">
        <ele>1204</ele>
        <time>2020-05-29T20:58:07Z</time>
      </trkpt>
      <trkpt lat="44.172207" lon="5.223354">
        <ele>1204.5</ele>
        <time>2020-05-29T20:58:09Z</time>
      </trkpt>
      <trkpt lat="44.172226" lon="5.223409">
        <ele>1204.9</ele>
        <time>2020-05-29T20:58:10Z</time>
      </trkpt>
      <trkpt lat="44.172241" lon="5.223463">
        <ele>1205.3</ele>
        <time>2020-05-29T20:58:11Z</time>
      </trkpt>
      <trkpt lat="44.172264" lon="5.223524">
        <ele>1205.8</ele>
        <time>2020-05-29T20:58:12Z</time>
      </trkpt>
      <trkpt lat="44.172283" lon="5.223583">
        <ele>1206.3</ele>
        <time>2020-05-29T20:58:13Z</time>
      </trkpt>
      <trkpt lat="44.172302" lon="5.223641">
        <ele>1206.7</ele>
        <time>2020-05-29T20:58:15Z</time>
      </trkpt>
      <trkpt lat="44.172325" lon="5.223702">
        <ele>1207.2</ele>
        <time>2020-05-29T20:58:16Z</time>
      </trkpt>
      <trkpt lat="44.172344" lon="5.223757">
        <ele>1207.7</ele>
        <time>2020-05-29T20:58:17Z</time>
      </trkpt>
      <trkpt lat="44.172363" lon="5.223805">
        <ele>1208.1</ele>
        <time>2020-05-29T20:58:18Z</time>
      </trkpt>
      <trkpt lat="44.172386" lon="5.223861">
        <ele>1208.5</ele>
        <time>2020-05-29T20:58:19Z</time>
      </trkpt>
      <trkpt lat="44.172409" lon="5.223918">
        <ele>1209</ele>
        <time>2020-05-29T20:58:20Z</time>
      </trkpt>
      <trkpt lat="44.172432" lon="5.223979">
        <ele>1209.5</ele>
        <time>2020-05-29T20:58:22Z</time>
      </trkpt>
      <trkpt lat="44.172455" lon="5.22403">
        <ele>1210</ele>
        <time>2020-05-29T20:58:23Z</time>
      </trkpt>
      <trkpt lat="44.172482" lon="5.224088">
        <ele>1210.5</ele>
        <time>2020-05-29T20:58:24Z</time>
      </trkpt>
      <trkpt lat="44.172504" lon="5.224143">
        <ele>1210.9</ele>
        <time>2020-05-29T20:58:25Z</time>
      </trkpt>
      <trkpt lat="44.172527" lon="5.224189">
        <ele>1211.3</ele>
        <time>2020-05-29T20:58:26Z</time>
      </trkpt>
      <trkpt lat="44.172554" lon="5.224241">
        <ele>1211.8</ele>
        <time>2020-05-29T20:58:27Z</time>
      </trkpt>
      <trkpt lat="44.172577" lon="5.224292">
        <ele>1212.2</ele>
        <time>2020-05-29T20:58:28Z</time>
      </trkpt>
      <trkpt lat="44.1726" lon="5.224337">
        <ele>1212.7</ele>
        <time>2020-05-29T20:58:29Z</time>
      </trkpt>
      <trkpt lat="44.172623" lon="5.224385">
        <ele>1213.1</ele>
        <time>2020-05-29T20:58:31Z</time>
      </trkpt>
      <trkpt lat="44.172646" lon="5.224431">
        <ele>1213.6</ele>
        <time>2020-05-29T20:58:32Z</time>
      </trkpt>
      <trkpt lat="44.172672" lon="5.224482">
        <ele>1214.1</ele>
        <time>2020-05-29T20:58:33Z</time>
      </trkpt>
      <trkpt lat="44.172691" lon="5.224523">
        <ele>1214.4</ele>
        <time>2020-05-29T20:58:34Z</time>
      </trkpt>
      <trkpt lat="44.172722" lon="5.224579">
        <ele>1215</ele>
        <time>2020-05-29T20:58:35Z</time>
      </trkpt>
      <trkpt lat="44.172745" lon="5.224632">
        <ele>1215.5</ele>
        <time>2020-05-29T20:58:36Z</time>
      </trkpt>
      <trkpt lat="44.172768" lon="5.224684">
        <ele>1216</ele>
        <time>2020-05-29T20:58:37Z</time>
      </trkpt>
      <trkpt lat="44.17279" lon="5.224743">
        <ele>1216.5</ele>
        <time>2020-05-29T20:58:39Z</time>
      </trkpt>
      <trkpt lat="44.17281" lon="5.224801">
        <ele>1217.1</ele>
        <time>2020-05-29T20:58:40Z</time>
      </trkpt>
      <trkpt lat="44.172829" lon="5.224858">
        <ele>1217.6</ele>
        <time>2020-05-29T20:58:41Z</time>
      </trkpt>
      <trkpt lat="44.172844" lon="5.224919">
        <ele>1218.2</ele>
        <time>2020-05-29T20:58:42Z</time>
      </trkpt>
      <trkpt lat="44.172859" lon="5.224964">
        <ele>1218.6</ele>
        <time>2020-05-29T20:58:43Z</time>
      </trkpt>
      <trkpt lat="44.172874" lon="5.225021">
        <ele>1219.1</ele>
        <time>2020-05-29T20:58:44Z</time>
      </trkpt>
      <trkpt lat="44.172886" lon="5.225069">
        <ele>1219.6</ele>
        <time>2020-05-29T20:58:45Z</time>
      </trkpt>
      <trkpt lat="44.172901" lon="5.225124">
        <ele>1220.1</ele>
        <time>2020-05-29T20:58:47Z</time>
      </trkpt>
      <trkpt lat="44.172916" lon="5.22518">
        <ele>1220.6</ele>
        <time>2020-05-29T20:58:48Z</time>
      </trkpt>
      <trkpt lat="44.172932" lon="5.225227">
        <ele>1221.1</ele>
        <time>2020-05-29T20:58:49Z</time>
      </trkpt>
      <trkpt lat="44.172943" lon="5.225271">
        <ele>1221.4</ele>
        <time>2020-05-29T20:58:50Z</time>
      </trkpt>
      <trkpt lat="44.172955" lon="5.225321">
        <ele>1221.9</ele>
        <time>2020-05-29T20:58:51Z</time>
      </trkpt>
      <trkpt lat="44.17297" lon="5.225372">
        <ele>1222.3</ele>
        <time>2020-05-29T20:58:52Z</time>
      </trkpt>
      <trkpt lat="44.172981" lon="5.225429">
        <ele>1222.8</ele>
        <time>2020-05-29T20:58:53Z</time>
      </trkpt>
      <trkpt lat="44.172997" lon="5.225483">
        <ele>1223.3</ele>
        <time>2020-05-29T20:58:54Z</time>
      </trkpt>
      <trkpt lat="44.173008" lon="5.225524">
        <ele>1223.7</ele>
        <time>2020-05-29T20:58:55Z</time>
      </trkpt>
      <trkpt lat="44.173019" lon="5.225574">
        <ele>1224.2</ele>
        <time>2020-05-29T20:58:56Z</time>
      </trkpt>
      <trkpt lat="44.173027" lon="5.225613">
        <ele>1224.5</ele>
        <time>2020-05-29T20:58:57Z</time>
      </trkpt>
      <trkpt lat="44.173038" lon="5.225663">
        <ele>1224.9</ele>
        <time>2020-05-29T20:58:59Z</time>
      </trkpt>
      <trkpt lat="44.17305" lon="5.225713">
        <ele>1225.4</ele>
        <time>2020-05-29T20:59:00Z</time>
      </trkpt>
      <trkpt lat="44.173061" lon="5.225753">
        <ele>1225.8</ele>
        <time>2020-05-29T20:59:01Z</time>
      </trkpt>
      <trkpt lat="44.173069" lon="5.225793">
        <ele>1226.1</ele>
        <time>2020-05-29T20:59:02Z</time>
      </trkpt>
      <trkpt lat="44.17308" lon="5.225843">
        <ele>1226.6</ele>
        <time>2020-05-29T20:59:03Z</time>
      </trkpt>
      <trkpt lat="44.173088" lon="5.225882">
        <ele>1226.9</ele>
        <time>2020-05-29T20:59:04Z</time>
      </trkpt>
      <trkpt lat="44.173099" lon="5.225926">
        <ele>1227.4</ele>
        <time>2020-05-29T20:59:05Z</time>
      </trkpt>
      <trkpt lat="44.173111" lon="5.225974">
        <ele>1227.8</ele>
        <time>2020-05-29T20:59:06Z</time>
      </trkpt>
      <trkpt lat="44.173119" lon="5.226022">
        <ele>1228.2</ele>
        <time>2020-05-29T20:59:08Z</time>
      </trkpt>
      <trkpt lat="44.173126" lon="5.226061">
        <ele>1228.6</ele>
        <time>2020-05-29T20:59:09Z</time>
      </trkpt>
      <trkpt lat="44.173138" lon="5.226101">
        <ele>1229</ele>
        <time>2020-05-29T20:59:10Z</time>
      </trkpt>
      <trkpt lat="44.173145" lon="5.226147">
        <ele>1229.4</ele>
        <time>2020-05-29T20:59:11Z</time>
      </trkpt>
      <trkpt lat="44.173157" lon="5.226196">
        <ele>1229.8</ele>
        <time>2020-05-29T20:59:12Z</time>
      </trkpt>
      <trkpt lat="44.173168" lon="5.226241">
        <ele>1230.2</ele>
        <time>2020-05-29T20:59:13Z</time>
      </trkpt>
      <trkpt lat="44.173176" lon="5.226279">
        <ele>1230.6</ele>
        <time>2020-05-29T20:59:14Z</time>
      </trkpt>
      <trkpt lat="44.173183" lon="5.226327">
        <ele>1231</ele>
        <time>2020-05-29T20:59:15Z</time>
      </trkpt>
      <trkpt lat="44.173195" lon="5.226371">
        <ele>1231.4</ele>
        <time>2020-05-29T20:59:17Z</time>
      </trkpt>
      <trkpt lat="44.173206" lon="5.22642">
        <ele>1231.8</ele>
        <time>2020-05-29T20:59:18Z</time>
      </trkpt>
      <trkpt lat="44.173214" lon="5.226459">
        <ele>1232.2</ele>
        <time>2020-05-29T20:59:19Z</time>
      </trkpt>
      <trkpt lat="44.173222" lon="5.226499">
        <ele>1232.5</ele>
        <time>2020-05-29T20:59:20Z</time>
      </trkpt>
      <trkpt lat="44.173233" lon="5.226549">
        <ele>1233</ele>
        <time>2020-05-29T20:59:21Z</time>
      </trkpt>
      <trkpt lat="44.173244" lon="5.2266">
        <ele>1233.4</ele>
        <time>2020-05-29T20:59:22Z</time>
      </trkpt>
      <trkpt lat="44.173256" lon="5.226648">
        <ele>1233.9</ele>
        <time>2020-05-29T20:59:23Z</time>
      </trkpt>
      <trkpt lat="44.173263" lon="5.226693">
        <ele>1234.3</ele>
        <time>2020-05-29T20:59:24Z</time>
      </trkpt>
      <trkpt lat="44.173275" lon="5.226734">
        <ele>1234.6</ele>
        <time>2020-05-29T20:59:25Z</time>
      </trkpt>
      <trkpt lat="44.173286" lon="5.226785">
        <ele>1235.1</ele>
        <time>2020-05-29T20:59:27Z</time>
      </trkpt>
      <trkpt lat="44.173294" lon="5.226826">
        <ele>1235.4</ele>
        <time>2020-05-29T20:59:28Z</time>
      </trkpt>
      <trkpt lat="44.173305" lon="5.226875">
        <ele>1235.8</ele>
        <time>2020-05-29T20:59:29Z</time>
      </trkpt>
      <trkpt lat="44.173313" lon="5.226916">
        <ele>1236.2</ele>
        <time>2020-05-29T20:59:30Z</time>
      </trkpt>
      <trkpt lat="44.173325" lon="5.226957">
        <ele>1236.5</ele>
        <time>2020-05-29T20:59:31Z</time>
      </trkpt>
      <trkpt lat="44.173332" lon="5.227004">
        <ele>1236.9</ele>
        <time>2020-05-29T20:59:32Z</time>
      </trkpt>
      <trkpt lat="44.173344" lon="5.227057">
        <ele>1237.4</ele>
        <time>2020-05-29T20:59:33Z</time>
      </trkpt>
      <trkpt lat="44.173359" lon="5.227111">
        <ele>1237.9</ele>
        <time>2020-05-29T20:59:34Z</time>
      </trkpt>
      <trkpt lat="44.17337" lon="5.227163">
        <ele>1238.3</ele>
        <time>2020-05-29T20:59:35Z</time>
      </trkpt>
      <trkpt lat="44.173382" lon="5.227211">
        <ele>1238.7</ele>
        <time>2020-05-29T20:59:36Z</time>
      </trkpt>
      <trkpt lat="44.173393" lon="5.227267">
        <ele>1239.2</ele>
        <time>2020-05-29T20:59:38Z</time>
      </trkpt>
      <trkpt lat="44.173408" lon="5.227323">
        <ele>1239.7</ele>
        <time>2020-05-29T20:59:39Z</time>
      </trkpt>
      <trkpt lat="44.173424" lon="5.227383">
        <ele>1240.2</ele>
        <time>2020-05-29T20:59:40Z</time>
      </trkpt>
      <trkpt lat="44.173439" lon="5.227442">
        <ele>1240.7</ele>
        <time>2020-05-29T20:59:41Z</time>
      </trkpt>
      <trkpt lat="44.173458" lon="5.227506">
        <ele>1241.3</ele>
        <time>2020-05-29T20:59:42Z</time>
      </trkpt>
      <trkpt lat="44.173477" lon="5.227564">
        <ele>1241.8</ele>
        <time>2020-05-29T20:59:44Z</time>
      </trkpt>
      <trkpt lat="44.173496" lon="5.227622">
        <ele>1242.3</ele>
        <time>2020-05-29T20:59:45Z</time>
      </trkpt>
      <trkpt lat="44.173511" lon="5.227671">
        <ele>1242.8</ele>
        <time>2020-05-29T20:59:46Z</time>
      </trkpt>
      <trkpt lat="44.173531" lon="5.227727">
        <ele>1243.3</ele>
        <time>2020-05-29T20:59:47Z</time>
      </trkpt>
      <trkpt lat="44.173546" lon="5.227776">
        <ele>1243.7</ele>
        <time>2020-05-29T20:59:48Z</time>
      </trkpt>
      <trkpt lat="44.173565" lon="5.227831">
        <ele>1244.2</ele>
        <time>2020-05-29T20:59:49Z</time>
      </trkpt>
      <trkpt lat="44.17358" lon="5.227875">
        <ele>1244.6</ele>
        <time>2020-05-29T20:59:50Z</time>
      </trkpt>
      <trkpt lat="44.173599" lon="5.227928">
        <ele>1245.1</ele>
        <time>2020-05-29T20:59:51Z</time>
      </trkpt>
      <trkpt lat="44.173618" lon="5.227981">
        <ele>1245.6</ele>
        <time>2020-05-29T20:59:53Z</time>
      </trkpt>
      <trkpt lat="44.173634" lon="5.228023">
        <ele>1245.9</ele>
        <time>2020-05-29T20:59:54Z</time>
      </trkpt>
      <trkpt lat="44.173649" lon="5.228069">
        <ele>1246.3</ele>
        <time>2020-05-29T20:59:55Z</time>
      </trkpt>
      <trkpt lat="44.173668" lon="5.228121">
        <ele>1246.8</ele>
        <time>2020-05-29T20:59:56Z</time>
      </trkpt>
      <trkpt lat="44.173687" lon="5.228175">
        <ele>1247.3</ele>
        <time>2020-05-29T20:59:57Z</time>
      </trkpt>
      <trkpt lat="44.173706" lon="5.228228">
        <ele>1247.7</ele>
        <time>2020-05-29T20:59:58Z</time>
      </trkpt>
      <trkpt lat="44.173725" lon="5.228282">
        <ele>1248.2</ele>
        <time>2020-05-29T20:59:59Z</time>
      </trkpt>
      <trkpt lat="44.173744" lon="5.228337">
        <ele>1248.6</ele>
        <time>2020-05-29T21:00:01Z</time>
      </trkpt>
      <trkpt lat="44.173767" lon="5.228392">
        <ele>1249.1</ele>
        <time>2020-05-29T21:00:02Z</time>
      </trkpt>
      <trkpt lat="44.173786" lon="5.228448">
        <ele>1249.6</ele>
        <time>2020-05-29T21:00:03Z</time>
      </trkpt>
      <trkpt lat="44.173809" lon="5.228505">
        <ele>1250.1</ele>
        <time>2020-05-29T21:00:04Z</time>
      </trkpt>
      <trkpt lat="44.173832" lon="5.228563">
        <ele>1250.7</ele>
        <time>2020-05-29T21:00:05Z</time>
      </trkpt>
      <trkpt lat="44.173859" lon="5.228623">
        <ele>1251.3</ele>
        <time>2020-05-29T21:00:07Z</time>
      </trkpt>
      <trkpt lat="44.173881" lon="5.22868">
        <ele>1251.8</ele>
        <time>2020-05-29T21:00:08Z</time>
      </trkpt>
      <trkpt lat="44.173904" lon="5.228739">
        <ele>1252.4</ele>
        <time>2020-05-29T21:00:09Z</time>
      </trkpt>
      <trkpt lat="44.173923" lon="5.228784">
        <ele>1252.8</ele>
        <time>2020-05-29T21:00:10Z</time>
      </trkpt>
      <trkpt lat="44.173942" lon="5.228831">
        <ele>1253.2</ele>
        <time>2020-05-29T21:00:11Z</time>
      </trkpt>
      <trkpt lat="44.173965" lon="5.228885">
        <ele>1253.8</ele>
        <time>2020-05-29T21:00:12Z</time>
      </trkpt>
      <trkpt lat="44.173988" lon="5.228932">
        <ele>1254.2</ele>
        <time>2020-05-29T21:00:13Z</time>
      </trkpt>
      <trkpt lat="44.174015" lon="5.228987">
        <ele>1254.8</ele>
        <time>2020-05-29T21:00:14Z</time>
      </trkpt>
      <trkpt lat="44.174034" lon="5.229033">
        <ele>1255.2</ele>
        <time>2020-05-29T21:00:15Z</time>
      </trkpt>
      <trkpt lat="44.174057" lon="5.22908">
        <ele>1255.7</ele>
        <time>2020-05-29T21:00:16Z</time>
      </trkpt>
      <trkpt lat="44.174087" lon="5.22914">
        <ele>1256.3</ele>
        <time>2020-05-29T21:00:18Z</time>
      </trkpt>
      <trkpt lat="44.17411" lon="5.229184">
        <ele>1256.7</ele>
        <time>2020-05-29T21:00:19Z</time>
      </trkpt>
      <trkpt lat="44.174137" lon="5.22924">
        <ele>1257.3</ele>
        <time>2020-05-29T21:00:20Z</time>
      </trkpt>
      <trkpt lat="44.17416" lon="5.229286">
        <ele>1257.7</ele>
        <time>2020-05-29T21:00:21Z</time>
      </trkpt>
      <trkpt lat="44.174187" lon="5.229334">
        <ele>1258.2</ele>
        <time>2020-05-29T21:00:22Z</time>
      </trkpt>
      <trkpt lat="44.17421" lon="5.229376">
        <ele>1258.7</ele>
        <time>2020-05-29T21:00:23Z</time>
      </trkpt>
      <trkpt lat="44.174229" lon="5.229414">
        <ele>1259</ele>
        <time>2020-05-29T21:00:24Z</time>
      </trkpt>
      <trkpt lat="44.174255" lon="5.229464">
        <ele>1259.6</ele>
        <time>2020-05-29T21:00:25Z</time>
      </trkpt>
      <trkpt lat="44.174278" lon="5.229514">
        <ele>1260.1</ele>
        <time>2020-05-29T21:00:27Z</time>
      </trkpt>
      <trkpt lat="44.174305" lon="5.229563">
        <ele>1260.6</ele>
        <time>2020-05-29T21:00:28Z</time>
      </trkpt>
      <trkpt lat="44.174332" lon="5.229612">
        <ele>1261.1</ele>
        <time>2020-05-29T21:00:29Z</time>
      </trkpt>
      <trkpt lat="44.174358" lon="5.229661">
        <ele>1261.6</ele>
        <time>2020-05-29T21:00:30Z</time>
      </trkpt>
      <trkpt lat="44.174377" lon="5.2297">
        <ele>1262</ele>
        <time>2020-05-29T21:00:31Z</time>
      </trkpt>
      <trkpt lat="44.174404" lon="5.22975">
        <ele>1262.5</ele>
        <time>2020-05-29T21:00:32Z</time>
      </trkpt>
      <trkpt lat="44.174427" lon="5.229793">
        <ele>1263</ele>
        <time>2020-05-29T21:00:33Z</time>
      </trkpt>
      <trkpt lat="44.17445" lon="5.229832">
        <ele>1263.4</ele>
        <time>2020-05-29T21:00:34Z</time>
      </trkpt>
      <trkpt lat="44.174477" lon="5.229881">
        <ele>1263.8</ele>
        <time>2020-05-29T21:00:36Z</time>
      </trkpt>
      <trkpt lat="44.174499" lon="5.22993">
        <ele>1264.3</ele>
        <time>2020-05-29T21:00:37Z</time>
      </trkpt>
      <trkpt lat="44.174522" lon="5.229974">
        <ele>1264.7</ele>
        <time>2020-05-29T21:00:38Z</time>
      </trkpt>
      <trkpt lat="44.174553" lon="5.230024">
        <ele>1265.3</ele>
        <time>2020-05-29T21:00:39Z</time>
      </trkpt>
      <trkpt lat="44.17458" lon="5.230075">
        <ele>1265.7</ele>
        <time>2020-05-29T21:00:40Z</time>
      </trkpt>
      <trkpt lat="44.174606" lon="5.230126">
        <ele>1266.2</ele>
        <time>2020-05-29T21:00:41Z</time>
      </trkpt>
      <trkpt lat="44.174633" lon="5.230178">
        <ele>1266.7</ele>
        <time>2020-05-29T21:00:43Z</time>
      </trkpt>
      <trkpt lat="44.17466" lon="5.230229">
        <ele>1267.3</ele>
        <time>2020-05-29T21:00:44Z</time>
      </trkpt>
      <trkpt lat="44.17469" lon="5.230285">
        <ele>1267.8</ele>
        <time>2020-05-29T21:00:45Z</time>
      </trkpt>
      <trkpt lat="44.174709" lon="5.230326">
        <ele>1268.2</ele>
        <time>2020-05-29T21:00:46Z</time>
      </trkpt>
      <trkpt lat="44.174736" lon="5.230377">
        <ele>1268.8</ele>
        <time>2020-05-29T21:00:47Z</time>
      </trkpt>
      <trkpt lat="44.174755" lon="5.230417">
        <ele>1269.2</ele>
        <time>2020-05-29T21:00:48Z</time>
      </trkpt>
      <trkpt lat="44.174782" lon="5.230465">
        <ele>1269.7</ele>
        <time>2020-05-29T21:00:49Z</time>
      </trkpt>
      <trkpt lat="44.174808" lon="5.23051">
        <ele>1270.2</ele>
        <time>2020-05-29T21:00:51Z</time>
      </trkpt>
      <trkpt lat="44.174828" lon="5.230545">
        <ele>1270.6</ele>
        <time>2020-05-29T21:00:52Z</time>
      </trkpt>
      <trkpt lat="44.174847" lon="5.230578">
        <ele>1271</ele>
        <time>2020-05-29T21:00:53Z</time>
      </trkpt>
      <trkpt lat="44.174866" lon="5.23061">
        <ele>1271.4</ele>
        <time>2020-05-29T21:00:54Z</time>
      </trkpt>
      <trkpt lat="44.174885" lon="5.230648">
        <ele>1271.8</ele>
        <time>2020-05-29T21:00:55Z</time>
      </trkpt>
      <trkpt lat="44.174908" lon="5.230691">
        <ele>1272.3</ele>
        <time>2020-05-29T21:00:56Z</time>
      </trkpt>
      <trkpt lat="44.174927" lon="5.230733">
        <ele>1272.7</ele>
        <time>2020-05-29T21:00:57Z</time>
      </trkpt>
      <trkpt lat="44.17495" lon="5.230775">
        <ele>1273.1</ele>
        <time>2020-05-29T21:00:58Z</time>
      </trkpt>
      <trkpt lat="44.174965" lon="5.230814">
        <ele>1273.5</ele>
        <time>2020-05-29T21:00:59Z</time>
      </trkpt>
      <trkpt lat="44.174992" lon="5.230864">
        <ele>1274</ele>
        <time>2020-05-29T21:01:00Z</time>
      </trkpt>
      <trkpt lat="44.175014" lon="5.230913">
        <ele>1274.5</ele>
        <time>2020-05-29T21:01:02Z</time>
      </trkpt>
      <trkpt lat="44.175034" lon="5.230963">
        <ele>1275</ele>
        <time>2020-05-29T21:01:03Z</time>
      </trkpt>
      <trkpt lat="44.175056" lon="5.231013">
        <ele>1275.5</ele>
        <time>2020-05-29T21:01:04Z</time>
      </trkpt>
      <trkpt lat="44.175075" lon="5.231065">
        <ele>1275.9</ele>
        <time>2020-05-29T21:01:05Z</time>
      </trkpt>
      <trkpt lat="44.175098" lon="5.231118">
        <ele>1276.5</ele>
        <time>2020-05-29T21:01:06Z</time>
      </trkpt>
      <trkpt lat="44.175117" lon="5.231171">
        <ele>1277</ele>
        <time>2020-05-29T21:01:08Z</time>
      </trkpt>
      <trkpt lat="44.175136" lon="5.231228">
        <ele>1277.5</ele>
        <time>2020-05-29T21:01:09Z</time>
      </trkpt>
      <trkpt lat="44.175156" lon="5.231281">
        <ele>1278</ele>
        <time>2020-05-29T21:01:10Z</time>
      </trkpt>
      <trkpt lat="44.175171" lon="5.231324">
        <ele>1278.4</ele>
        <time>2020-05-29T21:01:11Z</time>
      </trkpt>
      <trkpt lat="44.17519" lon="5.231378">
        <ele>1278.9</ele>
        <time>2020-05-29T21:01:12Z</time>
      </trkpt>
      <trkpt lat="44.175209" lon="5.231431">
        <ele>1279.3</ele>
        <time>2020-05-29T21:01:13Z</time>
      </trkpt>
      <trkpt lat="44.175224" lon="5.231479">
        <ele>1279.8</ele>
        <time>2020-05-29T21:01:14Z</time>
      </trkpt>
      <trkpt lat="44.17524" lon="5.231526">
        <ele>1280.2</ele>
        <time>2020-05-29T21:01:15Z</time>
      </trkpt>
      <trkpt lat="44.175255" lon="5.231569">
        <ele>1280.6</ele>
        <time>2020-05-29T21:01:16Z</time>
      </trkpt>
      <trkpt lat="44.175266" lon="5.231616">
        <ele>1281</ele>
        <time>2020-05-29T21:01:17Z</time>
      </trkpt>
      <trkpt lat="44.175278" lon="5.23166">
        <ele>1281.4</ele>
        <time>2020-05-29T21:01:18Z</time>
      </trkpt>
      <trkpt lat="44.175293" lon="5.231715">
        <ele>1281.9</ele>
        <time>2020-05-29T21:01:20Z</time>
      </trkpt>
      <trkpt lat="44.175304" lon="5.231761">
        <ele>1282.3</ele>
        <time>2020-05-29T21:01:21Z</time>
      </trkpt>
      <trkpt lat="44.175316" lon="5.231811">
        <ele>1282.8</ele>
        <time>2020-05-29T21:01:22Z</time>
      </trkpt>
      <trkpt lat="44.175327" lon="5.231857">
        <ele>1283.2</ele>
        <time>2020-05-29T21:01:23Z</time>
      </trkpt>
      <trkpt lat="44.175339" lon="5.23191">
        <ele>1283.7</ele>
        <time>2020-05-29T21:01:24Z</time>
      </trkpt>
      <trkpt lat="44.175354" lon="5.231964">
        <ele>1284.1</ele>
        <time>2020-05-29T21:01:25Z</time>
      </trkpt>
      <trkpt lat="44.175365" lon="5.232016">
        <ele>1284.6</ele>
        <time>2020-05-29T21:01:26Z</time>
      </trkpt>
      <trkpt lat="44.175373" lon="5.232057">
        <ele>1284.9</ele>
        <time>2020-05-29T21:01:27Z</time>
      </trkpt>
      <trkpt lat="44.175385" lon="5.232108">
        <ele>1285.3</ele>
        <time>2020-05-29T21:01:29Z</time>
      </trkpt>
      <trkpt lat="44.175396" lon="5.232149">
        <ele>1285.6</ele>
        <time>2020-05-29T21:01:30Z</time>
      </trkpt>
      <trkpt lat="44.175407" lon="5.232198">
        <ele>1285.9</ele>
        <time>2020-05-29T21:01:31Z</time>
      </trkpt>
      <trkpt lat="44.175415" lon="5.232237">
        <ele>1286.1</ele>
        <time>2020-05-29T21:01:32Z</time>
      </trkpt>
      <trkpt lat="44.175426" lon="5.232287">
        <ele>1286.4</ele>
        <time>2020-05-29T21:01:33Z</time>
      </trkpt>
      <trkpt lat="44.175434" lon="5.232328">
        <ele>1286.6</ele>
        <time>2020-05-29T21:01:34Z</time>
      </trkpt>
      <trkpt lat="44.175446" lon="5.232377">
        <ele>1286.7</ele>
        <time>2020-05-29T21:01:35Z</time>
      </trkpt>
      <trkpt lat="44.175461" lon="5.232434">
        <ele>1286.8</ele>
        <time>2020-05-29T21:01:36Z</time>
      </trkpt>
      <trkpt lat="44.175472" lon="5.23249">
        <ele>1287</ele>
        <time>2020-05-29T21:01:37Z</time>
      </trkpt>
      <trkpt lat="44.175484" lon="5.232548">
        <ele>1287.3</ele>
        <time>2020-05-29T21:01:39Z</time>
      </trkpt>
      <trkpt lat="44.175495" lon="5.232598">
        <ele>1287.6</ele>
        <time>2020-05-29T21:01:40Z</time>
      </trkpt>
      <trkpt lat="44.175507" lon="5.232646">
        <ele>1288</ele>
        <time>2020-05-29T21:01:41Z</time>
      </trkpt>
      <trkpt lat="44.175518" lon="5.232707">
        <ele>1288.4</ele>
        <time>2020-05-29T21:01:42Z</time>
      </trkpt>
      <trkpt lat="44.175529" lon="5.232766">
        <ele>1288.9</ele>
        <time>2020-05-29T21:01:43Z</time>
      </trkpt>
      <trkpt lat="44.175541" lon="5.232813">
        <ele>1289.3</ele>
        <time>2020-05-29T21:01:44Z</time>
      </trkpt>
      <trkpt lat="44.175552" lon="5.232874">
        <ele>1289.7</ele>
        <time>2020-05-29T21:01:45Z</time>
      </trkpt>
      <trkpt lat="44.175564" lon="5.232937">
        <ele>1290.2</ele>
        <time>2020-05-29T21:01:46Z</time>
      </trkpt>
      <trkpt lat="44.175575" lon="5.23299">
        <ele>1290.7</ele>
        <time>2020-05-29T21:01:47Z</time>
      </trkpt>
      <trkpt lat="44.175587" lon="5.23305">
        <ele>1291.2</ele>
        <time>2020-05-29T21:01:49Z</time>
      </trkpt>
      <trkpt lat="44.175598" lon="5.233109">
        <ele>1291.7</ele>
        <time>2020-05-29T21:01:50Z</time>
      </trkpt>
      <trkpt lat="44.175606" lon="5.23316">
        <ele>1292.1</ele>
        <time>2020-05-29T21:01:51Z</time>
      </trkpt>
      <trkpt lat="44.175613" lon="5.23322">
        <ele>1292.7</ele>
        <time>2020-05-29T21:01:52Z</time>
      </trkpt>
      <trkpt lat="44.175613" lon="5.233271">
        <ele>1293.1</ele>
        <time>2020-05-29T21:01:53Z</time>
      </trkpt>
      <trkpt lat="44.175617" lon="5.233331">
        <ele>1293.5</ele>
        <time>2020-05-29T21:01:54Z</time>
      </trkpt>
      <trkpt lat="44.175617" lon="5.233382">
        <ele>1293.9</ele>
        <time>2020-05-29T21:01:55Z</time>
      </trkpt>
      <trkpt lat="44.175621" lon="5.233441">
        <ele>1294.4</ele>
        <time>2020-05-29T21:01:56Z</time>
      </trkpt>
      <trkpt lat="44.175621" lon="5.233499">
        <ele>1294.9</ele>
        <time>2020-05-29T21:01:58Z</time>
      </trkpt>
      <trkpt lat="44.175621" lon="5.233562">
        <ele>1295.4</ele>
        <time>2020-05-29T21:01:59Z</time>
      </trkpt>
      <trkpt lat="44.175617" lon="5.233622">
        <ele>1295.9</ele>
        <time>2020-05-29T21:02:00Z</time>
      </trkpt>
      <trkpt lat="44.175613" lon="5.233685">
        <ele>1296.4</ele>
        <time>2020-05-29T21:02:01Z</time>
      </trkpt>
      <trkpt lat="44.175613" lon="5.233744">
        <ele>1296.9</ele>
        <time>2020-05-29T21:02:02Z</time>
      </trkpt>
      <trkpt lat="44.17561" lon="5.233803">
        <ele>1297.3</ele>
        <time>2020-05-29T21:02:04Z</time>
      </trkpt>
      <trkpt lat="44.17561" lon="5.233852">
        <ele>1297.6</ele>
        <time>2020-05-29T21:02:05Z</time>
      </trkpt>
      <trkpt lat="44.175606" lon="5.233918">
        <ele>1298.1</ele>
        <time>2020-05-29T21:02:06Z</time>
      </trkpt>
      <trkpt lat="44.175606" lon="5.233978">
        <ele>1298.5</ele>
        <time>2020-05-29T21:02:07Z</time>
      </trkpt>
      <trkpt lat="44.175606" lon="5.234038">
        <ele>1299</ele>
        <time>2020-05-29T21:02:08Z</time>
      </trkpt>
      <trkpt lat="44.17561" lon="5.234099">
        <ele>1299.4</ele>
        <time>2020-05-29T21:02:09Z</time>
      </trkpt>
      <trkpt lat="44.17561" lon="5.234166">
        <ele>1299.9</ele>
        <time>2020-05-29T21:02:11Z</time>
      </trkpt>
      <trkpt lat="44.175613" lon="5.23423">
        <ele>1300.4</ele>
        <time>2020-05-29T21:02:12Z</time>
      </trkpt>
      <trkpt lat="44.175617" lon="5.234299">
        <ele>1300.9</ele>
        <time>2020-05-29T21:02:13Z</time>
      </trkpt>
      <trkpt lat="44.175621" lon="5.234361">
        <ele>1301.4</ele>
        <time>2020-05-29T21:02:14Z</time>
      </trkpt>
      <trkpt lat="44.175625" lon="5.234424">
        <ele>1301.9</ele>
        <time>2020-05-29T21:02:15Z</time>
      </trkpt>
      <trkpt lat="44.175629" lon="5.234487">
        <ele>1302.4</ele>
        <time>2020-05-29T21:02:17Z</time>
      </trkpt>
      <trkpt lat="44.175625" lon="5.234541">
        <ele>1302.8</ele>
        <time>2020-05-29T21:02:18Z</time>
      </trkpt>
      <trkpt lat="44.175617" lon="5.234606">
        <ele>1303.3</ele>
        <time>2020-05-29T21:02:19Z</time>
      </trkpt>
      <trkpt lat="44.175606" lon="5.234666">
        <ele>1303.8</ele>
        <time>2020-05-29T21:02:20Z</time>
      </trkpt>
      <trkpt lat="44.17559" lon="5.234718">
        <ele>1304.2</ele>
        <time>2020-05-29T21:02:21Z</time>
      </trkpt>
      <trkpt lat="44.175575" lon="5.234777">
        <ele>1304.7</ele>
        <time>2020-05-29T21:02:22Z</time>
      </trkpt>
      <trkpt lat="44.175556" lon="5.234841">
        <ele>1305.2</ele>
        <time>2020-05-29T21:02:23Z</time>
      </trkpt>
      <trkpt lat="44.175541" lon="5.234893">
        <ele>1305.6</ele>
        <time>2020-05-29T21:02:24Z</time>
      </trkpt>
      <trkpt lat="44.175526" lon="5.234944">
        <ele>1306</ele>
        <time>2020-05-29T21:02:25Z</time>
      </trkpt>
      <trkpt lat="44.175507" lon="5.235008">
        <ele>1306.6</ele>
        <time>2020-05-29T21:02:27Z</time>
      </trkpt>
      <trkpt lat="44.175487" lon="5.235069">
        <ele>1307.1</ele>
        <time>2020-05-29T21:02:28Z</time>
      </trkpt>
      <trkpt lat="44.175465" lon="5.235133">
        <ele>1307.7</ele>
        <time>2020-05-29T21:02:29Z</time>
      </trkpt>
      <trkpt lat="44.175453" lon="5.235187">
        <ele>1308.2</ele>
        <time>2020-05-29T21:02:30Z</time>
      </trkpt>
      <trkpt lat="44.175438" lon="5.235236">
        <ele>1308.7</ele>
        <time>2020-05-29T21:02:31Z</time>
      </trkpt>
      <trkpt lat="44.175426" lon="5.235294">
        <ele>1309.2</ele>
        <time>2020-05-29T21:02:32Z</time>
      </trkpt>
      <trkpt lat="44.175415" lon="5.235353">
        <ele>1309.7</ele>
        <time>2020-05-29T21:02:33Z</time>
      </trkpt>
      <trkpt lat="44.175407" lon="5.235404">
        <ele>1310.2</ele>
        <time>2020-05-29T21:02:35Z</time>
      </trkpt>
      <trkpt lat="44.175396" lon="5.235459">
        <ele>1310.6</ele>
        <time>2020-05-29T21:02:36Z</time>
      </trkpt>
      <trkpt lat="44.175392" lon="5.235518">
        <ele>1311.1</ele>
        <time>2020-05-29T21:02:37Z</time>
      </trkpt>
      <trkpt lat="44.175392" lon="5.235577">
        <ele>1311.5</ele>
        <time>2020-05-29T21:02:38Z</time>
      </trkpt>
      <trkpt lat="44.175396" lon="5.235626">
        <ele>1311.9</ele>
        <time>2020-05-29T21:02:39Z</time>
      </trkpt>
      <trkpt lat="44.175404" lon="5.235678">
        <ele>1312.3</ele>
        <time>2020-05-29T21:02:40Z</time>
      </trkpt>
      <trkpt lat="44.175415" lon="5.235735">
        <ele>1312.7</ele>
        <time>2020-05-29T21:02:41Z</time>
      </trkpt>
      <trkpt lat="44.175426" lon="5.235789">
        <ele>1313.2</ele>
        <time>2020-05-29T21:02:43Z</time>
      </trkpt>
      <trkpt lat="44.175442" lon="5.235839">
        <ele>1313.6</ele>
        <time>2020-05-29T21:02:44Z</time>
      </trkpt>
      <trkpt lat="44.175465" lon="5.235897">
        <ele>1314.1</ele>
        <time>2020-05-29T21:02:45Z</time>
      </trkpt>
      <trkpt lat="44.175484" lon="5.235951">
        <ele>1314.6</ele>
        <time>2020-05-29T21:02:46Z</time>
      </trkpt>
      <trkpt lat="44.175507" lon="5.236004">
        <ele>1315</ele>
        <time>2020-05-29T21:02:47Z</time>
      </trkpt>
      <trkpt lat="44.175533" lon="5.236056">
        <ele>1315.5</ele>
        <time>2020-05-29T21:02:49Z</time>
      </trkpt>
      <trkpt lat="44.175556" lon="5.236101">
        <ele>1315.9</ele>
        <time>2020-05-29T21:02:50Z</time>
      </trkpt>
      <trkpt lat="44.175583" lon="5.236148">
        <ele>1316.3</ele>
        <time>2020-05-29T21:02:51Z</time>
      </trkpt>
      <trkpt lat="44.17561" lon="5.236188">
        <ele>1316.7</ele>
        <time>2020-05-29T21:02:52Z</time>
      </trkpt>
      <trkpt lat="44.17564" lon="5.236236">
        <ele>1317.2</ele>
        <time>2020-05-29T21:02:53Z</time>
      </trkpt>
      <trkpt lat="44.175671" lon="5.236284">
        <ele>1317.7</ele>
        <time>2020-05-29T21:02:54Z</time>
      </trkpt>
      <trkpt lat="44.175701" lon="5.236332">
        <ele>1318.2</ele>
        <time>2020-05-29T21:02:56Z</time>
      </trkpt>
      <trkpt lat="44.175728" lon="5.23637">
        <ele>1318.6</ele>
        <time>2020-05-29T21:02:57Z</time>
      </trkpt>
      <trkpt lat="44.175754" lon="5.236409">
        <ele>1319</ele>
        <time>2020-05-29T21:02:58Z</time>
      </trkpt>
      <trkpt lat="44.175785" lon="5.236454">
        <ele>1319.5</ele>
        <time>2020-05-29T21:02:59Z</time>
      </trkpt>
      <trkpt lat="44.175812" lon="5.236489">
        <ele>1319.9</ele>
        <time>2020-05-29T21:03:00Z</time>
      </trkpt>
      <trkpt lat="44.175842" lon="5.236535">
        <ele>1320.4</ele>
        <time>2020-05-29T21:03:01Z</time>
      </trkpt>
      <trkpt lat="44.175869" lon="5.23657">
        <ele>1320.8</ele>
        <time>2020-05-29T21:03:02Z</time>
      </trkpt>
      <trkpt lat="44.175899" lon="5.236609">
        <ele>1321.2</ele>
        <time>2020-05-29T21:03:03Z</time>
      </trkpt>
      <trkpt lat="44.17593" lon="5.236651">
        <ele>1321.7</ele>
        <time>2020-05-29T21:03:04Z</time>
      </trkpt>
      <trkpt lat="44.175968" lon="5.236696">
        <ele>1322.3</ele>
        <time>2020-05-29T21:03:05Z</time>
      </trkpt>
      <trkpt lat="44.175999" lon="5.236742">
        <ele>1322.8</ele>
        <time>2020-05-29T21:03:07Z</time>
      </trkpt>
      <trkpt lat="44.176029" lon="5.236781">
        <ele>1323.2</ele>
        <time>2020-05-29T21:03:08Z</time>
      </trkpt>
      <trkpt lat="44.176064" lon="5.236825">
        <ele>1323.7</ele>
        <time>2020-05-29T21:03:09Z</time>
      </trkpt>
      <trkpt lat="44.176094" lon="5.236869">
        <ele>1324.1</ele>
        <time>2020-05-29T21:03:10Z</time>
      </trkpt>
      <trkpt lat="44.176125" lon="5.236915">
        <ele>1324.5</ele>
        <time>2020-05-29T21:03:11Z</time>
      </trkpt>
      <trkpt lat="44.176151" lon="5.236956">
        <ele>1324.9</ele>
        <time>2020-05-29T21:03:12Z</time>
      </trkpt>
      <trkpt lat="44.176189" lon="5.237013">
        <ele>1325.4</ele>
        <time>2020-05-29T21:03:13Z</time>
      </trkpt>
      <trkpt lat="44.176216" lon="5.237057">
        <ele>1325.8</ele>
        <time>2020-05-29T21:03:14Z</time>
      </trkpt>
      <trkpt lat="44.17625" lon="5.237115">
        <ele>1326.4</ele>
        <time>2020-05-29T21:03:16Z</time>
      </trkpt>
      <trkpt lat="44.176281" lon="5.237174">
        <ele>1326.9</ele>
        <time>2020-05-29T21:03:17Z</time>
      </trkpt>
      <trkpt lat="44.176315" lon="5.237231">
        <ele>1327.5</ele>
        <time>2020-05-29T21:03:18Z</time>
      </trkpt>
      <trkpt lat="44.176346" lon="5.23729">
        <ele>1328</ele>
        <time>2020-05-29T21:03:19Z</time>
      </trkpt>
      <trkpt lat="44.176376" lon="5.237339">
        <ele>1328.5</ele>
        <time>2020-05-29T21:03:20Z</time>
      </trkpt>
      <trkpt lat="44.176399" lon="5.237383">
        <ele>1328.9</ele>
        <time>2020-05-29T21:03:21Z</time>
      </trkpt>
      <trkpt lat="44.17643" lon="5.237436">
        <ele>1329.4</ele>
        <time>2020-05-29T21:03:22Z</time>
      </trkpt>
      <trkpt lat="44.17646" lon="5.237483">
        <ele>1329.8</ele>
        <time>2020-05-29T21:03:24Z</time>
      </trkpt>
      <trkpt lat="44.176487" lon="5.237529">
        <ele>1330.3</ele>
        <time>2020-05-29T21:03:25Z</time>
      </trkpt>
      <trkpt lat="44.176506" lon="5.237566">
        <ele>1330.6</ele>
        <time>2020-05-29T21:03:26Z</time>
      </trkpt>
      <trkpt lat="44.176533" lon="5.237612">
        <ele>1331.1</ele>
        <time>2020-05-29T21:03:27Z</time>
      </trkpt>
      <trkpt lat="44.176556" lon="5.237654">
        <ele>1331.4</ele>
        <time>2020-05-29T21:03:28Z</time>
      </trkpt>
      <trkpt lat="44.176575" lon="5.237694">
        <ele>1331.8</ele>
        <time>2020-05-29T21:03:29Z</time>
      </trkpt>
      <trkpt lat="44.176598" lon="5.237744">
        <ele>1332.2</ele>
        <time>2020-05-29T21:03:30Z</time>
      </trkpt>
      <trkpt lat="44.17662" lon="5.237799">
        <ele>1332.6</ele>
        <time>2020-05-29T21:03:31Z</time>
      </trkpt>
      <trkpt lat="44.17664" lon="5.237853">
        <ele>1333.1</ele>
        <time>2020-05-29T21:03:33Z</time>
      </trkpt>
      <trkpt lat="44.176659" lon="5.237906">
        <ele>1333.5</ele>
        <time>2020-05-29T21:03:34Z</time>
      </trkpt>
      <trkpt lat="44.176678" lon="5.23796">
        <ele>1333.9</ele>
        <time>2020-05-29T21:03:35Z</time>
      </trkpt>
      <trkpt lat="44.176693" lon="5.238004">
        <ele>1334.2</ele>
        <time>2020-05-29T21:03:36Z</time>
      </trkpt>
      <trkpt lat="44.176704" lon="5.238052">
        <ele>1334.5</ele>
        <time>2020-05-29T21:03:37Z</time>
      </trkpt>
      <trkpt lat="44.17672" lon="5.238107">
        <ele>1334.9</ele>
        <time>2020-05-29T21:03:38Z</time>
      </trkpt>
      <trkpt lat="44.176735" lon="5.238152">
        <ele>1335.2</ele>
        <time>2020-05-29T21:03:39Z</time>
      </trkpt>
      <trkpt lat="44.17675" lon="5.238206">
        <ele>1335.5</ele>
        <time>2020-05-29T21:03:40Z</time>
      </trkpt>
      <trkpt lat="44.176765" lon="5.238266">
        <ele>1335.8</ele>
        <time>2020-05-29T21:03:42Z</time>
      </trkpt>
      <trkpt lat="44.176781" lon="5.238323">
        <ele>1336.2</ele>
        <time>2020-05-29T21:03:43Z</time>
      </trkpt>
      <trkpt lat="44.176796" lon="5.23838">
        <ele>1336.4</ele>
        <time>2020-05-29T21:03:44Z</time>
      </trkpt>
      <trkpt lat="44.176807" lon="5.238436">
        <ele>1336.8</ele>
        <time>2020-05-29T21:03:45Z</time>
      </trkpt>
      <trkpt lat="44.176823" lon="5.238493">
        <ele>1337.8</ele>
        <time>2020-05-29T21:03:46Z</time>
      </trkpt>
      <trkpt lat="44.17683" lon="5.238542">
        <ele>1338.6</ele>
        <time>2020-05-29T21:03:47Z</time>
      </trkpt>
      <trkpt lat="44.176838" lon="5.238588">
        <ele>1339.4</ele>
        <time>2020-05-29T21:03:48Z</time>
      </trkpt>
      <trkpt lat="44.176845" lon="5.238651">
        <ele>1340.5</ele>
        <time>2020-05-29T21:03:50Z</time>
      </trkpt>
      <trkpt lat="44.176849" lon="5.23871">
        <ele>1341.6</ele>
        <time>2020-05-29T21:03:51Z</time>
      </trkpt>
      <trkpt lat="44.176849" lon="5.238773">
        <ele>1342.8</ele>
        <time>2020-05-29T21:03:52Z</time>
      </trkpt>
      <trkpt lat="44.176845" lon="5.23884">
        <ele>1344.1</ele>
        <time>2020-05-29T21:03:53Z</time>
      </trkpt>
      <trkpt lat="44.176834" lon="5.238907">
        <ele>1345.4</ele>
        <time>2020-05-29T21:03:54Z</time>
      </trkpt>
      <trkpt lat="44.176823" lon="5.23897">
        <ele>1346.6</ele>
        <time>2020-05-29T21:03:56Z</time>
      </trkpt>
      <trkpt lat="44.176807" lon="5.239036">
        <ele>1348</ele>
        <time>2020-05-29T21:03:57Z</time>
      </trkpt>
      <trkpt lat="44.176781" lon="5.2391">
        <ele>1349.4</ele>
        <time>2020-05-29T21:03:58Z</time>
      </trkpt>
      <trkpt lat="44.176758" lon="5.239163">
        <ele>1350.7</ele>
        <time>2020-05-29T21:03:59Z</time>
      </trkpt>
      <trkpt lat="44.176731" lon="5.239228">
        <ele>1352.1</ele>
        <time>2020-05-29T21:04:00Z</time>
      </trkpt>
      <trkpt lat="44.176712" lon="5.23928">
        <ele>1353.2</ele>
        <time>2020-05-29T21:04:01Z</time>
      </trkpt>
      <trkpt lat="44.176689" lon="5.239331">
        <ele>1354.3</ele>
        <time>2020-05-29T21:04:02Z</time>
      </trkpt>
      <trkpt lat="44.176662" lon="5.239396">
        <ele>1355.6</ele>
        <time>2020-05-29T21:04:04Z</time>
      </trkpt>
      <trkpt lat="44.176643" lon="5.239449">
        <ele>1356.7</ele>
        <time>2020-05-29T21:04:05Z</time>
      </trkpt>
      <trkpt lat="44.176617" lon="5.23951">
        <ele>1358</ele>
        <time>2020-05-29T21:04:06Z</time>
      </trkpt>
      <trkpt lat="44.176598" lon="5.239564">
        <ele>1359.1</ele>
        <time>2020-05-29T21:04:07Z</time>
      </trkpt>
      <trkpt lat="44.176571" lon="5.239631">
        <ele>1360.5</ele>
        <time>2020-05-29T21:04:08Z</time>
      </trkpt>
      <trkpt lat="44.176548" lon="5.239691">
        <ele>1361.8</ele>
        <time>2020-05-29T21:04:09Z</time>
      </trkpt>
      <trkpt lat="44.176529" lon="5.239741">
        <ele>1362.8</ele>
        <time>2020-05-29T21:04:10Z</time>
      </trkpt>
      <trkpt lat="44.17651" lon="5.2398">
        <ele>1364</ele>
        <time>2020-05-29T21:04:11Z</time>
      </trkpt>
      <trkpt lat="44.176491" lon="5.239864">
        <ele>1365.3</ele>
        <time>2020-05-29T21:04:13Z</time>
      </trkpt>
      <trkpt lat="44.176479" lon="5.239914">
        <ele>1366.3</ele>
        <time>2020-05-29T21:04:14Z</time>
      </trkpt>
      <trkpt lat="44.176464" lon="5.239966">
        <ele>1367.3</ele>
        <time>2020-05-29T21:04:15Z</time>
      </trkpt>
      <trkpt lat="44.176449" lon="5.240026">
        <ele>1368.4</ele>
        <time>2020-05-29T21:04:16Z</time>
      </trkpt>
      <trkpt lat="44.176434" lon="5.240092">
        <ele>1369.7</ele>
        <time>2020-05-29T21:04:17Z</time>
      </trkpt>
      <trkpt lat="44.176422" lon="5.240149">
        <ele>1370.8</ele>
        <time>2020-05-29T21:04:18Z</time>
      </trkpt>
      <trkpt lat="44.176411" lon="5.240221">
        <ele>1372.1</ele>
        <time>2020-05-29T21:04:19Z</time>
      </trkpt>
      <trkpt lat="44.176399" lon="5.240295">
        <ele>1373.5</ele>
        <time>2020-05-29T21:04:20Z</time>
      </trkpt>
      <trkpt lat="44.176395" lon="5.240356">
        <ele>1374.6</ele>
        <time>2020-05-29T21:04:21Z</time>
      </trkpt>
      <trkpt lat="44.176388" lon="5.240416">
        <ele>1375.7</ele>
        <time>2020-05-29T21:04:22Z</time>
      </trkpt>
      <trkpt lat="44.176384" lon="5.240489">
        <ele>1377</ele>
        <time>2020-05-29T21:04:24Z</time>
      </trkpt>
      <trkpt lat="44.17638" lon="5.240549">
        <ele>1378.1</ele>
        <time>2020-05-29T21:04:25Z</time>
      </trkpt>
      <trkpt lat="44.17638" lon="5.240609">
        <ele>1379.1</ele>
        <time>2020-05-29T21:04:26Z</time>
      </trkpt>
      <trkpt lat="44.176388" lon="5.240667">
        <ele>1380.1</ele>
        <time>2020-05-29T21:04:27Z</time>
      </trkpt>
      <trkpt lat="44.176403" lon="5.240738">
        <ele>1381.3</ele>
        <time>2020-05-29T21:04:28Z</time>
      </trkpt>
      <trkpt lat="44.176422" lon="5.240793">
        <ele>1382.2</ele>
        <time>2020-05-29T21:04:29Z</time>
      </trkpt>
      <trkpt lat="44.176453" lon="5.240853">
        <ele>1383.1</ele>
        <time>2020-05-29T21:04:30Z</time>
      </trkpt>
      <trkpt lat="44.176483" lon="5.240903">
        <ele>1383</ele>
        <time>2020-05-29T21:04:31Z</time>
      </trkpt>
      <trkpt lat="44.176514" lon="5.24095">
        <ele>1382.9</ele>
        <time>2020-05-29T21:04:32Z</time>
      </trkpt>
      <trkpt lat="44.176556" lon="5.240996">
        <ele>1382.9</ele>
        <time>2020-05-29T21:04:33Z</time>
      </trkpt>
      <trkpt lat="44.176598" lon="5.241037">
        <ele>1382.9</ele>
        <time>2020-05-29T21:04:34Z</time>
      </trkpt>
      <trkpt lat="44.176643" lon="5.241078">
        <ele>1382.9</ele>
        <time>2020-05-29T21:04:35Z</time>
      </trkpt>
      <trkpt lat="44.176689" lon="5.241123">
        <ele>1382.9</ele>
        <time>2020-05-29T21:04:36Z</time>
      </trkpt>
      <trkpt lat="44.176746" lon="5.241178">
        <ele>1383</ele>
        <time>2020-05-29T21:04:37Z</time>
      </trkpt>
      <trkpt lat="44.1768" lon="5.241227">
        <ele>1383</ele>
        <time>2020-05-29T21:04:38Z</time>
      </trkpt>
      <trkpt lat="44.176865" lon="5.241288">
        <ele>1383</ele>
        <time>2020-05-29T21:04:39Z</time>
      </trkpt>
      <trkpt lat="44.176922" lon="5.24134">
        <ele>1383.1</ele>
        <time>2020-05-29T21:04:40Z</time>
      </trkpt>
      <trkpt lat="44.17699" lon="5.241404">
        <ele>1383.1</ele>
        <time>2020-05-29T21:04:42Z</time>
      </trkpt>
      <trkpt lat="44.177063" lon="5.241475">
        <ele>1383.1</ele>
        <time>2020-05-29T21:04:43Z</time>
      </trkpt>
      <trkpt lat="44.177143" lon="5.24155">
        <ele>1383.1</ele>
        <time>2020-05-29T21:04:44Z</time>
      </trkpt>
      <trkpt lat="44.177212" lon="5.241613">
        <ele>1383.1</ele>
        <time>2020-05-29T21:04:45Z</time>
      </trkpt>
      <trkpt lat="44.177277" lon="5.241677">
        <ele>1383.2</ele>
        <time>2020-05-29T21:04:46Z</time>
      </trkpt>
      <trkpt lat="44.177341" lon="5.241742">
        <ele>1383.2</ele>
        <time>2020-05-29T21:04:47Z</time>
      </trkpt>
      <trkpt lat="44.17741" lon="5.241822">
        <ele>1383.3</ele>
        <time>2020-05-29T21:04:48Z</time>
      </trkpt>
      <trkpt lat="44.177475" lon="5.241906">
        <ele>1383.4</ele>
        <time>2020-05-29T21:04:49Z</time>
      </trkpt>
      <trkpt lat="44.177524" lon="5.241977">
        <ele>1383.5</ele>
        <time>2020-05-29T21:04:50Z</time>
      </trkpt>
      <trkpt lat="44.177578" lon="5.242059">
        <ele>1383.6</ele>
        <time>2020-05-29T21:04:52Z</time>
      </trkpt>
      <trkpt lat="44.177628" lon="5.242141">
        <ele>1383.7</ele>
        <time>2020-05-29T21:04:53Z</time>
      </trkpt>
      <trkpt lat="44.177673" lon="5.242218">
        <ele>1383.9</ele>
        <time>2020-05-29T21:04:54Z</time>
      </trkpt>
      <trkpt lat="44.177715" lon="5.242296">
        <ele>1384.1</ele>
        <time>2020-05-29T21:04:55Z</time>
      </trkpt>
      <trkpt lat="44.17775" lon="5.242368">
        <ele>1384.3</ele>
        <time>2020-05-29T21:04:56Z</time>
      </trkpt>
      <trkpt lat="44.177776" lon="5.242425">
        <ele>1384.4</ele>
        <time>2020-05-29T21:04:57Z</time>
      </trkpt>
      <trkpt lat="44.177811" lon="5.2425">
        <ele>1384.6</ele>
        <time>2020-05-29T21:04:59Z</time>
      </trkpt>
      <trkpt lat="44.177837" lon="5.242559">
        <ele>1384.7</ele>
        <time>2020-05-29T21:05:00Z</time>
      </trkpt>
      <trkpt lat="44.177868" lon="5.24263">
        <ele>1385</ele>
        <time>2020-05-29T21:05:01Z</time>
      </trkpt>
      <trkpt lat="44.177895" lon="5.242692">
        <ele>1385.1</ele>
        <time>2020-05-29T21:05:02Z</time>
      </trkpt>
      <trkpt lat="44.177921" lon="5.242762">
        <ele>1385.4</ele>
        <time>2020-05-29T21:05:03Z</time>
      </trkpt>
      <trkpt lat="44.177952" lon="5.242831">
        <ele>1385.6</ele>
        <time>2020-05-29T21:05:04Z</time>
      </trkpt>
      <trkpt lat="44.177978" lon="5.2429">
        <ele>1385.7</ele>
        <time>2020-05-29T21:05:05Z</time>
      </trkpt>
      <trkpt lat="44.178001" lon="5.242958">
        <ele>1385.9</ele>
        <time>2020-05-29T21:05:06Z</time>
      </trkpt>
      <trkpt lat="44.178028" lon="5.243027">
        <ele>1386.1</ele>
        <time>2020-05-29T21:05:08Z</time>
      </trkpt>
      <trkpt lat="44.178055" lon="5.243099">
        <ele>1386.2</ele>
        <time>2020-05-29T21:05:09Z</time>
      </trkpt>
      <trkpt lat="44.178081" lon="5.243164">
        <ele>1386.3</ele>
        <time>2020-05-29T21:05:10Z</time>
      </trkpt>
      <trkpt lat="44.178108" lon="5.243233">
        <ele>1386.5</ele>
        <time>2020-05-29T21:05:11Z</time>
      </trkpt>
      <trkpt lat="44.178139" lon="5.243301">
        <ele>1386.6</ele>
        <time>2020-05-29T21:05:12Z</time>
      </trkpt>
      <trkpt lat="44.178165" lon="5.243371">
        <ele>1386.7</ele>
        <time>2020-05-29T21:05:14Z</time>
      </trkpt>
      <trkpt lat="44.178188" lon="5.243442">
        <ele>1386.8</ele>
        <time>2020-05-29T21:05:15Z</time>
      </trkpt>
      <trkpt lat="44.178211" lon="5.243504">
        <ele>1386.9</ele>
        <time>2020-05-29T21:05:16Z</time>
      </trkpt>
      <trkpt lat="44.17823" lon="5.243565">
        <ele>1387</ele>
        <time>2020-05-29T21:05:17Z</time>
      </trkpt>
      <trkpt lat="44.178249" lon="5.24364">
        <ele>1387.1</ele>
        <time>2020-05-29T21:05:18Z</time>
      </trkpt>
      <trkpt lat="44.178272" lon="5.243721">
        <ele>1387.2</ele>
        <time>2020-05-29T21:05:19Z</time>
      </trkpt>
      <trkpt lat="44.178295" lon="5.2438">
        <ele>1387.3</ele>
        <time>2020-05-29T21:05:20Z</time>
      </trkpt>
      <trkpt lat="44.178318" lon="5.243881">
        <ele>1387.3</ele>
        <time>2020-05-29T21:05:22Z</time>
      </trkpt>
      <trkpt lat="44.178333" lon="5.243951">
        <ele>1387.4</ele>
        <time>2020-05-29T21:05:23Z</time>
      </trkpt>
      <trkpt lat="44.178352" lon="5.244035">
        <ele>1387.4</ele>
        <time>2020-05-29T21:05:24Z</time>
      </trkpt>
      <trkpt lat="44.178371" lon="5.244104">
        <ele>1387.5</ele>
        <time>2020-05-29T21:05:25Z</time>
      </trkpt>
      <trkpt lat="44.178387" lon="5.244184">
        <ele>1387.5</ele>
        <time>2020-05-29T21:05:26Z</time>
      </trkpt>
      <trkpt lat="44.178402" lon="5.244269">
        <ele>1387.5</ele>
        <time>2020-05-29T21:05:27Z</time>
      </trkpt>
      <trkpt lat="44.178413" lon="5.24434">
        <ele>1387.6</ele>
        <time>2020-05-29T21:05:28Z</time>
      </trkpt>
      <trkpt lat="44.178425" lon="5.244422">
        <ele>1387.6</ele>
        <time>2020-05-29T21:05:29Z</time>
      </trkpt>
      <trkpt lat="44.178432" lon="5.244509">
        <ele>1387.6</ele>
        <time>2020-05-29T21:05:31Z</time>
      </trkpt>
      <trkpt lat="44.17844" lon="5.244593">
        <ele>1387.7</ele>
        <time>2020-05-29T21:05:32Z</time>
      </trkpt>
      <trkpt lat="44.178444" lon="5.244682">
        <ele>1387.7</ele>
        <time>2020-05-29T21:05:33Z</time>
      </trkpt>
      <trkpt lat="44.178444" lon="5.244754">
        <ele>1387.7</ele>
        <time>2020-05-29T21:05:34Z</time>
      </trkpt>
      <trkpt lat="44.178444" lon="5.244828">
        <ele>1387.8</ele>
        <time>2020-05-29T21:05:35Z</time>
      </trkpt>
      <trkpt lat="44.178444" lon="5.244897">
        <ele>1387.9</ele>
        <time>2020-05-29T21:05:36Z</time>
      </trkpt>
      <trkpt lat="44.178444" lon="5.244971">
        <ele>1387.9</ele>
        <time>2020-05-29T21:05:37Z</time>
      </trkpt>
      <trkpt lat="44.178444" lon="5.245047">
        <ele>1388</ele>
        <time>2020-05-29T21:05:38Z</time>
      </trkpt>
      <trkpt lat="44.178444" lon="5.24513">
        <ele>1388.1</ele>
        <time>2020-05-29T21:05:39Z</time>
      </trkpt>
      <trkpt lat="44.17844" lon="5.245201">
        <ele>1388.2</ele>
        <time>2020-05-29T21:05:40Z</time>
      </trkpt>
      <trkpt lat="44.17844" lon="5.245284">
        <ele>1388.3</ele>
        <time>2020-05-29T21:05:41Z</time>
      </trkpt>
      <trkpt lat="44.178452" lon="5.245368">
        <ele>1388.4</ele>
        <time>2020-05-29T21:05:43Z</time>
      </trkpt>
      <trkpt lat="44.178474" lon="5.245444">
        <ele>1388.5</ele>
        <time>2020-05-29T21:05:44Z</time>
      </trkpt>
      <trkpt lat="44.178505" lon="5.24551">
        <ele>1388.7</ele>
        <time>2020-05-29T21:05:45Z</time>
      </trkpt>
      <trkpt lat="44.178543" lon="5.245582">
        <ele>1388.9</ele>
        <time>2020-05-29T21:05:46Z</time>
      </trkpt>
      <trkpt lat="44.178581" lon="5.24564">
        <ele>1389</ele>
        <time>2020-05-29T21:05:47Z</time>
      </trkpt>
      <trkpt lat="44.178619" lon="5.245692">
        <ele>1389.2</ele>
        <time>2020-05-29T21:05:48Z</time>
      </trkpt>
      <trkpt lat="44.178669" lon="5.245751">
        <ele>1389.5</ele>
        <time>2020-05-29T21:05:49Z</time>
      </trkpt>
      <trkpt lat="44.178718" lon="5.245804">
        <ele>1389.8</ele>
        <time>2020-05-29T21:05:50Z</time>
      </trkpt>
      <trkpt lat="44.17876" lon="5.245848">
        <ele>1390.1</ele>
        <time>2020-05-29T21:05:52Z</time>
      </trkpt>
      <trkpt lat="44.178802" lon="5.245888">
        <ele>1390.4</ele>
        <time>2020-05-29T21:05:53Z</time>
      </trkpt>
      <trkpt lat="44.178841" lon="5.245927">
        <ele>1390.7</ele>
        <time>2020-05-29T21:05:54Z</time>
      </trkpt>
      <trkpt lat="44.178886" lon="5.24597">
        <ele>1391.1</ele>
        <time>2020-05-29T21:05:55Z</time>
      </trkpt>
      <trkpt lat="44.178936" lon="5.246014">
        <ele>1391.5</ele>
        <time>2020-05-29T21:05:56Z</time>
      </trkpt>
      <trkpt lat="44.178978" lon="5.246049">
        <ele>1391.9</ele>
        <time>2020-05-29T21:05:57Z</time>
      </trkpt>
      <trkpt lat="44.179024" lon="5.24609">
        <ele>1392.3</ele>
        <time>2020-05-29T21:05:58Z</time>
      </trkpt>
      <trkpt lat="44.179062" lon="5.246126">
        <ele>1392.7</ele>
        <time>2020-05-29T21:05:59Z</time>
      </trkpt>
      <trkpt lat="44.179108" lon="5.246169">
        <ele>1393.1</ele>
        <time>2020-05-29T21:06:00Z</time>
      </trkpt>
      <trkpt lat="44.179146" lon="5.246205">
        <ele>1393.5</ele>
        <time>2020-05-29T21:06:02Z</time>
      </trkpt>
      <trkpt lat="44.179176" lon="5.246238">
        <ele>1393.8</ele>
        <time>2020-05-29T21:06:03Z</time>
      </trkpt>
      <trkpt lat="44.179203" lon="5.246267">
        <ele>1394.1</ele>
        <time>2020-05-29T21:06:04Z</time>
      </trkpt>
      <trkpt lat="44.17923" lon="5.246298">
        <ele>1394.4</ele>
        <time>2020-05-29T21:06:05Z</time>
      </trkpt>
      <trkpt lat="44.179256" lon="5.246333">
        <ele>1394.7</ele>
        <time>2020-05-29T21:06:06Z</time>
      </trkpt>
      <trkpt lat="44.179287" lon="5.246375">
        <ele>1395</ele>
        <time>2020-05-29T21:06:07Z</time>
      </trkpt>
      <trkpt lat="44.179321" lon="5.246419">
        <ele>1395.4</ele>
        <time>2020-05-29T21:06:08Z</time>
      </trkpt>
      <trkpt lat="44.179348" lon="5.246456">
        <ele>1395.7</ele>
        <time>2020-05-29T21:06:09Z</time>
      </trkpt>
      <trkpt lat="44.179375" lon="5.246497">
        <ele>1396</ele>
        <time>2020-05-29T21:06:10Z</time>
      </trkpt>
      <trkpt lat="44.179409" lon="5.246546">
        <ele>1396.3</ele>
        <time>2020-05-29T21:06:11Z</time>
      </trkpt>
      <trkpt lat="44.17944" lon="5.246593">
        <ele>1396.7</ele>
        <time>2020-05-29T21:06:12Z</time>
      </trkpt>
      <trkpt lat="44.17947" lon="5.246635">
        <ele>1397</ele>
        <time>2020-05-29T21:06:13Z</time>
      </trkpt>
      <trkpt lat="44.179501" lon="5.246683">
        <ele>1397.3</ele>
        <time>2020-05-29T21:06:15Z</time>
      </trkpt>
      <trkpt lat="44.179527" lon="5.246722">
        <ele>1397.6</ele>
        <time>2020-05-29T21:06:16Z</time>
      </trkpt>
      <trkpt lat="44.179562" lon="5.246775">
        <ele>1398</ele>
        <time>2020-05-29T21:06:17Z</time>
      </trkpt>
      <trkpt lat="44.179592" lon="5.246821">
        <ele>1398.3</ele>
        <time>2020-05-29T21:06:18Z</time>
      </trkpt>
      <trkpt lat="44.17963" lon="5.246878">
        <ele>1398.7</ele>
        <time>2020-05-29T21:06:19Z</time>
      </trkpt>
      <trkpt lat="44.179661" lon="5.246931">
        <ele>1399</ele>
        <time>2020-05-29T21:06:20Z</time>
      </trkpt>
      <trkpt lat="44.179687" lon="5.24698">
        <ele>1399.3</ele>
        <time>2020-05-29T21:06:21Z</time>
      </trkpt>
      <trkpt lat="44.179722" lon="5.247039">
        <ele>1399.6</ele>
        <time>2020-05-29T21:06:23Z</time>
      </trkpt>
      <trkpt lat="44.179752" lon="5.247091">
        <ele>1399.9</ele>
        <time>2020-05-29T21:06:24Z</time>
      </trkpt>
      <trkpt lat="44.179779" lon="5.247136">
        <ele>1400.2</ele>
        <time>2020-05-29T21:06:25Z</time>
      </trkpt>
      <trkpt lat="44.17981" lon="5.24718">
        <ele>1400.4</ele>
        <time>2020-05-29T21:06:26Z</time>
      </trkpt>
      <trkpt lat="44.179836" lon="5.247225">
        <ele>1400.6</ele>
        <time>2020-05-29T21:06:27Z</time>
      </trkpt>
      <trkpt lat="44.179867" lon="5.247279">
        <ele>1400.8</ele>
        <time>2020-05-29T21:06:28Z</time>
      </trkpt>
      <trkpt lat="44.179893" lon="5.247334">
        <ele>1401</ele>
        <time>2020-05-29T21:06:29Z</time>
      </trkpt>
      <trkpt lat="44.17992" lon="5.247392">
        <ele>1401.2</ele>
        <time>2020-05-29T21:06:30Z</time>
      </trkpt>
      <trkpt lat="44.179947" lon="5.247442">
        <ele>1401.3</ele>
        <time>2020-05-29T21:06:32Z</time>
      </trkpt>
      <trkpt lat="44.17997" lon="5.247485">
        <ele>1401.4</ele>
        <time>2020-05-29T21:06:33Z</time>
      </trkpt>
      <trkpt lat="44.179989" lon="5.247523">
        <ele>1401.5</ele>
        <time>2020-05-29T21:06:34Z</time>
      </trkpt>
      <trkpt lat="44.180016" lon="5.247573">
        <ele>1401.7</ele>
        <time>2020-05-29T21:06:35Z</time>
      </trkpt>
      <trkpt lat="44.180038" lon="5.24763">
        <ele>1401.8</ele>
        <time>2020-05-29T21:06:36Z</time>
      </trkpt>
      <trkpt lat="44.180058" lon="5.247677">
        <ele>1401.9</ele>
        <time>2020-05-29T21:06:37Z</time>
      </trkpt>
      <trkpt lat="44.180077" lon="5.24773">
        <ele>1402</ele>
        <time>2020-05-29T21:06:38Z</time>
      </trkpt>
      <trkpt lat="44.180099" lon="5.247798">
        <ele>1402.1</ele>
        <time>2020-05-29T21:06:39Z</time>
      </trkpt>
      <trkpt lat="44.180122" lon="5.24787">
        <ele>1402.2</ele>
        <time>2020-05-29T21:06:40Z</time>
      </trkpt>
      <trkpt lat="44.180145" lon="5.247944">
        <ele>1402.3</ele>
        <time>2020-05-29T21:06:42Z</time>
      </trkpt>
      <trkpt lat="44.180168" lon="5.24802">
        <ele>1402.4</ele>
        <time>2020-05-29T21:06:43Z</time>
      </trkpt>
      <trkpt lat="44.180195" lon="5.248102">
        <ele>1402.4</ele>
        <time>2020-05-29T21:06:44Z</time>
      </trkpt>
      <trkpt lat="44.180218" lon="5.248182">
        <ele>1402.5</ele>
        <time>2020-05-29T21:06:45Z</time>
      </trkpt>
      <trkpt lat="44.180244" lon="5.248269">
        <ele>1402.5</ele>
        <time>2020-05-29T21:06:46Z</time>
      </trkpt>
      <trkpt lat="44.180271" lon="5.248354">
        <ele>1402.5</ele>
        <time>2020-05-29T21:06:48Z</time>
      </trkpt>
      <trkpt lat="44.18029" lon="5.248425">
        <ele>1402.5</ele>
        <time>2020-05-29T21:06:49Z</time>
      </trkpt>
      <trkpt lat="44.180313" lon="5.248495">
        <ele>1402.5</ele>
        <time>2020-05-29T21:06:50Z</time>
      </trkpt>
      <trkpt lat="44.180336" lon="5.248575">
        <ele>1402.5</ele>
        <time>2020-05-29T21:06:51Z</time>
      </trkpt>
      <trkpt lat="44.180359" lon="5.248659">
        <ele>1402.6</ele>
        <time>2020-05-29T21:06:52Z</time>
      </trkpt>
      <trkpt lat="44.180378" lon="5.248739">
        <ele>1402.6</ele>
        <time>2020-05-29T21:06:53Z</time>
      </trkpt>
      <trkpt lat="44.180401" lon="5.248823">
        <ele>1402.6</ele>
        <time>2020-05-29T21:06:54Z</time>
      </trkpt>
      <trkpt lat="44.18042" lon="5.248892">
        <ele>1402.6</ele>
        <time>2020-05-29T21:06:55Z</time>
      </trkpt>
      <trkpt lat="44.180439" lon="5.248971">
        <ele>1402.7</ele>
        <time>2020-05-29T21:06:57Z</time>
      </trkpt>
      <trkpt lat="44.180454" lon="5.249052">
        <ele>1402.7</ele>
        <time>2020-05-29T21:06:58Z</time>
      </trkpt>
      <trkpt lat="44.180469" lon="5.249132">
        <ele>1402.7</ele>
        <time>2020-05-29T21:06:59Z</time>
      </trkpt>
      <trkpt lat="44.180485" lon="5.249215">
        <ele>1402.7</ele>
        <time>2020-05-29T21:07:00Z</time>
      </trkpt>
      <trkpt lat="44.180492" lon="5.249299">
        <ele>1402.7</ele>
        <time>2020-05-29T21:07:01Z</time>
      </trkpt>
      <trkpt lat="44.180496" lon="5.249377">
        <ele>1402.7</ele>
        <time>2020-05-29T21:07:02Z</time>
      </trkpt>
      <trkpt lat="44.180496" lon="5.24947">
        <ele>1402.8</ele>
        <time>2020-05-29T21:07:04Z</time>
      </trkpt>
      <trkpt lat="44.180492" lon="5.249564">
        <ele>1402.8</ele>
        <time>2020-05-29T21:07:05Z</time>
      </trkpt>
      <trkpt lat="44.180489" lon="5.249658">
        <ele>1402.8</ele>
        <time>2020-05-29T21:07:06Z</time>
      </trkpt>
      <trkpt lat="44.180481" lon="5.249737">
        <ele>1402.8</ele>
        <time>2020-05-29T21:07:07Z</time>
      </trkpt>
      <trkpt lat="44.180473" lon="5.249834">
        <ele>1402.8</ele>
        <time>2020-05-29T21:07:08Z</time>
      </trkpt>
      <trkpt lat="44.180462" lon="5.249932">
        <ele>1402.8</ele>
        <time>2020-05-29T21:07:09Z</time>
      </trkpt>
      <trkpt lat="44.18045" lon="5.250016">
        <ele>1402.8</ele>
        <time>2020-05-29T21:07:10Z</time>
      </trkpt>
      <trkpt lat="44.180439" lon="5.250114">
        <ele>1402.8</ele>
        <time>2020-05-29T21:07:12Z</time>
      </trkpt>
      <trkpt lat="44.180424" lon="5.250211">
        <ele>1402.8</ele>
        <time>2020-05-29T21:07:13Z</time>
      </trkpt>
      <trkpt lat="44.180412" lon="5.250308">
        <ele>1402.8</ele>
        <time>2020-05-29T21:07:14Z</time>
      </trkpt>
      <trkpt lat="44.180397" lon="5.250404">
        <ele>1402.8</ele>
        <time>2020-05-29T21:07:15Z</time>
      </trkpt>
      <trkpt lat="44.180386" lon="5.250504">
        <ele>1402.8</ele>
        <time>2020-05-29T21:07:16Z</time>
      </trkpt>
      <trkpt lat="44.18037" lon="5.250602">
        <ele>1402.8</ele>
        <time>2020-05-29T21:07:18Z</time>
      </trkpt>
      <trkpt lat="44.180363" lon="5.2507">
        <ele>1402.8</ele>
        <time>2020-05-29T21:07:19Z</time>
      </trkpt>
      <trkpt lat="44.180355" lon="5.250799">
        <ele>1402.8</ele>
        <time>2020-05-29T21:07:20Z</time>
      </trkpt>
      <trkpt lat="44.180351" lon="5.250903">
        <ele>1402.7</ele>
        <time>2020-05-29T21:07:21Z</time>
      </trkpt>
      <trkpt lat="44.180347" lon="5.250985">
        <ele>1402.6</ele>
        <time>2020-05-29T21:07:22Z</time>
      </trkpt>
      <trkpt lat="44.180344" lon="5.251071">
        <ele>1402.4</ele>
        <time>2020-05-29T21:07:23Z</time>
      </trkpt>
      <trkpt lat="44.180336" lon="5.251172">
        <ele>1402.4</ele>
        <time>2020-05-29T21:07:24Z</time>
      </trkpt>
      <trkpt lat="44.180325" lon="5.251258">
        <ele>1402.6</ele>
        <time>2020-05-29T21:07:25Z</time>
      </trkpt>
      <trkpt lat="44.180305" lon="5.25136">
        <ele>1403</ele>
        <time>2020-05-29T21:07:27Z</time>
      </trkpt>
      <trkpt lat="44.180286" lon="5.25144">
        <ele>1403.3</ele>
        <time>2020-05-29T21:07:28Z</time>
      </trkpt>
      <trkpt lat="44.18026" lon="5.251522">
        <ele>1403.6</ele>
        <time>2020-05-29T21:07:29Z</time>
      </trkpt>
      <trkpt lat="44.180229" lon="5.251596">
        <ele>1404</ele>
        <time>2020-05-29T21:07:30Z</time>
      </trkpt>
      <trkpt lat="44.180187" lon="5.251669">
        <ele>1404.4</ele>
        <time>2020-05-29T21:07:31Z</time>
      </trkpt>
      <trkpt lat="44.180134" lon="5.251732">
        <ele>1404.8</ele>
        <time>2020-05-29T21:07:32Z</time>
      </trkpt>
      <trkpt lat="44.180069" lon="5.251799">
        <ele>1405.3</ele>
        <time>2020-05-29T21:07:33Z</time>
      </trkpt>
      <trkpt lat="44.18" lon="5.251862">
        <ele>1405.9</ele>
        <time>2020-05-29T21:07:34Z</time>
      </trkpt>
      <trkpt lat="44.179943" lon="5.251915">
        <ele>1406.3</ele>
        <time>2020-05-29T21:07:35Z</time>
      </trkpt>
      <trkpt lat="44.179886" lon="5.251987">
        <ele>1406.8</ele>
        <time>2020-05-29T21:07:36Z</time>
      </trkpt>
      <trkpt lat="44.179836" lon="5.252059">
        <ele>1407.2</ele>
        <time>2020-05-29T21:07:37Z</time>
      </trkpt>
      <trkpt lat="44.17981" lon="5.252129">
        <ele>1407.6</ele>
        <time>2020-05-29T21:07:38Z</time>
      </trkpt>
      <trkpt lat="44.179794" lon="5.252202">
        <ele>1408</ele>
        <time>2020-05-29T21:07:39Z</time>
      </trkpt>
      <trkpt lat="44.179783" lon="5.252289">
        <ele>1408.4</ele>
        <time>2020-05-29T21:07:41Z</time>
      </trkpt>
      <trkpt lat="44.179779" lon="5.252372">
        <ele>1408.8</ele>
        <time>2020-05-29T21:07:42Z</time>
      </trkpt>
      <trkpt lat="44.179775" lon="5.252459">
        <ele>1409.1</ele>
        <time>2020-05-29T21:07:43Z</time>
      </trkpt>
      <trkpt lat="44.179775" lon="5.252525">
        <ele>1409.4</ele>
        <time>2020-05-29T21:07:44Z</time>
      </trkpt>
      <trkpt lat="44.179771" lon="5.252613">
        <ele>1409.8</ele>
        <time>2020-05-29T21:07:45Z</time>
      </trkpt>
      <trkpt lat="44.179771" lon="5.252702">
        <ele>1410.3</ele>
        <time>2020-05-29T21:07:46Z</time>
      </trkpt>
      <trkpt lat="44.179775" lon="5.252788">
        <ele>1410.7</ele>
        <time>2020-05-29T21:07:48Z</time>
      </trkpt>
      <trkpt lat="44.179775" lon="5.252867">
        <ele>1411.1</ele>
        <time>2020-05-29T21:07:49Z</time>
      </trkpt>
      <trkpt lat="44.179775" lon="5.252942">
        <ele>1411.4</ele>
        <time>2020-05-29T21:07:50Z</time>
      </trkpt>
      <trkpt lat="44.179779" lon="5.253029">
        <ele>1411.8</ele>
        <time>2020-05-29T21:07:51Z</time>
      </trkpt>
      <trkpt lat="44.179779" lon="5.253104">
        <ele>1412.2</ele>
        <time>2020-05-29T21:07:52Z</time>
      </trkpt>
      <trkpt lat="44.179783" lon="5.253179">
        <ele>1412.5</ele>
        <time>2020-05-29T21:07:53Z</time>
      </trkpt>
      <trkpt lat="44.179787" lon="5.253255">
        <ele>1412.9</ele>
        <time>2020-05-29T21:07:54Z</time>
      </trkpt>
      <trkpt lat="44.17979" lon="5.253341">
        <ele>1413.2</ele>
        <time>2020-05-29T21:07:55Z</time>
      </trkpt>
      <trkpt lat="44.179798" lon="5.253414">
        <ele>1413.6</ele>
        <time>2020-05-29T21:07:56Z</time>
      </trkpt>
      <trkpt lat="44.179813" lon="5.253488">
        <ele>1413.9</ele>
        <time>2020-05-29T21:07:57Z</time>
      </trkpt>
      <trkpt lat="44.179832" lon="5.253578">
        <ele>1414.3</ele>
        <time>2020-05-29T21:07:58Z</time>
      </trkpt>
      <trkpt lat="44.179848" lon="5.253654">
        <ele>1414.6</ele>
        <time>2020-05-29T21:07:59Z</time>
      </trkpt>
      <trkpt lat="44.179867" lon="5.253731">
        <ele>1414.9</ele>
        <time>2020-05-29T21:08:00Z</time>
      </trkpt>
      <trkpt lat="44.179893" lon="5.253829">
        <ele>1415.3</ele>
        <time>2020-05-29T21:08:01Z</time>
      </trkpt>
      <trkpt lat="44.179916" lon="5.253908">
        <ele>1415.6</ele>
        <time>2020-05-29T21:08:02Z</time>
      </trkpt>
      <trkpt lat="44.179939" lon="5.253986">
        <ele>1415.9</ele>
        <time>2020-05-29T21:08:03Z</time>
      </trkpt>
      <trkpt lat="44.179962" lon="5.254068">
        <ele>1416.1</ele>
        <time>2020-05-29T21:08:04Z</time>
      </trkpt>
      <trkpt lat="44.179985" lon="5.254146">
        <ele>1416.4</ele>
        <time>2020-05-29T21:08:05Z</time>
      </trkpt>
      <trkpt lat="44.180008" lon="5.25424">
        <ele>1416.7</ele>
        <time>2020-05-29T21:08:07Z</time>
      </trkpt>
      <trkpt lat="44.180031" lon="5.254318">
        <ele>1416.9</ele>
        <time>2020-05-29T21:08:08Z</time>
      </trkpt>
      <trkpt lat="44.180054" lon="5.2544">
        <ele>1417.2</ele>
        <time>2020-05-29T21:08:09Z</time>
      </trkpt>
      <trkpt lat="44.180084" lon="5.254494">
        <ele>1417.5</ele>
        <time>2020-05-29T21:08:10Z</time>
      </trkpt>
      <trkpt lat="44.180115" lon="5.25457">
        <ele>1417.8</ele>
        <time>2020-05-29T21:08:11Z</time>
      </trkpt>
      <trkpt lat="44.180153" lon="5.25466">
        <ele>1418.2</ele>
        <time>2020-05-29T21:08:12Z</time>
      </trkpt>
      <trkpt lat="44.180187" lon="5.254736">
        <ele>1418.5</ele>
        <time>2020-05-29T21:08:13Z</time>
      </trkpt>
      <trkpt lat="44.180229" lon="5.254804">
        <ele>1418.8</ele>
        <time>2020-05-29T21:08:14Z</time>
      </trkpt>
      <trkpt lat="44.180275" lon="5.254864">
        <ele>1419.1</ele>
        <time>2020-05-29T21:08:15Z</time>
      </trkpt>
      <trkpt lat="44.180359" lon="5.254906">
        <ele>1419.5</ele>
        <time>2020-05-29T21:08:16Z</time>
      </trkpt>
      <trkpt lat="44.180454" lon="5.25492">
        <ele>1419.9</ele>
        <time>2020-05-29T21:08:17Z</time>
      </trkpt>
      <trkpt lat="44.18055" lon="5.25492">
        <ele>1420.3</ele>
        <time>2020-05-29T21:08:19Z</time>
      </trkpt>
      <trkpt lat="44.180626" lon="5.254917">
        <ele>1420.6</ele>
        <time>2020-05-29T21:08:20Z</time>
      </trkpt>
      <trkpt lat="44.180721" lon="5.254918">
        <ele>1421</ele>
        <time>2020-05-29T21:08:21Z</time>
      </trkpt>
      <trkpt lat="44.180798" lon="5.254924">
        <ele>1421.3</ele>
        <time>2020-05-29T21:08:22Z</time>
      </trkpt>
      <trkpt lat="44.180893" lon="5.254947">
        <ele>1421.6</ele>
        <time>2020-05-29T21:08:23Z</time>
      </trkpt>
      <trkpt lat="44.18095" lon="5.254994">
        <ele>1421.8</ele>
        <time>2020-05-29T21:08:24Z</time>
      </trkpt>
      <trkpt lat="44.180977" lon="5.255069">
        <ele>1421.9</ele>
        <time>2020-05-29T21:08:25Z</time>
      </trkpt>
      <trkpt lat="44.180984" lon="5.255167">
        <ele>1422.1</ele>
        <time>2020-05-29T21:08:26Z</time>
      </trkpt>
      <trkpt lat="44.180992" lon="5.255269">
        <ele>1422.5</ele>
        <time>2020-05-29T21:08:27Z</time>
      </trkpt>
      <trkpt lat="44.181" lon="5.25535">
        <ele>1423.1</ele>
        <time>2020-05-29T21:08:28Z</time>
      </trkpt>
      <trkpt lat="44.181004" lon="5.255428">
        <ele>1423.4</ele>
        <time>2020-05-29T21:08:29Z</time>
      </trkpt>
      <trkpt lat="44.181007" lon="5.255522">
        <ele>1424.2</ele>
        <time>2020-05-29T21:08:31Z</time>
      </trkpt>
      <trkpt lat="44.181011" lon="5.255614">
        <ele>1424.3</ele>
        <time>2020-05-29T21:08:32Z</time>
      </trkpt>
      <trkpt lat="44.181011" lon="5.255706">
        <ele>1424.5</ele>
        <time>2020-05-29T21:08:33Z</time>
      </trkpt>
      <trkpt lat="44.181015" lon="5.255799">
        <ele>1424.9</ele>
        <time>2020-05-29T21:08:34Z</time>
      </trkpt>
      <trkpt lat="44.181019" lon="5.255892">
        <ele>1425.4</ele>
        <time>2020-05-29T21:08:35Z</time>
      </trkpt>
      <trkpt lat="44.181019" lon="5.255983">
        <ele>1425.9</ele>
        <time>2020-05-29T21:08:37Z</time>
      </trkpt>
      <trkpt lat="44.181023" lon="5.256059">
        <ele>1426.5</ele>
        <time>2020-05-29T21:08:38Z</time>
      </trkpt>
      <trkpt lat="44.181023" lon="5.256134">
        <ele>1427</ele>
        <time>2020-05-29T21:08:39Z</time>
      </trkpt>
      <trkpt lat="44.181023" lon="5.256225">
        <ele>1427.7</ele>
        <time>2020-05-29T21:08:40Z</time>
      </trkpt>
      <trkpt lat="44.181026" lon="5.256301">
        <ele>1428.3</ele>
        <time>2020-05-29T21:08:41Z</time>
      </trkpt>
      <trkpt lat="44.181026" lon="5.256388">
        <ele>1428.9</ele>
        <time>2020-05-29T21:08:42Z</time>
      </trkpt>
      <trkpt lat="44.18103" lon="5.256478">
        <ele>1429.5</ele>
        <time>2020-05-29T21:08:43Z</time>
      </trkpt>
      <trkpt lat="44.18103" lon="5.256553">
        <ele>1430</ele>
        <time>2020-05-29T21:08:44Z</time>
      </trkpt>
      <trkpt lat="44.181034" lon="5.256627">
        <ele>1430.4</ele>
        <time>2020-05-29T21:08:45Z</time>
      </trkpt>
      <trkpt lat="44.181038" lon="5.256716">
        <ele>1430.7</ele>
        <time>2020-05-29T21:08:46Z</time>
      </trkpt>
      <trkpt lat="44.181042" lon="5.256789">
        <ele>1430.8</ele>
        <time>2020-05-29T21:08:47Z</time>
      </trkpt>
      <trkpt lat="44.181045" lon="5.256872">
        <ele>1431</ele>
        <time>2020-05-29T21:08:49Z</time>
      </trkpt>
      <trkpt lat="44.181049" lon="5.256958">
        <ele>1431.2</ele>
        <time>2020-05-29T21:08:50Z</time>
      </trkpt>
      <trkpt lat="44.181053" lon="5.257046">
        <ele>1431.4</ele>
        <time>2020-05-29T21:08:51Z</time>
      </trkpt>
      <trkpt lat="44.181057" lon="5.257132">
        <ele>1431.6</ele>
        <time>2020-05-29T21:08:52Z</time>
      </trkpt>
      <trkpt lat="44.181065" lon="5.25722">
        <ele>1431.8</ele>
        <time>2020-05-29T21:08:53Z</time>
      </trkpt>
      <trkpt lat="44.181068" lon="5.257304">
        <ele>1432</ele>
        <time>2020-05-29T21:08:55Z</time>
      </trkpt>
      <trkpt lat="44.181072" lon="5.257376">
        <ele>1432.2</ele>
        <time>2020-05-29T21:08:56Z</time>
      </trkpt>
      <trkpt lat="44.181076" lon="5.257449">
        <ele>1432.3</ele>
        <time>2020-05-29T21:08:57Z</time>
      </trkpt>
      <trkpt lat="44.18108" lon="5.257524">
        <ele>1432.5</ele>
        <time>2020-05-29T21:08:58Z</time>
      </trkpt>
      <trkpt lat="44.181084" lon="5.257613">
        <ele>1432.7</ele>
        <time>2020-05-29T21:08:59Z</time>
      </trkpt>
      <trkpt lat="44.181087" lon="5.257688">
        <ele>1432.8</ele>
        <time>2020-05-29T21:09:00Z</time>
      </trkpt>
      <trkpt lat="44.181091" lon="5.257781">
        <ele>1433</ele>
        <time>2020-05-29T21:09:01Z</time>
      </trkpt>
      <trkpt lat="44.181095" lon="5.257875">
        <ele>1433.2</ele>
        <time>2020-05-29T21:09:02Z</time>
      </trkpt>
      <trkpt lat="44.181099" lon="5.257969">
        <ele>1433.4</ele>
        <time>2020-05-29T21:09:03Z</time>
      </trkpt>
      <trkpt lat="44.181091" lon="5.258061">
        <ele>1433.6</ele>
        <time>2020-05-29T21:09:05Z</time>
      </trkpt>
      <trkpt lat="44.181065" lon="5.258152">
        <ele>1433.8</ele>
        <time>2020-05-29T21:09:06Z</time>
      </trkpt>
      <trkpt lat="44.18103" lon="5.258218">
        <ele>1434</ele>
        <time>2020-05-29T21:09:07Z</time>
      </trkpt>
      <trkpt lat="44.180988" lon="5.258279">
        <ele>1434.2</ele>
        <time>2020-05-29T21:09:08Z</time>
      </trkpt>
      <trkpt lat="44.180923" lon="5.258341">
        <ele>1434.4</ele>
        <time>2020-05-29T21:09:09Z</time>
      </trkpt>
      <trkpt lat="44.180859" lon="5.258315">
        <ele>1434.5</ele>
        <time>2020-05-29T21:09:10Z</time>
      </trkpt>
      <trkpt lat="44.180855" lon="5.258223">
        <ele>1434.6</ele>
        <time>2020-05-29T21:09:11Z</time>
      </trkpt>
      <trkpt lat="44.180859" lon="5.258147">
        <ele>1434.7</ele>
        <time>2020-05-29T21:09:12Z</time>
      </trkpt>
      <trkpt lat="44.18087" lon="5.258043">
        <ele>1434.8</ele>
        <time>2020-05-29T21:09:13Z</time>
      </trkpt>
      <trkpt lat="44.180881" lon="5.257955">
        <ele>1434.9</ele>
        <time>2020-05-29T21:09:14Z</time>
      </trkpt>
      <trkpt lat="44.180893" lon="5.257853">
        <ele>1435.1</ele>
        <time>2020-05-29T21:09:16Z</time>
      </trkpt>
      <trkpt lat="44.180901" lon="5.257745">
        <ele>1435.1</ele>
        <time>2020-05-29T21:09:17Z</time>
      </trkpt>
      <trkpt lat="44.180908" lon="5.257654">
        <ele>1435.2</ele>
        <time>2020-05-29T21:09:18Z</time>
      </trkpt>
      <trkpt lat="44.180912" lon="5.257565">
        <ele>1435.2</ele>
        <time>2020-05-29T21:09:19Z</time>
      </trkpt>
      <trkpt lat="44.180916" lon="5.257455">
        <ele>1435.3</ele>
        <time>2020-05-29T21:09:20Z</time>
      </trkpt>
      <trkpt lat="44.18092" lon="5.257362">
        <ele>1435.3</ele>
        <time>2020-05-29T21:09:21Z</time>
      </trkpt>
      <trkpt lat="44.180923" lon="5.257267">
        <ele>1435.2</ele>
        <time>2020-05-29T21:09:22Z</time>
      </trkpt>
      <trkpt lat="44.180923" lon="5.257151">
        <ele>1435.1</ele>
        <time>2020-05-29T21:09:23Z</time>
      </trkpt>
      <trkpt lat="44.180927" lon="5.25703">
        <ele>1434.9</ele>
        <time>2020-05-29T21:09:24Z</time>
      </trkpt>
      <trkpt lat="44.180931" lon="5.256904">
        <ele>1434.6</ele>
        <time>2020-05-29T21:09:26Z</time>
      </trkpt>
      <trkpt lat="44.180931" lon="5.256793">
        <ele>1434.3</ele>
        <time>2020-05-29T21:09:27Z</time>
      </trkpt>
      <trkpt lat="44.180931" lon="5.256656">
        <ele>1434</ele>
        <time>2020-05-29T21:09:28Z</time>
      </trkpt>
      <trkpt lat="44.180927" lon="5.256536">
        <ele>1433.8</ele>
        <time>2020-05-29T21:09:29Z</time>
      </trkpt>
      <trkpt lat="44.180923" lon="5.256418">
        <ele>1433.7</ele>
        <time>2020-05-29T21:09:30Z</time>
      </trkpt>
      <trkpt lat="44.180908" lon="5.256271">
        <ele>1433.6</ele>
        <time>2020-05-29T21:09:31Z</time>
      </trkpt>
      <trkpt lat="44.180889" lon="5.256152">
        <ele>1433.6</ele>
        <time>2020-05-29T21:09:32Z</time>
      </trkpt>
      <trkpt lat="44.180862" lon="5.256004">
        <ele>1433.7</ele>
        <time>2020-05-29T21:09:33Z</time>
      </trkpt>
      <trkpt lat="44.180813" lon="5.255857">
        <ele>1434.6</ele>
        <time>2020-05-29T21:09:34Z</time>
      </trkpt>
      <trkpt lat="44.18074" lon="5.255723">
        <ele>1436.5</ele>
        <time>2020-05-29T21:09:36Z</time>
      </trkpt>
      <trkpt lat="44.180668" lon="5.255629">
        <ele>1437.8</ele>
        <time>2020-05-29T21:09:37Z</time>
      </trkpt>
      <trkpt lat="44.18058" lon="5.255546">
        <ele>1439.4</ele>
        <time>2020-05-29T21:09:38Z</time>
      </trkpt>
      <trkpt lat="44.1805" lon="5.255489">
        <ele>1441.5</ele>
        <time>2020-05-29T21:09:39Z</time>
      </trkpt>
      <trkpt lat="44.180439" lon="5.255451">
        <ele>1441.8</ele>
        <time>2020-05-29T21:09:40Z</time>
      </trkpt>
      <trkpt lat="44.18037" lon="5.255412">
        <ele>1442.2</ele>
        <time>2020-05-29T21:09:41Z</time>
      </trkpt>
      <trkpt lat="44.180313" lon="5.255377">
        <ele>1442.7</ele>
        <time>2020-05-29T21:09:42Z</time>
      </trkpt>
      <trkpt lat="44.180263" lon="5.255348">
        <ele>1443.2</ele>
        <time>2020-05-29T21:09:44Z</time>
      </trkpt>
      <trkpt lat="44.180218" lon="5.255321">
        <ele>1443.7</ele>
        <time>2020-05-29T21:09:45Z</time>
      </trkpt>
      <trkpt lat="44.180183" lon="5.255297">
        <ele>1444.1</ele>
        <time>2020-05-29T21:09:46Z</time>
      </trkpt>
      <trkpt lat="44.180138" lon="5.255267">
        <ele>1444.6</ele>
        <time>2020-05-29T21:09:47Z</time>
      </trkpt>
      <trkpt lat="44.180107" lon="5.255242">
        <ele>1445</ele>
        <time>2020-05-29T21:09:48Z</time>
      </trkpt>
      <trkpt lat="44.180069" lon="5.255213">
        <ele>1445.5</ele>
        <time>2020-05-29T21:09:49Z</time>
      </trkpt>
      <trkpt lat="44.180035" lon="5.255181">
        <ele>1445.9</ele>
        <time>2020-05-29T21:09:50Z</time>
      </trkpt>
      <trkpt lat="44.179996" lon="5.255146">
        <ele>1446.4</ele>
        <time>2020-05-29T21:09:52Z</time>
      </trkpt>
      <trkpt lat="44.179962" lon="5.25511">
        <ele>1446.9</ele>
        <time>2020-05-29T21:09:53Z</time>
      </trkpt>
      <trkpt lat="44.179932" lon="5.255075">
        <ele>1447.3</ele>
        <time>2020-05-29T21:09:54Z</time>
      </trkpt>
      <trkpt lat="44.179901" lon="5.255032">
        <ele>1447.8</ele>
        <time>2020-05-29T21:09:55Z</time>
      </trkpt>
      <trkpt lat="44.179878" lon="5.254996">
        <ele>1448.2</ele>
        <time>2020-05-29T21:09:56Z</time>
      </trkpt>
      <trkpt lat="44.179859" lon="5.25496">
        <ele>1448.5</ele>
        <time>2020-05-29T21:09:57Z</time>
      </trkpt>
      <trkpt lat="44.179832" lon="5.254913">
        <ele>1449</ele>
        <time>2020-05-29T21:09:58Z</time>
      </trkpt>
      <trkpt lat="44.179813" lon="5.254872">
        <ele>1449.4</ele>
        <time>2020-05-29T21:09:59Z</time>
      </trkpt>
      <trkpt lat="44.179794" lon="5.254826">
        <ele>1449.8</ele>
        <time>2020-05-29T21:10:00Z</time>
      </trkpt>
      <trkpt lat="44.179775" lon="5.254776">
        <ele>1450.3</ele>
        <time>2020-05-29T21:10:02Z</time>
      </trkpt>
      <trkpt lat="44.179752" lon="5.254723">
        <ele>1450.8</ele>
        <time>2020-05-29T21:10:03Z</time>
      </trkpt>
      <trkpt lat="44.179737" lon="5.254676">
        <ele>1451.2</ele>
        <time>2020-05-29T21:10:04Z</time>
      </trkpt>
      <trkpt lat="44.179718" lon="5.254621">
        <ele>1451.7</ele>
        <time>2020-05-29T21:10:05Z</time>
      </trkpt>
      <trkpt lat="44.179703" lon="5.254567">
        <ele>1452.2</ele>
        <time>2020-05-29T21:10:06Z</time>
      </trkpt>
      <trkpt lat="44.179684" lon="5.254514">
        <ele>1452.6</ele>
        <time>2020-05-29T21:10:07Z</time>
      </trkpt>
      <trkpt lat="44.179672" lon="5.254468">
        <ele>1453</ele>
        <time>2020-05-29T21:10:08Z</time>
      </trkpt>
      <trkpt lat="44.179657" lon="5.254416">
        <ele>1453.4</ele>
        <time>2020-05-29T21:10:10Z</time>
      </trkpt>
      <trkpt lat="44.179642" lon="5.254374">
        <ele>1453.7</ele>
        <time>2020-05-29T21:10:11Z</time>
      </trkpt>
      <trkpt lat="44.17963" lon="5.254327">
        <ele>1454.1</ele>
        <time>2020-05-29T21:10:12Z</time>
      </trkpt>
      <trkpt lat="44.179619" lon="5.254285">
        <ele>1454.4</ele>
        <time>2020-05-29T21:10:13Z</time>
      </trkpt>
      <trkpt lat="44.179607" lon="5.254245">
        <ele>1454.7</ele>
        <time>2020-05-29T21:10:14Z</time>
      </trkpt>
      <trkpt lat="44.179592" lon="5.254194">
        <ele>1455.1</ele>
        <time>2020-05-29T21:10:15Z</time>
      </trkpt>
      <trkpt lat="44.179581" lon="5.254153">
        <ele>1455.4</ele>
        <time>2020-05-29T21:10:16Z</time>
      </trkpt>
      <trkpt lat="44.179565" lon="5.254108">
        <ele>1455.7</ele>
        <time>2020-05-29T21:10:17Z</time>
      </trkpt>
      <trkpt lat="44.179554" lon="5.254061">
        <ele>1456</ele>
        <time>2020-05-29T21:10:18Z</time>
      </trkpt>
      <trkpt lat="44.179539" lon="5.254012">
        <ele>1456.4</ele>
        <time>2020-05-29T21:10:19Z</time>
      </trkpt>
      <trkpt lat="44.179523" lon="5.253962">
        <ele>1456.7</ele>
        <time>2020-05-29T21:10:20Z</time>
      </trkpt>
      <trkpt lat="44.179508" lon="5.253911">
        <ele>1457.1</ele>
        <time>2020-05-29T21:10:22Z</time>
      </trkpt>
      <trkpt lat="44.179489" lon="5.253859">
        <ele>1457.4</ele>
        <time>2020-05-29T21:10:23Z</time>
      </trkpt>
      <trkpt lat="44.17947" lon="5.2538">
        <ele>1457.9</ele>
        <time>2020-05-29T21:10:24Z</time>
      </trkpt>
      <trkpt lat="44.179451" lon="5.253742">
        <ele>1458.3</ele>
        <time>2020-05-29T21:10:25Z</time>
      </trkpt>
      <trkpt lat="44.179428" lon="5.253684">
        <ele>1458.7</ele>
        <time>2020-05-29T21:10:26Z</time>
      </trkpt>
      <trkpt lat="44.179405" lon="5.25362">
        <ele>1459.1</ele>
        <time>2020-05-29T21:10:28Z</time>
      </trkpt>
      <trkpt lat="44.179386" lon="5.253556">
        <ele>1459.5</ele>
        <time>2020-05-29T21:10:29Z</time>
      </trkpt>
      <trkpt lat="44.179371" lon="5.253497">
        <ele>1459.9</ele>
        <time>2020-05-29T21:10:30Z</time>
      </trkpt>
      <trkpt lat="44.179356" lon="5.253446">
        <ele>1460.2</ele>
        <time>2020-05-29T21:10:31Z</time>
      </trkpt>
      <trkpt lat="44.179344" lon="5.253395">
        <ele>1460.5</ele>
        <time>2020-05-29T21:10:32Z</time>
      </trkpt>
      <trkpt lat="44.179333" lon="5.253338">
        <ele>1460.9</ele>
        <time>2020-05-29T21:10:33Z</time>
      </trkpt>
      <trkpt lat="44.179321" lon="5.253283">
        <ele>1461.2</ele>
        <time>2020-05-29T21:10:34Z</time>
      </trkpt>
      <trkpt lat="44.179314" lon="5.253233">
        <ele>1461.6</ele>
        <time>2020-05-29T21:10:35Z</time>
      </trkpt>
      <trkpt lat="44.179302" lon="5.253175">
        <ele>1462</ele>
        <time>2020-05-29T21:10:37Z</time>
      </trkpt>
      <trkpt lat="44.179291" lon="5.253116">
        <ele>1462.4</ele>
        <time>2020-05-29T21:10:38Z</time>
      </trkpt>
      <trkpt lat="44.179283" lon="5.253065">
        <ele>1462.8</ele>
        <time>2020-05-29T21:10:39Z</time>
      </trkpt>
      <trkpt lat="44.179272" lon="5.253008">
        <ele>1463.2</ele>
        <time>2020-05-29T21:10:40Z</time>
      </trkpt>
      <trkpt lat="44.179264" lon="5.252952">
        <ele>1463.7</ele>
        <time>2020-05-29T21:10:41Z</time>
      </trkpt>
      <trkpt lat="44.179256" lon="5.252904">
        <ele>1464.1</ele>
        <time>2020-05-29T21:10:42Z</time>
      </trkpt>
      <trkpt lat="44.179249" lon="5.25286">
        <ele>1464.4</ele>
        <time>2020-05-29T21:10:43Z</time>
      </trkpt>
      <trkpt lat="44.179237" lon="5.252812">
        <ele>1464.8</ele>
        <time>2020-05-29T21:10:44Z</time>
      </trkpt>
      <trkpt lat="44.179222" lon="5.252757">
        <ele>1465.3</ele>
        <time>2020-05-29T21:10:45Z</time>
      </trkpt>
      <trkpt lat="44.179207" lon="5.252704">
        <ele>1465.7</ele>
        <time>2020-05-29T21:10:47Z</time>
      </trkpt>
      <trkpt lat="44.179184" lon="5.252644">
        <ele>1466.2</ele>
        <time>2020-05-29T21:10:48Z</time>
      </trkpt>
      <trkpt lat="44.179169" lon="5.2526">
        <ele>1466.6</ele>
        <time>2020-05-29T21:10:49Z</time>
      </trkpt>
      <trkpt lat="44.17915" lon="5.252551">
        <ele>1467</ele>
        <time>2020-05-29T21:10:50Z</time>
      </trkpt>
      <trkpt lat="44.179131" lon="5.252503">
        <ele>1467.4</ele>
        <time>2020-05-29T21:10:51Z</time>
      </trkpt>
      <trkpt lat="44.179115" lon="5.252457">
        <ele>1467.8</ele>
        <time>2020-05-29T21:10:52Z</time>
      </trkpt>
      <trkpt lat="44.179092" lon="5.252398">
        <ele>1468.3</ele>
        <time>2020-05-29T21:10:53Z</time>
      </trkpt>
      <trkpt lat="44.179073" lon="5.252355">
        <ele>1468.6</ele>
        <time>2020-05-29T21:10:54Z</time>
      </trkpt>
      <trkpt lat="44.179054" lon="5.252302">
        <ele>1469.1</ele>
        <time>2020-05-29T21:10:55Z</time>
      </trkpt>
      <trkpt lat="44.179039" lon="5.252255">
        <ele>1469.4</ele>
        <time>2020-05-29T21:10:56Z</time>
      </trkpt>
      <trkpt lat="44.17902" lon="5.252208">
        <ele>1469.8</ele>
        <time>2020-05-29T21:10:57Z</time>
      </trkpt>
      <trkpt lat="44.179001" lon="5.252151">
        <ele>1470.3</ele>
        <time>2020-05-29T21:10:58Z</time>
      </trkpt>
      <trkpt lat="44.178982" lon="5.252094">
        <ele>1470.8</ele>
        <time>2020-05-29T21:11:00Z</time>
      </trkpt>
      <trkpt lat="44.17897" lon="5.252036">
        <ele>1471.2</ele>
        <time>2020-05-29T21:11:01Z</time>
      </trkpt>
      <trkpt lat="44.178963" lon="5.251977">
        <ele>1471.7</ele>
        <time>2020-05-29T21:11:02Z</time>
      </trkpt>
      <trkpt lat="44.178959" lon="5.251933">
        <ele>1472</ele>
        <time>2020-05-29T21:11:03Z</time>
      </trkpt>
      <trkpt lat="44.178963" lon="5.251875">
        <ele>1472.4</ele>
        <time>2020-05-29T21:11:04Z</time>
      </trkpt>
      <trkpt lat="44.178967" lon="5.251826">
        <ele>1472.7</ele>
        <time>2020-05-29T21:11:05Z</time>
      </trkpt>
      <trkpt lat="44.17897" lon="5.25178">
        <ele>1473.1</ele>
        <time>2020-05-29T21:11:06Z</time>
      </trkpt>
      <trkpt lat="44.178978" lon="5.251718">
        <ele>1473.4</ele>
        <time>2020-05-29T21:11:07Z</time>
      </trkpt>
      <trkpt lat="44.178982" lon="5.251671">
        <ele>1473.7</ele>
        <time>2020-05-29T21:11:08Z</time>
      </trkpt>
      <trkpt lat="44.178993" lon="5.251614">
        <ele>1474.1</ele>
        <time>2020-05-29T21:11:10Z</time>
      </trkpt>
      <trkpt lat="44.179001" lon="5.251564">
        <ele>1474.5</ele>
        <time>2020-05-29T21:11:11Z</time>
      </trkpt>
      <trkpt lat="44.179012" lon="5.251507">
        <ele>1474.8</ele>
        <time>2020-05-29T21:11:12Z</time>
      </trkpt>
      <trkpt lat="44.179024" lon="5.25145">
        <ele>1475.3</ele>
        <time>2020-05-29T21:11:13Z</time>
      </trkpt>
      <trkpt lat="44.179035" lon="5.251392">
        <ele>1475.7</ele>
        <time>2020-05-29T21:11:14Z</time>
      </trkpt>
      <trkpt lat="44.179047" lon="5.251333">
        <ele>1476.2</ele>
        <time>2020-05-29T21:11:15Z</time>
      </trkpt>
      <trkpt lat="44.179054" lon="5.251273">
        <ele>1476.7</ele>
        <time>2020-05-29T21:11:17Z</time>
      </trkpt>
      <trkpt lat="44.179062" lon="5.251209">
        <ele>1477.2</ele>
        <time>2020-05-29T21:11:18Z</time>
      </trkpt>
      <trkpt lat="44.179066" lon="5.251162">
        <ele>1477.6</ele>
        <time>2020-05-29T21:11:19Z</time>
      </trkpt>
      <trkpt lat="44.179066" lon="5.251111">
        <ele>1478</ele>
        <time>2020-05-29T21:11:20Z</time>
      </trkpt>
      <trkpt lat="44.179066" lon="5.251053">
        <ele>1478.5</ele>
        <time>2020-05-29T21:11:21Z</time>
      </trkpt>
      <trkpt lat="44.179062" lon="5.250995">
        <ele>1479</ele>
        <time>2020-05-29T21:11:22Z</time>
      </trkpt>
      <trkpt lat="44.179054" lon="5.250945">
        <ele>1479.4</ele>
        <time>2020-05-29T21:11:23Z</time>
      </trkpt>
      <trkpt lat="44.179043" lon="5.250885">
        <ele>1479.9</ele>
        <time>2020-05-29T21:11:24Z</time>
      </trkpt>
      <trkpt lat="44.179031" lon="5.250834">
        <ele>1480.3</ele>
        <time>2020-05-29T21:11:25Z</time>
      </trkpt>
      <trkpt lat="44.179016" lon="5.250777">
        <ele>1480.8</ele>
        <time>2020-05-29T21:11:27Z</time>
      </trkpt>
      <trkpt lat="44.178997" lon="5.250721">
        <ele>1481.3</ele>
        <time>2020-05-29T21:11:28Z</time>
      </trkpt>
      <trkpt lat="44.178982" lon="5.250667">
        <ele>1481.8</ele>
        <time>2020-05-29T21:11:29Z</time>
      </trkpt>
      <trkpt lat="44.178967" lon="5.250623">
        <ele>1482.2</ele>
        <time>2020-05-29T21:11:30Z</time>
      </trkpt>
      <trkpt lat="44.178951" lon="5.250568">
        <ele>1482.6</ele>
        <time>2020-05-29T21:11:31Z</time>
      </trkpt>
      <trkpt lat="44.178932" lon="5.250513">
        <ele>1483.1</ele>
        <time>2020-05-29T21:11:32Z</time>
      </trkpt>
      <trkpt lat="44.178917" lon="5.250467">
        <ele>1483.5</ele>
        <time>2020-05-29T21:11:33Z</time>
      </trkpt>
      <trkpt lat="44.178898" lon="5.250416">
        <ele>1483.9</ele>
        <time>2020-05-29T21:11:35Z</time>
      </trkpt>
      <trkpt lat="44.178879" lon="5.250371">
        <ele>1484.3</ele>
        <time>2020-05-29T21:11:36Z</time>
      </trkpt>
      <trkpt lat="44.17886" lon="5.250321">
        <ele>1484.8</ele>
        <time>2020-05-29T21:11:37Z</time>
      </trkpt>
      <trkpt lat="44.178837" lon="5.250269">
        <ele>1485.2</ele>
        <time>2020-05-29T21:11:38Z</time>
      </trkpt>
      <trkpt lat="44.178814" lon="5.250223">
        <ele>1485.6</ele>
        <time>2020-05-29T21:11:39Z</time>
      </trkpt>
      <trkpt lat="44.178791" lon="5.250167">
        <ele>1486.1</ele>
        <time>2020-05-29T21:11:40Z</time>
      </trkpt>
      <trkpt lat="44.178768" lon="5.250119">
        <ele>1486.5</ele>
        <time>2020-05-29T21:11:41Z</time>
      </trkpt>
      <trkpt lat="44.178745" lon="5.250074">
        <ele>1486.9</ele>
        <time>2020-05-29T21:11:42Z</time>
      </trkpt>
      <trkpt lat="44.178718" lon="5.250017">
        <ele>1487.4</ele>
        <time>2020-05-29T21:11:44Z</time>
      </trkpt>
      <trkpt lat="44.178696" lon="5.249965">
        <ele>1487.8</ele>
        <time>2020-05-29T21:11:45Z</time>
      </trkpt>
      <trkpt lat="44.178665" lon="5.249908">
        <ele>1488.3</ele>
        <time>2020-05-29T21:11:46Z</time>
      </trkpt>
      <trkpt lat="44.178646" lon="5.249866">
        <ele>1488.6</ele>
        <time>2020-05-29T21:11:47Z</time>
      </trkpt>
      <trkpt lat="44.178623" lon="5.249821">
        <ele>1489</ele>
        <time>2020-05-29T21:11:48Z</time>
      </trkpt>
      <trkpt lat="44.178604" lon="5.249779">
        <ele>1489.3</ele>
        <time>2020-05-29T21:11:49Z</time>
      </trkpt>
      <trkpt lat="44.178581" lon="5.249733">
        <ele>1489.6</ele>
        <time>2020-05-29T21:11:50Z</time>
      </trkpt>
      <trkpt lat="44.178554" lon="5.249681">
        <ele>1490</ele>
        <time>2020-05-29T21:11:51Z</time>
      </trkpt>
      <trkpt lat="44.178532" lon="5.249635">
        <ele>1490.4</ele>
        <time>2020-05-29T21:11:52Z</time>
      </trkpt>
      <trkpt lat="44.178505" lon="5.249582">
        <ele>1490.8</ele>
        <time>2020-05-29T21:11:53Z</time>
      </trkpt>
      <trkpt lat="44.178478" lon="5.249528">
        <ele>1491.2</ele>
        <time>2020-05-29T21:11:55Z</time>
      </trkpt>
      <trkpt lat="44.178455" lon="5.249483">
        <ele>1491.6</ele>
        <time>2020-05-29T21:11:56Z</time>
      </trkpt>
      <trkpt lat="44.178429" lon="5.249431">
        <ele>1492</ele>
        <time>2020-05-29T21:11:57Z</time>
      </trkpt>
      <trkpt lat="44.178406" lon="5.249378">
        <ele>1492.4</ele>
        <time>2020-05-29T21:11:58Z</time>
      </trkpt>
      <trkpt lat="44.178379" lon="5.249326">
        <ele>1492.8</ele>
        <time>2020-05-29T21:11:59Z</time>
      </trkpt>
      <trkpt lat="44.178356" lon="5.249283">
        <ele>1493.1</ele>
        <time>2020-05-29T21:12:00Z</time>
      </trkpt>
      <trkpt lat="44.178329" lon="5.249231">
        <ele>1493.6</ele>
        <time>2020-05-29T21:12:01Z</time>
      </trkpt>
      <trkpt lat="44.17831" lon="5.249192">
        <ele>1493.9</ele>
        <time>2020-05-29T21:12:02Z</time>
      </trkpt>
      <trkpt lat="44.178287" lon="5.24915">
        <ele>1494.2</ele>
        <time>2020-05-29T21:12:03Z</time>
      </trkpt>
      <trkpt lat="44.178268" lon="5.249112">
        <ele>1494.6</ele>
        <time>2020-05-29T21:12:04Z</time>
      </trkpt>
      <trkpt lat="44.178246" lon="5.249074">
        <ele>1494.9</ele>
        <time>2020-05-29T21:12:05Z</time>
      </trkpt>
      <trkpt lat="44.178226" lon="5.249033">
        <ele>1495.3</ele>
        <time>2020-05-29T21:12:06Z</time>
      </trkpt>
      <trkpt lat="44.1782" lon="5.248985">
        <ele>1495.7</ele>
        <time>2020-05-29T21:12:08Z</time>
      </trkpt>
      <trkpt lat="44.178177" lon="5.24894">
        <ele>1496.1</ele>
        <time>2020-05-29T21:12:09Z</time>
      </trkpt>
      <trkpt lat="44.17815" lon="5.248891">
        <ele>1496.6</ele>
        <time>2020-05-29T21:12:10Z</time>
      </trkpt>
      <trkpt lat="44.17812" lon="5.248836">
        <ele>1497.1</ele>
        <time>2020-05-29T21:12:11Z</time>
      </trkpt>
      <trkpt lat="44.178089" lon="5.248784">
        <ele>1497.6</ele>
        <time>2020-05-29T21:12:12Z</time>
      </trkpt>
      <trkpt lat="44.178062" lon="5.248735">
        <ele>1498.1</ele>
        <time>2020-05-29T21:12:14Z</time>
      </trkpt>
      <trkpt lat="44.178039" lon="5.248696">
        <ele>1498.5</ele>
        <time>2020-05-29T21:12:15Z</time>
      </trkpt>
      <trkpt lat="44.178009" lon="5.248647">
        <ele>1499</ele>
        <time>2020-05-29T21:12:16Z</time>
      </trkpt>
      <trkpt lat="44.177978" lon="5.248597">
        <ele>1499.4</ele>
        <time>2020-05-29T21:12:17Z</time>
      </trkpt>
      <trkpt lat="44.177948" lon="5.248548">
        <ele>1499.8</ele>
        <time>2020-05-29T21:12:18Z</time>
      </trkpt>
      <trkpt lat="44.177921" lon="5.248505">
        <ele>1500.3</ele>
        <time>2020-05-29T21:12:19Z</time>
      </trkpt>
      <trkpt lat="44.177891" lon="5.248457">
        <ele>1500.7</ele>
        <time>2020-05-29T21:12:20Z</time>
      </trkpt>
      <trkpt lat="44.177868" lon="5.248421">
        <ele>1501</ele>
        <time>2020-05-29T21:12:21Z</time>
      </trkpt>
      <trkpt lat="44.177841" lon="5.248377">
        <ele>1501.4</ele>
        <time>2020-05-29T21:12:23Z</time>
      </trkpt>
      <trkpt lat="44.177814" lon="5.248337">
        <ele>1501.8</ele>
        <time>2020-05-29T21:12:24Z</time>
      </trkpt>
      <trkpt lat="44.177792" lon="5.248299">
        <ele>1502.1</ele>
        <time>2020-05-29T21:12:25Z</time>
      </trkpt>
      <trkpt lat="44.177769" lon="5.248266">
        <ele>1502.4</ele>
        <time>2020-05-29T21:12:26Z</time>
      </trkpt>
      <trkpt lat="44.177746" lon="5.248232">
        <ele>1502.7</ele>
        <time>2020-05-29T21:12:27Z</time>
      </trkpt>
      <trkpt lat="44.177719" lon="5.24819">
        <ele>1503.1</ele>
        <time>2020-05-29T21:12:28Z</time>
      </trkpt>
      <trkpt lat="44.177692" lon="5.248149">
        <ele>1503.4</ele>
        <time>2020-05-29T21:12:29Z</time>
      </trkpt>
      <trkpt lat="44.17767" lon="5.248111">
        <ele>1503.7</ele>
        <time>2020-05-29T21:12:31Z</time>
      </trkpt>
      <trkpt lat="44.177647" lon="5.248079">
        <ele>1504</ele>
        <time>2020-05-29T21:12:32Z</time>
      </trkpt>
      <trkpt lat="44.17762" lon="5.248037">
        <ele>1504.4</ele>
        <time>2020-05-29T21:12:33Z</time>
      </trkpt>
      <trkpt lat="44.177597" lon="5.248003">
        <ele>1504.7</ele>
        <time>2020-05-29T21:12:34Z</time>
      </trkpt>
      <trkpt lat="44.177574" lon="5.247969">
        <ele>1504.9</ele>
        <time>2020-05-29T21:12:35Z</time>
      </trkpt>
      <trkpt lat="44.177551" lon="5.247932">
        <ele>1505.3</ele>
        <time>2020-05-29T21:12:36Z</time>
      </trkpt>
      <trkpt lat="44.177528" lon="5.247893">
        <ele>1505.6</ele>
        <time>2020-05-29T21:12:37Z</time>
      </trkpt>
      <trkpt lat="44.177502" lon="5.247851">
        <ele>1505.9</ele>
        <time>2020-05-29T21:12:38Z</time>
      </trkpt>
      <trkpt lat="44.177475" lon="5.247812">
        <ele>1506.3</ele>
        <time>2020-05-29T21:12:39Z</time>
      </trkpt>
      <trkpt lat="44.177452" lon="5.247776">
        <ele>1506.6</ele>
        <time>2020-05-29T21:12:40Z</time>
      </trkpt>
      <trkpt lat="44.177425" lon="5.247732">
        <ele>1506.9</ele>
        <time>2020-05-29T21:12:41Z</time>
      </trkpt>
      <trkpt lat="44.177395" lon="5.247686">
        <ele>1507.3</ele>
        <time>2020-05-29T21:12:42Z</time>
      </trkpt>
      <trkpt lat="44.177368" lon="5.247644">
        <ele>1507.7</ele>
        <time>2020-05-29T21:12:44Z</time>
      </trkpt>
      <trkpt lat="44.177338" lon="5.247599">
        <ele>1508</ele>
        <time>2020-05-29T21:12:45Z</time>
      </trkpt>
      <trkpt lat="44.177307" lon="5.247552">
        <ele>1508.4</ele>
        <time>2020-05-29T21:12:46Z</time>
      </trkpt>
      <trkpt lat="44.177277" lon="5.247506">
        <ele>1508.8</ele>
        <time>2020-05-29T21:12:47Z</time>
      </trkpt>
      <trkpt lat="44.177246" lon="5.247459">
        <ele>1509.2</ele>
        <time>2020-05-29T21:12:48Z</time>
      </trkpt>
      <trkpt lat="44.177216" lon="5.247412">
        <ele>1509.6</ele>
        <time>2020-05-29T21:12:50Z</time>
      </trkpt>
      <trkpt lat="44.177185" lon="5.24737">
        <ele>1510</ele>
        <time>2020-05-29T21:12:51Z</time>
      </trkpt>
      <trkpt lat="44.177158" lon="5.247329">
        <ele>1510.3</ele>
        <time>2020-05-29T21:12:52Z</time>
      </trkpt>
      <trkpt lat="44.177124" lon="5.24728">
        <ele>1510.8</ele>
        <time>2020-05-29T21:12:53Z</time>
      </trkpt>
      <trkpt lat="44.17709" lon="5.247232">
        <ele>1511.2</ele>
        <time>2020-05-29T21:12:54Z</time>
      </trkpt>
      <trkpt lat="44.177063" lon="5.247194">
        <ele>1511.5</ele>
        <time>2020-05-29T21:12:55Z</time>
      </trkpt>
      <trkpt lat="44.177036" lon="5.247152">
        <ele>1511.9</ele>
        <time>2020-05-29T21:12:56Z</time>
      </trkpt>
      <trkpt lat="44.177006" lon="5.247104">
        <ele>1512.3</ele>
        <time>2020-05-29T21:12:57Z</time>
      </trkpt>
      <trkpt lat="44.176975" lon="5.247055">
        <ele>1512.7</ele>
        <time>2020-05-29T21:12:59Z</time>
      </trkpt>
      <trkpt lat="44.176956" lon="5.247014">
        <ele>1512.9</ele>
        <time>2020-05-29T21:13:00Z</time>
      </trkpt>
      <trkpt lat="44.176941" lon="5.246968">
        <ele>1513.2</ele>
        <time>2020-05-29T21:13:01Z</time>
      </trkpt>
      <trkpt lat="44.176929" lon="5.246914">
        <ele>1513.5</ele>
        <time>2020-05-29T21:13:02Z</time>
      </trkpt>
      <trkpt lat="44.176918" lon="5.246859">
        <ele>1513.8</ele>
        <time>2020-05-29T21:13:03Z</time>
      </trkpt>
      <trkpt lat="44.176903" lon="5.246815">
        <ele>1514.1</ele>
        <time>2020-05-29T21:13:04Z</time>
      </trkpt>
      <trkpt lat="44.176876" lon="5.246771">
        <ele>1514.4</ele>
        <time>2020-05-29T21:13:05Z</time>
      </trkpt>
      <trkpt lat="44.176842" lon="5.246727">
        <ele>1514.8</ele>
        <time>2020-05-29T21:13:06Z</time>
      </trkpt>
      <trkpt lat="44.176788" lon="5.246678">
        <ele>1515.2</ele>
        <time>2020-05-29T21:13:07Z</time>
      </trkpt>
      <trkpt lat="44.17672" lon="5.246653">
        <ele>1515.7</ele>
        <time>2020-05-29T21:13:08Z</time>
      </trkpt>
      <trkpt lat="44.176659" lon="5.24667">
        <ele>1516</ele>
        <time>2020-05-29T21:13:09Z</time>
      </trkpt>
      <trkpt lat="44.176613" lon="5.246712">
        <ele>1516.3</ele>
        <time>2020-05-29T21:13:10Z</time>
      </trkpt>
      <trkpt lat="44.17659" lon="5.246774">
        <ele>1516.7</ele>
        <time>2020-05-29T21:13:11Z</time>
      </trkpt>
      <trkpt lat="44.176598" lon="5.246843">
        <ele>1517.1</ele>
        <time>2020-05-29T21:13:12Z</time>
      </trkpt>
      <trkpt lat="44.17662" lon="5.246905">
        <ele>1517.5</ele>
        <time>2020-05-29T21:13:13Z</time>
      </trkpt>
      <trkpt lat="44.176651" lon="5.246977">
        <ele>1518.1</ele>
        <time>2020-05-29T21:13:15Z</time>
      </trkpt>
      <trkpt lat="44.176685" lon="5.247036">
        <ele>1518.6</ele>
        <time>2020-05-29T21:13:16Z</time>
      </trkpt>
      <trkpt lat="44.17672" lon="5.247095">
        <ele>1519.1</ele>
        <time>2020-05-29T21:13:17Z</time>
      </trkpt>
      <trkpt lat="44.176746" lon="5.24714">
        <ele>1519.5</ele>
        <time>2020-05-29T21:13:18Z</time>
      </trkpt>
      <trkpt lat="44.176769" lon="5.247182">
        <ele>1519.8</ele>
        <time>2020-05-29T21:13:19Z</time>
      </trkpt>
      <trkpt lat="44.176792" lon="5.247235">
        <ele>1520.3</ele>
        <time>2020-05-29T21:13:20Z</time>
      </trkpt>
      <trkpt lat="44.176811" lon="5.247284">
        <ele>1520.7</ele>
        <time>2020-05-29T21:13:21Z</time>
      </trkpt>
      <trkpt lat="44.176826" lon="5.247339">
        <ele>1521.1</ele>
        <time>2020-05-29T21:13:22Z</time>
      </trkpt>
      <trkpt lat="44.176838" lon="5.247394">
        <ele>1521.6</ele>
        <time>2020-05-29T21:13:24Z</time>
      </trkpt>
      <trkpt lat="44.176849" lon="5.24745">
        <ele>1522.1</ele>
        <time>2020-05-29T21:13:25Z</time>
      </trkpt>
      <trkpt lat="44.176861" lon="5.247506">
        <ele>1522.6</ele>
        <time>2020-05-29T21:13:26Z</time>
      </trkpt>
      <trkpt lat="44.176872" lon="5.247552">
        <ele>1523</ele>
        <time>2020-05-29T21:13:27Z</time>
      </trkpt>
      <trkpt lat="44.176887" lon="5.247614">
        <ele>1523.5</ele>
        <time>2020-05-29T21:13:28Z</time>
      </trkpt>
      <trkpt lat="44.176907" lon="5.247678">
        <ele>1524.1</ele>
        <time>2020-05-29T21:13:29Z</time>
      </trkpt>
      <trkpt lat="44.176922" lon="5.247741">
        <ele>1524.6</ele>
        <time>2020-05-29T21:13:31Z</time>
      </trkpt>
      <trkpt lat="44.176941" lon="5.247808">
        <ele>1525.2</ele>
        <time>2020-05-29T21:13:32Z</time>
      </trkpt>
      <trkpt lat="44.176956" lon="5.247871">
        <ele>1525.7</ele>
        <time>2020-05-29T21:13:33Z</time>
      </trkpt>
      <trkpt lat="44.176975" lon="5.24794">
        <ele>1526.2</ele>
        <time>2020-05-29T21:13:34Z</time>
      </trkpt>
      <trkpt lat="44.176994" lon="5.248007">
        <ele>1526.6</ele>
        <time>2020-05-29T21:13:35Z</time>
      </trkpt>
      <trkpt lat="44.17701" lon="5.248063">
        <ele>1527</ele>
        <time>2020-05-29T21:13:36Z</time>
      </trkpt>
      <trkpt lat="44.177025" lon="5.24813">
        <ele>1527.4</ele>
        <time>2020-05-29T21:13:38Z</time>
      </trkpt>
      <trkpt lat="44.17704" lon="5.248186">
        <ele>1527.8</ele>
        <time>2020-05-29T21:13:39Z</time>
      </trkpt>
      <trkpt lat="44.177059" lon="5.248254">
        <ele>1528.3</ele>
        <time>2020-05-29T21:13:40Z</time>
      </trkpt>
      <trkpt lat="44.177078" lon="5.248317">
        <ele>1528.7</ele>
        <time>2020-05-29T21:13:41Z</time>
      </trkpt>
      <trkpt lat="44.177093" lon="5.248372">
        <ele>1529.1</ele>
        <time>2020-05-29T21:13:42Z</time>
      </trkpt>
      <trkpt lat="44.177109" lon="5.248437">
        <ele>1529.5</ele>
        <time>2020-05-29T21:13:43Z</time>
      </trkpt>
      <trkpt lat="44.177128" lon="5.248499">
        <ele>1529.9</ele>
        <time>2020-05-29T21:13:44Z</time>
      </trkpt>
      <trkpt lat="44.177143" lon="5.248563">
        <ele>1530.3</ele>
        <time>2020-05-29T21:13:46Z</time>
      </trkpt>
      <trkpt lat="44.177158" lon="5.248617">
        <ele>1530.7</ele>
        <time>2020-05-29T21:13:47Z</time>
      </trkpt>
      <trkpt lat="44.177174" lon="5.248679">
        <ele>1531.1</ele>
        <time>2020-05-29T21:13:48Z</time>
      </trkpt>
      <trkpt lat="44.177189" lon="5.248733">
        <ele>1531.4</ele>
        <time>2020-05-29T21:13:49Z</time>
      </trkpt>
      <trkpt lat="44.177204" lon="5.248801">
        <ele>1531.9</ele>
        <time>2020-05-29T21:13:50Z</time>
      </trkpt>
      <trkpt lat="44.177219" lon="5.248857">
        <ele>1532.2</ele>
        <time>2020-05-29T21:13:51Z</time>
      </trkpt>
      <trkpt lat="44.177235" lon="5.248912">
        <ele>1532.6</ele>
        <time>2020-05-29T21:13:52Z</time>
      </trkpt>
      <trkpt lat="44.177246" lon="5.248967">
        <ele>1532.9</ele>
        <time>2020-05-29T21:13:53Z</time>
      </trkpt>
      <trkpt lat="44.177261" lon="5.249026">
        <ele>1533.3</ele>
        <time>2020-05-29T21:13:54Z</time>
      </trkpt>
      <trkpt lat="44.177277" lon="5.249089">
        <ele>1533.7</ele>
        <time>2020-05-29T21:13:55Z</time>
      </trkpt>
      <trkpt lat="44.177292" lon="5.249143">
        <ele>1534.1</ele>
        <time>2020-05-29T21:13:56Z</time>
      </trkpt>
      <trkpt lat="44.177307" lon="5.24921">
        <ele>1534.5</ele>
        <time>2020-05-29T21:13:57Z</time>
      </trkpt>
      <trkpt lat="44.177319" lon="5.249267">
        <ele>1534.9</ele>
        <time>2020-05-29T21:13:58Z</time>
      </trkpt>
      <trkpt lat="44.177334" lon="5.249336">
        <ele>1535.3</ele>
        <time>2020-05-29T21:14:00Z</time>
      </trkpt>
      <trkpt lat="44.177345" lon="5.249407">
        <ele>1535.7</ele>
        <time>2020-05-29T21:14:01Z</time>
      </trkpt>
      <trkpt lat="44.177357" lon="5.249474">
        <ele>1536.1</ele>
        <time>2020-05-29T21:14:02Z</time>
      </trkpt>
      <trkpt lat="44.177368" lon="5.249544">
        <ele>1536.5</ele>
        <time>2020-05-29T21:14:03Z</time>
      </trkpt>
      <trkpt lat="44.177376" lon="5.2496">
        <ele>1536.8</ele>
        <time>2020-05-29T21:14:04Z</time>
      </trkpt>
      <trkpt lat="44.177387" lon="5.249667">
        <ele>1537.3</ele>
        <time>2020-05-29T21:14:05Z</time>
      </trkpt>
      <trkpt lat="44.177395" lon="5.249735">
        <ele>1537.7</ele>
        <time>2020-05-29T21:14:07Z</time>
      </trkpt>
      <trkpt lat="44.177402" lon="5.249791">
        <ele>1538</ele>
        <time>2020-05-29T21:14:08Z</time>
      </trkpt>
      <trkpt lat="44.17741" lon="5.249848">
        <ele>1538.4</ele>
        <time>2020-05-29T21:14:09Z</time>
      </trkpt>
      <trkpt lat="44.177414" lon="5.249905">
        <ele>1538.7</ele>
        <time>2020-05-29T21:14:10Z</time>
      </trkpt>
      <trkpt lat="44.177422" lon="5.249976">
        <ele>1539.2</ele>
        <time>2020-05-29T21:14:11Z</time>
      </trkpt>
      <trkpt lat="44.177429" lon="5.250033">
        <ele>1539.5</ele>
        <time>2020-05-29T21:14:12Z</time>
      </trkpt>
      <trkpt lat="44.177437" lon="5.250099">
        <ele>1539.9</ele>
        <time>2020-05-29T21:14:13Z</time>
      </trkpt>
      <trkpt lat="44.177448" lon="5.250168">
        <ele>1540.4</ele>
        <time>2020-05-29T21:14:14Z</time>
      </trkpt>
      <trkpt lat="44.177456" lon="5.250237">
        <ele>1540.8</ele>
        <time>2020-05-29T21:14:15Z</time>
      </trkpt>
      <trkpt lat="44.177463" lon="5.250294">
        <ele>1541.1</ele>
        <time>2020-05-29T21:14:16Z</time>
      </trkpt>
      <trkpt lat="44.177471" lon="5.250359">
        <ele>1541.5</ele>
        <time>2020-05-29T21:14:18Z</time>
      </trkpt>
      <trkpt lat="44.177479" lon="5.250427">
        <ele>1541.9</ele>
        <time>2020-05-29T21:14:19Z</time>
      </trkpt>
      <trkpt lat="44.177486" lon="5.250492">
        <ele>1542.3</ele>
        <time>2020-05-29T21:14:20Z</time>
      </trkpt>
      <trkpt lat="44.177494" lon="5.250547">
        <ele>1542.6</ele>
        <time>2020-05-29T21:14:21Z</time>
      </trkpt>
      <trkpt lat="44.177498" lon="5.250604">
        <ele>1542.9</ele>
        <time>2020-05-29T21:14:22Z</time>
      </trkpt>
      <trkpt lat="44.177505" lon="5.250674">
        <ele>1543.3</ele>
        <time>2020-05-29T21:14:23Z</time>
      </trkpt>
      <trkpt lat="44.177517" lon="5.250739">
        <ele>1543.7</ele>
        <time>2020-05-29T21:14:24Z</time>
      </trkpt>
      <trkpt lat="44.177524" lon="5.250807">
        <ele>1544</ele>
        <time>2020-05-29T21:14:26Z</time>
      </trkpt>
      <trkpt lat="44.177532" lon="5.250871">
        <ele>1544.4</ele>
        <time>2020-05-29T21:14:27Z</time>
      </trkpt>
      <trkpt lat="44.17754" lon="5.250926">
        <ele>1544.7</ele>
        <time>2020-05-29T21:14:28Z</time>
      </trkpt>
      <trkpt lat="44.177544" lon="5.250981">
        <ele>1544.9</ele>
        <time>2020-05-29T21:14:29Z</time>
      </trkpt>
      <trkpt lat="44.177551" lon="5.25105">
        <ele>1545.3</ele>
        <time>2020-05-29T21:14:30Z</time>
      </trkpt>
      <trkpt lat="44.177555" lon="5.251108">
        <ele>1545.5</ele>
        <time>2020-05-29T21:14:31Z</time>
      </trkpt>
      <trkpt lat="44.177559" lon="5.251166">
        <ele>1545.8</ele>
        <time>2020-05-29T21:14:32Z</time>
      </trkpt>
      <trkpt lat="44.177563" lon="5.251226">
        <ele>1546.1</ele>
        <time>2020-05-29T21:14:33Z</time>
      </trkpt>
      <trkpt lat="44.177566" lon="5.251286">
        <ele>1546.4</ele>
        <time>2020-05-29T21:14:34Z</time>
      </trkpt>
      <trkpt lat="44.177566" lon="5.251359">
        <ele>1546.8</ele>
        <time>2020-05-29T21:14:35Z</time>
      </trkpt>
      <trkpt lat="44.177566" lon="5.251432">
        <ele>1547.1</ele>
        <time>2020-05-29T21:14:36Z</time>
      </trkpt>
      <trkpt lat="44.17757" lon="5.251491">
        <ele>1547.4</ele>
        <time>2020-05-29T21:14:37Z</time>
      </trkpt>
      <trkpt lat="44.17757" lon="5.251566">
        <ele>1547.7</ele>
        <time>2020-05-29T21:14:39Z</time>
      </trkpt>
      <trkpt lat="44.17757" lon="5.251627">
        <ele>1548</ele>
        <time>2020-05-29T21:14:40Z</time>
      </trkpt>
      <trkpt lat="44.17757" lon="5.251704">
        <ele>1548.3</ele>
        <time>2020-05-29T21:14:41Z</time>
      </trkpt>
      <trkpt lat="44.177574" lon="5.25178">
        <ele>1548.7</ele>
        <time>2020-05-29T21:14:42Z</time>
      </trkpt>
      <trkpt lat="44.177574" lon="5.251856">
        <ele>1549</ele>
        <time>2020-05-29T21:14:43Z</time>
      </trkpt>
      <trkpt lat="44.177574" lon="5.251931">
        <ele>1549.4</ele>
        <time>2020-05-29T21:14:44Z</time>
      </trkpt>
      <trkpt lat="44.177578" lon="5.252006">
        <ele>1549.8</ele>
        <time>2020-05-29T21:14:46Z</time>
      </trkpt>
      <trkpt lat="44.177578" lon="5.25208">
        <ele>1550.1</ele>
        <time>2020-05-29T21:14:47Z</time>
      </trkpt>
      <trkpt lat="44.177582" lon="5.252152">
        <ele>1550.5</ele>
        <time>2020-05-29T21:14:48Z</time>
      </trkpt>
      <trkpt lat="44.177586" lon="5.252225">
        <ele>1550.8</ele>
        <time>2020-05-29T21:14:49Z</time>
      </trkpt>
      <trkpt lat="44.177589" lon="5.252293">
        <ele>1551</ele>
        <time>2020-05-29T21:14:50Z</time>
      </trkpt>
      <trkpt lat="44.177593" lon="5.252355">
        <ele>1551.2</ele>
        <time>2020-05-29T21:14:51Z</time>
      </trkpt>
      <trkpt lat="44.177601" lon="5.252424">
        <ele>1551.4</ele>
        <time>2020-05-29T21:14:53Z</time>
      </trkpt>
      <trkpt lat="44.177605" lon="5.252483">
        <ele>1551.5</ele>
        <time>2020-05-29T21:14:54Z</time>
      </trkpt>
      <trkpt lat="44.177612" lon="5.252556">
        <ele>1551.7</ele>
        <time>2020-05-29T21:14:55Z</time>
      </trkpt>
      <trkpt lat="44.17762" lon="5.252629">
        <ele>1551.9</ele>
        <time>2020-05-29T21:14:56Z</time>
      </trkpt>
      <trkpt lat="44.177628" lon="5.252703">
        <ele>1552.1</ele>
        <time>2020-05-29T21:14:57Z</time>
      </trkpt>
      <trkpt lat="44.177635" lon="5.252776">
        <ele>1552.3</ele>
        <time>2020-05-29T21:14:58Z</time>
      </trkpt>
      <trkpt lat="44.177639" lon="5.25285">
        <ele>1552.6</ele>
        <time>2020-05-29T21:15:00Z</time>
      </trkpt>
      <trkpt lat="44.177647" lon="5.25292">
        <ele>1552.9</ele>
        <time>2020-05-29T21:15:01Z</time>
      </trkpt>
      <trkpt lat="44.177654" lon="5.252984">
        <ele>1553.1</ele>
        <time>2020-05-29T21:15:02Z</time>
      </trkpt>
      <trkpt lat="44.177662" lon="5.253043">
        <ele>1553.3</ele>
        <time>2020-05-29T21:15:03Z</time>
      </trkpt>
      <trkpt lat="44.17767" lon="5.253107">
        <ele>1553.5</ele>
        <time>2020-05-29T21:15:04Z</time>
      </trkpt>
      <trkpt lat="44.177673" lon="5.253166">
        <ele>1553.7</ele>
        <time>2020-05-29T21:15:05Z</time>
      </trkpt>
      <trkpt lat="44.177681" lon="5.253225">
        <ele>1553.9</ele>
        <time>2020-05-29T21:15:06Z</time>
      </trkpt>
      <trkpt lat="44.177685" lon="5.253297">
        <ele>1554.2</ele>
        <time>2020-05-29T21:15:07Z</time>
      </trkpt>
      <trkpt lat="44.177692" lon="5.253355">
        <ele>1554.4</ele>
        <time>2020-05-29T21:15:08Z</time>
      </trkpt>
      <trkpt lat="44.177696" lon="5.253425">
        <ele>1554.7</ele>
        <time>2020-05-29T21:15:09Z</time>
      </trkpt>
      <trkpt lat="44.177704" lon="5.253497">
        <ele>1555</ele>
        <time>2020-05-29T21:15:10Z</time>
      </trkpt>
      <trkpt lat="44.177708" lon="5.25356">
        <ele>1555.2</ele>
        <time>2020-05-29T21:15:11Z</time>
      </trkpt>
      <trkpt lat="44.177711" lon="5.253635">
        <ele>1555.5</ele>
        <time>2020-05-29T21:15:13Z</time>
      </trkpt>
      <trkpt lat="44.177715" lon="5.253698">
        <ele>1555.7</ele>
        <time>2020-05-29T21:15:14Z</time>
      </trkpt>
      <trkpt lat="44.177723" lon="5.253775">
        <ele>1556</ele>
        <time>2020-05-29T21:15:15Z</time>
      </trkpt>
      <trkpt lat="44.177727" lon="5.253842">
        <ele>1556.3</ele>
        <time>2020-05-29T21:15:16Z</time>
      </trkpt>
      <trkpt lat="44.177731" lon="5.253909">
        <ele>1556.5</ele>
        <time>2020-05-29T21:15:17Z</time>
      </trkpt>
      <trkpt lat="44.177734" lon="5.253987">
        <ele>1556.8</ele>
        <time>2020-05-29T21:15:18Z</time>
      </trkpt>
      <trkpt lat="44.177738" lon="5.254055">
        <ele>1557.1</ele>
        <time>2020-05-29T21:15:19Z</time>
      </trkpt>
      <trkpt lat="44.177742" lon="5.254132">
        <ele>1557.4</ele>
        <time>2020-05-29T21:15:20Z</time>
      </trkpt>
      <trkpt lat="44.177742" lon="5.254208">
        <ele>1557.7</ele>
        <time>2020-05-29T21:15:21Z</time>
      </trkpt>
      <trkpt lat="44.177746" lon="5.254298">
        <ele>1558</ele>
        <time>2020-05-29T21:15:22Z</time>
      </trkpt>
      <trkpt lat="44.17775" lon="5.254387">
        <ele>1558.4</ele>
        <time>2020-05-29T21:15:23Z</time>
      </trkpt>
      <trkpt lat="44.17775" lon="5.254471">
        <ele>1558.7</ele>
        <time>2020-05-29T21:15:25Z</time>
      </trkpt>
      <trkpt lat="44.177746" lon="5.254559">
        <ele>1559.1</ele>
        <time>2020-05-29T21:15:26Z</time>
      </trkpt>
      <trkpt lat="44.177742" lon="5.254648">
        <ele>1559.5</ele>
        <time>2020-05-29T21:15:27Z</time>
      </trkpt>
      <trkpt lat="44.177734" lon="5.254718">
        <ele>1559.8</ele>
        <time>2020-05-29T21:15:28Z</time>
      </trkpt>
      <trkpt lat="44.177727" lon="5.25479">
        <ele>1560.1</ele>
        <time>2020-05-29T21:15:29Z</time>
      </trkpt>
      <trkpt lat="44.177711" lon="5.254871">
        <ele>1560.5</ele>
        <time>2020-05-29T21:15:30Z</time>
      </trkpt>
      <trkpt lat="44.177692" lon="5.254956">
        <ele>1560.8</ele>
        <time>2020-05-29T21:15:31Z</time>
      </trkpt>
      <trkpt lat="44.177681" lon="5.255022">
        <ele>1561.1</ele>
        <time>2020-05-29T21:15:32Z</time>
      </trkpt>
      <trkpt lat="44.177662" lon="5.255108">
        <ele>1561.5</ele>
        <time>2020-05-29T21:15:34Z</time>
      </trkpt>
      <trkpt lat="44.17765" lon="5.255191">
        <ele>1561.9</ele>
        <time>2020-05-29T21:15:35Z</time>
      </trkpt>
      <trkpt lat="44.177635" lon="5.255278">
        <ele>1562.3</ele>
        <time>2020-05-29T21:15:36Z</time>
      </trkpt>
      <trkpt lat="44.177628" lon="5.255365">
        <ele>1562.7</ele>
        <time>2020-05-29T21:15:37Z</time>
      </trkpt>
      <trkpt lat="44.177624" lon="5.25545">
        <ele>1563</ele>
        <time>2020-05-29T21:15:38Z</time>
      </trkpt>
      <trkpt lat="44.177628" lon="5.255534">
        <ele>1563.4</ele>
        <time>2020-05-29T21:15:40Z</time>
      </trkpt>
      <trkpt lat="44.177639" lon="5.255609">
        <ele>1563.7</ele>
        <time>2020-05-29T21:15:41Z</time>
      </trkpt>
      <trkpt lat="44.177662" lon="5.255695">
        <ele>1564.1</ele>
        <time>2020-05-29T21:15:42Z</time>
      </trkpt>
      <trkpt lat="44.177692" lon="5.255765">
        <ele>1564.4</ele>
        <time>2020-05-29T21:15:43Z</time>
      </trkpt>
      <trkpt lat="44.177727" lon="5.255844">
        <ele>1564.8</ele>
        <time>2020-05-29T21:15:44Z</time>
      </trkpt>
      <trkpt lat="44.177765" lon="5.255926">
        <ele>1565.2</ele>
        <time>2020-05-29T21:15:45Z</time>
      </trkpt>
      <trkpt lat="44.177799" lon="5.256008">
        <ele>1565.6</ele>
        <time>2020-05-29T21:15:46Z</time>
      </trkpt>
      <trkpt lat="44.17783" lon="5.256087">
        <ele>1566</ele>
        <time>2020-05-29T21:15:48Z</time>
      </trkpt>
      <trkpt lat="44.177856" lon="5.256172">
        <ele>1566.4</ele>
        <time>2020-05-29T21:15:49Z</time>
      </trkpt>
      <trkpt lat="44.177872" lon="5.256254">
        <ele>1566.8</ele>
        <time>2020-05-29T21:15:50Z</time>
      </trkpt>
      <trkpt lat="44.177883" lon="5.256323">
        <ele>1567.1</ele>
        <time>2020-05-29T21:15:51Z</time>
      </trkpt>
      <trkpt lat="44.177895" lon="5.256404">
        <ele>1567.5</ele>
        <time>2020-05-29T21:15:52Z</time>
      </trkpt>
      <trkpt lat="44.177902" lon="5.256488">
        <ele>1567.9</ele>
        <time>2020-05-29T21:15:53Z</time>
      </trkpt>
      <trkpt lat="44.17791" lon="5.256554">
        <ele>1568.2</ele>
        <time>2020-05-29T21:15:54Z</time>
      </trkpt>
      <trkpt lat="44.177914" lon="5.256623">
        <ele>1568.5</ele>
        <time>2020-05-29T21:15:55Z</time>
      </trkpt>
      <trkpt lat="44.177921" lon="5.256694">
        <ele>1568.9</ele>
        <time>2020-05-29T21:15:56Z</time>
      </trkpt>
      <trkpt lat="44.177925" lon="5.256761">
        <ele>1569.2</ele>
        <time>2020-05-29T21:15:57Z</time>
      </trkpt>
      <trkpt lat="44.177929" lon="5.256845">
        <ele>1569.7</ele>
        <time>2020-05-29T21:15:59Z</time>
      </trkpt>
      <trkpt lat="44.177933" lon="5.25691">
        <ele>1570</ele>
        <time>2020-05-29T21:16:00Z</time>
      </trkpt>
      <trkpt lat="44.177937" lon="5.256987">
        <ele>1570.4</ele>
        <time>2020-05-29T21:16:01Z</time>
      </trkpt>
      <trkpt lat="44.17794" lon="5.257068">
        <ele>1570.8</ele>
        <time>2020-05-29T21:16:02Z</time>
      </trkpt>
      <trkpt lat="44.17794" lon="5.257146">
        <ele>1571.2</ele>
        <time>2020-05-29T21:16:03Z</time>
      </trkpt>
      <trkpt lat="44.177944" lon="5.257225">
        <ele>1571.6</ele>
        <time>2020-05-29T21:16:04Z</time>
      </trkpt>
      <trkpt lat="44.177944" lon="5.257305">
        <ele>1572</ele>
        <time>2020-05-29T21:16:06Z</time>
      </trkpt>
      <trkpt lat="44.177944" lon="5.257386">
        <ele>1572.4</ele>
        <time>2020-05-29T21:16:07Z</time>
      </trkpt>
      <trkpt lat="44.177944" lon="5.257457">
        <ele>1572.8</ele>
        <time>2020-05-29T21:16:08Z</time>
      </trkpt>
      <trkpt lat="44.177944" lon="5.257539">
        <ele>1573.1</ele>
        <time>2020-05-29T21:16:09Z</time>
      </trkpt>
      <trkpt lat="44.17794" lon="5.257624">
        <ele>1573.6</ele>
        <time>2020-05-29T21:16:10Z</time>
      </trkpt>
      <trkpt lat="44.177937" lon="5.257689">
        <ele>1573.9</ele>
        <time>2020-05-29T21:16:11Z</time>
      </trkpt>
      <trkpt lat="44.177933" lon="5.257774">
        <ele>1574.4</ele>
        <time>2020-05-29T21:16:12Z</time>
      </trkpt>
      <trkpt lat="44.177925" lon="5.257853">
        <ele>1574.8</ele>
        <time>2020-05-29T21:16:14Z</time>
      </trkpt>
      <trkpt lat="44.177921" lon="5.257918">
        <ele>1575.1</ele>
        <time>2020-05-29T21:16:15Z</time>
      </trkpt>
      <trkpt lat="44.177914" lon="5.258001">
        <ele>1575.6</ele>
        <time>2020-05-29T21:16:16Z</time>
      </trkpt>
      <trkpt lat="44.177906" lon="5.258081">
        <ele>1576</ele>
        <time>2020-05-29T21:16:17Z</time>
      </trkpt>
      <trkpt lat="44.177895" lon="5.258159">
        <ele>1576.4</ele>
        <time>2020-05-29T21:16:18Z</time>
      </trkpt>
      <trkpt lat="44.177879" lon="5.258236">
        <ele>1576.8</ele>
        <time>2020-05-29T21:16:19Z</time>
      </trkpt>
      <trkpt lat="44.177864" lon="5.258302">
        <ele>1577.2</ele>
        <time>2020-05-29T21:16:20Z</time>
      </trkpt>
      <trkpt lat="44.177849" lon="5.258363">
        <ele>1577.5</ele>
        <time>2020-05-29T21:16:21Z</time>
      </trkpt>
      <trkpt lat="44.17783" lon="5.258438">
        <ele>1578</ele>
        <time>2020-05-29T21:16:23Z</time>
      </trkpt>
      <trkpt lat="44.177807" lon="5.258508">
        <ele>1578.5</ele>
        <time>2020-05-29T21:16:24Z</time>
      </trkpt>
      <trkpt lat="44.177784" lon="5.258575">
        <ele>1579</ele>
        <time>2020-05-29T21:16:25Z</time>
      </trkpt>
      <trkpt lat="44.177757" lon="5.258639">
        <ele>1579.5</ele>
        <time>2020-05-29T21:16:26Z</time>
      </trkpt>
      <trkpt lat="44.177738" lon="5.258688">
        <ele>1579.9</ele>
        <time>2020-05-29T21:16:27Z</time>
      </trkpt>
      <trkpt lat="44.177715" lon="5.258746">
        <ele>1580.4</ele>
        <time>2020-05-29T21:16:28Z</time>
      </trkpt>
      <trkpt lat="44.1777" lon="5.258797">
        <ele>1580.8</ele>
        <time>2020-05-29T21:16:29Z</time>
      </trkpt>
      <trkpt lat="44.177685" lon="5.25885">
        <ele>1581.3</ele>
        <time>2020-05-29T21:16:30Z</time>
      </trkpt>
      <trkpt lat="44.177677" lon="5.258901">
        <ele>1581.7</ele>
        <time>2020-05-29T21:16:31Z</time>
      </trkpt>
      <trkpt lat="44.17767" lon="5.258957">
        <ele>1582.1</ele>
        <time>2020-05-29T21:16:32Z</time>
      </trkpt>
      <trkpt lat="44.177662" lon="5.259013">
        <ele>1582.5</ele>
        <time>2020-05-29T21:16:33Z</time>
      </trkpt>
      <trkpt lat="44.177662" lon="5.259082">
        <ele>1583</ele>
        <time>2020-05-29T21:16:35Z</time>
      </trkpt>
      <trkpt lat="44.17767" lon="5.259137">
        <ele>1583.4</ele>
        <time>2020-05-29T21:16:36Z</time>
      </trkpt>
      <trkpt lat="44.177685" lon="5.259198">
        <ele>1583.8</ele>
        <time>2020-05-29T21:16:37Z</time>
      </trkpt>
      <trkpt lat="44.177708" lon="5.259262">
        <ele>1584.3</ele>
        <time>2020-05-29T21:16:38Z</time>
      </trkpt>
      <trkpt lat="44.177723" lon="5.259312">
        <ele>1584.6</ele>
        <time>2020-05-29T21:16:39Z</time>
      </trkpt>
      <trkpt lat="44.177738" lon="5.259356">
        <ele>1584.9</ele>
        <time>2020-05-29T21:16:40Z</time>
      </trkpt>
      <trkpt lat="44.177761" lon="5.259412">
        <ele>1585.3</ele>
        <time>2020-05-29T21:16:41Z</time>
      </trkpt>
      <trkpt lat="44.177776" lon="5.25946">
        <ele>1585.7</ele>
        <time>2020-05-29T21:16:42Z</time>
      </trkpt>
      <trkpt lat="44.177792" lon="5.259506">
        <ele>1586</ele>
        <time>2020-05-29T21:16:43Z</time>
      </trkpt>
      <trkpt lat="44.177799" lon="5.259549">
        <ele>1586.3</ele>
        <time>2020-05-29T21:16:44Z</time>
      </trkpt>
      <trkpt lat="44.177807" lon="5.259591">
        <ele>1586.6</ele>
        <time>2020-05-29T21:16:45Z</time>
      </trkpt>
      <trkpt lat="44.177814" lon="5.259645">
        <ele>1587</ele>
        <time>2020-05-29T21:16:47Z</time>
      </trkpt>
      <trkpt lat="44.177822" lon="5.259701">
        <ele>1587.4</ele>
        <time>2020-05-29T21:16:48Z</time>
      </trkpt>
      <trkpt lat="44.17783" lon="5.25975">
        <ele>1587.7</ele>
        <time>2020-05-29T21:16:49Z</time>
      </trkpt>
      <trkpt lat="44.177834" lon="5.259799">
        <ele>1588.1</ele>
        <time>2020-05-29T21:16:50Z</time>
      </trkpt>
      <trkpt lat="44.177837" lon="5.259856">
        <ele>1588.5</ele>
        <time>2020-05-29T21:16:51Z</time>
      </trkpt>
      <trkpt lat="44.177841" lon="5.259911">
        <ele>1588.9</ele>
        <time>2020-05-29T21:16:52Z</time>
      </trkpt>
      <trkpt lat="44.177845" lon="5.259955">
        <ele>1589.2</ele>
        <time>2020-05-29T21:16:53Z</time>
      </trkpt>
      <trkpt lat="44.177849" lon="5.26001">
        <ele>1589.6</ele>
        <time>2020-05-29T21:16:54Z</time>
      </trkpt>
      <trkpt lat="44.177853" lon="5.260066">
        <ele>1590</ele>
        <time>2020-05-29T21:16:56Z</time>
      </trkpt>
      <trkpt lat="44.177856" lon="5.260121">
        <ele>1590.4</ele>
        <time>2020-05-29T21:16:57Z</time>
      </trkpt>
      <trkpt lat="44.17786" lon="5.260178">
        <ele>1590.8</ele>
        <time>2020-05-29T21:16:58Z</time>
      </trkpt>
      <trkpt lat="44.177864" lon="5.260222">
        <ele>1591.1</ele>
        <time>2020-05-29T21:16:59Z</time>
      </trkpt>
      <trkpt lat="44.177864" lon="5.260284">
        <ele>1591.6</ele>
        <time>2020-05-29T21:17:00Z</time>
      </trkpt>
      <trkpt lat="44.177868" lon="5.260343">
        <ele>1592</ele>
        <time>2020-05-29T21:17:01Z</time>
      </trkpt>
      <trkpt lat="44.177868" lon="5.260402">
        <ele>1592.4</ele>
        <time>2020-05-29T21:17:03Z</time>
      </trkpt>
      <trkpt lat="44.177868" lon="5.260467">
        <ele>1592.8</ele>
        <time>2020-05-29T21:17:04Z</time>
      </trkpt>
      <trkpt lat="44.177872" lon="5.260528">
        <ele>1593.2</ele>
        <time>2020-05-29T21:17:05Z</time>
      </trkpt>
      <trkpt lat="44.177872" lon="5.26059">
        <ele>1593.6</ele>
        <time>2020-05-29T21:17:06Z</time>
      </trkpt>
      <trkpt lat="44.177872" lon="5.260652">
        <ele>1594</ele>
        <time>2020-05-29T21:17:07Z</time>
      </trkpt>
      <trkpt lat="44.177872" lon="5.260717">
        <ele>1594.4</ele>
        <time>2020-05-29T21:17:09Z</time>
      </trkpt>
      <trkpt lat="44.177868" lon="5.260785">
        <ele>1594.9</ele>
        <time>2020-05-29T21:17:10Z</time>
      </trkpt>
      <trkpt lat="44.177868" lon="5.260848">
        <ele>1595.3</ele>
        <time>2020-05-29T21:17:11Z</time>
      </trkpt>
      <trkpt lat="44.177868" lon="5.260916">
        <ele>1595.8</ele>
        <time>2020-05-29T21:17:12Z</time>
      </trkpt>
      <trkpt lat="44.177864" lon="5.260973">
        <ele>1596.2</ele>
        <time>2020-05-29T21:17:13Z</time>
      </trkpt>
      <trkpt lat="44.177864" lon="5.261029">
        <ele>1596.6</ele>
        <time>2020-05-29T21:17:14Z</time>
      </trkpt>
      <trkpt lat="44.17786" lon="5.261084">
        <ele>1597</ele>
        <time>2020-05-29T21:17:15Z</time>
      </trkpt>
      <trkpt lat="44.177856" lon="5.261155">
        <ele>1597.5</ele>
        <time>2020-05-29T21:17:16Z</time>
      </trkpt>
      <trkpt lat="44.177853" lon="5.261227">
        <ele>1598.1</ele>
        <time>2020-05-29T21:17:18Z</time>
      </trkpt>
      <trkpt lat="44.177849" lon="5.261299">
        <ele>1598.6</ele>
        <time>2020-05-29T21:17:19Z</time>
      </trkpt>
      <trkpt lat="44.177845" lon="5.261356">
        <ele>1599</ele>
        <time>2020-05-29T21:17:20Z</time>
      </trkpt>
      <trkpt lat="44.177841" lon="5.261422">
        <ele>1599.5</ele>
        <time>2020-05-29T21:17:21Z</time>
      </trkpt>
      <trkpt lat="44.177834" lon="5.261477">
        <ele>1599.9</ele>
        <time>2020-05-29T21:17:22Z</time>
      </trkpt>
      <trkpt lat="44.17783" lon="5.261545">
        <ele>1600.3</ele>
        <time>2020-05-29T21:17:23Z</time>
      </trkpt>
      <trkpt lat="44.177826" lon="5.261595">
        <ele>1600.7</ele>
        <time>2020-05-29T21:17:24Z</time>
      </trkpt>
      <trkpt lat="44.177818" lon="5.261662">
        <ele>1601.2</ele>
        <time>2020-05-29T21:17:25Z</time>
      </trkpt>
      <trkpt lat="44.177814" lon="5.261716">
        <ele>1601.5</ele>
        <time>2020-05-29T21:17:26Z</time>
      </trkpt>
      <trkpt lat="44.177811" lon="5.26177">
        <ele>1601.9</ele>
        <time>2020-05-29T21:17:27Z</time>
      </trkpt>
      <trkpt lat="44.177803" lon="5.26183">
        <ele>1602.4</ele>
        <time>2020-05-29T21:17:29Z</time>
      </trkpt>
      <trkpt lat="44.177799" lon="5.261881">
        <ele>1602.7</ele>
        <time>2020-05-29T21:17:30Z</time>
      </trkpt>
      <trkpt lat="44.177799" lon="5.261929">
        <ele>1603.1</ele>
        <time>2020-05-29T21:17:31Z</time>
      </trkpt>
      <trkpt lat="44.177795" lon="5.261982">
        <ele>1603.5</ele>
        <time>2020-05-29T21:17:32Z</time>
      </trkpt>
      <trkpt lat="44.177792" lon="5.262043">
        <ele>1603.9</ele>
        <time>2020-05-29T21:17:33Z</time>
      </trkpt>
      <trkpt lat="44.177788" lon="5.262109">
        <ele>1604.4</ele>
        <time>2020-05-29T21:17:34Z</time>
      </trkpt>
      <trkpt lat="44.177788" lon="5.262158">
        <ele>1604.8</ele>
        <time>2020-05-29T21:17:35Z</time>
      </trkpt>
      <trkpt lat="44.177784" lon="5.262219">
        <ele>1605.2</ele>
        <time>2020-05-29T21:17:36Z</time>
      </trkpt>
      <trkpt lat="44.177784" lon="5.262285">
        <ele>1605.7</ele>
        <time>2020-05-29T21:17:37Z</time>
      </trkpt>
      <trkpt lat="44.177784" lon="5.262334">
        <ele>1606</ele>
        <time>2020-05-29T21:17:38Z</time>
      </trkpt>
      <trkpt lat="44.177784" lon="5.262387">
        <ele>1606.4</ele>
        <time>2020-05-29T21:17:39Z</time>
      </trkpt>
      <trkpt lat="44.177784" lon="5.262448">
        <ele>1606.8</ele>
        <time>2020-05-29T21:17:41Z</time>
      </trkpt>
      <trkpt lat="44.177784" lon="5.262513">
        <ele>1607.3</ele>
        <time>2020-05-29T21:17:42Z</time>
      </trkpt>
      <trkpt lat="44.177784" lon="5.262573">
        <ele>1607.7</ele>
        <time>2020-05-29T21:17:43Z</time>
      </trkpt>
      <trkpt lat="44.177784" lon="5.262624">
        <ele>1608</ele>
        <time>2020-05-29T21:17:44Z</time>
      </trkpt>
      <trkpt lat="44.177784" lon="5.262671">
        <ele>1608.3</ele>
        <time>2020-05-29T21:17:45Z</time>
      </trkpt>
      <trkpt lat="44.177784" lon="5.26273">
        <ele>1608.7</ele>
        <time>2020-05-29T21:17:46Z</time>
      </trkpt>
      <trkpt lat="44.177784" lon="5.262793">
        <ele>1609.1</ele>
        <time>2020-05-29T21:17:47Z</time>
      </trkpt>
      <trkpt lat="44.177788" lon="5.26284">
        <ele>1609.4</ele>
        <time>2020-05-29T21:17:48Z</time>
      </trkpt>
      <trkpt lat="44.177788" lon="5.262892">
        <ele>1609.7</ele>
        <time>2020-05-29T21:17:49Z</time>
      </trkpt>
      <trkpt lat="44.177788" lon="5.262951">
        <ele>1610.1</ele>
        <time>2020-05-29T21:17:51Z</time>
      </trkpt>
      <trkpt lat="44.177788" lon="5.263011">
        <ele>1610.5</ele>
        <time>2020-05-29T21:17:52Z</time>
      </trkpt>
      <trkpt lat="44.177792" lon="5.263063">
        <ele>1610.9</ele>
        <time>2020-05-29T21:17:53Z</time>
      </trkpt>
      <trkpt lat="44.177792" lon="5.263122">
        <ele>1611.3</ele>
        <time>2020-05-29T21:17:54Z</time>
      </trkpt>
      <trkpt lat="44.177792" lon="5.263185">
        <ele>1611.7</ele>
        <time>2020-05-29T21:17:55Z</time>
      </trkpt>
      <trkpt lat="44.177795" lon="5.263244">
        <ele>1612.2</ele>
        <time>2020-05-29T21:17:56Z</time>
      </trkpt>
      <trkpt lat="44.177795" lon="5.263303">
        <ele>1612.6</ele>
        <time>2020-05-29T21:17:58Z</time>
      </trkpt>
      <trkpt lat="44.177795" lon="5.263363">
        <ele>1613</ele>
        <time>2020-05-29T21:17:59Z</time>
      </trkpt>
      <trkpt lat="44.177799" lon="5.263427">
        <ele>1613.5</ele>
        <time>2020-05-29T21:18:00Z</time>
      </trkpt>
      <trkpt lat="44.177799" lon="5.263487">
        <ele>1613.9</ele>
        <time>2020-05-29T21:18:01Z</time>
      </trkpt>
      <trkpt lat="44.177799" lon="5.263549">
        <ele>1614.4</ele>
        <time>2020-05-29T21:18:02Z</time>
      </trkpt>
      <trkpt lat="44.177803" lon="5.263603">
        <ele>1614.7</ele>
        <time>2020-05-29T21:18:03Z</time>
      </trkpt>
      <trkpt lat="44.177803" lon="5.263668">
        <ele>1615.2</ele>
        <time>2020-05-29T21:18:05Z</time>
      </trkpt>
      <trkpt lat="44.177803" lon="5.263729">
        <ele>1615.6</ele>
        <time>2020-05-29T21:18:06Z</time>
      </trkpt>
      <trkpt lat="44.177807" lon="5.263791">
        <ele>1616</ele>
        <time>2020-05-29T21:18:07Z</time>
      </trkpt>
      <trkpt lat="44.177807" lon="5.263851">
        <ele>1616.4</ele>
        <time>2020-05-29T21:18:08Z</time>
      </trkpt>
      <trkpt lat="44.177807" lon="5.263902">
        <ele>1616.7</ele>
        <time>2020-05-29T21:18:09Z</time>
      </trkpt>
      <trkpt lat="44.177807" lon="5.263953">
        <ele>1617.1</ele>
        <time>2020-05-29T21:18:10Z</time>
      </trkpt>
      <trkpt lat="44.177807" lon="5.263999">
        <ele>1617.4</ele>
        <time>2020-05-29T21:18:11Z</time>
      </trkpt>
      <trkpt lat="44.177811" lon="5.264064">
        <ele>1617.8</ele>
        <time>2020-05-29T21:18:12Z</time>
      </trkpt>
      <trkpt lat="44.177811" lon="5.264112">
        <ele>1618.2</ele>
        <time>2020-05-29T21:18:13Z</time>
      </trkpt>
      <trkpt lat="44.177811" lon="5.264164">
        <ele>1618.5</ele>
        <time>2020-05-29T21:18:14Z</time>
      </trkpt>
      <trkpt lat="44.177811" lon="5.264225">
        <ele>1618.9</ele>
        <time>2020-05-29T21:18:16Z</time>
      </trkpt>
      <trkpt lat="44.177811" lon="5.26429">
        <ele>1619.3</ele>
        <time>2020-05-29T21:18:17Z</time>
      </trkpt>
      <trkpt lat="44.177811" lon="5.264349">
        <ele>1619.6</ele>
        <time>2020-05-29T21:18:18Z</time>
      </trkpt>
      <trkpt lat="44.177811" lon="5.264412">
        <ele>1619.8</ele>
        <time>2020-05-29T21:18:19Z</time>
      </trkpt>
      <trkpt lat="44.177811" lon="5.264472">
        <ele>1620</ele>
        <time>2020-05-29T21:18:20Z</time>
      </trkpt>
      <trkpt lat="44.177811" lon="5.264533">
        <ele>1620.1</ele>
        <time>2020-05-29T21:18:22Z</time>
      </trkpt>
      <trkpt lat="44.177811" lon="5.264589">
        <ele>1620.4</ele>
        <time>2020-05-29T21:18:23Z</time>
      </trkpt>
      <trkpt lat="44.177807" lon="5.264653">
        <ele>1620.6</ele>
        <time>2020-05-29T21:18:24Z</time>
      </trkpt>
      <trkpt lat="44.177803" lon="5.26471">
        <ele>1620.9</ele>
        <time>2020-05-29T21:18:25Z</time>
      </trkpt>
      <trkpt lat="44.177799" lon="5.264779">
        <ele>1621.2</ele>
        <time>2020-05-29T21:18:26Z</time>
      </trkpt>
      <trkpt lat="44.177792" lon="5.264845">
        <ele>1621.6</ele>
        <time>2020-05-29T21:18:27Z</time>
      </trkpt>
      <trkpt lat="44.177784" lon="5.264914">
        <ele>1622.1</ele>
        <time>2020-05-29T21:18:28Z</time>
      </trkpt>
      <trkpt lat="44.177773" lon="5.264971">
        <ele>1622.4</ele>
        <time>2020-05-29T21:18:29Z</time>
      </trkpt>
      <trkpt lat="44.177761" lon="5.265042">
        <ele>1622.9</ele>
        <time>2020-05-29T21:18:31Z</time>
      </trkpt>
      <trkpt lat="44.17775" lon="5.265101">
        <ele>1623.3</ele>
        <time>2020-05-29T21:18:32Z</time>
      </trkpt>
      <trkpt lat="44.177734" lon="5.265176">
        <ele>1623.8</ele>
        <time>2020-05-29T21:18:33Z</time>
      </trkpt>
      <trkpt lat="44.177711" lon="5.265249">
        <ele>1624.3</ele>
        <time>2020-05-29T21:18:34Z</time>
      </trkpt>
      <trkpt lat="44.177685" lon="5.265319">
        <ele>1624.8</ele>
        <time>2020-05-29T21:18:35Z</time>
      </trkpt>
      <trkpt lat="44.177662" lon="5.265379">
        <ele>1625.3</ele>
        <time>2020-05-29T21:18:36Z</time>
      </trkpt>
      <trkpt lat="44.177631" lon="5.265449">
        <ele>1625.8</ele>
        <time>2020-05-29T21:18:37Z</time>
      </trkpt>
      <trkpt lat="44.177608" lon="5.265519">
        <ele>1626.3</ele>
        <time>2020-05-29T21:18:39Z</time>
      </trkpt>
      <trkpt lat="44.177589" lon="5.265577">
        <ele>1626.7</ele>
        <time>2020-05-29T21:18:40Z</time>
      </trkpt>
      <trkpt lat="44.17757" lon="5.265649">
        <ele>1627.1</ele>
        <time>2020-05-29T21:18:41Z</time>
      </trkpt>
      <trkpt lat="44.177559" lon="5.265721">
        <ele>1627.6</ele>
        <time>2020-05-29T21:18:42Z</time>
      </trkpt>
      <trkpt lat="44.177551" lon="5.265779">
        <ele>1627.9</ele>
        <time>2020-05-29T21:18:43Z</time>
      </trkpt>
      <trkpt lat="44.177547" lon="5.265833">
        <ele>1628.3</ele>
        <time>2020-05-29T21:18:44Z</time>
      </trkpt>
      <trkpt lat="44.177544" lon="5.265903">
        <ele>1628.7</ele>
        <time>2020-05-29T21:18:45Z</time>
      </trkpt>
      <trkpt lat="44.177544" lon="5.265958">
        <ele>1629</ele>
        <time>2020-05-29T21:18:46Z</time>
      </trkpt>
      <trkpt lat="44.177547" lon="5.266022">
        <ele>1629.4</ele>
        <time>2020-05-29T21:18:47Z</time>
      </trkpt>
      <trkpt lat="44.177551" lon="5.266077">
        <ele>1629.8</ele>
        <time>2020-05-29T21:18:48Z</time>
      </trkpt>
      <trkpt lat="44.177559" lon="5.266145">
        <ele>1630.2</ele>
        <time>2020-05-29T21:18:50Z</time>
      </trkpt>
      <trkpt lat="44.177563" lon="5.266201">
        <ele>1630.5</ele>
        <time>2020-05-29T21:18:51Z</time>
      </trkpt>
      <trkpt lat="44.17757" lon="5.266257">
        <ele>1630.9</ele>
        <time>2020-05-29T21:18:52Z</time>
      </trkpt>
      <trkpt lat="44.177578" lon="5.266322">
        <ele>1631.3</ele>
        <time>2020-05-29T21:18:53Z</time>
      </trkpt>
      <trkpt lat="44.177582" lon="5.266378">
        <ele>1631.6</ele>
        <time>2020-05-29T21:18:54Z</time>
      </trkpt>
      <trkpt lat="44.177589" lon="5.266433">
        <ele>1631.9</ele>
        <time>2020-05-29T21:18:55Z</time>
      </trkpt>
      <trkpt lat="44.177593" lon="5.266487">
        <ele>1632.2</ele>
        <time>2020-05-29T21:18:56Z</time>
      </trkpt>
      <trkpt lat="44.177601" lon="5.266553">
        <ele>1632.6</ele>
        <time>2020-05-29T21:18:57Z</time>
      </trkpt>
      <trkpt lat="44.177608" lon="5.266602">
        <ele>1632.9</ele>
        <time>2020-05-29T21:18:58Z</time>
      </trkpt>
      <trkpt lat="44.177612" lon="5.266656">
        <ele>1633.2</ele>
        <time>2020-05-29T21:18:59Z</time>
      </trkpt>
      <trkpt lat="44.177616" lon="5.266722">
        <ele>1633.6</ele>
        <time>2020-05-29T21:19:00Z</time>
      </trkpt>
      <trkpt lat="44.17762" lon="5.266784">
        <ele>1634</ele>
        <time>2020-05-29T21:19:01Z</time>
      </trkpt>
      <trkpt lat="44.177624" lon="5.266838">
        <ele>1634.3</ele>
        <time>2020-05-29T21:19:02Z</time>
      </trkpt>
      <trkpt lat="44.177628" lon="5.2669">
        <ele>1634.7</ele>
        <time>2020-05-29T21:19:04Z</time>
      </trkpt>
      <trkpt lat="44.177628" lon="5.266954">
        <ele>1635</ele>
        <time>2020-05-29T21:19:05Z</time>
      </trkpt>
      <trkpt lat="44.177628" lon="5.267006">
        <ele>1635.3</ele>
        <time>2020-05-29T21:19:06Z</time>
      </trkpt>
      <trkpt lat="44.177631" lon="5.267055">
        <ele>1635.6</ele>
        <time>2020-05-29T21:19:07Z</time>
      </trkpt>
      <trkpt lat="44.177631" lon="5.267122">
        <ele>1636</ele>
        <time>2020-05-29T21:19:08Z</time>
      </trkpt>
      <trkpt lat="44.177631" lon="5.267186">
        <ele>1636.3</ele>
        <time>2020-05-29T21:19:09Z</time>
      </trkpt>
      <trkpt lat="44.177631" lon="5.267242">
        <ele>1636.7</ele>
        <time>2020-05-29T21:19:10Z</time>
      </trkpt>
      <trkpt lat="44.177631" lon="5.2673">
        <ele>1637</ele>
        <time>2020-05-29T21:19:11Z</time>
      </trkpt>
      <trkpt lat="44.177631" lon="5.26736">
        <ele>1637.4</ele>
        <time>2020-05-29T21:19:12Z</time>
      </trkpt>
      <trkpt lat="44.177631" lon="5.267425">
        <ele>1637.8</ele>
        <time>2020-05-29T21:19:13Z</time>
      </trkpt>
      <trkpt lat="44.177628" lon="5.267479">
        <ele>1638.1</ele>
        <time>2020-05-29T21:19:14Z</time>
      </trkpt>
      <trkpt lat="44.177628" lon="5.267542">
        <ele>1638.5</ele>
        <time>2020-05-29T21:19:15Z</time>
      </trkpt>
      <trkpt lat="44.177628" lon="5.267608">
        <ele>1638.9</ele>
        <time>2020-05-29T21:19:17Z</time>
      </trkpt>
      <trkpt lat="44.177628" lon="5.267658">
        <ele>1639.2</ele>
        <time>2020-05-29T21:19:18Z</time>
      </trkpt>
      <trkpt lat="44.177624" lon="5.267721">
        <ele>1639.6</ele>
        <time>2020-05-29T21:19:19Z</time>
      </trkpt>
      <trkpt lat="44.177624" lon="5.267775">
        <ele>1639.9</ele>
        <time>2020-05-29T21:19:20Z</time>
      </trkpt>
      <trkpt lat="44.177624" lon="5.267829">
        <ele>1640.3</ele>
        <time>2020-05-29T21:19:21Z</time>
      </trkpt>
      <trkpt lat="44.17762" lon="5.267892">
        <ele>1640.7</ele>
        <time>2020-05-29T21:19:22Z</time>
      </trkpt>
      <trkpt lat="44.17762" lon="5.267946">
        <ele>1641</ele>
        <time>2020-05-29T21:19:23Z</time>
      </trkpt>
      <trkpt lat="44.17762" lon="5.268008">
        <ele>1641.4</ele>
        <time>2020-05-29T21:19:24Z</time>
      </trkpt>
      <trkpt lat="44.177616" lon="5.268056">
        <ele>1641.6</ele>
        <time>2020-05-29T21:19:25Z</time>
      </trkpt>
      <trkpt lat="44.177616" lon="5.268122">
        <ele>1642</ele>
        <time>2020-05-29T21:19:27Z</time>
      </trkpt>
      <trkpt lat="44.177616" lon="5.268185">
        <ele>1642.4</ele>
        <time>2020-05-29T21:19:28Z</time>
      </trkpt>
      <trkpt lat="44.177612" lon="5.268239">
        <ele>1642.8</ele>
        <time>2020-05-29T21:19:29Z</time>
      </trkpt>
      <trkpt lat="44.177612" lon="5.2683">
        <ele>1643.1</ele>
        <time>2020-05-29T21:19:30Z</time>
      </trkpt>
      <trkpt lat="44.177608" lon="5.268367">
        <ele>1643.5</ele>
        <time>2020-05-29T21:19:31Z</time>
      </trkpt>
      <trkpt lat="44.177608" lon="5.268431">
        <ele>1643.9</ele>
        <time>2020-05-29T21:19:32Z</time>
      </trkpt>
      <trkpt lat="44.177605" lon="5.268488">
        <ele>1644.2</ele>
        <time>2020-05-29T21:19:33Z</time>
      </trkpt>
      <trkpt lat="44.177605" lon="5.268558">
        <ele>1644.6</ele>
        <time>2020-05-29T21:19:35Z</time>
      </trkpt>
      <trkpt lat="44.177601" lon="5.268617">
        <ele>1645</ele>
        <time>2020-05-29T21:19:36Z</time>
      </trkpt>
      <trkpt lat="44.177601" lon="5.268675">
        <ele>1645.3</ele>
        <time>2020-05-29T21:19:37Z</time>
      </trkpt>
      <trkpt lat="44.177601" lon="5.268732">
        <ele>1645.7</ele>
        <time>2020-05-29T21:19:38Z</time>
      </trkpt>
      <trkpt lat="44.177597" lon="5.268802">
        <ele>1646.1</ele>
        <time>2020-05-29T21:19:39Z</time>
      </trkpt>
      <trkpt lat="44.177597" lon="5.268867">
        <ele>1646.5</ele>
        <time>2020-05-29T21:19:40Z</time>
      </trkpt>
      <trkpt lat="44.177593" lon="5.268923">
        <ele>1646.9</ele>
        <time>2020-05-29T21:19:41Z</time>
      </trkpt>
      <trkpt lat="44.177589" lon="5.268979">
        <ele>1647.2</ele>
        <time>2020-05-29T21:19:42Z</time>
      </trkpt>
      <trkpt lat="44.177589" lon="5.269034">
        <ele>1647.6</ele>
        <time>2020-05-29T21:19:43Z</time>
      </trkpt>
      <trkpt lat="44.177586" lon="5.269088">
        <ele>1647.9</ele>
        <time>2020-05-29T21:19:44Z</time>
      </trkpt>
      <trkpt lat="44.177586" lon="5.269142">
        <ele>1648.2</ele>
        <time>2020-05-29T21:19:45Z</time>
      </trkpt>
      <trkpt lat="44.177582" lon="5.269197">
        <ele>1648.6</ele>
        <time>2020-05-29T21:19:46Z</time>
      </trkpt>
      <trkpt lat="44.177578" lon="5.26926">
        <ele>1649</ele>
        <time>2020-05-29T21:19:47Z</time>
      </trkpt>
      <trkpt lat="44.177574" lon="5.269327">
        <ele>1649.4</ele>
        <time>2020-05-29T21:19:48Z</time>
      </trkpt>
      <trkpt lat="44.17757" lon="5.269389">
        <ele>1649.8</ele>
        <time>2020-05-29T21:19:50Z</time>
      </trkpt>
      <trkpt lat="44.177566" lon="5.269452">
        <ele>1650.1</ele>
        <time>2020-05-29T21:19:51Z</time>
      </trkpt>
      <trkpt lat="44.177563" lon="5.269518">
        <ele>1650.6</ele>
        <time>2020-05-29T21:19:52Z</time>
      </trkpt>
      <trkpt lat="44.177559" lon="5.26958">
        <ele>1651</ele>
        <time>2020-05-29T21:19:53Z</time>
      </trkpt>
      <trkpt lat="44.177555" lon="5.269647">
        <ele>1651.4</ele>
        <time>2020-05-29T21:19:54Z</time>
      </trkpt>
      <trkpt lat="44.177551" lon="5.26971">
        <ele>1651.8</ele>
        <time>2020-05-29T21:19:56Z</time>
      </trkpt>
      <trkpt lat="44.177547" lon="5.269764">
        <ele>1652.2</ele>
        <time>2020-05-29T21:19:57Z</time>
      </trkpt>
      <trkpt lat="44.177544" lon="5.269817">
        <ele>1652.5</ele>
        <time>2020-05-29T21:19:58Z</time>
      </trkpt>
      <trkpt lat="44.17754" lon="5.269879">
        <ele>1652.9</ele>
        <time>2020-05-29T21:19:59Z</time>
      </trkpt>
      <trkpt lat="44.177536" lon="5.269941">
        <ele>1653.3</ele>
        <time>2020-05-29T21:20:00Z</time>
      </trkpt>
      <trkpt lat="44.177532" lon="5.270007">
        <ele>1653.7</ele>
        <time>2020-05-29T21:20:01Z</time>
      </trkpt>
      <trkpt lat="44.177524" lon="5.270071">
        <ele>1654.1</ele>
        <time>2020-05-29T21:20:02Z</time>
      </trkpt>
      <trkpt lat="44.177521" lon="5.270139">
        <ele>1654.5</ele>
        <time>2020-05-29T21:20:04Z</time>
      </trkpt>
      <trkpt lat="44.177513" lon="5.270194">
        <ele>1654.8</ele>
        <time>2020-05-29T21:20:05Z</time>
      </trkpt>
      <trkpt lat="44.177509" lon="5.270259">
        <ele>1655.2</ele>
        <time>2020-05-29T21:20:06Z</time>
      </trkpt>
      <trkpt lat="44.177502" lon="5.270318">
        <ele>1655.6</ele>
        <time>2020-05-29T21:20:07Z</time>
      </trkpt>
      <trkpt lat="44.177494" lon="5.27039">
        <ele>1656.1</ele>
        <time>2020-05-29T21:20:08Z</time>
      </trkpt>
      <trkpt lat="44.177486" lon="5.270463">
        <ele>1656.5</ele>
        <time>2020-05-29T21:20:09Z</time>
      </trkpt>
      <trkpt lat="44.177479" lon="5.270523">
        <ele>1656.9</ele>
        <time>2020-05-29T21:20:10Z</time>
      </trkpt>
      <trkpt lat="44.177475" lon="5.270587">
        <ele>1657.3</ele>
        <time>2020-05-29T21:20:11Z</time>
      </trkpt>
      <trkpt lat="44.177467" lon="5.270658">
        <ele>1657.7</ele>
        <time>2020-05-29T21:20:12Z</time>
      </trkpt>
      <trkpt lat="44.17746" lon="5.270725">
        <ele>1658.1</ele>
        <time>2020-05-29T21:20:14Z</time>
      </trkpt>
      <trkpt lat="44.177452" lon="5.270781">
        <ele>1658.4</ele>
        <time>2020-05-29T21:20:15Z</time>
      </trkpt>
      <trkpt lat="44.177444" lon="5.270843">
        <ele>1658.8</ele>
        <time>2020-05-29T21:20:16Z</time>
      </trkpt>
      <trkpt lat="44.177437" lon="5.270895">
        <ele>1659.1</ele>
        <time>2020-05-29T21:20:17Z</time>
      </trkpt>
      <trkpt lat="44.177429" lon="5.270946">
        <ele>1659.5</ele>
        <time>2020-05-29T21:20:18Z</time>
      </trkpt>
      <trkpt lat="44.177418" lon="5.271004">
        <ele>1659.8</ele>
        <time>2020-05-29T21:20:19Z</time>
      </trkpt>
      <trkpt lat="44.177402" lon="5.271062">
        <ele>1660.2</ele>
        <time>2020-05-29T21:20:20Z</time>
      </trkpt>
      <trkpt lat="44.177387" lon="5.271128">
        <ele>1660.6</ele>
        <time>2020-05-29T21:20:21Z</time>
      </trkpt>
      <trkpt lat="44.177376" lon="5.271183">
        <ele>1661</ele>
        <time>2020-05-29T21:20:22Z</time>
      </trkpt>
      <trkpt lat="44.17736" lon="5.271246">
        <ele>1661.3</ele>
        <time>2020-05-29T21:20:24Z</time>
      </trkpt>
      <trkpt lat="44.177349" lon="5.271302">
        <ele>1661.7</ele>
        <time>2020-05-29T21:20:25Z</time>
      </trkpt>
      <trkpt lat="44.17733" lon="5.271373">
        <ele>1662.1</ele>
        <time>2020-05-29T21:20:26Z</time>
      </trkpt>
      <trkpt lat="44.177319" lon="5.27143">
        <ele>1662.5</ele>
        <time>2020-05-29T21:20:27Z</time>
      </trkpt>
      <trkpt lat="44.177303" lon="5.271495">
        <ele>1662.9</ele>
        <time>2020-05-29T21:20:28Z</time>
      </trkpt>
      <trkpt lat="44.177288" lon="5.271554">
        <ele>1663.3</ele>
        <time>2020-05-29T21:20:29Z</time>
      </trkpt>
      <trkpt lat="44.177277" lon="5.271609">
        <ele>1663.7</ele>
        <time>2020-05-29T21:20:30Z</time>
      </trkpt>
      <trkpt lat="44.177265" lon="5.271675">
        <ele>1664.2</ele>
        <time>2020-05-29T21:20:31Z</time>
      </trkpt>
      <trkpt lat="44.177258" lon="5.271732">
        <ele>1664.5</ele>
        <time>2020-05-29T21:20:32Z</time>
      </trkpt>
      <trkpt lat="44.17725" lon="5.271804">
        <ele>1665</ele>
        <time>2020-05-29T21:20:33Z</time>
      </trkpt>
      <trkpt lat="44.177246" lon="5.271878">
        <ele>1665.4</ele>
        <time>2020-05-29T21:20:35Z</time>
      </trkpt>
      <trkpt lat="44.177242" lon="5.271952">
        <ele>1665.9</ele>
        <time>2020-05-29T21:20:36Z</time>
      </trkpt>
      <trkpt lat="44.177242" lon="5.272013">
        <ele>1666.2</ele>
        <time>2020-05-29T21:20:37Z</time>
      </trkpt>
      <trkpt lat="44.177238" lon="5.272086">
        <ele>1666.6</ele>
        <time>2020-05-29T21:20:38Z</time>
      </trkpt>
      <trkpt lat="44.177231" lon="5.272158">
        <ele>1667</ele>
        <time>2020-05-29T21:20:39Z</time>
      </trkpt>
      <trkpt lat="44.177223" lon="5.272218">
        <ele>1667.4</ele>
        <time>2020-05-29T21:20:40Z</time>
      </trkpt>
      <trkpt lat="44.177212" lon="5.272293">
        <ele>1667.9</ele>
        <time>2020-05-29T21:20:41Z</time>
      </trkpt>
      <trkpt lat="44.177189" lon="5.272368">
        <ele>1668.4</ele>
        <time>2020-05-29T21:20:43Z</time>
      </trkpt>
      <trkpt lat="44.177166" lon="5.272431">
        <ele>1668.8</ele>
        <time>2020-05-29T21:20:44Z</time>
      </trkpt>
      <trkpt lat="44.177139" lon="5.272484">
        <ele>1669.2</ele>
        <time>2020-05-29T21:20:45Z</time>
      </trkpt>
      <trkpt lat="44.177105" lon="5.272537">
        <ele>1669.7</ele>
        <time>2020-05-29T21:20:46Z</time>
      </trkpt>
      <trkpt lat="44.177063" lon="5.27259">
        <ele>1670.2</ele>
        <time>2020-05-29T21:20:47Z</time>
      </trkpt>
      <trkpt lat="44.177021" lon="5.272635">
        <ele>1670.7</ele>
        <time>2020-05-29T21:20:48Z</time>
      </trkpt>
      <trkpt lat="44.176979" lon="5.272668">
        <ele>1671.2</ele>
        <time>2020-05-29T21:20:49Z</time>
      </trkpt>
      <trkpt lat="44.176929" lon="5.272702">
        <ele>1671.7</ele>
        <time>2020-05-29T21:20:51Z</time>
      </trkpt>
      <trkpt lat="44.176887" lon="5.272733">
        <ele>1672.2</ele>
        <time>2020-05-29T21:20:52Z</time>
      </trkpt>
      <trkpt lat="44.176842" lon="5.272772">
        <ele>1672.7</ele>
        <time>2020-05-29T21:20:53Z</time>
      </trkpt>
      <trkpt lat="44.176788" lon="5.272818">
        <ele>1673.3</ele>
        <time>2020-05-29T21:20:54Z</time>
      </trkpt>
      <trkpt lat="44.176739" lon="5.272867">
        <ele>1673.9</ele>
        <time>2020-05-29T21:20:55Z</time>
      </trkpt>
      <trkpt lat="44.176697" lon="5.272908">
        <ele>1674.3</ele>
        <time>2020-05-29T21:20:56Z</time>
      </trkpt>
      <trkpt lat="44.176651" lon="5.272957">
        <ele>1674.8</ele>
        <time>2020-05-29T21:20:57Z</time>
      </trkpt>
      <trkpt lat="44.176609" lon="5.273008">
        <ele>1675.2</ele>
        <time>2020-05-29T21:20:59Z</time>
      </trkpt>
      <trkpt lat="44.176567" lon="5.273058">
        <ele>1675.7</ele>
        <time>2020-05-29T21:21:00Z</time>
      </trkpt>
      <trkpt lat="44.176529" lon="5.273105">
        <ele>1676.1</ele>
        <time>2020-05-29T21:21:01Z</time>
      </trkpt>
      <trkpt lat="44.176487" lon="5.273164">
        <ele>1676.6</ele>
        <time>2020-05-29T21:21:02Z</time>
      </trkpt>
      <trkpt lat="44.176456" lon="5.273211">
        <ele>1676.9</ele>
        <time>2020-05-29T21:21:03Z</time>
      </trkpt>
      <trkpt lat="44.176426" lon="5.273257">
        <ele>1677.3</ele>
        <time>2020-05-29T21:21:04Z</time>
      </trkpt>
      <trkpt lat="44.176388" lon="5.273314">
        <ele>1677.8</ele>
        <time>2020-05-29T21:21:05Z</time>
      </trkpt>
      <trkpt lat="44.176357" lon="5.27337">
        <ele>1678.3</ele>
        <time>2020-05-29T21:21:06Z</time>
      </trkpt>
      <trkpt lat="44.176327" lon="5.273421">
        <ele>1678.7</ele>
        <time>2020-05-29T21:21:07Z</time>
      </trkpt>
      <trkpt lat="44.176296" lon="5.273486">
        <ele>1679.2</ele>
        <time>2020-05-29T21:21:08Z</time>
      </trkpt>
      <trkpt lat="44.176266" lon="5.273554">
        <ele>1679.7</ele>
        <time>2020-05-29T21:21:10Z</time>
      </trkpt>
      <trkpt lat="44.176235" lon="5.273622">
        <ele>1680.2</ele>
        <time>2020-05-29T21:21:11Z</time>
      </trkpt>
      <trkpt lat="44.176208" lon="5.273687">
        <ele>1680.7</ele>
        <time>2020-05-29T21:21:12Z</time>
      </trkpt>
      <trkpt lat="44.176182" lon="5.273756">
        <ele>1681.2</ele>
        <time>2020-05-29T21:21:13Z</time>
      </trkpt>
      <trkpt lat="44.176155" lon="5.273824">
        <ele>1681.7</ele>
        <time>2020-05-29T21:21:14Z</time>
      </trkpt>
      <trkpt lat="44.17614" lon="5.273879">
        <ele>1682.2</ele>
        <time>2020-05-29T21:21:15Z</time>
      </trkpt>
      <trkpt lat="44.176121" lon="5.273934">
        <ele>1682.6</ele>
        <time>2020-05-29T21:21:16Z</time>
      </trkpt>
      <trkpt lat="44.176105" lon="5.274003">
        <ele>1683.1</ele>
        <time>2020-05-29T21:21:18Z</time>
      </trkpt>
      <trkpt lat="44.17609" lon="5.274071">
        <ele>1683.6</ele>
        <time>2020-05-29T21:21:19Z</time>
      </trkpt>
      <trkpt lat="44.176079" lon="5.274146">
        <ele>1684.1</ele>
        <time>2020-05-29T21:21:20Z</time>
      </trkpt>
      <trkpt lat="44.176083" lon="5.274224">
        <ele>1684.6</ele>
        <time>2020-05-29T21:21:21Z</time>
      </trkpt>
      <trkpt lat="44.176102" lon="5.274302">
        <ele>1685.1</ele>
        <time>2020-05-29T21:21:22Z</time>
      </trkpt>
      <trkpt lat="44.176144" lon="5.274366">
        <ele>1685.7</ele>
        <time>2020-05-29T21:21:24Z</time>
      </trkpt>
      <trkpt lat="44.176193" lon="5.274418">
        <ele>1686.2</ele>
        <time>2020-05-29T21:21:25Z</time>
      </trkpt>
      <trkpt lat="44.176235" lon="5.274455">
        <ele>1686.7</ele>
        <time>2020-05-29T21:21:26Z</time>
      </trkpt>
      <trkpt lat="44.176289" lon="5.274488">
        <ele>1687.2</ele>
        <time>2020-05-29T21:21:27Z</time>
      </trkpt>
      <trkpt lat="44.176334" lon="5.274515">
        <ele>1687.6</ele>
        <time>2020-05-29T21:21:28Z</time>
      </trkpt>
      <trkpt lat="44.176384" lon="5.274538">
        <ele>1688.1</ele>
        <time>2020-05-29T21:21:29Z</time>
      </trkpt>
      <trkpt lat="44.17643" lon="5.274558">
        <ele>1688.5</ele>
        <time>2020-05-29T21:21:31Z</time>
      </trkpt>
      <trkpt lat="44.176475" lon="5.274575">
        <ele>1688.9</ele>
        <time>2020-05-29T21:21:32Z</time>
      </trkpt>
      <trkpt lat="44.176525" lon="5.274594">
        <ele>1689.3</ele>
        <time>2020-05-29T21:21:33Z</time>
      </trkpt>
      <trkpt lat="44.176579" lon="5.274613">
        <ele>1689.6</ele>
        <time>2020-05-29T21:21:34Z</time>
      </trkpt>
      <trkpt lat="44.176632" lon="5.274633">
        <ele>1689.9</ele>
        <time>2020-05-29T21:21:35Z</time>
      </trkpt>
      <trkpt lat="44.176674" lon="5.274648">
        <ele>1690</ele>
        <time>2020-05-29T21:21:36Z</time>
      </trkpt>
      <trkpt lat="44.176708" lon="5.274664">
        <ele>1690</ele>
        <time>2020-05-29T21:21:37Z</time>
      </trkpt>
      <trkpt lat="44.176754" lon="5.274685">
        <ele>1690.5</ele>
        <time>2020-05-29T21:21:39Z</time>
      </trkpt>
      <trkpt lat="44.176788" lon="5.274703">
        <ele>1690.8</ele>
        <time>2020-05-29T21:21:40Z</time>
      </trkpt>
      <trkpt lat="44.176823" lon="5.274724">
        <ele>1691.1</ele>
        <time>2020-05-29T21:21:41Z</time>
      </trkpt>
      <trkpt lat="44.176868" lon="5.274755">
        <ele>1691.6</ele>
        <time>2020-05-29T21:21:42Z</time>
      </trkpt>
      <trkpt lat="44.176907" lon="5.274792">
        <ele>1692.2</ele>
        <time>2020-05-29T21:21:43Z</time>
      </trkpt>
      <trkpt lat="44.176948" lon="5.274833">
        <ele>1692.8</ele>
        <time>2020-05-29T21:21:44Z</time>
      </trkpt>
      <trkpt lat="44.176987" lon="5.274882">
        <ele>1693.4</ele>
        <time>2020-05-29T21:21:45Z</time>
      </trkpt>
      <trkpt lat="44.177021" lon="5.274931">
        <ele>1694</ele>
        <time>2020-05-29T21:21:47Z</time>
      </trkpt>
      <trkpt lat="44.177052" lon="5.274975">
        <ele>1694.5</ele>
        <time>2020-05-29T21:21:48Z</time>
      </trkpt>
      <trkpt lat="44.177082" lon="5.275028">
        <ele>1695.1</ele>
        <time>2020-05-29T21:21:49Z</time>
      </trkpt>
      <trkpt lat="44.177113" lon="5.275073">
        <ele>1695.7</ele>
        <time>2020-05-29T21:21:50Z</time>
      </trkpt>
      <trkpt lat="44.177143" lon="5.275126">
        <ele>1696.3</ele>
        <time>2020-05-29T21:21:51Z</time>
      </trkpt>
      <trkpt lat="44.177174" lon="5.275171">
        <ele>1696.8</ele>
        <time>2020-05-29T21:21:52Z</time>
      </trkpt>
      <trkpt lat="44.1772" lon="5.275216">
        <ele>1697.3</ele>
        <time>2020-05-29T21:21:53Z</time>
      </trkpt>
      <trkpt lat="44.177227" lon="5.275269">
        <ele>1697.8</ele>
        <time>2020-05-29T21:21:54Z</time>
      </trkpt>
      <trkpt lat="44.177254" lon="5.275315">
        <ele>1698.3</ele>
        <time>2020-05-29T21:21:55Z</time>
      </trkpt>
      <trkpt lat="44.177277" lon="5.275369">
        <ele>1698.8</ele>
        <time>2020-05-29T21:21:56Z</time>
      </trkpt>
      <trkpt lat="44.177299" lon="5.275415">
        <ele>1699.2</ele>
        <time>2020-05-29T21:21:57Z</time>
      </trkpt>
      <trkpt lat="44.177326" lon="5.275469">
        <ele>1699.8</ele>
        <time>2020-05-29T21:21:59Z</time>
      </trkpt>
      <trkpt lat="44.177349" lon="5.275522">
        <ele>1700.3</ele>
        <time>2020-05-29T21:22:00Z</time>
      </trkpt>
      <trkpt lat="44.177372" lon="5.275576">
        <ele>1700.8</ele>
        <time>2020-05-29T21:22:01Z</time>
      </trkpt>
      <trkpt lat="44.177391" lon="5.275624">
        <ele>1701.2</ele>
        <time>2020-05-29T21:22:02Z</time>
      </trkpt>
      <trkpt lat="44.177414" lon="5.27568">
        <ele>1701.8</ele>
        <time>2020-05-29T21:22:03Z</time>
      </trkpt>
      <trkpt lat="44.177433" lon="5.275726">
        <ele>1702.3</ele>
        <time>2020-05-29T21:22:04Z</time>
      </trkpt>
      <trkpt lat="44.177448" lon="5.275768">
        <ele>1702.7</ele>
        <time>2020-05-29T21:22:05Z</time>
      </trkpt>
      <trkpt lat="44.177467" lon="5.275819">
        <ele>1703.2</ele>
        <time>2020-05-29T21:22:06Z</time>
      </trkpt>
      <trkpt lat="44.177483" lon="5.275867">
        <ele>1703.7</ele>
        <time>2020-05-29T21:22:08Z</time>
      </trkpt>
      <trkpt lat="44.177498" lon="5.275917">
        <ele>1704.2</ele>
        <time>2020-05-29T21:22:09Z</time>
      </trkpt>
      <trkpt lat="44.177509" lon="5.275957">
        <ele>1704.6</ele>
        <time>2020-05-29T21:22:10Z</time>
      </trkpt>
      <trkpt lat="44.177528" lon="5.276007">
        <ele>1705</ele>
        <time>2020-05-29T21:22:11Z</time>
      </trkpt>
      <trkpt lat="44.17754" lon="5.276048">
        <ele>1705.4</ele>
        <time>2020-05-29T21:22:12Z</time>
      </trkpt>
      <trkpt lat="44.177555" lon="5.276099">
        <ele>1705.9</ele>
        <time>2020-05-29T21:22:13Z</time>
      </trkpt>
      <trkpt lat="44.17757" lon="5.276151">
        <ele>1706.3</ele>
        <time>2020-05-29T21:22:14Z</time>
      </trkpt>
      <trkpt lat="44.177586" lon="5.276204">
        <ele>1706.8</ele>
        <time>2020-05-29T21:22:16Z</time>
      </trkpt>
      <trkpt lat="44.177601" lon="5.276259">
        <ele>1707.3</ele>
        <time>2020-05-29T21:22:17Z</time>
      </trkpt>
      <trkpt lat="44.177616" lon="5.276315">
        <ele>1707.8</ele>
        <time>2020-05-29T21:22:18Z</time>
      </trkpt>
      <trkpt lat="44.177628" lon="5.276361">
        <ele>1708.3</ele>
        <time>2020-05-29T21:22:19Z</time>
      </trkpt>
      <trkpt lat="44.177639" lon="5.276425">
        <ele>1708.8</ele>
        <time>2020-05-29T21:22:20Z</time>
      </trkpt>
      <trkpt lat="44.17765" lon="5.276481">
        <ele>1709.3</ele>
        <time>2020-05-29T21:22:21Z</time>
      </trkpt>
      <trkpt lat="44.177662" lon="5.27655">
        <ele>1709.9</ele>
        <time>2020-05-29T21:22:22Z</time>
      </trkpt>
      <trkpt lat="44.177673" lon="5.276607">
        <ele>1710.4</ele>
        <time>2020-05-29T21:22:23Z</time>
      </trkpt>
      <trkpt lat="44.177681" lon="5.276664">
        <ele>1710.9</ele>
        <time>2020-05-29T21:22:24Z</time>
      </trkpt>
      <trkpt lat="44.177692" lon="5.276721">
        <ele>1711.4</ele>
        <time>2020-05-29T21:22:25Z</time>
      </trkpt>
      <trkpt lat="44.1777" lon="5.276791">
        <ele>1712</ele>
        <time>2020-05-29T21:22:27Z</time>
      </trkpt>
      <trkpt lat="44.177708" lon="5.276855">
        <ele>1712.5</ele>
        <time>2020-05-29T21:22:28Z</time>
      </trkpt>
      <trkpt lat="44.177715" lon="5.276917">
        <ele>1713</ele>
        <time>2020-05-29T21:22:29Z</time>
      </trkpt>
      <trkpt lat="44.177723" lon="5.276975">
        <ele>1713.5</ele>
        <time>2020-05-29T21:22:30Z</time>
      </trkpt>
      <trkpt lat="44.177727" lon="5.277025">
        <ele>1713.9</ele>
        <time>2020-05-29T21:22:31Z</time>
      </trkpt>
      <trkpt lat="44.177731" lon="5.27707">
        <ele>1714.2</ele>
        <time>2020-05-29T21:22:32Z</time>
      </trkpt>
      <trkpt lat="44.177738" lon="5.277127">
        <ele>1714.7</ele>
        <time>2020-05-29T21:22:33Z</time>
      </trkpt>
      <trkpt lat="44.177742" lon="5.277192">
        <ele>1715.2</ele>
        <time>2020-05-29T21:22:35Z</time>
      </trkpt>
      <trkpt lat="44.177742" lon="5.277254">
        <ele>1715.7</ele>
        <time>2020-05-29T21:22:36Z</time>
      </trkpt>
      <trkpt lat="44.177746" lon="5.27731">
        <ele>1716.1</ele>
        <time>2020-05-29T21:22:37Z</time>
      </trkpt>
      <trkpt lat="44.177746" lon="5.277381">
        <ele>1716.7</ele>
        <time>2020-05-29T21:22:38Z</time>
      </trkpt>
      <trkpt lat="44.177742" lon="5.277453">
        <ele>1717.3</ele>
        <time>2020-05-29T21:22:39Z</time>
      </trkpt>
      <trkpt lat="44.177742" lon="5.277506">
        <ele>1717.8</ele>
        <time>2020-05-29T21:22:40Z</time>
      </trkpt>
      <trkpt lat="44.177738" lon="5.277561">
        <ele>1718.2</ele>
        <time>2020-05-29T21:22:41Z</time>
      </trkpt>
      <trkpt lat="44.177738" lon="5.277626">
        <ele>1718.8</ele>
        <time>2020-05-29T21:22:42Z</time>
      </trkpt>
      <trkpt lat="44.177738" lon="5.277685">
        <ele>1719.3</ele>
        <time>2020-05-29T21:22:44Z</time>
      </trkpt>
      <trkpt lat="44.177734" lon="5.277743">
        <ele>1719.8</ele>
        <time>2020-05-29T21:22:45Z</time>
      </trkpt>
      <trkpt lat="44.177731" lon="5.277801">
        <ele>1720.3</ele>
        <time>2020-05-29T21:22:46Z</time>
      </trkpt>
      <trkpt lat="44.177731" lon="5.27786">
        <ele>1720.8</ele>
        <time>2020-05-29T21:22:47Z</time>
      </trkpt>
      <trkpt lat="44.177727" lon="5.277924">
        <ele>1721.3</ele>
        <time>2020-05-29T21:22:48Z</time>
      </trkpt>
      <trkpt lat="44.177727" lon="5.277971">
        <ele>1721.7</ele>
        <time>2020-05-29T21:22:49Z</time>
      </trkpt>
      <trkpt lat="44.177723" lon="5.278024">
        <ele>1722.1</ele>
        <time>2020-05-29T21:22:50Z</time>
      </trkpt>
      <trkpt lat="44.177723" lon="5.278076">
        <ele>1722.5</ele>
        <time>2020-05-29T21:22:51Z</time>
      </trkpt>
      <trkpt lat="44.177719" lon="5.278137">
        <ele>1723</ele>
        <time>2020-05-29T21:22:53Z</time>
      </trkpt>
      <trkpt lat="44.177715" lon="5.278199">
        <ele>1723.5</ele>
        <time>2020-05-29T21:22:54Z</time>
      </trkpt>
      <trkpt lat="44.177711" lon="5.278264">
        <ele>1724.1</ele>
        <time>2020-05-29T21:22:55Z</time>
      </trkpt>
      <trkpt lat="44.177711" lon="5.278316">
        <ele>1724.5</ele>
        <time>2020-05-29T21:22:56Z</time>
      </trkpt>
      <trkpt lat="44.177708" lon="5.278365">
        <ele>1724.9</ele>
        <time>2020-05-29T21:22:57Z</time>
      </trkpt>
      <trkpt lat="44.177704" lon="5.278426">
        <ele>1725.5</ele>
        <time>2020-05-29T21:22:58Z</time>
      </trkpt>
      <trkpt lat="44.1777" lon="5.278482">
        <ele>1726</ele>
        <time>2020-05-29T21:22:59Z</time>
      </trkpt>
      <trkpt lat="44.1777" lon="5.278538">
        <ele>1726.5</ele>
        <time>2020-05-29T21:23:01Z</time>
      </trkpt>
      <trkpt lat="44.177696" lon="5.278596">
        <ele>1727</ele>
        <time>2020-05-29T21:23:02Z</time>
      </trkpt>
      <trkpt lat="44.177692" lon="5.278654">
        <ele>1727.5</ele>
        <time>2020-05-29T21:23:03Z</time>
      </trkpt>
      <trkpt lat="44.177689" lon="5.278717">
        <ele>1727.9</ele>
        <time>2020-05-29T21:23:04Z</time>
      </trkpt>
      <trkpt lat="44.177685" lon="5.278776">
        <ele>1728.4</ele>
        <time>2020-05-29T21:23:05Z</time>
      </trkpt>
      <trkpt lat="44.177681" lon="5.278825">
        <ele>1728.7</ele>
        <time>2020-05-29T21:23:06Z</time>
      </trkpt>
      <trkpt lat="44.177677" lon="5.278878">
        <ele>1729</ele>
        <time>2020-05-29T21:23:07Z</time>
      </trkpt>
      <trkpt lat="44.177673" lon="5.278942">
        <ele>1729.4</ele>
        <time>2020-05-29T21:23:09Z</time>
      </trkpt>
      <trkpt lat="44.17767" lon="5.278991">
        <ele>1729.6</ele>
        <time>2020-05-29T21:23:10Z</time>
      </trkpt>
      <trkpt lat="44.177666" lon="5.279044">
        <ele>1730</ele>
        <time>2020-05-29T21:23:11Z</time>
      </trkpt>
      <trkpt lat="44.177662" lon="5.279097">
        <ele>1730.2</ele>
        <time>2020-05-29T21:23:12Z</time>
      </trkpt>
      <trkpt lat="44.177658" lon="5.279149">
        <ele>1730.4</ele>
        <time>2020-05-29T21:23:13Z</time>
      </trkpt>
      <trkpt lat="44.177654" lon="5.279203">
        <ele>1730.7</ele>
        <time>2020-05-29T21:23:14Z</time>
      </trkpt>
      <trkpt lat="44.17765" lon="5.279258">
        <ele>1731</ele>
        <time>2020-05-29T21:23:15Z</time>
      </trkpt>
      <trkpt lat="44.177647" lon="5.279321">
        <ele>1731.5</ele>
        <time>2020-05-29T21:23:16Z</time>
      </trkpt>
      <trkpt lat="44.177643" lon="5.279375">
        <ele>1731.9</ele>
        <time>2020-05-29T21:23:17Z</time>
      </trkpt>
      <trkpt lat="44.177639" lon="5.279438">
        <ele>1732.3</ele>
        <time>2020-05-29T21:23:18Z</time>
      </trkpt>
      <trkpt lat="44.177635" lon="5.279504">
        <ele>1732.9</ele>
        <time>2020-05-29T21:23:19Z</time>
      </trkpt>
      <trkpt lat="44.177631" lon="5.279566">
        <ele>1733.3</ele>
        <time>2020-05-29T21:23:20Z</time>
      </trkpt>
      <trkpt lat="44.177624" lon="5.279627">
        <ele>1733.8</ele>
        <time>2020-05-29T21:23:22Z</time>
      </trkpt>
      <trkpt lat="44.17762" lon="5.279691">
        <ele>1734.3</ele>
        <time>2020-05-29T21:23:23Z</time>
      </trkpt>
      <trkpt lat="44.177616" lon="5.279741">
        <ele>1734.7</ele>
        <time>2020-05-29T21:23:24Z</time>
      </trkpt>
      <trkpt lat="44.177612" lon="5.279802">
        <ele>1735.1</ele>
        <time>2020-05-29T21:23:25Z</time>
      </trkpt>
      <trkpt lat="44.177605" lon="5.279852">
        <ele>1735.5</ele>
        <time>2020-05-29T21:23:26Z</time>
      </trkpt>
      <trkpt lat="44.177597" lon="5.279908">
        <ele>1736</ele>
        <time>2020-05-29T21:23:27Z</time>
      </trkpt>
      <trkpt lat="44.177589" lon="5.279951">
        <ele>1736.3</ele>
        <time>2020-05-29T21:23:28Z</time>
      </trkpt>
      <trkpt lat="44.177586" lon="5.28">
        <ele>1736.7</ele>
        <time>2020-05-29T21:23:29Z</time>
      </trkpt>
      <trkpt lat="44.177589" lon="5.280048">
        <ele>1737</ele>
        <time>2020-05-29T21:23:30Z</time>
      </trkpt>
      <trkpt lat="44.177601" lon="5.280108">
        <ele>1737.5</ele>
        <time>2020-05-29T21:23:31Z</time>
      </trkpt>
      <trkpt lat="44.177612" lon="5.280175">
        <ele>1738</ele>
        <time>2020-05-29T21:23:33Z</time>
      </trkpt>
      <trkpt lat="44.177616" lon="5.280238">
        <ele>1738.5</ele>
        <time>2020-05-29T21:23:34Z</time>
      </trkpt>
      <trkpt lat="44.177593" lon="5.280294">
        <ele>1739</ele>
        <time>2020-05-29T21:23:35Z</time>
      </trkpt>
      <trkpt lat="44.177555" lon="5.280328">
        <ele>1739.5</ele>
        <time>2020-05-29T21:23:36Z</time>
      </trkpt>
      <trkpt lat="44.177513" lon="5.280352">
        <ele>1740</ele>
        <time>2020-05-29T21:23:37Z</time>
      </trkpt>
      <trkpt lat="44.177463" lon="5.280359">
        <ele>1740.6</ele>
        <time>2020-05-29T21:23:38Z</time>
      </trkpt>
      <trkpt lat="44.177414" lon="5.280338">
        <ele>1741.2</ele>
        <time>2020-05-29T21:23:39Z</time>
      </trkpt>
      <trkpt lat="44.177383" lon="5.280292">
        <ele>1741.7</ele>
        <time>2020-05-29T21:23:40Z</time>
      </trkpt>
      <trkpt lat="44.177383" lon="5.280245">
        <ele>1742.1</ele>
        <time>2020-05-29T21:23:41Z</time>
      </trkpt>
      <trkpt lat="44.177391" lon="5.280187">
        <ele>1742.6</ele>
        <time>2020-05-29T21:23:43Z</time>
      </trkpt>
      <trkpt lat="44.177402" lon="5.280124">
        <ele>1743.1</ele>
        <time>2020-05-29T21:23:44Z</time>
      </trkpt>
      <trkpt lat="44.177422" lon="5.280059">
        <ele>1743.6</ele>
        <time>2020-05-29T21:23:45Z</time>
      </trkpt>
      <trkpt lat="44.177441" lon="5.279998">
        <ele>1744.1</ele>
        <time>2020-05-29T21:23:46Z</time>
      </trkpt>
      <trkpt lat="44.177456" lon="5.279943">
        <ele>1744.5</ele>
        <time>2020-05-29T21:23:47Z</time>
      </trkpt>
      <trkpt lat="44.177463" lon="5.279879">
        <ele>1745</ele>
        <time>2020-05-29T21:23:48Z</time>
      </trkpt>
      <trkpt lat="44.177467" lon="5.279825">
        <ele>1745.4</ele>
        <time>2020-05-29T21:23:49Z</time>
      </trkpt>
      <trkpt lat="44.177471" lon="5.279757">
        <ele>1745.9</ele>
        <time>2020-05-29T21:23:51Z</time>
      </trkpt>
      <trkpt lat="44.177467" lon="5.279692">
        <ele>1746.4</ele>
        <time>2020-05-29T21:23:52Z</time>
      </trkpt>
      <trkpt lat="44.177463" lon="5.279635">
        <ele>1746.8</ele>
        <time>2020-05-29T21:23:53Z</time>
      </trkpt>
      <trkpt lat="44.17746" lon="5.279566">
        <ele>1747.3</ele>
        <time>2020-05-29T21:23:54Z</time>
      </trkpt>
      <trkpt lat="44.177452" lon="5.279496">
        <ele>1747.8</ele>
        <time>2020-05-29T21:23:55Z</time>
      </trkpt>
      <trkpt lat="44.177444" lon="5.279432">
        <ele>1748.3</ele>
        <time>2020-05-29T21:23:56Z</time>
      </trkpt>
      <trkpt lat="44.177433" lon="5.279366">
        <ele>1748.8</ele>
        <time>2020-05-29T21:23:58Z</time>
      </trkpt>
      <trkpt lat="44.177425" lon="5.279305">
        <ele>1749.2</ele>
        <time>2020-05-29T21:23:59Z</time>
      </trkpt>
      <trkpt lat="44.177414" lon="5.279246">
        <ele>1749.6</ele>
        <time>2020-05-29T21:24:00Z</time>
      </trkpt>
      <trkpt lat="44.177406" lon="5.279189">
        <ele>1750</ele>
        <time>2020-05-29T21:24:01Z</time>
      </trkpt>
      <trkpt lat="44.177395" lon="5.27913">
        <ele>1750.5</ele>
        <time>2020-05-29T21:24:02Z</time>
      </trkpt>
      <trkpt lat="44.177387" lon="5.279086">
        <ele>1750.8</ele>
        <time>2020-05-29T21:24:03Z</time>
      </trkpt>
      <trkpt lat="44.177376" lon="5.279036">
        <ele>1751.2</ele>
        <time>2020-05-29T21:24:04Z</time>
      </trkpt>
      <trkpt lat="44.177364" lon="5.278979">
        <ele>1751.6</ele>
        <time>2020-05-29T21:24:06Z</time>
      </trkpt>
      <trkpt lat="44.177353" lon="5.278931">
        <ele>1752</ele>
        <time>2020-05-29T21:24:07Z</time>
      </trkpt>
      <trkpt lat="44.177341" lon="5.278879">
        <ele>1752.4</ele>
        <time>2020-05-29T21:24:08Z</time>
      </trkpt>
      <trkpt lat="44.177326" lon="5.278829">
        <ele>1752.8</ele>
        <time>2020-05-29T21:24:09Z</time>
      </trkpt>
      <trkpt lat="44.177315" lon="5.278773">
        <ele>1753.3</ele>
        <time>2020-05-29T21:24:10Z</time>
      </trkpt>
      <trkpt lat="44.177299" lon="5.278718">
        <ele>1753.7</ele>
        <time>2020-05-29T21:24:11Z</time>
      </trkpt>
      <trkpt lat="44.17728" lon="5.278662">
        <ele>1754.2</ele>
        <time>2020-05-29T21:24:12Z</time>
      </trkpt>
      <trkpt lat="44.177269" lon="5.278614">
        <ele>1754.6</ele>
        <time>2020-05-29T21:24:13Z</time>
      </trkpt>
      <trkpt lat="44.177254" lon="5.278569">
        <ele>1754.9</ele>
        <time>2020-05-29T21:24:14Z</time>
      </trkpt>
      <trkpt lat="44.177242" lon="5.278521">
        <ele>1755.3</ele>
        <time>2020-05-29T21:24:15Z</time>
      </trkpt>
      <trkpt lat="44.177223" lon="5.278466">
        <ele>1755.7</ele>
        <time>2020-05-29T21:24:17Z</time>
      </trkpt>
      <trkpt lat="44.177208" lon="5.27841">
        <ele>1756.1</ele>
        <time>2020-05-29T21:24:18Z</time>
      </trkpt>
      <trkpt lat="44.177193" lon="5.278362">
        <ele>1756.5</ele>
        <time>2020-05-29T21:24:19Z</time>
      </trkpt>
      <trkpt lat="44.177174" lon="5.278307">
        <ele>1756.9</ele>
        <time>2020-05-29T21:24:20Z</time>
      </trkpt>
      <trkpt lat="44.177155" lon="5.278252">
        <ele>1757.4</ele>
        <time>2020-05-29T21:24:21Z</time>
      </trkpt>
      <trkpt lat="44.177139" lon="5.278196">
        <ele>1757.9</ele>
        <time>2020-05-29T21:24:22Z</time>
      </trkpt>
      <trkpt lat="44.177124" lon="5.278146">
        <ele>1758.3</ele>
        <time>2020-05-29T21:24:23Z</time>
      </trkpt>
      <trkpt lat="44.177105" lon="5.278082">
        <ele>1758.9</ele>
        <time>2020-05-29T21:24:25Z</time>
      </trkpt>
      <trkpt lat="44.177082" lon="5.278019">
        <ele>1759.5</ele>
        <time>2020-05-29T21:24:26Z</time>
      </trkpt>
      <trkpt lat="44.177067" lon="5.277964">
        <ele>1760</ele>
        <time>2020-05-29T21:24:27Z</time>
      </trkpt>
      <trkpt lat="44.177048" lon="5.277909">
        <ele>1760.5</ele>
        <time>2020-05-29T21:24:28Z</time>
      </trkpt>
      <trkpt lat="44.177025" lon="5.277853">
        <ele>1761</ele>
        <time>2020-05-29T21:24:29Z</time>
      </trkpt>
      <trkpt lat="44.177006" lon="5.277799">
        <ele>1761.5</ele>
        <time>2020-05-29T21:24:30Z</time>
      </trkpt>
      <trkpt lat="44.176983" lon="5.277746">
        <ele>1762</ele>
        <time>2020-05-29T21:24:31Z</time>
      </trkpt>
      <trkpt lat="44.176952" lon="5.27768">
        <ele>1762.6</ele>
        <time>2020-05-29T21:24:32Z</time>
      </trkpt>
      <trkpt lat="44.176922" lon="5.277615">
        <ele>1763.2</ele>
        <time>2020-05-29T21:24:33Z</time>
      </trkpt>
      <trkpt lat="44.176899" lon="5.277561">
        <ele>1763.7</ele>
        <time>2020-05-29T21:24:34Z</time>
      </trkpt>
      <trkpt lat="44.176872" lon="5.277494">
        <ele>1764.3</ele>
        <time>2020-05-29T21:24:35Z</time>
      </trkpt>
      <trkpt lat="44.176842" lon="5.277428">
        <ele>1764.8</ele>
        <time>2020-05-29T21:24:37Z</time>
      </trkpt>
      <trkpt lat="44.176811" lon="5.277361">
        <ele>1765.3</ele>
        <time>2020-05-29T21:24:38Z</time>
      </trkpt>
      <trkpt lat="44.176788" lon="5.277307">
        <ele>1765.8</ele>
        <time>2020-05-29T21:24:39Z</time>
      </trkpt>
      <trkpt lat="44.176758" lon="5.277244">
        <ele>1766.3</ele>
        <time>2020-05-29T21:24:40Z</time>
      </trkpt>
      <trkpt lat="44.176727" lon="5.27718">
        <ele>1766.8</ele>
        <time>2020-05-29T21:24:41Z</time>
      </trkpt>
      <trkpt lat="44.176701" lon="5.277124">
        <ele>1767.2</ele>
        <time>2020-05-29T21:24:42Z</time>
      </trkpt>
      <trkpt lat="44.176674" lon="5.277073">
        <ele>1767.6</ele>
        <time>2020-05-29T21:24:43Z</time>
      </trkpt>
      <trkpt lat="44.17664" lon="5.277016">
        <ele>1768.1</ele>
        <time>2020-05-29T21:24:44Z</time>
      </trkpt>
      <trkpt lat="44.176601" lon="5.276958">
        <ele>1768.5</ele>
        <time>2020-05-29T21:24:46Z</time>
      </trkpt>
      <trkpt lat="44.176575" lon="5.276913">
        <ele>1768.9</ele>
        <time>2020-05-29T21:24:47Z</time>
      </trkpt>
      <trkpt lat="44.17654" lon="5.276862">
        <ele>1769.3</ele>
        <time>2020-05-29T21:24:48Z</time>
      </trkpt>
      <trkpt lat="44.176502" lon="5.276812">
        <ele>1769.8</ele>
        <time>2020-05-29T21:24:49Z</time>
      </trkpt>
      <trkpt lat="44.176468" lon="5.27677">
        <ele>1770.2</ele>
        <time>2020-05-29T21:24:50Z</time>
      </trkpt>
      <trkpt lat="44.176426" lon="5.276723">
        <ele>1770.8</ele>
        <time>2020-05-29T21:24:51Z</time>
      </trkpt>
      <trkpt lat="44.176392" lon="5.27669">
        <ele>1771.3</ele>
        <time>2020-05-29T21:24:52Z</time>
      </trkpt>
      <trkpt lat="44.176353" lon="5.276656">
        <ele>1771.8</ele>
        <time>2020-05-29T21:24:53Z</time>
      </trkpt>
      <trkpt lat="44.176308" lon="5.27662">
        <ele>1772.4</ele>
        <time>2020-05-29T21:24:54Z</time>
      </trkpt>
      <trkpt lat="44.176262" lon="5.276587">
        <ele>1772.9</ele>
        <time>2020-05-29T21:24:56Z</time>
      </trkpt>
      <trkpt lat="44.176224" lon="5.27656">
        <ele>1773.4</ele>
        <time>2020-05-29T21:24:57Z</time>
      </trkpt>
      <trkpt lat="44.176178" lon="5.276529">
        <ele>1774</ele>
        <time>2020-05-29T21:24:58Z</time>
      </trkpt>
      <trkpt lat="44.176128" lon="5.276499">
        <ele>1774.7</ele>
        <time>2020-05-29T21:24:59Z</time>
      </trkpt>
      <trkpt lat="44.17609" lon="5.276477">
        <ele>1775.1</ele>
        <time>2020-05-29T21:25:00Z</time>
      </trkpt>
      <trkpt lat="44.176044" lon="5.276453">
        <ele>1775.7</ele>
        <time>2020-05-29T21:25:01Z</time>
      </trkpt>
      <trkpt lat="44.175999" lon="5.276429">
        <ele>1776.2</ele>
        <time>2020-05-29T21:25:02Z</time>
      </trkpt>
      <trkpt lat="44.175957" lon="5.276405">
        <ele>1776.8</ele>
        <time>2020-05-29T21:25:03Z</time>
      </trkpt>
      <trkpt lat="44.175915" lon="5.27638">
        <ele>1777.3</ele>
        <time>2020-05-29T21:25:04Z</time>
      </trkpt>
      <trkpt lat="44.175865" lon="5.27635">
        <ele>1777.9</ele>
        <time>2020-05-29T21:25:05Z</time>
      </trkpt>
      <trkpt lat="44.175812" lon="5.276321">
        <ele>1778.5</ele>
        <time>2020-05-29T21:25:06Z</time>
      </trkpt>
      <trkpt lat="44.175762" lon="5.276294">
        <ele>1779.2</ele>
        <time>2020-05-29T21:25:08Z</time>
      </trkpt>
      <trkpt lat="44.17572" lon="5.276272">
        <ele>1779.7</ele>
        <time>2020-05-29T21:25:09Z</time>
      </trkpt>
      <trkpt lat="44.175667" lon="5.276247">
        <ele>1780.4</ele>
        <time>2020-05-29T21:25:10Z</time>
      </trkpt>
      <trkpt lat="44.175613" lon="5.276226">
        <ele>1781</ele>
        <time>2020-05-29T21:25:11Z</time>
      </trkpt>
      <trkpt lat="44.175571" lon="5.276211">
        <ele>1781.5</ele>
        <time>2020-05-29T21:25:12Z</time>
      </trkpt>
      <trkpt lat="44.175522" lon="5.276196">
        <ele>1782</ele>
        <time>2020-05-29T21:25:13Z</time>
      </trkpt>
      <trkpt lat="44.175484" lon="5.276186">
        <ele>1782.5</ele>
        <time>2020-05-29T21:25:14Z</time>
      </trkpt>
      <trkpt lat="44.175442" lon="5.276176">
        <ele>1782.9</ele>
        <time>2020-05-29T21:25:15Z</time>
      </trkpt>
      <trkpt lat="44.175396" lon="5.276166">
        <ele>1783.4</ele>
        <time>2020-05-29T21:25:17Z</time>
      </trkpt>
      <trkpt lat="44.175358" lon="5.276159">
        <ele>1783.8</ele>
        <time>2020-05-29T21:25:18Z</time>
      </trkpt>
      <trkpt lat="44.175312" lon="5.276149">
        <ele>1784.3</ele>
        <time>2020-05-29T21:25:19Z</time>
      </trkpt>
      <trkpt lat="44.17527" lon="5.276141">
        <ele>1784.7</ele>
        <time>2020-05-29T21:25:20Z</time>
      </trkpt>
      <trkpt lat="44.175232" lon="5.276131">
        <ele>1785.2</ele>
        <time>2020-05-29T21:25:21Z</time>
      </trkpt>
      <trkpt lat="44.175182" lon="5.276119">
        <ele>1785.7</ele>
        <time>2020-05-29T21:25:22Z</time>
      </trkpt>
      <trkpt lat="44.17514" lon="5.276108">
        <ele>1786.2</ele>
        <time>2020-05-29T21:25:23Z</time>
      </trkpt>
      <trkpt lat="44.175091" lon="5.276095">
        <ele>1786.7</ele>
        <time>2020-05-29T21:25:24Z</time>
      </trkpt>
      <trkpt lat="44.175037" lon="5.276085">
        <ele>1787.3</ele>
        <time>2020-05-29T21:25:26Z</time>
      </trkpt>
      <trkpt lat="44.174999" lon="5.276078">
        <ele>1787.7</ele>
        <time>2020-05-29T21:25:27Z</time>
      </trkpt>
      <trkpt lat="44.174946" lon="5.276068">
        <ele>1788.3</ele>
        <time>2020-05-29T21:25:28Z</time>
      </trkpt>
      <trkpt lat="44.174908" lon="5.276057">
        <ele>1788.8</ele>
        <time>2020-05-29T21:25:29Z</time>
      </trkpt>
      <trkpt lat="44.17487" lon="5.276042">
        <ele>1789.2</ele>
        <time>2020-05-29T21:25:30Z</time>
      </trkpt>
      <trkpt lat="44.174831" lon="5.27602">
        <ele>1789.7</ele>
        <time>2020-05-29T21:25:31Z</time>
      </trkpt>
      <trkpt lat="44.174797" lon="5.275998">
        <ele>1790.1</ele>
        <time>2020-05-29T21:25:32Z</time>
      </trkpt>
      <trkpt lat="44.174763" lon="5.27597">
        <ele>1790.5</ele>
        <time>2020-05-29T21:25:33Z</time>
      </trkpt>
      <trkpt lat="44.174725" lon="5.275935">
        <ele>1791</ele>
        <time>2020-05-29T21:25:34Z</time>
      </trkpt>
      <trkpt lat="44.174686" lon="5.275897">
        <ele>1791.6</ele>
        <time>2020-05-29T21:25:35Z</time>
      </trkpt>
      <trkpt lat="44.174644" lon="5.275858">
        <ele>1792.2</ele>
        <time>2020-05-29T21:25:36Z</time>
      </trkpt>
      <trkpt lat="44.174606" lon="5.275816">
        <ele>1792.8</ele>
        <time>2020-05-29T21:25:38Z</time>
      </trkpt>
      <trkpt lat="44.174576" lon="5.275778">
        <ele>1793.3</ele>
        <time>2020-05-29T21:25:39Z</time>
      </trkpt>
      <trkpt lat="44.174541" lon="5.275731">
        <ele>1793.8</ele>
        <time>2020-05-29T21:25:40Z</time>
      </trkpt>
      <trkpt lat="44.174511" lon="5.275693">
        <ele>1794.3</ele>
        <time>2020-05-29T21:25:41Z</time>
      </trkpt>
      <trkpt lat="44.17448" lon="5.275649">
        <ele>1794.8</ele>
        <time>2020-05-29T21:25:42Z</time>
      </trkpt>
      <trkpt lat="44.174454" lon="5.275603">
        <ele>1795.3</ele>
        <time>2020-05-29T21:25:43Z</time>
      </trkpt>
      <trkpt lat="44.174423" lon="5.275556">
        <ele>1795.8</ele>
        <time>2020-05-29T21:25:44Z</time>
      </trkpt>
      <trkpt lat="44.174385" lon="5.275505">
        <ele>1796.4</ele>
        <time>2020-05-29T21:25:45Z</time>
      </trkpt>
      <trkpt lat="44.174343" lon="5.275451">
        <ele>1797</ele>
        <time>2020-05-29T21:25:46Z</time>
      </trkpt>
      <trkpt lat="44.174297" lon="5.275398">
        <ele>1797.6</ele>
        <time>2020-05-29T21:25:48Z</time>
      </trkpt>
      <trkpt lat="44.174255" lon="5.275349">
        <ele>1798.2</ele>
        <time>2020-05-29T21:25:49Z</time>
      </trkpt>
      <trkpt lat="44.174213" lon="5.2753">
        <ele>1798.7</ele>
        <time>2020-05-29T21:25:50Z</time>
      </trkpt>
      <trkpt lat="44.174179" lon="5.27526">
        <ele>1799.2</ele>
        <time>2020-05-29T21:25:51Z</time>
      </trkpt>
      <trkpt lat="44.174137" lon="5.275214">
        <ele>1799.7</ele>
        <time>2020-05-29T21:25:52Z</time>
      </trkpt>
      <trkpt lat="44.174099" lon="5.275164">
        <ele>1800.2</ele>
        <time>2020-05-29T21:25:53Z</time>
      </trkpt>
      <trkpt lat="44.174065" lon="5.275114">
        <ele>1800.8</ele>
        <time>2020-05-29T21:25:55Z</time>
      </trkpt>
      <trkpt lat="44.17403" lon="5.275064">
        <ele>1801.3</ele>
        <time>2020-05-29T21:25:56Z</time>
      </trkpt>
      <trkpt lat="44.174" lon="5.275007">
        <ele>1801.8</ele>
        <time>2020-05-29T21:25:57Z</time>
      </trkpt>
      <trkpt lat="44.173981" lon="5.27496">
        <ele>1802.2</ele>
        <time>2020-05-29T21:25:58Z</time>
      </trkpt>
      <trkpt lat="44.173954" lon="5.274905">
        <ele>1802.7</ele>
        <time>2020-05-29T21:25:59Z</time>
      </trkpt>
      <trkpt lat="44.173935" lon="5.27485">
        <ele>1803.1</ele>
        <time>2020-05-29T21:26:00Z</time>
      </trkpt>
      <trkpt lat="44.173912" lon="5.274791">
        <ele>1803.6</ele>
        <time>2020-05-29T21:26:02Z</time>
      </trkpt>
      <trkpt lat="44.173897" lon="5.274734">
        <ele>1804</ele>
        <time>2020-05-29T21:26:03Z</time>
      </trkpt>
      <trkpt lat="44.173881" lon="5.274685">
        <ele>1804.4</ele>
        <time>2020-05-29T21:26:04Z</time>
      </trkpt>
      <trkpt lat="44.173874" lon="5.274634">
        <ele>1804.7</ele>
        <time>2020-05-29T21:26:05Z</time>
      </trkpt>
      <trkpt lat="44.173862" lon="5.274574">
        <ele>1805.2</ele>
        <time>2020-05-29T21:26:06Z</time>
      </trkpt>
      <trkpt lat="44.173855" lon="5.274514">
        <ele>1805.5</ele>
        <time>2020-05-29T21:26:07Z</time>
      </trkpt>
      <trkpt lat="44.173851" lon="5.274462">
        <ele>1805.9</ele>
        <time>2020-05-29T21:26:08Z</time>
      </trkpt>
      <trkpt lat="44.173843" lon="5.274401">
        <ele>1806.3</ele>
        <time>2020-05-29T21:26:09Z</time>
      </trkpt>
      <trkpt lat="44.17384" lon="5.274348">
        <ele>1806.6</ele>
        <time>2020-05-29T21:26:10Z</time>
      </trkpt>
      <trkpt lat="44.173836" lon="5.274295">
        <ele>1806.9</ele>
        <time>2020-05-29T21:26:11Z</time>
      </trkpt>
      <trkpt lat="44.173832" lon="5.274241">
        <ele>1807.2</ele>
        <time>2020-05-29T21:26:12Z</time>
      </trkpt>
      <trkpt lat="44.173828" lon="5.274177">
        <ele>1807.6</ele>
        <time>2020-05-29T21:26:14Z</time>
      </trkpt>
      <trkpt lat="44.173828" lon="5.274121">
        <ele>1807.8</ele>
        <time>2020-05-29T21:26:15Z</time>
      </trkpt>
      <trkpt lat="44.173824" lon="5.274051">
        <ele>1808.2</ele>
        <time>2020-05-29T21:26:16Z</time>
      </trkpt>
      <trkpt lat="44.173824" lon="5.273978">
        <ele>1808.5</ele>
        <time>2020-05-29T21:26:17Z</time>
      </trkpt>
      <trkpt lat="44.173824" lon="5.273917">
        <ele>1808.8</ele>
        <time>2020-05-29T21:26:18Z</time>
      </trkpt>
      <trkpt lat="44.173824" lon="5.273841">
        <ele>1809.2</ele>
        <time>2020-05-29T21:26:19Z</time>
      </trkpt>
      <trkpt lat="44.17382" lon="5.273773">
        <ele>1809.4</ele>
        <time>2020-05-29T21:26:20Z</time>
      </trkpt>
      <trkpt lat="44.173824" lon="5.273695">
        <ele>1809.7</ele>
        <time>2020-05-29T21:26:21Z</time>
      </trkpt>
      <trkpt lat="44.173824" lon="5.273631">
        <ele>1810</ele>
        <time>2020-05-29T21:26:22Z</time>
      </trkpt>
      <trkpt lat="44.173824" lon="5.273563">
        <ele>1810.2</ele>
        <time>2020-05-29T21:26:23Z</time>
      </trkpt>
      <trkpt lat="44.173828" lon="5.273501">
        <ele>1810.4</ele>
        <time>2020-05-29T21:26:24Z</time>
      </trkpt>
      <trkpt lat="44.173832" lon="5.273439">
        <ele>1810.6</ele>
        <time>2020-05-29T21:26:25Z</time>
      </trkpt>
      <trkpt lat="44.173836" lon="5.273373">
        <ele>1810.9</ele>
        <time>2020-05-29T21:26:26Z</time>
      </trkpt>
      <trkpt lat="44.17384" lon="5.273296">
        <ele>1811.2</ele>
        <time>2020-05-29T21:26:28Z</time>
      </trkpt>
      <trkpt lat="44.173843" lon="5.273234">
        <ele>1811.4</ele>
        <time>2020-05-29T21:26:29Z</time>
      </trkpt>
      <trkpt lat="44.173847" lon="5.273159">
        <ele>1811.7</ele>
        <time>2020-05-29T21:26:30Z</time>
      </trkpt>
      <trkpt lat="44.173851" lon="5.273084">
        <ele>1812.1</ele>
        <time>2020-05-29T21:26:31Z</time>
      </trkpt>
      <trkpt lat="44.173855" lon="5.273011">
        <ele>1812.3</ele>
        <time>2020-05-29T21:26:32Z</time>
      </trkpt>
      <trkpt lat="44.173862" lon="5.272939">
        <ele>1812.6</ele>
        <time>2020-05-29T21:26:33Z</time>
      </trkpt>
      <trkpt lat="44.17387" lon="5.272874">
        <ele>1812.8</ele>
        <time>2020-05-29T21:26:35Z</time>
      </trkpt>
      <trkpt lat="44.173878" lon="5.272817">
        <ele>1813</ele>
        <time>2020-05-29T21:26:36Z</time>
      </trkpt>
      <trkpt lat="44.173885" lon="5.27276">
        <ele>1813.2</ele>
        <time>2020-05-29T21:26:37Z</time>
      </trkpt>
      <trkpt lat="44.173889" lon="5.272703">
        <ele>1813.3</ele>
        <time>2020-05-29T21:26:38Z</time>
      </trkpt>
      <trkpt lat="44.173893" lon="5.272632">
        <ele>1813.4</ele>
        <time>2020-05-29T21:26:39Z</time>
      </trkpt>
      <trkpt lat="44.173885" lon="5.272562">
        <ele>1813.5</ele>
        <time>2020-05-29T21:26:40Z</time>
      </trkpt>
      <trkpt lat="44.173878" lon="5.272503">
        <ele>1813.6</ele>
        <time>2020-05-29T21:26:41Z</time>
      </trkpt>
      <trkpt lat="44.173843" lon="5.272438">
        <ele>1813.8</ele>
        <time>2020-05-29T21:26:42Z</time>
      </trkpt>
      <trkpt lat="44.173794" lon="5.272391">
        <ele>1814</ele>
        <time>2020-05-29T21:26:43Z</time>
      </trkpt>
      <trkpt lat="44.173737" lon="5.272355">
        <ele>1814.2</ele>
        <time>2020-05-29T21:26:45Z</time>
      </trkpt>
      <trkpt lat="44.173676" lon="5.272338">
        <ele>1814.4</ele>
        <time>2020-05-29T21:26:46Z</time>
      </trkpt>
      <trkpt lat="44.173622" lon="5.272346">
        <ele>1814.6</ele>
        <time>2020-05-29T21:26:47Z</time>
      </trkpt>
      <trkpt lat="44.173576" lon="5.272372">
        <ele>1814.8</ele>
        <time>2020-05-29T21:26:48Z</time>
      </trkpt>
      <trkpt lat="44.173534" lon="5.272408">
        <ele>1815</ele>
        <time>2020-05-29T21:26:49Z</time>
      </trkpt>
      <trkpt lat="44.173492" lon="5.272461">
        <ele>1815.1</ele>
        <time>2020-05-29T21:26:50Z</time>
      </trkpt>
      <trkpt lat="44.173466" lon="5.272517">
        <ele>1815.2</ele>
        <time>2020-05-29T21:26:51Z</time>
      </trkpt>
      <trkpt lat="44.17345" lon="5.272586">
        <ele>1815.2</ele>
        <time>2020-05-29T21:26:52Z</time>
      </trkpt>
      <trkpt lat="44.173443" lon="5.272669">
        <ele>1815.6</ele>
        <time>2020-05-29T21:26:53Z</time>
      </trkpt>
      <trkpt lat="44.173439" lon="5.272742">
        <ele>1815.9</ele>
        <time>2020-05-29T21:26:54Z</time>
      </trkpt>
      <trkpt lat="44.173439" lon="5.272817">
        <ele>1816.3</ele>
        <time>2020-05-29T21:26:55Z</time>
      </trkpt>
      <trkpt lat="44.173439" lon="5.272892">
        <ele>1816.7</ele>
        <time>2020-05-29T21:26:56Z</time>
      </trkpt>
      <trkpt lat="44.173443" lon="5.272986">
        <ele>1817.2</ele>
        <time>2020-05-29T21:26:57Z</time>
      </trkpt>
      <trkpt lat="44.173443" lon="5.273067">
        <ele>1817.6</ele>
        <time>2020-05-29T21:26:58Z</time>
      </trkpt>
      <trkpt lat="44.173447" lon="5.273159">
        <ele>1818.1</ele>
        <time>2020-05-29T21:26:59Z</time>
      </trkpt>
      <trkpt lat="44.17345" lon="5.273249">
        <ele>1818.6</ele>
        <time>2020-05-29T21:27:00Z</time>
      </trkpt>
      <trkpt lat="44.173458" lon="5.273359">
        <ele>1819.2</ele>
        <time>2020-05-29T21:27:02Z</time>
      </trkpt>
      <trkpt lat="44.173466" lon="5.273471">
        <ele>1819.9</ele>
        <time>2020-05-29T21:27:03Z</time>
      </trkpt>
      <trkpt lat="44.173469" lon="5.273565">
        <ele>1820.5</ele>
        <time>2020-05-29T21:27:04Z</time>
      </trkpt>
      <trkpt lat="44.173473" lon="5.273678">
        <ele>1821.3</ele>
        <time>2020-05-29T21:27:05Z</time>
      </trkpt>
      <trkpt lat="44.173473" lon="5.273774">
        <ele>1822</ele>
        <time>2020-05-29T21:27:06Z</time>
      </trkpt>
      <trkpt lat="44.173473" lon="5.273867">
        <ele>1822.6</ele>
        <time>2020-05-29T21:27:07Z</time>
      </trkpt>
      <trkpt lat="44.173473" lon="5.273979">
        <ele>1823.4</ele>
        <time>2020-05-29T21:27:08Z</time>
      </trkpt>
      <trkpt lat="44.173473" lon="5.274085">
        <ele>1824.2</ele>
        <time>2020-05-29T21:27:09Z</time>
      </trkpt>
      <trkpt lat="44.173473" lon="5.274177">
        <ele>1824.9</ele>
        <time>2020-05-29T21:27:10Z</time>
      </trkpt>
      <trkpt lat="44.173473" lon="5.274285">
        <ele>1825.7</ele>
        <time>2020-05-29T21:27:12Z</time>
      </trkpt>
      <trkpt lat="44.173473" lon="5.274389">
        <ele>1826.5</ele>
        <time>2020-05-29T21:27:13Z</time>
      </trkpt>
      <trkpt lat="44.173473" lon="5.274496">
        <ele>1827.3</ele>
        <time>2020-05-29T21:27:14Z</time>
      </trkpt>
      <trkpt lat="44.173473" lon="5.274605">
        <ele>1828.1</ele>
        <time>2020-05-29T21:27:15Z</time>
      </trkpt>
      <trkpt lat="44.173477" lon="5.27471">
        <ele>1828.8</ele>
        <time>2020-05-29T21:27:16Z</time>
      </trkpt>
      <trkpt lat="44.173477" lon="5.274801">
        <ele>1829.5</ele>
        <time>2020-05-29T21:27:17Z</time>
      </trkpt>
      <trkpt lat="44.173481" lon="5.274909">
        <ele>1830.2</ele>
        <time>2020-05-29T21:27:19Z</time>
      </trkpt>
      <trkpt lat="44.173485" lon="5.274995">
        <ele>1830.8</ele>
        <time>2020-05-29T21:27:20Z</time>
      </trkpt>
      <trkpt lat="44.173492" lon="5.275086">
        <ele>1831.5</ele>
        <time>2020-05-29T21:27:21Z</time>
      </trkpt>
      <trkpt lat="44.173508" lon="5.275169">
        <ele>1832.2</ele>
        <time>2020-05-29T21:27:22Z</time>
      </trkpt>
      <trkpt lat="44.173531" lon="5.275248">
        <ele>1832.9</ele>
        <time>2020-05-29T21:27:23Z</time>
      </trkpt>
      <trkpt lat="44.173553" lon="5.275347">
        <ele>1833.7</ele>
        <time>2020-05-29T21:27:24Z</time>
      </trkpt>
      <trkpt lat="44.173576" lon="5.275422">
        <ele>1834.3</ele>
        <time>2020-05-29T21:27:25Z</time>
      </trkpt>
      <trkpt lat="44.173599" lon="5.275511">
        <ele>1835</ele>
        <time>2020-05-29T21:27:26Z</time>
      </trkpt>
      <trkpt lat="44.173622" lon="5.27558">
        <ele>1835.6</ele>
        <time>2020-05-29T21:27:27Z</time>
      </trkpt>
      <trkpt lat="44.173653" lon="5.275669">
        <ele>1836.4</ele>
        <time>2020-05-29T21:27:28Z</time>
      </trkpt>
      <trkpt lat="44.173676" lon="5.275741">
        <ele>1837</ele>
        <time>2020-05-29T21:27:29Z</time>
      </trkpt>
      <trkpt lat="44.173706" lon="5.275829">
        <ele>1837.8</ele>
        <time>2020-05-29T21:27:30Z</time>
      </trkpt>
      <trkpt lat="44.17374" lon="5.275916">
        <ele>1838.6</ele>
        <time>2020-05-29T21:27:32Z</time>
      </trkpt>
      <trkpt lat="44.173767" lon="5.275988">
        <ele>1839.2</ele>
        <time>2020-05-29T21:27:33Z</time>
      </trkpt>
      <trkpt lat="44.173798" lon="5.276071">
        <ele>1840</ele>
        <time>2020-05-29T21:27:34Z</time>
      </trkpt>
      <trkpt lat="44.173828" lon="5.276144">
        <ele>1840.8</ele>
        <time>2020-05-29T21:27:35Z</time>
      </trkpt>
      <trkpt lat="44.173851" lon="5.276203">
        <ele>1841.3</ele>
        <time>2020-05-29T21:27:36Z</time>
      </trkpt>
      <trkpt lat="44.173878" lon="5.276265">
        <ele>1841.9</ele>
        <time>2020-05-29T21:27:37Z</time>
      </trkpt>
      <trkpt lat="44.173901" lon="5.276323">
        <ele>1842.5</ele>
        <time>2020-05-29T21:27:38Z</time>
      </trkpt>
      <trkpt lat="44.173923" lon="5.276378">
        <ele>1842.9</ele>
        <time>2020-05-29T21:27:39Z</time>
      </trkpt>
      <trkpt lat="44.17395" lon="5.276442">
        <ele>1843.5</ele>
        <time>2020-05-29T21:27:40Z</time>
      </trkpt>
      <trkpt lat="44.173973" lon="5.276494">
        <ele>1844</ele>
        <time>2020-05-29T21:27:41Z</time>
      </trkpt>
      <trkpt lat="44.173996" lon="5.276546">
        <ele>1844.5</ele>
        <time>2020-05-29T21:27:42Z</time>
      </trkpt>
      <trkpt lat="44.174023" lon="5.276596">
        <ele>1845</ele>
        <time>2020-05-29T21:27:43Z</time>
      </trkpt>
      <trkpt lat="44.174046" lon="5.276646">
        <ele>1845.5</ele>
        <time>2020-05-29T21:27:44Z</time>
      </trkpt>
      <trkpt lat="44.174076" lon="5.276701">
        <ele>1846</ele>
        <time>2020-05-29T21:27:45Z</time>
      </trkpt>
      <trkpt lat="44.174103" lon="5.276753">
        <ele>1846.6</ele>
        <time>2020-05-29T21:27:46Z</time>
      </trkpt>
      <trkpt lat="44.174133" lon="5.276812">
        <ele>1847.1</ele>
        <time>2020-05-29T21:27:47Z</time>
      </trkpt>
      <trkpt lat="44.17416" lon="5.276859">
        <ele>1847.6</ele>
        <time>2020-05-29T21:27:48Z</time>
      </trkpt>
      <trkpt lat="44.174198" lon="5.276915">
        <ele>1848.2</ele>
        <time>2020-05-29T21:27:50Z</time>
      </trkpt>
      <trkpt lat="44.174225" lon="5.276956">
        <ele>1848.6</ele>
        <time>2020-05-29T21:27:51Z</time>
      </trkpt>
      <trkpt lat="44.174267" lon="5.277011">
        <ele>1849.2</ele>
        <time>2020-05-29T21:27:52Z</time>
      </trkpt>
      <trkpt lat="44.174309" lon="5.277068">
        <ele>1849.7</ele>
        <time>2020-05-29T21:27:53Z</time>
      </trkpt>
      <trkpt lat="44.174343" lon="5.277111">
        <ele>1850.2</ele>
        <time>2020-05-29T21:27:54Z</time>
      </trkpt>
      <trkpt lat="44.174389" lon="5.277165">
        <ele>1850.8</ele>
        <time>2020-05-29T21:27:55Z</time>
      </trkpt>
      <trkpt lat="44.174435" lon="5.277219">
        <ele>1851.5</ele>
        <time>2020-05-29T21:27:56Z</time>
      </trkpt>
      <trkpt lat="44.174477" lon="5.277268">
        <ele>1852.1</ele>
        <time>2020-05-29T21:27:58Z</time>
      </trkpt>
      <trkpt lat="44.174515" lon="5.277311">
        <ele>1852.6</ele>
        <time>2020-05-29T21:27:59Z</time>
      </trkpt>
      <trkpt lat="44.174553" lon="5.277352">
        <ele>1853.2</ele>
        <time>2020-05-29T21:28:00Z</time>
      </trkpt>
      <trkpt lat="44.174587" lon="5.277391">
        <ele>1853.7</ele>
        <time>2020-05-29T21:28:01Z</time>
      </trkpt>
      <trkpt lat="44.174629" lon="5.277435">
        <ele>1854.3</ele>
        <time>2020-05-29T21:28:02Z</time>
      </trkpt>
      <trkpt lat="44.174671" lon="5.277482">
        <ele>1854.9</ele>
        <time>2020-05-29T21:28:03Z</time>
      </trkpt>
      <trkpt lat="44.174709" lon="5.277528">
        <ele>1855.5</ele>
        <time>2020-05-29T21:28:04Z</time>
      </trkpt>
      <trkpt lat="44.174751" lon="5.277576">
        <ele>1856.1</ele>
        <time>2020-05-29T21:28:05Z</time>
      </trkpt>
      <trkpt lat="44.174793" lon="5.277629">
        <ele>1856.7</ele>
        <time>2020-05-29T21:28:07Z</time>
      </trkpt>
      <trkpt lat="44.174835" lon="5.277679">
        <ele>1857.3</ele>
        <time>2020-05-29T21:28:08Z</time>
      </trkpt>
      <trkpt lat="44.174877" lon="5.277734">
        <ele>1858</ele>
        <time>2020-05-29T21:28:09Z</time>
      </trkpt>
      <trkpt lat="44.174919" lon="5.27779">
        <ele>1858.6</ele>
        <time>2020-05-29T21:28:10Z</time>
      </trkpt>
      <trkpt lat="44.174957" lon="5.277843">
        <ele>1859.2</ele>
        <time>2020-05-29T21:28:11Z</time>
      </trkpt>
      <trkpt lat="44.174992" lon="5.277901">
        <ele>1859.8</ele>
        <time>2020-05-29T21:28:13Z</time>
      </trkpt>
      <trkpt lat="44.175014" lon="5.277947">
        <ele>1860.2</ele>
        <time>2020-05-29T21:28:14Z</time>
      </trkpt>
      <trkpt lat="44.175041" lon="5.278014">
        <ele>1860.9</ele>
        <time>2020-05-29T21:28:15Z</time>
      </trkpt>
      <trkpt lat="44.175064" lon="5.278084">
        <ele>1861.5</ele>
        <time>2020-05-29T21:28:16Z</time>
      </trkpt>
      <trkpt lat="44.175091" lon="5.278155">
        <ele>1862.2</ele>
        <time>2020-05-29T21:28:17Z</time>
      </trkpt>
      <trkpt lat="44.175106" lon="5.278227">
        <ele>1862.9</ele>
        <time>2020-05-29T21:28:18Z</time>
      </trkpt>
      <trkpt lat="44.175117" lon="5.278292">
        <ele>1863.4</ele>
        <time>2020-05-29T21:28:19Z</time>
      </trkpt>
      <trkpt lat="44.175129" lon="5.278367">
        <ele>1864.1</ele>
        <time>2020-05-29T21:28:21Z</time>
      </trkpt>
      <trkpt lat="44.17514" lon="5.27844">
        <ele>1864.7</ele>
        <time>2020-05-29T21:28:22Z</time>
      </trkpt>
      <trkpt lat="44.175148" lon="5.278508">
        <ele>1865.2</ele>
        <time>2020-05-29T21:28:23Z</time>
      </trkpt>
      <trkpt lat="44.175156" lon="5.278575">
        <ele>1865.7</ele>
        <time>2020-05-29T21:28:24Z</time>
      </trkpt>
      <trkpt lat="44.175163" lon="5.278655">
        <ele>1866.4</ele>
        <time>2020-05-29T21:28:25Z</time>
      </trkpt>
      <trkpt lat="44.175171" lon="5.278735">
        <ele>1867</ele>
        <time>2020-05-29T21:28:26Z</time>
      </trkpt>
      <trkpt lat="44.175175" lon="5.278819">
        <ele>1867.5</ele>
        <time>2020-05-29T21:28:27Z</time>
      </trkpt>
      <trkpt lat="44.175175" lon="5.278884">
        <ele>1867.9</ele>
        <time>2020-05-29T21:28:28Z</time>
      </trkpt>
      <trkpt lat="44.175175" lon="5.278969">
        <ele>1868.2</ele>
        <time>2020-05-29T21:28:30Z</time>
      </trkpt>
      <trkpt lat="44.175175" lon="5.279048">
        <ele>1868.6</ele>
        <time>2020-05-29T21:28:31Z</time>
      </trkpt>
      <trkpt lat="44.175175" lon="5.279127">
        <ele>1869</ele>
        <time>2020-05-29T21:28:32Z</time>
      </trkpt>
      <trkpt lat="44.175178" lon="5.279201">
        <ele>1869.4</ele>
        <time>2020-05-29T21:28:33Z</time>
      </trkpt>
      <trkpt lat="44.175178" lon="5.279261">
        <ele>1869.8</ele>
        <time>2020-05-29T21:28:34Z</time>
      </trkpt>
      <trkpt lat="44.175175" lon="5.279334">
        <ele>1870.3</ele>
        <time>2020-05-29T21:28:35Z</time>
      </trkpt>
      <trkpt lat="44.175175" lon="5.279393">
        <ele>1870.7</ele>
        <time>2020-05-29T21:28:36Z</time>
      </trkpt>
      <trkpt lat="44.175167" lon="5.279454">
        <ele>1871.2</ele>
        <time>2020-05-29T21:28:37Z</time>
      </trkpt>
      <trkpt lat="44.175163" lon="5.279518">
        <ele>1871.6</ele>
        <time>2020-05-29T21:28:38Z</time>
      </trkpt>
      <trkpt lat="44.175156" lon="5.279578">
        <ele>1872</ele>
        <time>2020-05-29T21:28:39Z</time>
      </trkpt>
      <trkpt lat="44.175148" lon="5.279639">
        <ele>1872.4</ele>
        <time>2020-05-29T21:28:40Z</time>
      </trkpt>
      <trkpt lat="44.175136" lon="5.279703">
        <ele>1872.8</ele>
        <time>2020-05-29T21:28:41Z</time>
      </trkpt>
      <trkpt lat="44.175129" lon="5.279762">
        <ele>1873.2</ele>
        <time>2020-05-29T21:28:42Z</time>
      </trkpt>
      <trkpt lat="44.175117" lon="5.27982">
        <ele>1873.5</ele>
        <time>2020-05-29T21:28:43Z</time>
      </trkpt>
      <trkpt lat="44.175106" lon="5.279889">
        <ele>1873.9</ele>
        <time>2020-05-29T21:28:45Z</time>
      </trkpt>
      <trkpt lat="44.175095" lon="5.279944">
        <ele>1874.2</ele>
        <time>2020-05-29T21:28:46Z</time>
      </trkpt>
      <trkpt lat="44.175079" lon="5.280011">
        <ele>1874.5</ele>
        <time>2020-05-29T21:28:47Z</time>
      </trkpt>
      <trkpt lat="44.175064" lon="5.28007">
        <ele>1874.8</ele>
        <time>2020-05-29T21:28:48Z</time>
      </trkpt>
      <trkpt lat="44.175045" lon="5.280143">
        <ele>1875.1</ele>
        <time>2020-05-29T21:28:49Z</time>
      </trkpt>
      <trkpt lat="44.175022" lon="5.28022">
        <ele>1875.5</ele>
        <time>2020-05-29T21:28:50Z</time>
      </trkpt>
      <trkpt lat="44.175003" lon="5.280293">
        <ele>1875.7</ele>
        <time>2020-05-29T21:28:51Z</time>
      </trkpt>
      <trkpt lat="44.174976" lon="5.28036">
        <ele>1876</ele>
        <time>2020-05-29T21:28:53Z</time>
      </trkpt>
      <trkpt lat="44.174942" lon="5.280405">
        <ele>1876.1</ele>
        <time>2020-05-29T21:28:54Z</time>
      </trkpt>
      <trkpt lat="44.174877" lon="5.280407">
        <ele>1876.2</ele>
        <time>2020-05-29T21:28:55Z</time>
      </trkpt>
      <trkpt lat="44.174801" lon="5.280365">
        <ele>1882.1</ele>
        <time>2020-05-29T21:28:56Z</time>
      </trkpt>
      <trkpt lat="44.174751" lon="5.280299">
        <ele>1884.8</ele>
        <time>2020-05-29T21:28:57Z</time>
      </trkpt>
      <trkpt lat="44.174709" lon="5.28022">
        <ele>1886.5</ele>
        <time>2020-05-29T21:28:58Z</time>
      </trkpt>
      <trkpt lat="44.174671" lon="5.280126">
        <ele>1887.9</ele>
        <time>2020-05-29T21:28:59Z</time>
      </trkpt>
      <trkpt lat="44.174637" lon="5.280044">
        <ele>1889.2</ele>
        <time>2020-05-29T21:29:00Z</time>
      </trkpt>
      <trkpt lat="44.174599" lon="5.279963">
        <ele>1890.6</ele>
        <time>2020-05-29T21:29:01Z</time>
      </trkpt>
      <trkpt lat="44.174564" lon="5.279889">
        <ele>1891.9</ele>
        <time>2020-05-29T21:29:02Z</time>
      </trkpt>
      <trkpt lat="44.174519" lon="5.279804">
        <ele>1893.4</ele>
        <time>2020-05-29T21:29:03Z</time>
      </trkpt>
      <trkpt lat="44.174477" lon="5.279734">
        <ele>1894.8</ele>
        <time>2020-05-29T21:29:04Z</time>
      </trkpt>
      <trkpt lat="44.174438" lon="5.279683">
        <ele>1895.7</ele>
        <time>2020-05-29T21:29:05Z</time>
      </trkpt>
      <trkpt lat="44.1744" lon="5.279639">
        <ele>1896.5</ele>
        <time>2020-05-29T21:29:06Z</time>
      </trkpt>
      <trkpt lat="44.174351" lon="5.279591">
        <ele>1897.3</ele>
        <time>2020-05-29T21:29:08Z</time>
      </trkpt>
      <trkpt lat="44.174309" lon="5.279553">
        <ele>1897.5</ele>
        <time>2020-05-29T21:29:09Z</time>
      </trkpt>
      <trkpt lat="44.174267" lon="5.279514">
        <ele>1897.7</ele>
        <time>2020-05-29T21:29:10Z</time>
      </trkpt>
      <trkpt lat="44.174217" lon="5.279467">
        <ele>1898.1</ele>
        <time>2020-05-29T21:29:11Z</time>
      </trkpt>
      <trkpt lat="44.17416" lon="5.279418">
        <ele>1898.6</ele>
        <time>2020-05-29T21:29:12Z</time>
      </trkpt>
      <trkpt lat="44.174107" lon="5.27937">
        <ele>1899.1</ele>
        <time>2020-05-29T21:29:13Z</time>
      </trkpt>
      <trkpt lat="44.174053" lon="5.279323">
        <ele>1899.9</ele>
        <time>2020-05-29T21:29:14Z</time>
      </trkpt>
      <trkpt lat="44.174" lon="5.279274">
        <ele>1899.5</ele>
        <time>2020-05-29T21:29:16Z</time>
      </trkpt>
      <trkpt lat="44.17395" lon="5.279226">
        <ele>1899.1</ele>
        <time>2020-05-29T21:29:17Z</time>
      </trkpt>
      <trkpt lat="44.173908" lon="5.27918">
        <ele>1898.7</ele>
        <time>2020-05-29T21:29:18Z</time>
      </trkpt>
      <trkpt lat="44.173862" lon="5.27913">
        <ele>1898.3</ele>
        <time>2020-05-29T21:29:19Z</time>
      </trkpt>
      <trkpt lat="44.173813" lon="5.279073">
        <ele>1897.9</ele>
        <time>2020-05-29T21:29:20Z</time>
      </trkpt>
      <trkpt lat="44.173775" lon="5.279022">
        <ele>1897.5</ele>
        <time>2020-05-29T21:29:21Z</time>
      </trkpt>
      <trkpt lat="44.173729" lon="5.278962">
        <ele>1897.1</ele>
        <time>2020-05-29T21:29:22Z</time>
      </trkpt>
      <trkpt lat="44.173687" lon="5.278908">
        <ele>1896.3</ele>
        <time>2020-05-29T21:29:23Z</time>
      </trkpt>
      <trkpt lat="44.173653" lon="5.278855">
        <ele>1895.6</ele>
        <time>2020-05-29T21:29:24Z</time>
      </trkpt>
      <trkpt lat="44.173618" lon="5.278793">
        <ele>1894.9</ele>
        <time>2020-05-29T21:29:25Z</time>
      </trkpt>
      <trkpt lat="44.173595" lon="5.278722">
        <ele>1894</ele>
        <time>2020-05-29T21:29:26Z</time>
      </trkpt>
      <trkpt lat="44.173588" lon="5.27862">
        <ele>1892.9</ele>
        <time>2020-05-29T21:29:28Z</time>
      </trkpt>
      <trkpt lat="44.173592" lon="5.27851">
        <ele>1891.7</ele>
        <time>2020-05-29T21:29:29Z</time>
      </trkpt>
      <trkpt lat="44.173595" lon="5.278414">
        <ele>1890.6</ele>
        <time>2020-05-29T21:29:30Z</time>
      </trkpt>
      <trkpt lat="44.173595" lon="5.278288">
        <ele>1888.9</ele>
        <time>2020-05-29T21:29:31Z</time>
      </trkpt>
      <trkpt lat="44.173584" lon="5.278153">
        <ele>1887</ele>
        <time>2020-05-29T21:29:32Z</time>
      </trkpt>
      <trkpt lat="44.173573" lon="5.278028">
        <ele>1885.3</ele>
        <time>2020-05-29T21:29:33Z</time>
      </trkpt>
      <trkpt lat="44.173557" lon="5.277891">
        <ele>1883.5</ele>
        <time>2020-05-29T21:29:34Z</time>
      </trkpt>
      <trkpt lat="44.173538" lon="5.277709">
        <ele>1880.9</ele>
        <time>2020-05-29T21:29:35Z</time>
      </trkpt>
      <trkpt lat="44.173515" lon="5.277516">
        <ele>1877.4</ele>
        <time>2020-05-29T21:29:37Z</time>
      </trkpt>
      <trkpt lat="44.173496" lon="5.277365">
        <ele>1874.2</ele>
        <time>2020-05-29T21:29:38Z</time>
      </trkpt>
      <trkpt lat="44.173519" lon="5.277199">
        <ele>1870.1</ele>
        <time>2020-05-29T21:29:39Z</time>
      </trkpt>
      <trkpt lat="44.173458" lon="5.277071">
        <ele>1869</ele>
        <time>2020-05-29T21:29:40Z</time>
      </trkpt>
      <trkpt lat="44.173325" lon="5.277131">
        <ele>1871.2</ele>
        <time>2020-05-29T21:29:41Z</time>
      </trkpt>
      <trkpt lat="44.173275" lon="5.277272">
        <ele>1873</ele>
        <time>2020-05-29T21:29:42Z</time>
      </trkpt>
      <trkpt lat="44.173241" lon="5.277457">
        <ele>1875</ele>
        <time>2020-05-29T21:29:43Z</time>
      </trkpt>
      <trkpt lat="44.173187" lon="5.277608">
        <ele>1876</ele>
        <time>2020-05-29T21:29:44Z</time>
      </trkpt>
      <trkpt lat="44.173115" lon="5.277797">
        <ele>1877.3</ele>
        <time>2020-05-29T21:29:46Z</time>
      </trkpt>
      <trkpt lat="44.173038" lon="5.27798">
        <ele>1878.6</ele>
        <time>2020-05-29T21:29:47Z</time>
      </trkpt>
      <trkpt lat="44.172993" lon="5.278142">
        <ele>1879.8</ele>
        <time>2020-05-29T21:29:48Z</time>
      </trkpt>
      <trkpt lat="44.17297" lon="5.278343">
        <ele>1879.1</ele>
        <time>2020-05-29T21:29:49Z</time>
      </trkpt>
      <trkpt lat="44.172962" lon="5.278548">
        <ele>1876.8</ele>
        <time>2020-05-29T21:29:50Z</time>
      </trkpt>
      <trkpt lat="44.172962" lon="5.278719">
        <ele>1874.8</ele>
        <time>2020-05-29T21:29:51Z</time>
      </trkpt>
      <trkpt lat="44.172977" lon="5.278926">
        <ele>1872.1</ele>
        <time>2020-05-29T21:29:52Z</time>
      </trkpt>
      <trkpt lat="44.172997" lon="5.279101">
        <ele>1870</ele>
        <time>2020-05-29T21:29:53Z</time>
      </trkpt>
      <trkpt lat="44.17305" lon="5.279268">
        <ele>1867.8</ele>
        <time>2020-05-29T21:29:54Z</time>
      </trkpt>
      <trkpt lat="44.173126" lon="5.27943">
        <ele>1865.5</ele>
        <time>2020-05-29T21:29:55Z</time>
      </trkpt>
      <trkpt lat="44.173222" lon="5.279628">
        <ele>1862.8</ele>
        <time>2020-05-29T21:29:57Z</time>
      </trkpt>
      <trkpt lat="44.173321" lon="5.279821">
        <ele>1860.1</ele>
        <time>2020-05-29T21:29:58Z</time>
      </trkpt>
      <trkpt lat="44.17342" lon="5.280019">
        <ele>1857.1</ele>
        <time>2020-05-29T21:29:59Z</time>
      </trkpt>
      <trkpt lat="44.1735" lon="5.280181">
        <ele>1854.6</ele>
        <time>2020-05-29T21:30:00Z</time>
      </trkpt>
      <trkpt lat="44.173603" lon="5.280384">
        <ele>1851.5</ele>
        <time>2020-05-29T21:30:01Z</time>
      </trkpt>
      <trkpt lat="44.173691" lon="5.280551">
        <ele>1849</ele>
        <time>2020-05-29T21:30:02Z</time>
      </trkpt>
      <trkpt lat="44.173767" lon="5.280762">
        <ele>1846.2</ele>
        <time>2020-05-29T21:30:03Z</time>
      </trkpt>
      <trkpt lat="44.173817" lon="5.280983">
        <ele>1843.3</ele>
        <time>2020-05-29T21:30:05Z</time>
      </trkpt>
      <trkpt lat="44.173851" lon="5.281169">
        <ele>1840.9</ele>
        <time>2020-05-29T21:30:06Z</time>
      </trkpt>
      <trkpt lat="44.173897" lon="5.28139">
        <ele>1838</ele>
        <time>2020-05-29T21:30:07Z</time>
      </trkpt>
      <trkpt lat="44.173927" lon="5.281568">
        <ele>1835.8</ele>
        <time>2020-05-29T21:30:08Z</time>
      </trkpt>
      <trkpt lat="44.173977" lon="5.281774">
        <ele>1833</ele>
        <time>2020-05-29T21:30:09Z</time>
      </trkpt>
      <trkpt lat="44.17403" lon="5.281982">
        <ele>1830.1</ele>
        <time>2020-05-29T21:30:10Z</time>
      </trkpt>
      <trkpt lat="44.174068" lon="5.282163">
        <ele>1827.7</ele>
        <time>2020-05-29T21:30:11Z</time>
      </trkpt>
      <trkpt lat="44.174099" lon="5.282346">
        <ele>1825.2</ele>
        <time>2020-05-29T21:30:12Z</time>
      </trkpt>
      <trkpt lat="44.174133" lon="5.282569">
        <ele>1822.2</ele>
        <time>2020-05-29T21:30:13Z</time>
      </trkpt>
      <trkpt lat="44.174156" lon="5.282756">
        <ele>1819.8</ele>
        <time>2020-05-29T21:30:14Z</time>
      </trkpt>
      <trkpt lat="44.174183" lon="5.282978">
        <ele>1816.9</ele>
        <time>2020-05-29T21:30:16Z</time>
      </trkpt>
      <trkpt lat="44.174206" lon="5.283163">
        <ele>1814.6</ele>
        <time>2020-05-29T21:30:17Z</time>
      </trkpt>
      <trkpt lat="44.174229" lon="5.283389">
        <ele>1812</ele>
        <time>2020-05-29T21:30:18Z</time>
      </trkpt>
      <trkpt lat="44.174221" lon="5.283584">
        <ele>1810.4</ele>
        <time>2020-05-29T21:30:19Z</time>
      </trkpt>
      <trkpt lat="44.174187" lon="5.283719">
        <ele>1810</ele>
        <time>2020-05-29T21:30:20Z</time>
      </trkpt>
      <trkpt lat="44.174053" lon="5.283842">
        <ele>1809.7</ele>
        <time>2020-05-29T21:30:21Z</time>
      </trkpt>
      <trkpt lat="44.17387" lon="5.283895">
        <ele>1809</ele>
        <time>2020-05-29T21:30:22Z</time>
      </trkpt>
      <trkpt lat="44.173668" lon="5.283936">
        <ele>1807.6</ele>
        <time>2020-05-29T21:30:24Z</time>
      </trkpt>
      <trkpt lat="44.173454" lon="5.283965">
        <ele>1805.9</ele>
        <time>2020-05-29T21:30:25Z</time>
      </trkpt>
      <trkpt lat="44.173225" lon="5.283991">
        <ele>1804</ele>
        <time>2020-05-29T21:30:26Z</time>
      </trkpt>
      <trkpt lat="44.173031" lon="5.284013">
        <ele>1802.5</ele>
        <time>2020-05-29T21:30:27Z</time>
      </trkpt>
      <trkpt lat="44.17279" lon="5.284042">
        <ele>1800.8</ele>
        <time>2020-05-29T21:30:28Z</time>
      </trkpt>
      <trkpt lat="44.172584" lon="5.28407">
        <ele>1799.2</ele>
        <time>2020-05-29T21:30:29Z</time>
      </trkpt>
      <trkpt lat="44.172337" lon="5.284112">
        <ele>1797.4</ele>
        <time>2020-05-29T21:30:30Z</time>
      </trkpt>
      <trkpt lat="44.172127" lon="5.284153">
        <ele>1796</ele>
        <time>2020-05-29T21:30:31Z</time>
      </trkpt>
      <trkpt lat="44.171917" lon="5.2842">
        <ele>1794.6</ele>
        <time>2020-05-29T21:30:32Z</time>
      </trkpt>
      <trkpt lat="44.171665" lon="5.284264">
        <ele>1792.9</ele>
        <time>2020-05-29T21:30:34Z</time>
      </trkpt>
      <trkpt lat="44.171474" lon="5.284332">
        <ele>1791.7</ele>
        <time>2020-05-29T21:30:35Z</time>
      </trkpt>
      <trkpt lat="44.171307" lon="5.284393">
        <ele>1790.6</ele>
        <time>2020-05-29T21:30:36Z</time>
      </trkpt>
      <trkpt lat="44.171158" lon="5.284481">
        <ele>1789.5</ele>
        <time>2020-05-29T21:30:37Z</time>
      </trkpt>
      <trkpt lat="44.171005" lon="5.284626">
        <ele>1788.2</ele>
        <time>2020-05-29T21:30:38Z</time>
      </trkpt>
      <trkpt lat="44.170876" lon="5.284795">
        <ele>1787</ele>
        <time>2020-05-29T21:30:39Z</time>
      </trkpt>
      <trkpt lat="44.17078" lon="5.284919">
        <ele>1786.1</ele>
        <time>2020-05-29T21:30:40Z</time>
      </trkpt>
      <trkpt lat="44.170845" lon="5.28489">
        <ele>1786.6</ele>
        <time>2020-05-29T21:30:41Z</time>
      </trkpt>
      <trkpt lat="44.170853" lon="5.284881">
        <ele>1786.7</ele>
        <time>2020-05-29T21:30:42Z</time>
      </trkpt>
      <trkpt lat="44.17086" lon="5.284867">
        <ele>1786.7</ele>
        <time>2020-05-29T21:30:43Z</time>
      </trkpt>
      <trkpt lat="44.170876" lon="5.284844">
        <ele>1786.9</ele>
        <time>2020-05-29T21:30:44Z</time>
      </trkpt>
      <trkpt lat="44.170891" lon="5.284823">
        <ele>1787</ele>
        <time>2020-05-29T21:30:45Z</time>
      </trkpt>
      <trkpt lat="44.170902" lon="5.284805">
        <ele>1787.2</ele>
        <time>2020-05-29T21:30:46Z</time>
      </trkpt>
      <trkpt lat="44.170914" lon="5.284789">
        <ele>1787.3</ele>
        <time>2020-05-29T21:30:47Z</time>
      </trkpt>
      <trkpt lat="44.170925" lon="5.284772">
        <ele>1787.4</ele>
        <time>2020-05-29T21:30:48Z</time>
      </trkpt>
      <trkpt lat="44.170944" lon="5.284746">
        <ele>1787.6</ele>
        <time>2020-05-29T21:30:50Z</time>
      </trkpt>
      <trkpt lat="44.170959" lon="5.284725">
        <ele>1787.7</ele>
        <time>2020-05-29T21:30:51Z</time>
      </trkpt>
      <trkpt lat="44.170982" lon="5.284698">
        <ele>1788</ele>
        <time>2020-05-29T21:30:52Z</time>
      </trkpt>
      <trkpt lat="44.171001" lon="5.284672">
        <ele>1788.1</ele>
        <time>2020-05-29T21:30:53Z</time>
      </trkpt>
      <trkpt lat="44.171024" lon="5.284648">
        <ele>1788.4</ele>
        <time>2020-05-29T21:30:54Z</time>
      </trkpt>
      <trkpt lat="44.171055" lon="5.284619">
        <ele>1788.6</ele>
        <time>2020-05-29T21:30:55Z</time>
      </trkpt>
      <trkpt lat="44.171081" lon="5.284593">
        <ele>1788.8</ele>
        <time>2020-05-29T21:30:56Z</time>
      </trkpt>
      <trkpt lat="44.17112" lon="5.284557">
        <ele>1789.2</ele>
        <time>2020-05-29T21:30:57Z</time>
      </trkpt>
      <trkpt lat="44.17115" lon="5.284528">
        <ele>1789.4</ele>
        <time>2020-05-29T21:30:58Z</time>
      </trkpt>
      <trkpt lat="44.171181" lon="5.284502">
        <ele>1789.7</ele>
        <time>2020-05-29T21:30:59Z</time>
      </trkpt>
      <trkpt lat="44.171219" lon="5.284474">
        <ele>1789.9</ele>
        <time>2020-05-29T21:31:01Z</time>
      </trkpt>
      <trkpt lat="44.171246" lon="5.284458">
        <ele>1790.1</ele>
        <time>2020-05-29T21:31:02Z</time>
      </trkpt>
      <trkpt lat="44.171272" lon="5.28444">
        <ele>1790.3</ele>
        <time>2020-05-29T21:31:03Z</time>
      </trkpt>
      <trkpt lat="44.171299" lon="5.284429">
        <ele>1790.5</ele>
        <time>2020-05-29T21:31:04Z</time>
      </trkpt>
      <trkpt lat="44.171326" lon="5.284418">
        <ele>1790.7</ele>
        <time>2020-05-29T21:31:05Z</time>
      </trkpt>
      <trkpt lat="44.171329" lon="5.284417">
        <ele>1790.7</ele>
        <time>2020-05-29T21:31:06Z</time>
      </trkpt>
      <trkpt lat="44.171329" lon="5.284417">
        <ele>1790.7</ele>
        <time>2020-05-29T21:31:07Z</time>
      </trkpt>
      <trkpt lat="44.171329" lon="5.284417">
        <ele>1790.7</ele>
        <time>2020-05-29T21:31:09Z</time>
      </trkpt>
      <trkpt lat="44.171329" lon="5.284417">
        <ele>1790.7</ele>
        <time>2020-05-29T21:31:10Z</time>
      </trkpt>
      <trkpt lat="44.171329" lon="5.284417">
        <ele>1790.7</ele>
        <time>2020-05-29T21:31:11Z</time>
      </trkpt>
      <trkpt lat="44.171329" lon="5.284417">
        <ele>1790.7</ele>
        <time>2020-05-29T21:31:12Z</time>
      </trkpt>
      <trkpt lat="44.171329" lon="5.284417">
        <ele>1790.7</ele>
        <time>2020-05-29T21:31:13Z</time>
      </trkpt>
      <trkpt lat="44.171329" lon="5.284417">
        <ele>1790.7</ele>
        <time>2020-05-29T21:31:14Z</time>
      </trkpt>
      <trkpt lat="44.171329" lon="5.284417">
        <ele>1790.7</ele>
        <time>2020-05-29T21:31:15Z</time>
      </trkpt>
    </trkseg>
  </trk>
</gpx>